<?xml version="1.0" encoding="UTF-8" standalone="no" ?>
<gpx xmlns="http://www.topografix.com/GPX/1/1" xmlns:xsi="http://www.w3.org/2001/XMLSchema-instance" xsi:schemaLocation="http://www.topografix.com/GPX/1/1 http://www.topografix.com/GPX/1/1/gpx.xsd" version="1.1" creator="VisuGPX - https://www.visugpx.com">
  <metadata>
    <name>Grand tour du lac de Laprade</name>
  </metadata>
  <trk>
    <name><![CDATA[Grand tour du lac de Laprade_1]]></name>
    <trkseg>
      <trkpt lat="43.44303" lon="2.18917">
        <ele>716.7</ele>
        <time>2021-08-18T07:37:24Z</time>
      </trkpt>
      <trkpt lat="43.44302" lon="2.18915">
        <ele>720.6</ele>
        <time>2021-08-18T07:37:30Z</time>
      </trkpt>
      <trkpt lat="43.44303" lon="2.18914">
        <ele>720.8</ele>
        <time>2021-08-18T07:37:35Z</time>
      </trkpt>
      <trkpt lat="43.44305" lon="2.18913">
        <ele>721.6</ele>
        <time>2021-08-18T07:37:41Z</time>
      </trkpt>
      <trkpt lat="43.44305" lon="2.18912">
        <ele>722.9</ele>
        <time>2021-08-18T07:37:46Z</time>
      </trkpt>
      <trkpt lat="43.44306" lon="2.18912">
        <ele>720.7</ele>
        <time>2021-08-18T07:37:52Z</time>
      </trkpt>
      <trkpt lat="43.44306" lon="2.18912">
        <ele>720.1</ele>
        <time>2021-08-18T07:37:57Z</time>
      </trkpt>
      <trkpt lat="43.44306" lon="2.18912">
        <ele>720.8</ele>
        <time>2021-08-18T07:38:02Z</time>
      </trkpt>
      <trkpt lat="43.44306" lon="2.18912">
        <ele>721</ele>
        <time>2021-08-18T07:38:08Z</time>
      </trkpt>
      <trkpt lat="43.44306" lon="2.18912">
        <ele>721.4</ele>
        <time>2021-08-18T07:38:13Z</time>
      </trkpt>
      <trkpt lat="43.44302" lon="2.18924">
        <ele>719.7</ele>
        <time>2021-08-18T07:38:19Z</time>
      </trkpt>
      <trkpt lat="43.44302" lon="2.18924">
        <ele>721.5</ele>
        <time>2021-08-18T07:38:25Z</time>
      </trkpt>
      <trkpt lat="43.44302" lon="2.18924">
        <ele>719.1</ele>
        <time>2021-08-18T07:38:31Z</time>
      </trkpt>
      <trkpt lat="43.44302" lon="2.18924">
        <ele>718.2</ele>
        <time>2021-08-18T07:38:37Z</time>
      </trkpt>
      <trkpt lat="43.44302" lon="2.18924">
        <ele>718.8</ele>
        <time>2021-08-18T07:38:42Z</time>
      </trkpt>
      <trkpt lat="43.44302" lon="2.18924">
        <ele>719.9</ele>
        <time>2021-08-18T07:38:48Z</time>
      </trkpt>
      <trkpt lat="43.44302" lon="2.18924">
        <ele>719.6</ele>
        <time>2021-08-18T07:38:53Z</time>
      </trkpt>
      <trkpt lat="43.44302" lon="2.18923">
        <ele>719.8</ele>
        <time>2021-08-18T07:38:59Z</time>
      </trkpt>
      <trkpt lat="43.44303" lon="2.18921">
        <ele>716.5</ele>
        <time>2021-08-18T07:39:04Z</time>
      </trkpt>
      <trkpt lat="43.44303" lon="2.18919">
        <ele>716.9</ele>
        <time>2021-08-18T07:39:09Z</time>
      </trkpt>
      <trkpt lat="43.44304" lon="2.1892">
        <ele>716.5</ele>
        <time>2021-08-18T07:39:15Z</time>
      </trkpt>
      <trkpt lat="43.44304" lon="2.1892">
        <ele>714.4</ele>
        <time>2021-08-18T07:39:20Z</time>
      </trkpt>
      <trkpt lat="43.44304" lon="2.1892">
        <ele>715.4</ele>
        <time>2021-08-18T07:39:25Z</time>
      </trkpt>
      <trkpt lat="43.44302" lon="2.1892">
        <ele>716</ele>
        <time>2021-08-18T07:39:31Z</time>
      </trkpt>
      <trkpt lat="43.44302" lon="2.18918">
        <ele>715.2</ele>
        <time>2021-08-18T07:39:37Z</time>
      </trkpt>
      <trkpt lat="43.44303" lon="2.18922">
        <ele>715.1</ele>
        <time>2021-08-18T07:39:42Z</time>
      </trkpt>
      <trkpt lat="43.44305" lon="2.1893">
        <ele>713.5</ele>
        <time>2021-08-18T07:39:47Z</time>
      </trkpt>
      <trkpt lat="43.44317" lon="2.18933">
        <ele>713.6</ele>
        <time>2021-08-18T07:39:53Z</time>
      </trkpt>
      <trkpt lat="43.4433" lon="2.18935">
        <ele>713.5</ele>
        <time>2021-08-18T07:39:58Z</time>
      </trkpt>
      <trkpt lat="43.44348" lon="2.18938">
        <ele>713.6</ele>
        <time>2021-08-18T07:40:04Z</time>
      </trkpt>
      <trkpt lat="43.44365" lon="2.18945">
        <ele>713.7</ele>
        <time>2021-08-18T07:40:10Z</time>
      </trkpt>
      <trkpt lat="43.44381" lon="2.18954">
        <ele>713.7</ele>
        <time>2021-08-18T07:40:15Z</time>
      </trkpt>
      <trkpt lat="43.44399" lon="2.18963">
        <ele>713.7</ele>
        <time>2021-08-18T07:40:21Z</time>
      </trkpt>
      <trkpt lat="43.44411" lon="2.18954">
        <ele>713.7</ele>
        <time>2021-08-18T07:40:26Z</time>
      </trkpt>
      <trkpt lat="43.44419" lon="2.18939">
        <ele>713.8</ele>
        <time>2021-08-18T07:40:31Z</time>
      </trkpt>
      <trkpt lat="43.44432" lon="2.1892">
        <ele>713.8</ele>
        <time>2021-08-18T07:40:36Z</time>
      </trkpt>
      <trkpt lat="43.44448" lon="2.18895">
        <ele>713.8</ele>
        <time>2021-08-18T07:40:42Z</time>
      </trkpt>
      <trkpt lat="43.4447" lon="2.1887">
        <ele>688.5</ele>
        <time>2021-08-18T07:40:48Z</time>
      </trkpt>
      <trkpt lat="43.44487" lon="2.1885">
        <ele>688.3</ele>
        <time>2021-08-18T07:40:53Z</time>
      </trkpt>
      <trkpt lat="43.44492" lon="2.18826">
        <ele>685.5</ele>
        <time>2021-08-18T07:40:58Z</time>
      </trkpt>
      <trkpt lat="43.44501" lon="2.18815">
        <ele>687.6</ele>
        <time>2021-08-18T07:41:04Z</time>
      </trkpt>
      <trkpt lat="43.44506" lon="2.18823">
        <ele>683.2</ele>
        <time>2021-08-18T07:41:10Z</time>
      </trkpt>
      <trkpt lat="43.44514" lon="2.1885">
        <ele>682.1</ele>
        <time>2021-08-18T07:41:16Z</time>
      </trkpt>
      <trkpt lat="43.44522" lon="2.18882">
        <ele>680.4</ele>
        <time>2021-08-18T07:41:22Z</time>
      </trkpt>
      <trkpt lat="43.4453" lon="2.18918">
        <ele>683.7</ele>
        <time>2021-08-18T07:41:28Z</time>
      </trkpt>
      <trkpt lat="43.44535" lon="2.18947">
        <ele>688.4</ele>
        <time>2021-08-18T07:41:33Z</time>
      </trkpt>
      <trkpt lat="43.44535" lon="2.18981">
        <ele>689.7</ele>
        <time>2021-08-18T07:41:39Z</time>
      </trkpt>
      <trkpt lat="43.44535" lon="2.19015">
        <ele>691.4</ele>
        <time>2021-08-18T07:41:45Z</time>
      </trkpt>
      <trkpt lat="43.44534" lon="2.19051">
        <ele>693.5</ele>
        <time>2021-08-18T07:41:51Z</time>
      </trkpt>
      <trkpt lat="43.4453" lon="2.19085">
        <ele>695.5</ele>
        <time>2021-08-18T07:41:56Z</time>
      </trkpt>
      <trkpt lat="43.44526" lon="2.19137">
        <ele>696.7</ele>
        <time>2021-08-18T07:42:02Z</time>
      </trkpt>
      <trkpt lat="43.44522" lon="2.19193">
        <ele>697.2</ele>
        <time>2021-08-18T07:42:07Z</time>
      </trkpt>
      <trkpt lat="43.44516" lon="2.19245">
        <ele>695.5</ele>
        <time>2021-08-18T07:42:12Z</time>
      </trkpt>
      <trkpt lat="43.44507" lon="2.19292">
        <ele>695.6</ele>
        <time>2021-08-18T07:42:17Z</time>
      </trkpt>
      <trkpt lat="43.44499" lon="2.19331">
        <ele>694.8</ele>
        <time>2021-08-18T07:42:22Z</time>
      </trkpt>
      <trkpt lat="43.44491" lon="2.19369">
        <ele>695.9</ele>
        <time>2021-08-18T07:42:28Z</time>
      </trkpt>
      <trkpt lat="43.44484" lon="2.19399">
        <ele>698.2</ele>
        <time>2021-08-18T07:42:33Z</time>
      </trkpt>
      <trkpt lat="43.44478" lon="2.19434">
        <ele>701.9</ele>
        <time>2021-08-18T07:42:39Z</time>
      </trkpt>
      <trkpt lat="43.44473" lon="2.19463">
        <ele>704.1</ele>
        <time>2021-08-18T07:42:44Z</time>
      </trkpt>
      <trkpt lat="43.44467" lon="2.19497">
        <ele>704.7</ele>
        <time>2021-08-18T07:42:50Z</time>
      </trkpt>
      <trkpt lat="43.44461" lon="2.19523">
        <ele>704</ele>
        <time>2021-08-18T07:42:55Z</time>
      </trkpt>
      <trkpt lat="43.44454" lon="2.19555">
        <ele>703.3</ele>
        <time>2021-08-18T07:43:01Z</time>
      </trkpt>
      <trkpt lat="43.44447" lon="2.19586">
        <ele>706.9</ele>
        <time>2021-08-18T07:43:07Z</time>
      </trkpt>
      <trkpt lat="43.44441" lon="2.19614">
        <ele>715.4</ele>
        <time>2021-08-18T07:43:12Z</time>
      </trkpt>
      <trkpt lat="43.44435" lon="2.19645">
        <ele>715.4</ele>
        <time>2021-08-18T07:43:18Z</time>
      </trkpt>
      <trkpt lat="43.4443" lon="2.19672">
        <ele>715.5</ele>
        <time>2021-08-18T07:43:23Z</time>
      </trkpt>
      <trkpt lat="43.44424" lon="2.19704">
        <ele>715.5</ele>
        <time>2021-08-18T07:43:29Z</time>
      </trkpt>
      <trkpt lat="43.44417" lon="2.19737">
        <ele>715.5</ele>
        <time>2021-08-18T07:43:35Z</time>
      </trkpt>
      <trkpt lat="43.4441" lon="2.19769">
        <ele>715.5</ele>
        <time>2021-08-18T07:43:41Z</time>
      </trkpt>
      <trkpt lat="43.44402" lon="2.19797">
        <ele>715.5</ele>
        <time>2021-08-18T07:43:47Z</time>
      </trkpt>
      <trkpt lat="43.44386" lon="2.19813">
        <ele>715.5</ele>
        <time>2021-08-18T07:43:52Z</time>
      </trkpt>
      <trkpt lat="43.44373" lon="2.19843">
        <ele>715.5</ele>
        <time>2021-08-18T07:43:58Z</time>
      </trkpt>
      <trkpt lat="43.44362" lon="2.19872">
        <ele>715.5</ele>
        <time>2021-08-18T07:44:03Z</time>
      </trkpt>
      <trkpt lat="43.44355" lon="2.19912">
        <ele>720</ele>
        <time>2021-08-18T07:44:09Z</time>
      </trkpt>
      <trkpt lat="43.44366" lon="2.19943">
        <ele>721.6</ele>
        <time>2021-08-18T07:44:14Z</time>
      </trkpt>
      <trkpt lat="43.44384" lon="2.19969">
        <ele>721.5</ele>
        <time>2021-08-18T07:44:20Z</time>
      </trkpt>
      <trkpt lat="43.44402" lon="2.19992">
        <ele>717.7</ele>
        <time>2021-08-18T07:44:26Z</time>
      </trkpt>
      <trkpt lat="43.44411" lon="2.20018">
        <ele>714.3</ele>
        <time>2021-08-18T07:44:31Z</time>
      </trkpt>
      <trkpt lat="43.44427" lon="2.20054">
        <ele>713.4</ele>
        <time>2021-08-18T07:44:37Z</time>
      </trkpt>
      <trkpt lat="43.44442" lon="2.2007">
        <ele>710.7</ele>
        <time>2021-08-18T07:44:42Z</time>
      </trkpt>
      <trkpt lat="43.44456" lon="2.20105">
        <ele>710.2</ele>
        <time>2021-08-18T07:44:48Z</time>
      </trkpt>
      <trkpt lat="43.44466" lon="2.20134">
        <ele>710.7</ele>
        <time>2021-08-18T07:44:53Z</time>
      </trkpt>
      <trkpt lat="43.44487" lon="2.20171">
        <ele>709.3</ele>
        <time>2021-08-18T07:44:59Z</time>
      </trkpt>
      <trkpt lat="43.44506" lon="2.20204">
        <ele>709.6</ele>
        <time>2021-08-18T07:45:04Z</time>
      </trkpt>
      <trkpt lat="43.44528" lon="2.2025">
        <ele>711.8</ele>
        <time>2021-08-18T07:45:10Z</time>
      </trkpt>
      <trkpt lat="43.44543" lon="2.20286">
        <ele>712.3</ele>
        <time>2021-08-18T07:45:15Z</time>
      </trkpt>
      <trkpt lat="43.44564" lon="2.20313">
        <ele>712.3</ele>
        <time>2021-08-18T07:45:20Z</time>
      </trkpt>
      <trkpt lat="43.44592" lon="2.20344">
        <ele>715.4</ele>
        <time>2021-08-18T07:45:26Z</time>
      </trkpt>
      <trkpt lat="43.44619" lon="2.20377">
        <ele>719.5</ele>
        <time>2021-08-18T07:45:31Z</time>
      </trkpt>
      <trkpt lat="43.44618" lon="2.20421">
        <ele>724.5</ele>
        <time>2021-08-18T07:45:36Z</time>
      </trkpt>
      <trkpt lat="43.4462" lon="2.20467">
        <ele>728.7</ele>
        <time>2021-08-18T07:45:42Z</time>
      </trkpt>
      <trkpt lat="43.44653" lon="2.20483">
        <ele>732.5</ele>
        <time>2021-08-18T07:45:48Z</time>
      </trkpt>
      <trkpt lat="43.44685" lon="2.20493">
        <ele>737.5</ele>
        <time>2021-08-18T07:45:53Z</time>
      </trkpt>
      <trkpt lat="43.44713" lon="2.20516">
        <ele>739.9</ele>
        <time>2021-08-18T07:45:58Z</time>
      </trkpt>
      <trkpt lat="43.44742" lon="2.2055">
        <ele>741.1</ele>
        <time>2021-08-18T07:46:04Z</time>
      </trkpt>
      <trkpt lat="43.4477" lon="2.20582">
        <ele>742.8</ele>
        <time>2021-08-18T07:46:09Z</time>
      </trkpt>
      <trkpt lat="43.44796" lon="2.20622">
        <ele>744.2</ele>
        <time>2021-08-18T07:46:15Z</time>
      </trkpt>
      <trkpt lat="43.44812" lon="2.20665">
        <ele>741.4</ele>
        <time>2021-08-18T07:46:21Z</time>
      </trkpt>
      <trkpt lat="43.44826" lon="2.207">
        <ele>741</ele>
        <time>2021-08-18T07:46:26Z</time>
      </trkpt>
      <trkpt lat="43.44857" lon="2.20718">
        <ele>740.1</ele>
        <time>2021-08-18T07:46:32Z</time>
      </trkpt>
      <trkpt lat="43.44884" lon="2.20759">
        <ele>740.6</ele>
        <time>2021-08-18T07:46:38Z</time>
      </trkpt>
      <trkpt lat="43.44901" lon="2.2081">
        <ele>740.2</ele>
        <time>2021-08-18T07:46:44Z</time>
      </trkpt>
      <trkpt lat="43.44922" lon="2.20855">
        <ele>743.1</ele>
        <time>2021-08-18T07:46:50Z</time>
      </trkpt>
      <trkpt lat="43.44947" lon="2.20878">
        <ele>740.1</ele>
        <time>2021-08-18T07:46:55Z</time>
      </trkpt>
      <trkpt lat="43.44973" lon="2.20898">
        <ele>740.2</ele>
        <time>2021-08-18T07:47:00Z</time>
      </trkpt>
      <trkpt lat="43.45006" lon="2.20933">
        <ele>738.8</ele>
        <time>2021-08-18T07:47:06Z</time>
      </trkpt>
      <trkpt lat="43.45038" lon="2.2097">
        <ele>738.6</ele>
        <time>2021-08-18T07:47:12Z</time>
      </trkpt>
      <trkpt lat="43.45059" lon="2.21011">
        <ele>741.7</ele>
        <time>2021-08-18T07:47:17Z</time>
      </trkpt>
      <trkpt lat="43.45064" lon="2.21065">
        <ele>742</ele>
        <time>2021-08-18T07:47:23Z</time>
      </trkpt>
      <trkpt lat="43.45074" lon="2.21105">
        <ele>745.1</ele>
        <time>2021-08-18T07:47:28Z</time>
      </trkpt>
      <trkpt lat="43.45096" lon="2.21137">
        <ele>747.2</ele>
        <time>2021-08-18T07:47:33Z</time>
      </trkpt>
      <trkpt lat="43.45125" lon="2.21168">
        <ele>749.7</ele>
        <time>2021-08-18T07:47:39Z</time>
      </trkpt>
      <trkpt lat="43.45152" lon="2.21202">
        <ele>753.4</ele>
        <time>2021-08-18T07:47:44Z</time>
      </trkpt>
      <trkpt lat="43.45178" lon="2.21252">
        <ele>755.9</ele>
        <time>2021-08-18T07:47:50Z</time>
      </trkpt>
      <trkpt lat="43.45188" lon="2.21296">
        <ele>758.3</ele>
        <time>2021-08-18T07:47:55Z</time>
      </trkpt>
      <trkpt lat="43.45189" lon="2.2135">
        <ele>759.1</ele>
        <time>2021-08-18T07:48:01Z</time>
      </trkpt>
      <trkpt lat="43.45189" lon="2.21389">
        <ele>761.4</ele>
        <time>2021-08-18T07:48:06Z</time>
      </trkpt>
      <trkpt lat="43.45225" lon="2.21394">
        <ele>761.7</ele>
        <time>2021-08-18T07:48:12Z</time>
      </trkpt>
      <trkpt lat="43.45259" lon="2.21401">
        <ele>760.8</ele>
        <time>2021-08-18T07:48:18Z</time>
      </trkpt>
      <trkpt lat="43.45289" lon="2.21428">
        <ele>761.3</ele>
        <time>2021-08-18T07:48:24Z</time>
      </trkpt>
      <trkpt lat="43.45314" lon="2.21445">
        <ele>763.3</ele>
        <time>2021-08-18T07:48:29Z</time>
      </trkpt>
      <trkpt lat="43.45345" lon="2.21474">
        <ele>762.7</ele>
        <time>2021-08-18T07:48:35Z</time>
      </trkpt>
      <trkpt lat="43.45375" lon="2.21512">
        <ele>760.5</ele>
        <time>2021-08-18T07:48:41Z</time>
      </trkpt>
      <trkpt lat="43.45404" lon="2.21551">
        <ele>761.8</ele>
        <time>2021-08-18T07:48:47Z</time>
      </trkpt>
      <trkpt lat="43.45424" lon="2.21582">
        <ele>762</ele>
        <time>2021-08-18T07:48:52Z</time>
      </trkpt>
      <trkpt lat="43.45426" lon="2.21615">
        <ele>759.9</ele>
        <time>2021-08-18T07:48:57Z</time>
      </trkpt>
      <trkpt lat="43.45417" lon="2.21668">
        <ele>760.3</ele>
        <time>2021-08-18T07:49:03Z</time>
      </trkpt>
      <trkpt lat="43.45447" lon="2.21722">
        <ele>755.4</ele>
        <time>2021-08-18T07:49:09Z</time>
      </trkpt>
      <trkpt lat="43.45465" lon="2.2178">
        <ele>756.6</ele>
        <time>2021-08-18T07:49:15Z</time>
      </trkpt>
      <trkpt lat="43.45495" lon="2.21781">
        <ele>753.2</ele>
        <time>2021-08-18T07:49:21Z</time>
      </trkpt>
      <trkpt lat="43.45544" lon="2.21785">
        <ele>750.9</ele>
        <time>2021-08-18T07:49:27Z</time>
      </trkpt>
      <trkpt lat="43.45598" lon="2.21799">
        <ele>749.2</ele>
        <time>2021-08-18T07:49:33Z</time>
      </trkpt>
      <trkpt lat="43.45644" lon="2.21812">
        <ele>748.7</ele>
        <time>2021-08-18T07:49:38Z</time>
      </trkpt>
      <trkpt lat="43.45683" lon="2.2187">
        <ele>745.7</ele>
        <time>2021-08-18T07:49:44Z</time>
      </trkpt>
      <trkpt lat="43.45679" lon="2.21923">
        <ele>742.7</ele>
        <time>2021-08-18T07:49:49Z</time>
      </trkpt>
      <trkpt lat="43.45645" lon="2.21966">
        <ele>740.5</ele>
        <time>2021-08-18T07:49:55Z</time>
      </trkpt>
      <trkpt lat="43.45666" lon="2.21994">
        <ele>739.1</ele>
        <time>2021-08-18T07:50:01Z</time>
      </trkpt>
      <trkpt lat="43.45696" lon="2.2202">
        <ele>737.8</ele>
        <time>2021-08-18T07:50:06Z</time>
      </trkpt>
      <trkpt lat="43.45712" lon="2.22052">
        <ele>741.4</ele>
        <time>2021-08-18T07:50:11Z</time>
      </trkpt>
      <trkpt lat="43.45727" lon="2.22093">
        <ele>743.9</ele>
        <time>2021-08-18T07:50:17Z</time>
      </trkpt>
      <trkpt lat="43.45734" lon="2.22135">
        <ele>745.1</ele>
        <time>2021-08-18T07:50:23Z</time>
      </trkpt>
      <trkpt lat="43.45744" lon="2.22175">
        <ele>750</ele>
        <time>2021-08-18T07:50:29Z</time>
      </trkpt>
      <trkpt lat="43.45756" lon="2.22213">
        <ele>752.1</ele>
        <time>2021-08-18T07:50:35Z</time>
      </trkpt>
      <trkpt lat="43.4576" lon="2.22254">
        <ele>754</ele>
        <time>2021-08-18T07:50:41Z</time>
      </trkpt>
      <trkpt lat="43.45764" lon="2.22285">
        <ele>757.6</ele>
        <time>2021-08-18T07:50:46Z</time>
      </trkpt>
      <trkpt lat="43.45762" lon="2.22326">
        <ele>762</ele>
        <time>2021-08-18T07:50:52Z</time>
      </trkpt>
      <trkpt lat="43.45762" lon="2.22353">
        <ele>764.6</ele>
        <time>2021-08-18T07:50:57Z</time>
      </trkpt>
      <trkpt lat="43.45786" lon="2.22365">
        <ele>765.2</ele>
        <time>2021-08-18T07:51:03Z</time>
      </trkpt>
      <trkpt lat="43.45814" lon="2.22385">
        <ele>766.2</ele>
        <time>2021-08-18T07:51:09Z</time>
      </trkpt>
      <trkpt lat="43.45841" lon="2.22398">
        <ele>768.9</ele>
        <time>2021-08-18T07:51:15Z</time>
      </trkpt>
      <trkpt lat="43.45864" lon="2.2241">
        <ele>771.1</ele>
        <time>2021-08-18T07:51:20Z</time>
      </trkpt>
      <trkpt lat="43.45889" lon="2.22431">
        <ele>771.7</ele>
        <time>2021-08-18T07:51:26Z</time>
      </trkpt>
      <trkpt lat="43.45909" lon="2.22441">
        <ele>774.6</ele>
        <time>2021-08-18T07:51:31Z</time>
      </trkpt>
      <trkpt lat="43.45935" lon="2.22457">
        <ele>779.2</ele>
        <time>2021-08-18T07:51:37Z</time>
      </trkpt>
      <trkpt lat="43.45963" lon="2.22485">
        <ele>777.4</ele>
        <time>2021-08-18T07:51:42Z</time>
      </trkpt>
      <trkpt lat="43.45986" lon="2.22518">
        <ele>776.3</ele>
        <time>2021-08-18T07:51:48Z</time>
      </trkpt>
      <trkpt lat="43.46001" lon="2.22545">
        <ele>779.5</ele>
        <time>2021-08-18T07:51:53Z</time>
      </trkpt>
      <trkpt lat="43.46015" lon="2.2257">
        <ele>777.6</ele>
        <time>2021-08-18T07:51:58Z</time>
      </trkpt>
      <trkpt lat="43.4603" lon="2.22599">
        <ele>774.4</ele>
        <time>2021-08-18T07:52:04Z</time>
      </trkpt>
      <trkpt lat="43.46046" lon="2.22634">
        <ele>773.7</ele>
        <time>2021-08-18T07:52:10Z</time>
      </trkpt>
      <trkpt lat="43.46069" lon="2.22675">
        <ele>770.9</ele>
        <time>2021-08-18T07:52:16Z</time>
      </trkpt>
      <trkpt lat="43.46089" lon="2.22699">
        <ele>768.1</ele>
        <time>2021-08-18T07:52:22Z</time>
      </trkpt>
      <trkpt lat="43.46116" lon="2.22726">
        <ele>769</ele>
        <time>2021-08-18T07:52:28Z</time>
      </trkpt>
      <trkpt lat="43.46138" lon="2.22749">
        <ele>766.7</ele>
        <time>2021-08-18T07:52:34Z</time>
      </trkpt>
      <trkpt lat="43.46167" lon="2.22788">
        <ele>765.5</ele>
        <time>2021-08-18T07:52:40Z</time>
      </trkpt>
      <trkpt lat="43.46177" lon="2.22834">
        <ele>767.7</ele>
        <time>2021-08-18T07:52:46Z</time>
      </trkpt>
      <trkpt lat="43.46185" lon="2.22884">
        <ele>773.7</ele>
        <time>2021-08-18T07:52:52Z</time>
      </trkpt>
      <trkpt lat="43.46192" lon="2.22933">
        <ele>782.1</ele>
        <time>2021-08-18T07:52:58Z</time>
      </trkpt>
      <trkpt lat="43.46194" lon="2.22973">
        <ele>784.6</ele>
        <time>2021-08-18T07:53:03Z</time>
      </trkpt>
      <trkpt lat="43.46209" lon="2.23014">
        <ele>787</ele>
        <time>2021-08-18T07:53:09Z</time>
      </trkpt>
      <trkpt lat="43.46227" lon="2.23052">
        <ele>788.5</ele>
        <time>2021-08-18T07:53:15Z</time>
      </trkpt>
      <trkpt lat="43.46243" lon="2.23082">
        <ele>789.8</ele>
        <time>2021-08-18T07:53:20Z</time>
      </trkpt>
      <trkpt lat="43.46267" lon="2.23115">
        <ele>791.3</ele>
        <time>2021-08-18T07:53:26Z</time>
      </trkpt>
      <trkpt lat="43.46287" lon="2.23154">
        <ele>799.4</ele>
        <time>2021-08-18T07:53:32Z</time>
      </trkpt>
      <trkpt lat="43.46306" lon="2.23193">
        <ele>799.2</ele>
        <time>2021-08-18T07:53:38Z</time>
      </trkpt>
      <trkpt lat="43.46319" lon="2.23227">
        <ele>800.2</ele>
        <time>2021-08-18T07:53:43Z</time>
      </trkpt>
      <trkpt lat="43.46341" lon="2.23252">
        <ele>802</ele>
        <time>2021-08-18T07:53:48Z</time>
      </trkpt>
      <trkpt lat="43.46368" lon="2.23278">
        <ele>802.2</ele>
        <time>2021-08-18T07:53:54Z</time>
      </trkpt>
      <trkpt lat="43.4639" lon="2.23299">
        <ele>802.6</ele>
        <time>2021-08-18T07:54:00Z</time>
      </trkpt>
      <trkpt lat="43.46413" lon="2.23325">
        <ele>801.4</ele>
        <time>2021-08-18T07:54:06Z</time>
      </trkpt>
      <trkpt lat="43.4643" lon="2.23347">
        <ele>801.1</ele>
        <time>2021-08-18T07:54:11Z</time>
      </trkpt>
      <trkpt lat="43.46461" lon="2.23387">
        <ele>800.8</ele>
        <time>2021-08-18T07:54:17Z</time>
      </trkpt>
      <trkpt lat="43.46467" lon="2.23437">
        <ele>804.2</ele>
        <time>2021-08-18T07:54:23Z</time>
      </trkpt>
      <trkpt lat="43.46451" lon="2.23472">
        <ele>807.3</ele>
        <time>2021-08-18T07:54:29Z</time>
      </trkpt>
      <trkpt lat="43.46427" lon="2.23486">
        <ele>807.7</ele>
        <time>2021-08-18T07:54:34Z</time>
      </trkpt>
      <trkpt lat="43.46413" lon="2.23518">
        <ele>809.9</ele>
        <time>2021-08-18T07:54:40Z</time>
      </trkpt>
      <trkpt lat="43.46417" lon="2.2356">
        <ele>806.5</ele>
        <time>2021-08-18T07:54:46Z</time>
      </trkpt>
      <trkpt lat="43.4643" lon="2.23608">
        <ele>806.7</ele>
        <time>2021-08-18T07:54:52Z</time>
      </trkpt>
      <trkpt lat="43.46447" lon="2.23659">
        <ele>808.2</ele>
        <time>2021-08-18T07:54:58Z</time>
      </trkpt>
      <trkpt lat="43.46438" lon="2.23691">
        <ele>809.5</ele>
        <time>2021-08-18T07:55:03Z</time>
      </trkpt>
      <trkpt lat="43.46399" lon="2.237">
        <ele>812</ele>
        <time>2021-08-18T07:55:09Z</time>
      </trkpt>
      <trkpt lat="43.46359" lon="2.23704">
        <ele>811.6</ele>
        <time>2021-08-18T07:55:15Z</time>
      </trkpt>
      <trkpt lat="43.46322" lon="2.2371">
        <ele>810.3</ele>
        <time>2021-08-18T07:55:20Z</time>
      </trkpt>
      <trkpt lat="43.46284" lon="2.23735">
        <ele>809.1</ele>
        <time>2021-08-18T07:55:26Z</time>
      </trkpt>
      <trkpt lat="43.46251" lon="2.23762">
        <ele>810.6</ele>
        <time>2021-08-18T07:55:32Z</time>
      </trkpt>
      <trkpt lat="43.46224" lon="2.23779">
        <ele>808.1</ele>
        <time>2021-08-18T07:55:37Z</time>
      </trkpt>
      <trkpt lat="43.46192" lon="2.23787">
        <ele>807.1</ele>
        <time>2021-08-18T07:55:43Z</time>
      </trkpt>
      <trkpt lat="43.46165" lon="2.23795">
        <ele>805.7</ele>
        <time>2021-08-18T07:55:48Z</time>
      </trkpt>
      <trkpt lat="43.46132" lon="2.23798">
        <ele>803.1</ele>
        <time>2021-08-18T07:55:54Z</time>
      </trkpt>
      <trkpt lat="43.46112" lon="2.2378">
        <ele>804.8</ele>
        <time>2021-08-18T07:55:59Z</time>
      </trkpt>
      <trkpt lat="43.46101" lon="2.23744">
        <ele>806.3</ele>
        <time>2021-08-18T07:56:05Z</time>
      </trkpt>
      <trkpt lat="43.46086" lon="2.23713">
        <ele>809.4</ele>
        <time>2021-08-18T07:56:11Z</time>
      </trkpt>
      <trkpt lat="43.46059" lon="2.23683">
        <ele>818.2</ele>
        <time>2021-08-18T07:56:17Z</time>
      </trkpt>
      <trkpt lat="43.46034" lon="2.23665">
        <ele>823.6</ele>
        <time>2021-08-18T07:56:23Z</time>
      </trkpt>
      <trkpt lat="43.46007" lon="2.23656">
        <ele>828</ele>
        <time>2021-08-18T07:56:28Z</time>
      </trkpt>
      <trkpt lat="43.45972" lon="2.23642">
        <ele>830.3</ele>
        <time>2021-08-18T07:56:34Z</time>
      </trkpt>
      <trkpt lat="43.45947" lon="2.23669">
        <ele>830.9</ele>
        <time>2021-08-18T07:56:40Z</time>
      </trkpt>
      <trkpt lat="43.45938" lon="2.23697">
        <ele>831.6</ele>
        <time>2021-08-18T07:56:45Z</time>
      </trkpt>
      <trkpt lat="43.45933" lon="2.23712">
        <ele>835.7</ele>
        <time>2021-08-18T07:56:50Z</time>
      </trkpt>
      <trkpt lat="43.45933" lon="2.23711">
        <ele>835.1</ele>
        <time>2021-08-18T07:56:56Z</time>
      </trkpt>
      <trkpt lat="43.45933" lon="2.23711">
        <ele>835.7</ele>
        <time>2021-08-18T07:57:01Z</time>
      </trkpt>
      <trkpt lat="43.45933" lon="2.23711">
        <ele>835.6</ele>
        <time>2021-08-18T07:57:07Z</time>
      </trkpt>
      <trkpt lat="43.45933" lon="2.23719">
        <ele>837.3</ele>
        <time>2021-08-18T07:57:12Z</time>
      </trkpt>
      <trkpt lat="43.45929" lon="2.23743">
        <ele>836.9</ele>
        <time>2021-08-18T07:57:18Z</time>
      </trkpt>
      <trkpt lat="43.45936" lon="2.23771">
        <ele>838</ele>
        <time>2021-08-18T07:57:24Z</time>
      </trkpt>
      <trkpt lat="43.45949" lon="2.2379">
        <ele>837.9</ele>
        <time>2021-08-18T07:57:29Z</time>
      </trkpt>
      <trkpt lat="43.45968" lon="2.23807">
        <ele>838.5</ele>
        <time>2021-08-18T07:57:35Z</time>
      </trkpt>
      <trkpt lat="43.45986" lon="2.23821">
        <ele>835.8</ele>
        <time>2021-08-18T07:57:40Z</time>
      </trkpt>
      <trkpt lat="43.4601" lon="2.23845">
        <ele>835.8</ele>
        <time>2021-08-18T07:57:46Z</time>
      </trkpt>
      <trkpt lat="43.46026" lon="2.23868">
        <ele>836.4</ele>
        <time>2021-08-18T07:57:52Z</time>
      </trkpt>
      <trkpt lat="43.46042" lon="2.23901">
        <ele>837.8</ele>
        <time>2021-08-18T07:57:58Z</time>
      </trkpt>
      <trkpt lat="43.46042" lon="2.23929">
        <ele>837.5</ele>
        <time>2021-08-18T07:58:04Z</time>
      </trkpt>
      <trkpt lat="43.46045" lon="2.23957">
        <ele>840.7</ele>
        <time>2021-08-18T07:58:09Z</time>
      </trkpt>
      <trkpt lat="43.46061" lon="2.23992">
        <ele>843</ele>
        <time>2021-08-18T07:58:15Z</time>
      </trkpt>
      <trkpt lat="43.46087" lon="2.23999">
        <ele>843</ele>
        <time>2021-08-18T07:58:20Z</time>
      </trkpt>
      <trkpt lat="43.46118" lon="2.24001">
        <ele>844.6</ele>
        <time>2021-08-18T07:58:26Z</time>
      </trkpt>
      <trkpt lat="43.46145" lon="2.24009">
        <ele>844.4</ele>
        <time>2021-08-18T07:58:32Z</time>
      </trkpt>
      <trkpt lat="43.46176" lon="2.24024">
        <ele>842.7</ele>
        <time>2021-08-18T07:58:38Z</time>
      </trkpt>
      <trkpt lat="43.46195" lon="2.24033">
        <ele>844.7</ele>
        <time>2021-08-18T07:58:43Z</time>
      </trkpt>
      <trkpt lat="43.46215" lon="2.24046">
        <ele>849.3</ele>
        <time>2021-08-18T07:58:49Z</time>
      </trkpt>
      <trkpt lat="43.46236" lon="2.24049">
        <ele>850.4</ele>
        <time>2021-08-18T07:58:54Z</time>
      </trkpt>
      <trkpt lat="43.46255" lon="2.24056">
        <ele>846.3</ele>
        <time>2021-08-18T07:59:00Z</time>
      </trkpt>
      <trkpt lat="43.46251" lon="2.2406">
        <ele>847.7</ele>
        <time>2021-08-18T07:59:06Z</time>
      </trkpt>
      <trkpt lat="43.46236" lon="2.24059">
        <ele>849</ele>
        <time>2021-08-18T07:59:12Z</time>
      </trkpt>
      <trkpt lat="43.46215" lon="2.24063">
        <ele>847.7</ele>
        <time>2021-08-18T07:59:18Z</time>
      </trkpt>
      <trkpt lat="43.46196" lon="2.24067">
        <ele>849.3</ele>
        <time>2021-08-18T07:59:23Z</time>
      </trkpt>
      <trkpt lat="43.46177" lon="2.24065">
        <ele>847.8</ele>
        <time>2021-08-18T07:59:28Z</time>
      </trkpt>
      <trkpt lat="43.46157" lon="2.24068">
        <ele>848.1</ele>
        <time>2021-08-18T07:59:34Z</time>
      </trkpt>
      <trkpt lat="43.46133" lon="2.2407">
        <ele>849.4</ele>
        <time>2021-08-18T07:59:40Z</time>
      </trkpt>
      <trkpt lat="43.46106" lon="2.24079">
        <ele>849.8</ele>
        <time>2021-08-18T07:59:46Z</time>
      </trkpt>
      <trkpt lat="43.46082" lon="2.24095">
        <ele>851.7</ele>
        <time>2021-08-18T07:59:52Z</time>
      </trkpt>
      <trkpt lat="43.46064" lon="2.24117">
        <ele>852.5</ele>
        <time>2021-08-18T07:59:58Z</time>
      </trkpt>
      <trkpt lat="43.46053" lon="2.24144">
        <ele>857.7</ele>
        <time>2021-08-18T08:00:04Z</time>
      </trkpt>
      <trkpt lat="43.46046" lon="2.24171">
        <ele>857.7</ele>
        <time>2021-08-18T08:00:09Z</time>
      </trkpt>
      <trkpt lat="43.46045" lon="2.24202">
        <ele>861.8</ele>
        <time>2021-08-18T08:00:15Z</time>
      </trkpt>
      <trkpt lat="43.46046" lon="2.24234">
        <ele>865.2</ele>
        <time>2021-08-18T08:00:21Z</time>
      </trkpt>
      <trkpt lat="43.46055" lon="2.24263">
        <ele>864.7</ele>
        <time>2021-08-18T08:00:27Z</time>
      </trkpt>
      <trkpt lat="43.46067" lon="2.2429">
        <ele>864.5</ele>
        <time>2021-08-18T08:00:33Z</time>
      </trkpt>
      <trkpt lat="43.46081" lon="2.24318">
        <ele>865.9</ele>
        <time>2021-08-18T08:00:39Z</time>
      </trkpt>
      <trkpt lat="43.46084" lon="2.24351">
        <ele>867.4</ele>
        <time>2021-08-18T08:00:45Z</time>
      </trkpt>
      <trkpt lat="43.46085" lon="2.24379">
        <ele>871.1</ele>
        <time>2021-08-18T08:00:50Z</time>
      </trkpt>
      <trkpt lat="43.46085" lon="2.24412">
        <ele>872.3</ele>
        <time>2021-08-18T08:00:56Z</time>
      </trkpt>
      <trkpt lat="43.46077" lon="2.24439">
        <ele>874</ele>
        <time>2021-08-18T08:01:01Z</time>
      </trkpt>
      <trkpt lat="43.46066" lon="2.24469">
        <ele>870.4</ele>
        <time>2021-08-18T08:01:06Z</time>
      </trkpt>
      <trkpt lat="43.46058" lon="2.24503">
        <ele>869.3</ele>
        <time>2021-08-18T08:01:11Z</time>
      </trkpt>
      <trkpt lat="43.46047" lon="2.24547">
        <ele>866.1</ele>
        <time>2021-08-18T08:01:17Z</time>
      </trkpt>
      <trkpt lat="43.46035" lon="2.24588">
        <ele>865.8</ele>
        <time>2021-08-18T08:01:22Z</time>
      </trkpt>
      <trkpt lat="43.46027" lon="2.24647">
        <ele>868.6</ele>
        <time>2021-08-18T08:01:28Z</time>
      </trkpt>
      <trkpt lat="43.4603" lon="2.24697">
        <ele>873.1</ele>
        <time>2021-08-18T08:01:33Z</time>
      </trkpt>
      <trkpt lat="43.4602" lon="2.24744">
        <ele>876.4</ele>
        <time>2021-08-18T08:01:38Z</time>
      </trkpt>
      <trkpt lat="43.45997" lon="2.24797">
        <ele>877.1</ele>
        <time>2021-08-18T08:01:44Z</time>
      </trkpt>
      <trkpt lat="43.45987" lon="2.24845">
        <ele>879.1</ele>
        <time>2021-08-18T08:01:49Z</time>
      </trkpt>
      <trkpt lat="43.45983" lon="2.24905">
        <ele>880.5</ele>
        <time>2021-08-18T08:01:55Z</time>
      </trkpt>
      <trkpt lat="43.45978" lon="2.24957">
        <ele>881.3</ele>
        <time>2021-08-18T08:02:00Z</time>
      </trkpt>
      <trkpt lat="43.45965" lon="2.25021">
        <ele>881.3</ele>
        <time>2021-08-18T08:02:06Z</time>
      </trkpt>
      <trkpt lat="43.45937" lon="2.25081">
        <ele>877.4</ele>
        <time>2021-08-18T08:02:12Z</time>
      </trkpt>
      <trkpt lat="43.45895" lon="2.2511">
        <ele>874.6</ele>
        <time>2021-08-18T08:02:17Z</time>
      </trkpt>
      <trkpt lat="43.45838" lon="2.25149">
        <ele>868.8</ele>
        <time>2021-08-18T08:02:23Z</time>
      </trkpt>
      <trkpt lat="43.45789" lon="2.25183">
        <ele>863.5</ele>
        <time>2021-08-18T08:02:28Z</time>
      </trkpt>
      <trkpt lat="43.45731" lon="2.25226">
        <ele>861.8</ele>
        <time>2021-08-18T08:02:34Z</time>
      </trkpt>
      <trkpt lat="43.45672" lon="2.25267">
        <ele>861.9</ele>
        <time>2021-08-18T08:02:40Z</time>
      </trkpt>
      <trkpt lat="43.45614" lon="2.25313">
        <ele>854.7</ele>
        <time>2021-08-18T08:02:46Z</time>
      </trkpt>
      <trkpt lat="43.45565" lon="2.25345">
        <ele>852.3</ele>
        <time>2021-08-18T08:02:51Z</time>
      </trkpt>
      <trkpt lat="43.45549" lon="2.25405">
        <ele>849.4</ele>
        <time>2021-08-18T08:02:57Z</time>
      </trkpt>
      <trkpt lat="43.4558" lon="2.25468">
        <ele>848.8</ele>
        <time>2021-08-18T08:03:03Z</time>
      </trkpt>
      <trkpt lat="43.45623" lon="2.25506">
        <ele>845.1</ele>
        <time>2021-08-18T08:03:09Z</time>
      </trkpt>
      <trkpt lat="43.4566" lon="2.25535">
        <ele>841.8</ele>
        <time>2021-08-18T08:03:14Z</time>
      </trkpt>
      <trkpt lat="43.45695" lon="2.25568">
        <ele>840.6</ele>
        <time>2021-08-18T08:03:19Z</time>
      </trkpt>
      <trkpt lat="43.45699" lon="2.25632">
        <ele>837.8</ele>
        <time>2021-08-18T08:03:24Z</time>
      </trkpt>
      <trkpt lat="43.45683" lon="2.25711">
        <ele>834.4</ele>
        <time>2021-08-18T08:03:30Z</time>
      </trkpt>
      <trkpt lat="43.4566" lon="2.25772">
        <ele>831.4</ele>
        <time>2021-08-18T08:03:35Z</time>
      </trkpt>
      <trkpt lat="43.45614" lon="2.25796">
        <ele>831.5</ele>
        <time>2021-08-18T08:03:41Z</time>
      </trkpt>
      <trkpt lat="43.45571" lon="2.2578">
        <ele>833.4</ele>
        <time>2021-08-18T08:03:47Z</time>
      </trkpt>
      <trkpt lat="43.45543" lon="2.25733">
        <ele>840.7</ele>
        <time>2021-08-18T08:03:53Z</time>
      </trkpt>
      <trkpt lat="43.45513" lon="2.2572">
        <ele>845</ele>
        <time>2021-08-18T08:03:58Z</time>
      </trkpt>
      <trkpt lat="43.45476" lon="2.25729">
        <ele>845.1</ele>
        <time>2021-08-18T08:04:04Z</time>
      </trkpt>
      <trkpt lat="43.45447" lon="2.2576">
        <ele>846.9</ele>
        <time>2021-08-18T08:04:10Z</time>
      </trkpt>
      <trkpt lat="43.45419" lon="2.25781">
        <ele>846.4</ele>
        <time>2021-08-18T08:04:15Z</time>
      </trkpt>
      <trkpt lat="43.45384" lon="2.25801">
        <ele>847.3</ele>
        <time>2021-08-18T08:04:21Z</time>
      </trkpt>
      <trkpt lat="43.45354" lon="2.25817">
        <ele>848.3</ele>
        <time>2021-08-18T08:04:26Z</time>
      </trkpt>
      <trkpt lat="43.45325" lon="2.25836">
        <ele>847.9</ele>
        <time>2021-08-18T08:04:31Z</time>
      </trkpt>
      <trkpt lat="43.45294" lon="2.25865">
        <ele>846.5</ele>
        <time>2021-08-18T08:04:37Z</time>
      </trkpt>
      <trkpt lat="43.45262" lon="2.25894">
        <ele>845.1</ele>
        <time>2021-08-18T08:04:43Z</time>
      </trkpt>
      <trkpt lat="43.45227" lon="2.25927">
        <ele>848.9</ele>
        <time>2021-08-18T08:04:49Z</time>
      </trkpt>
      <trkpt lat="43.45193" lon="2.25955">
        <ele>848.8</ele>
        <time>2021-08-18T08:04:54Z</time>
      </trkpt>
      <trkpt lat="43.45147" lon="2.25972">
        <ele>848.8</ele>
        <time>2021-08-18T08:05:00Z</time>
      </trkpt>
      <trkpt lat="43.45101" lon="2.25974">
        <ele>849.2</ele>
        <time>2021-08-18T08:05:06Z</time>
      </trkpt>
      <trkpt lat="43.45063" lon="2.25974">
        <ele>850.1</ele>
        <time>2021-08-18T08:05:11Z</time>
      </trkpt>
      <trkpt lat="43.45018" lon="2.25975">
        <ele>847.5</ele>
        <time>2021-08-18T08:05:17Z</time>
      </trkpt>
      <trkpt lat="43.44973" lon="2.25978">
        <ele>850.4</ele>
        <time>2021-08-18T08:05:23Z</time>
      </trkpt>
      <trkpt lat="43.4493" lon="2.25977">
        <ele>852.3</ele>
        <time>2021-08-18T08:05:29Z</time>
      </trkpt>
      <trkpt lat="43.44886" lon="2.25998">
        <ele>853.3</ele>
        <time>2021-08-18T08:05:35Z</time>
      </trkpt>
      <trkpt lat="43.44848" lon="2.26033">
        <ele>852.6</ele>
        <time>2021-08-18T08:05:41Z</time>
      </trkpt>
      <trkpt lat="43.44818" lon="2.26063">
        <ele>850.7</ele>
        <time>2021-08-18T08:05:46Z</time>
      </trkpt>
      <trkpt lat="43.4478" lon="2.26098">
        <ele>856.4</ele>
        <time>2021-08-18T08:05:52Z</time>
      </trkpt>
      <trkpt lat="43.44744" lon="2.26134">
        <ele>858</ele>
        <time>2021-08-18T08:05:58Z</time>
      </trkpt>
      <trkpt lat="43.44702" lon="2.26155">
        <ele>856.6</ele>
        <time>2021-08-18T08:06:04Z</time>
      </trkpt>
      <trkpt lat="43.44668" lon="2.26125">
        <ele>855</ele>
        <time>2021-08-18T08:06:09Z</time>
      </trkpt>
      <trkpt lat="43.44644" lon="2.26067">
        <ele>855.2</ele>
        <time>2021-08-18T08:06:15Z</time>
      </trkpt>
      <trkpt lat="43.44606" lon="2.26053">
        <ele>858.7</ele>
        <time>2021-08-18T08:06:20Z</time>
      </trkpt>
      <trkpt lat="43.44561" lon="2.26075">
        <ele>857.7</ele>
        <time>2021-08-18T08:06:26Z</time>
      </trkpt>
      <trkpt lat="43.44516" lon="2.26089">
        <ele>857.7</ele>
        <time>2021-08-18T08:06:32Z</time>
      </trkpt>
      <trkpt lat="43.44479" lon="2.26073">
        <ele>855.6</ele>
        <time>2021-08-18T08:06:37Z</time>
      </trkpt>
      <trkpt lat="43.44434" lon="2.26028">
        <ele>852.5</ele>
        <time>2021-08-18T08:06:43Z</time>
      </trkpt>
      <trkpt lat="43.44397" lon="2.25981">
        <ele>847.7</ele>
        <time>2021-08-18T08:06:48Z</time>
      </trkpt>
      <trkpt lat="43.4435" lon="2.25934">
        <ele>843.5</ele>
        <time>2021-08-18T08:06:54Z</time>
      </trkpt>
      <trkpt lat="43.443" lon="2.25904">
        <ele>845.4</ele>
        <time>2021-08-18T08:07:00Z</time>
      </trkpt>
      <trkpt lat="43.44254" lon="2.25879">
        <ele>842.7</ele>
        <time>2021-08-18T08:07:06Z</time>
      </trkpt>
      <trkpt lat="43.44217" lon="2.25848">
        <ele>840.4</ele>
        <time>2021-08-18T08:07:11Z</time>
      </trkpt>
      <trkpt lat="43.44173" lon="2.25841">
        <ele>839</ele>
        <time>2021-08-18T08:07:16Z</time>
      </trkpt>
      <trkpt lat="43.44134" lon="2.25856">
        <ele>838.2</ele>
        <time>2021-08-18T08:07:22Z</time>
      </trkpt>
      <trkpt lat="43.44103" lon="2.2588">
        <ele>838.8</ele>
        <time>2021-08-18T08:07:28Z</time>
      </trkpt>
      <trkpt lat="43.44085" lon="2.25906">
        <ele>839.7</ele>
        <time>2021-08-18T08:07:33Z</time>
      </trkpt>
      <trkpt lat="43.44069" lon="2.25937">
        <ele>843.4</ele>
        <time>2021-08-18T08:07:39Z</time>
      </trkpt>
      <trkpt lat="43.44054" lon="2.25965">
        <ele>845.1</ele>
        <time>2021-08-18T08:07:45Z</time>
      </trkpt>
      <trkpt lat="43.44041" lon="2.25987">
        <ele>847.2</ele>
        <time>2021-08-18T08:07:50Z</time>
      </trkpt>
      <trkpt lat="43.44026" lon="2.26018">
        <ele>852.7</ele>
        <time>2021-08-18T08:07:56Z</time>
      </trkpt>
      <trkpt lat="43.44008" lon="2.26046">
        <ele>851.6</ele>
        <time>2021-08-18T08:08:02Z</time>
      </trkpt>
      <trkpt lat="43.43987" lon="2.2606">
        <ele>853.1</ele>
        <time>2021-08-18T08:08:08Z</time>
      </trkpt>
      <trkpt lat="43.43965" lon="2.26063">
        <ele>852.6</ele>
        <time>2021-08-18T08:08:13Z</time>
      </trkpt>
      <trkpt lat="43.4394" lon="2.26065">
        <ele>853</ele>
        <time>2021-08-18T08:08:18Z</time>
      </trkpt>
      <trkpt lat="43.4391" lon="2.26066">
        <ele>853.5</ele>
        <time>2021-08-18T08:08:24Z</time>
      </trkpt>
      <trkpt lat="43.43881" lon="2.26061">
        <ele>852.4</ele>
        <time>2021-08-18T08:08:30Z</time>
      </trkpt>
      <trkpt lat="43.4385" lon="2.26055">
        <ele>855.3</ele>
        <time>2021-08-18T08:08:36Z</time>
      </trkpt>
      <trkpt lat="43.43824" lon="2.26048">
        <ele>856.2</ele>
        <time>2021-08-18T08:08:41Z</time>
      </trkpt>
      <trkpt lat="43.43795" lon="2.26047">
        <ele>858.3</ele>
        <time>2021-08-18T08:08:47Z</time>
      </trkpt>
      <trkpt lat="43.43762" lon="2.26038">
        <ele>857.7</ele>
        <time>2021-08-18T08:08:53Z</time>
      </trkpt>
      <trkpt lat="43.43733" lon="2.26023">
        <ele>859.1</ele>
        <time>2021-08-18T08:08:58Z</time>
      </trkpt>
      <trkpt lat="43.437" lon="2.26037">
        <ele>857.5</ele>
        <time>2021-08-18T08:09:04Z</time>
      </trkpt>
      <trkpt lat="43.43676" lon="2.26056">
        <ele>856</ele>
        <time>2021-08-18T08:09:09Z</time>
      </trkpt>
      <trkpt lat="43.43647" lon="2.26079">
        <ele>858.4</ele>
        <time>2021-08-18T08:09:14Z</time>
      </trkpt>
      <trkpt lat="43.43614" lon="2.26107">
        <ele>861.7</ele>
        <time>2021-08-18T08:09:20Z</time>
      </trkpt>
      <trkpt lat="43.43585" lon="2.26134">
        <ele>865</ele>
        <time>2021-08-18T08:09:25Z</time>
      </trkpt>
      <trkpt lat="43.43555" lon="2.2616">
        <ele>863</ele>
        <time>2021-08-18T08:09:30Z</time>
      </trkpt>
      <trkpt lat="43.43523" lon="2.26187">
        <ele>863</ele>
        <time>2021-08-18T08:09:35Z</time>
      </trkpt>
      <trkpt lat="43.43481" lon="2.26222">
        <ele>861.2</ele>
        <time>2021-08-18T08:09:41Z</time>
      </trkpt>
      <trkpt lat="43.43439" lon="2.26256">
        <ele>862.3</ele>
        <time>2021-08-18T08:09:47Z</time>
      </trkpt>
      <trkpt lat="43.43401" lon="2.26288">
        <ele>863.1</ele>
        <time>2021-08-18T08:09:52Z</time>
      </trkpt>
      <trkpt lat="43.43351" lon="2.26317">
        <ele>859.3</ele>
        <time>2021-08-18T08:09:58Z</time>
      </trkpt>
      <trkpt lat="43.43297" lon="2.26303">
        <ele>856.1</ele>
        <time>2021-08-18T08:10:04Z</time>
      </trkpt>
      <trkpt lat="43.43254" lon="2.26277">
        <ele>855</ele>
        <time>2021-08-18T08:10:09Z</time>
      </trkpt>
      <trkpt lat="43.43204" lon="2.26265">
        <ele>850.9</ele>
        <time>2021-08-18T08:10:15Z</time>
      </trkpt>
      <trkpt lat="43.43164" lon="2.26237">
        <ele>846.2</ele>
        <time>2021-08-18T08:10:20Z</time>
      </trkpt>
      <trkpt lat="43.43136" lon="2.26274">
        <ele>843.4</ele>
        <time>2021-08-18T08:10:25Z</time>
      </trkpt>
      <trkpt lat="43.43106" lon="2.26324">
        <ele>842.7</ele>
        <time>2021-08-18T08:10:31Z</time>
      </trkpt>
      <trkpt lat="43.43067" lon="2.26353">
        <ele>838.5</ele>
        <time>2021-08-18T08:10:36Z</time>
      </trkpt>
      <trkpt lat="43.43011" lon="2.26367">
        <ele>833.8</ele>
        <time>2021-08-18T08:10:42Z</time>
      </trkpt>
      <trkpt lat="43.42973" lon="2.26418">
        <ele>831.9</ele>
        <time>2021-08-18T08:10:48Z</time>
      </trkpt>
      <trkpt lat="43.42948" lon="2.26467">
        <ele>827.4</ele>
        <time>2021-08-18T08:10:53Z</time>
      </trkpt>
      <trkpt lat="43.42915" lon="2.26539">
        <ele>825.4</ele>
        <time>2021-08-18T08:10:59Z</time>
      </trkpt>
      <trkpt lat="43.42882" lon="2.26607">
        <ele>821.9</ele>
        <time>2021-08-18T08:11:05Z</time>
      </trkpt>
      <trkpt lat="43.42836" lon="2.26646">
        <ele>822.1</ele>
        <time>2021-08-18T08:11:11Z</time>
      </trkpt>
      <trkpt lat="43.42796" lon="2.26682">
        <ele>822.1</ele>
        <time>2021-08-18T08:11:16Z</time>
      </trkpt>
      <trkpt lat="43.42765" lon="2.26751">
        <ele>815.2</ele>
        <time>2021-08-18T08:11:22Z</time>
      </trkpt>
      <trkpt lat="43.42734" lon="2.26804">
        <ele>816.9</ele>
        <time>2021-08-18T08:11:27Z</time>
      </trkpt>
      <trkpt lat="43.42712" lon="2.26862">
        <ele>813.1</ele>
        <time>2021-08-18T08:11:32Z</time>
      </trkpt>
      <trkpt lat="43.42697" lon="2.26944">
        <ele>807.8</ele>
        <time>2021-08-18T08:11:38Z</time>
      </trkpt>
      <trkpt lat="43.4266" lon="2.26982">
        <ele>805.8</ele>
        <time>2021-08-18T08:11:43Z</time>
      </trkpt>
      <trkpt lat="43.42608" lon="2.26996">
        <ele>808.2</ele>
        <time>2021-08-18T08:11:49Z</time>
      </trkpt>
      <trkpt lat="43.4256" lon="2.27044">
        <ele>806.8</ele>
        <time>2021-08-18T08:11:55Z</time>
      </trkpt>
      <trkpt lat="43.42503" lon="2.27079">
        <ele>805.8</ele>
        <time>2021-08-18T08:12:01Z</time>
      </trkpt>
      <trkpt lat="43.42453" lon="2.27118">
        <ele>802.5</ele>
        <time>2021-08-18T08:12:07Z</time>
      </trkpt>
      <trkpt lat="43.42426" lon="2.27181">
        <ele>797.3</ele>
        <time>2021-08-18T08:12:12Z</time>
      </trkpt>
      <trkpt lat="43.42395" lon="2.27249">
        <ele>792.9</ele>
        <time>2021-08-18T08:12:18Z</time>
      </trkpt>
      <trkpt lat="43.42415" lon="2.27323">
        <ele>785.2</ele>
        <time>2021-08-18T08:12:24Z</time>
      </trkpt>
      <trkpt lat="43.42473" lon="2.27343">
        <ele>784.1</ele>
        <time>2021-08-18T08:12:30Z</time>
      </trkpt>
      <trkpt lat="43.42511" lon="2.27376">
        <ele>784.5</ele>
        <time>2021-08-18T08:12:35Z</time>
      </trkpt>
      <trkpt lat="43.4254" lon="2.27423">
        <ele>785.8</ele>
        <time>2021-08-18T08:12:40Z</time>
      </trkpt>
      <trkpt lat="43.42559" lon="2.27493">
        <ele>780.1</ele>
        <time>2021-08-18T08:12:46Z</time>
      </trkpt>
      <trkpt lat="43.42568" lon="2.27552">
        <ele>775.8</ele>
        <time>2021-08-18T08:12:51Z</time>
      </trkpt>
      <trkpt lat="43.42573" lon="2.27627">
        <ele>775.2</ele>
        <time>2021-08-18T08:12:57Z</time>
      </trkpt>
      <trkpt lat="43.42577" lon="2.27687">
        <ele>774.4</ele>
        <time>2021-08-18T08:13:02Z</time>
      </trkpt>
      <trkpt lat="43.42579" lon="2.27754">
        <ele>776.5</ele>
        <time>2021-08-18T08:13:08Z</time>
      </trkpt>
      <trkpt lat="43.42578" lon="2.27786">
        <ele>776.3</ele>
        <time>2021-08-18T08:13:13Z</time>
      </trkpt>
      <trkpt lat="43.42599" lon="2.27793">
        <ele>772.7</ele>
        <time>2021-08-18T08:13:19Z</time>
      </trkpt>
      <trkpt lat="43.42601" lon="2.27792">
        <ele>774.1</ele>
        <time>2021-08-18T08:13:25Z</time>
      </trkpt>
      <trkpt lat="43.42601" lon="2.27792">
        <ele>774.5</ele>
        <time>2021-08-18T08:13:30Z</time>
      </trkpt>
      <trkpt lat="43.42601" lon="2.27792">
        <ele>774</ele>
        <time>2021-08-18T08:13:36Z</time>
      </trkpt>
      <trkpt lat="43.42598" lon="2.27808">
        <ele>772.8</ele>
        <time>2021-08-18T08:13:42Z</time>
      </trkpt>
      <trkpt lat="43.42595" lon="2.27819">
        <ele>773.9</ele>
        <time>2021-08-18T08:13:47Z</time>
      </trkpt>
      <trkpt lat="43.42596" lon="2.27828">
        <ele>771.6</ele>
        <time>2021-08-18T08:13:52Z</time>
      </trkpt>
      <trkpt lat="43.42602" lon="2.27837">
        <ele>770.8</ele>
        <time>2021-08-18T08:13:58Z</time>
      </trkpt>
      <trkpt lat="43.42608" lon="2.2784">
        <ele>769.4</ele>
        <time>2021-08-18T08:14:04Z</time>
      </trkpt>
      <trkpt lat="43.42614" lon="2.27848">
        <ele>770</ele>
        <time>2021-08-18T08:14:09Z</time>
      </trkpt>
      <trkpt lat="43.42624" lon="2.27856">
        <ele>769.6</ele>
        <time>2021-08-18T08:14:15Z</time>
      </trkpt>
      <trkpt lat="43.42635" lon="2.27858">
        <ele>769.8</ele>
        <time>2021-08-18T08:14:20Z</time>
      </trkpt>
      <trkpt lat="43.42646" lon="2.27861">
        <ele>769.9</ele>
        <time>2021-08-18T08:14:26Z</time>
      </trkpt>
      <trkpt lat="43.42656" lon="2.27863">
        <ele>770.2</ele>
        <time>2021-08-18T08:14:32Z</time>
      </trkpt>
      <trkpt lat="43.42661" lon="2.27868">
        <ele>773.5</ele>
        <time>2021-08-18T08:14:37Z</time>
      </trkpt>
      <trkpt lat="43.42664" lon="2.27879">
        <ele>773.7</ele>
        <time>2021-08-18T08:14:43Z</time>
      </trkpt>
      <trkpt lat="43.42664" lon="2.27893">
        <ele>774</ele>
        <time>2021-08-18T08:14:48Z</time>
      </trkpt>
      <trkpt lat="43.42665" lon="2.27904">
        <ele>773.1</ele>
        <time>2021-08-18T08:14:54Z</time>
      </trkpt>
      <trkpt lat="43.4266" lon="2.27909">
        <ele>772.9</ele>
        <time>2021-08-18T08:15:00Z</time>
      </trkpt>
      <trkpt lat="43.42654" lon="2.27915">
        <ele>773.7</ele>
        <time>2021-08-18T08:15:06Z</time>
      </trkpt>
      <trkpt lat="43.42649" lon="2.27919">
        <ele>774.3</ele>
        <time>2021-08-18T08:15:11Z</time>
      </trkpt>
      <trkpt lat="43.4264" lon="2.27928">
        <ele>773.9</ele>
        <time>2021-08-18T08:15:17Z</time>
      </trkpt>
      <trkpt lat="43.42637" lon="2.2793">
        <ele>776</ele>
        <time>2021-08-18T08:15:22Z</time>
      </trkpt>
      <trkpt lat="43.42634" lon="2.27935">
        <ele>775.4</ele>
        <time>2021-08-18T08:15:28Z</time>
      </trkpt>
      <trkpt lat="43.42631" lon="2.27945">
        <ele>775.5</ele>
        <time>2021-08-18T08:15:34Z</time>
      </trkpt>
      <trkpt lat="43.42631" lon="2.27945">
        <ele>777.4</ele>
        <time>2021-08-18T08:15:39Z</time>
      </trkpt>
      <trkpt lat="43.42631" lon="2.27945">
        <ele>777</ele>
        <time>2021-08-18T08:15:44Z</time>
      </trkpt>
      <trkpt lat="43.42631" lon="2.27945">
        <ele>775.5</ele>
        <time>2021-08-18T08:15:49Z</time>
      </trkpt>
      <trkpt lat="43.42631" lon="2.27945">
        <ele>776.8</ele>
        <time>2021-08-18T08:15:55Z</time>
      </trkpt>
      <trkpt lat="43.42631" lon="2.27945">
        <ele>776.4</ele>
        <time>2021-08-18T08:16:01Z</time>
      </trkpt>
      <trkpt lat="43.42631" lon="2.27945">
        <ele>774.6</ele>
        <time>2021-08-18T08:16:06Z</time>
      </trkpt>
      <trkpt lat="43.42631" lon="2.27945">
        <ele>775.2</ele>
        <time>2021-08-18T08:16:11Z</time>
      </trkpt>
      <trkpt lat="43.42631" lon="2.27945">
        <ele>775.2</ele>
        <time>2021-08-18T08:16:17Z</time>
      </trkpt>
      <trkpt lat="43.42631" lon="2.27945">
        <ele>775.3</ele>
        <time>2021-08-18T08:16:23Z</time>
      </trkpt>
      <trkpt lat="43.42627" lon="2.27959">
        <ele>776</ele>
        <time>2021-08-18T08:16:29Z</time>
      </trkpt>
      <trkpt lat="43.42631" lon="2.27975">
        <ele>776.3</ele>
        <time>2021-08-18T08:16:34Z</time>
      </trkpt>
      <trkpt lat="43.42627" lon="2.27987">
        <ele>776.4</ele>
        <time>2021-08-18T08:16:40Z</time>
      </trkpt>
      <trkpt lat="43.42627" lon="2.28003">
        <ele>777.3</ele>
        <time>2021-08-18T08:16:46Z</time>
      </trkpt>
      <trkpt lat="43.4263" lon="2.28014">
        <ele>775.6</ele>
        <time>2021-08-18T08:16:51Z</time>
      </trkpt>
      <trkpt lat="43.42636" lon="2.28022">
        <ele>776.7</ele>
        <time>2021-08-18T08:16:56Z</time>
      </trkpt>
      <trkpt lat="43.42641" lon="2.28029">
        <ele>777.1</ele>
        <time>2021-08-18T08:17:01Z</time>
      </trkpt>
      <trkpt lat="43.4265" lon="2.28042">
        <ele>774.4</ele>
        <time>2021-08-18T08:17:07Z</time>
      </trkpt>
      <trkpt lat="43.42656" lon="2.28055">
        <ele>772.6</ele>
        <time>2021-08-18T08:17:12Z</time>
      </trkpt>
      <trkpt lat="43.42665" lon="2.28061">
        <ele>773.1</ele>
        <time>2021-08-18T08:17:18Z</time>
      </trkpt>
      <trkpt lat="43.42671" lon="2.28064">
        <ele>771.9</ele>
        <time>2021-08-18T08:17:23Z</time>
      </trkpt>
      <trkpt lat="43.42675" lon="2.28068">
        <ele>772</ele>
        <time>2021-08-18T08:17:29Z</time>
      </trkpt>
      <trkpt lat="43.42679" lon="2.28075">
        <ele>774.4</ele>
        <time>2021-08-18T08:17:35Z</time>
      </trkpt>
      <trkpt lat="43.42679" lon="2.2809">
        <ele>775.4</ele>
        <time>2021-08-18T08:17:40Z</time>
      </trkpt>
      <trkpt lat="43.4268" lon="2.28104">
        <ele>774.9</ele>
        <time>2021-08-18T08:17:45Z</time>
      </trkpt>
      <trkpt lat="43.42679" lon="2.2812">
        <ele>775</ele>
        <time>2021-08-18T08:17:51Z</time>
      </trkpt>
      <trkpt lat="43.42681" lon="2.28132">
        <ele>774.3</ele>
        <time>2021-08-18T08:17:56Z</time>
      </trkpt>
      <trkpt lat="43.42687" lon="2.28143">
        <ele>773.9</ele>
        <time>2021-08-18T08:18:02Z</time>
      </trkpt>
      <trkpt lat="43.42688" lon="2.28145">
        <ele>772.6</ele>
        <time>2021-08-18T08:18:08Z</time>
      </trkpt>
      <trkpt lat="43.42688" lon="2.28145">
        <ele>773.2</ele>
        <time>2021-08-18T08:18:14Z</time>
      </trkpt>
      <trkpt lat="43.42688" lon="2.28145">
        <ele>774</ele>
        <time>2021-08-18T08:18:19Z</time>
      </trkpt>
      <trkpt lat="43.42688" lon="2.28145">
        <ele>771.6</ele>
        <time>2021-08-18T08:18:24Z</time>
      </trkpt>
      <trkpt lat="43.42689" lon="2.28145">
        <ele>773.2</ele>
        <time>2021-08-18T08:18:29Z</time>
      </trkpt>
      <trkpt lat="43.4269" lon="2.28156">
        <ele>771.8</ele>
        <time>2021-08-18T08:18:35Z</time>
      </trkpt>
      <trkpt lat="43.42691" lon="2.28171">
        <ele>773.7</ele>
        <time>2021-08-18T08:18:41Z</time>
      </trkpt>
      <trkpt lat="43.42699" lon="2.28182">
        <ele>772.3</ele>
        <time>2021-08-18T08:18:46Z</time>
      </trkpt>
      <trkpt lat="43.42705" lon="2.28195">
        <ele>771.4</ele>
        <time>2021-08-18T08:18:52Z</time>
      </trkpt>
      <trkpt lat="43.42711" lon="2.28204">
        <ele>772.9</ele>
        <time>2021-08-18T08:18:57Z</time>
      </trkpt>
      <trkpt lat="43.42721" lon="2.28214">
        <ele>771.1</ele>
        <time>2021-08-18T08:19:03Z</time>
      </trkpt>
      <trkpt lat="43.42729" lon="2.28224">
        <ele>771.3</ele>
        <time>2021-08-18T08:19:09Z</time>
      </trkpt>
      <trkpt lat="43.42736" lon="2.28236">
        <ele>771.6</ele>
        <time>2021-08-18T08:19:15Z</time>
      </trkpt>
      <trkpt lat="43.42737" lon="2.28247">
        <ele>772.7</ele>
        <time>2021-08-18T08:19:20Z</time>
      </trkpt>
      <trkpt lat="43.42736" lon="2.28261">
        <ele>772.7</ele>
        <time>2021-08-18T08:19:26Z</time>
      </trkpt>
      <trkpt lat="43.42728" lon="2.28271">
        <ele>772.4</ele>
        <time>2021-08-18T08:19:31Z</time>
      </trkpt>
      <trkpt lat="43.42717" lon="2.28275">
        <ele>773</ele>
        <time>2021-08-18T08:19:37Z</time>
      </trkpt>
      <trkpt lat="43.42708" lon="2.28273">
        <ele>772.4</ele>
        <time>2021-08-18T08:19:42Z</time>
      </trkpt>
      <trkpt lat="43.42694" lon="2.28268">
        <ele>773.2</ele>
        <time>2021-08-18T08:19:48Z</time>
      </trkpt>
      <trkpt lat="43.4268" lon="2.28261">
        <ele>773.5</ele>
        <time>2021-08-18T08:19:54Z</time>
      </trkpt>
      <trkpt lat="43.42664" lon="2.28252">
        <ele>773.4</ele>
        <time>2021-08-18T08:20:00Z</time>
      </trkpt>
      <trkpt lat="43.42646" lon="2.2824">
        <ele>767.2</ele>
        <time>2021-08-18T08:20:06Z</time>
      </trkpt>
      <trkpt lat="43.42632" lon="2.28235">
        <ele>767.7</ele>
        <time>2021-08-18T08:20:11Z</time>
      </trkpt>
      <trkpt lat="43.42618" lon="2.28226">
        <ele>773</ele>
        <time>2021-08-18T08:20:17Z</time>
      </trkpt>
      <trkpt lat="43.42607" lon="2.28221">
        <ele>774.3</ele>
        <time>2021-08-18T08:20:23Z</time>
      </trkpt>
      <trkpt lat="43.42598" lon="2.28214">
        <ele>775.8</ele>
        <time>2021-08-18T08:20:28Z</time>
      </trkpt>
      <trkpt lat="43.42587" lon="2.28211">
        <ele>777.4</ele>
        <time>2021-08-18T08:20:33Z</time>
      </trkpt>
      <trkpt lat="43.42579" lon="2.28198">
        <ele>777.5</ele>
        <time>2021-08-18T08:20:39Z</time>
      </trkpt>
      <trkpt lat="43.42576" lon="2.28186">
        <ele>777.2</ele>
        <time>2021-08-18T08:20:45Z</time>
      </trkpt>
      <trkpt lat="43.42576" lon="2.28186">
        <ele>776.1</ele>
        <time>2021-08-18T08:20:51Z</time>
      </trkpt>
      <trkpt lat="43.42576" lon="2.28186">
        <ele>776.2</ele>
        <time>2021-08-18T08:20:57Z</time>
      </trkpt>
      <trkpt lat="43.42576" lon="2.28186">
        <ele>775.9</ele>
        <time>2021-08-18T08:21:03Z</time>
      </trkpt>
      <trkpt lat="43.42576" lon="2.28186">
        <ele>776.8</ele>
        <time>2021-08-18T08:21:08Z</time>
      </trkpt>
      <trkpt lat="43.42576" lon="2.28186">
        <ele>776.4</ele>
        <time>2021-08-18T08:21:14Z</time>
      </trkpt>
      <trkpt lat="43.42566" lon="2.2819">
        <ele>776.3</ele>
        <time>2021-08-18T08:21:20Z</time>
      </trkpt>
      <trkpt lat="43.42555" lon="2.28199">
        <ele>776.2</ele>
        <time>2021-08-18T08:21:25Z</time>
      </trkpt>
      <trkpt lat="43.42541" lon="2.28203">
        <ele>776.8</ele>
        <time>2021-08-18T08:21:31Z</time>
      </trkpt>
      <trkpt lat="43.42531" lon="2.28207">
        <ele>773.4</ele>
        <time>2021-08-18T08:21:36Z</time>
      </trkpt>
      <trkpt lat="43.42516" lon="2.28213">
        <ele>773.6</ele>
        <time>2021-08-18T08:21:41Z</time>
      </trkpt>
      <trkpt lat="43.42499" lon="2.28215">
        <ele>773.4</ele>
        <time>2021-08-18T08:21:47Z</time>
      </trkpt>
      <trkpt lat="43.4249" lon="2.28207">
        <ele>775.8</ele>
        <time>2021-08-18T08:21:52Z</time>
      </trkpt>
      <trkpt lat="43.42496" lon="2.28187">
        <ele>773.7</ele>
        <time>2021-08-18T08:21:58Z</time>
      </trkpt>
      <trkpt lat="43.42503" lon="2.28163">
        <ele>776.5</ele>
        <time>2021-08-18T08:22:03Z</time>
      </trkpt>
      <trkpt lat="43.42512" lon="2.28131">
        <ele>774.9</ele>
        <time>2021-08-18T08:22:09Z</time>
      </trkpt>
      <trkpt lat="43.4252" lon="2.28105">
        <ele>773.5</ele>
        <time>2021-08-18T08:22:15Z</time>
      </trkpt>
      <trkpt lat="43.42526" lon="2.28082">
        <ele>772.8</ele>
        <time>2021-08-18T08:22:20Z</time>
      </trkpt>
      <trkpt lat="43.42532" lon="2.28059">
        <ele>772.6</ele>
        <time>2021-08-18T08:22:25Z</time>
      </trkpt>
      <trkpt lat="43.42527" lon="2.28038">
        <ele>772.8</ele>
        <time>2021-08-18T08:22:30Z</time>
      </trkpt>
      <trkpt lat="43.42517" lon="2.28023">
        <ele>770.2</ele>
        <time>2021-08-18T08:22:36Z</time>
      </trkpt>
      <trkpt lat="43.42515" lon="2.28022">
        <ele>769.2</ele>
        <time>2021-08-18T08:22:42Z</time>
      </trkpt>
      <trkpt lat="43.42516" lon="2.28022">
        <ele>770.6</ele>
        <time>2021-08-18T08:22:47Z</time>
      </trkpt>
      <trkpt lat="43.42516" lon="2.28023">
        <ele>769.1</ele>
        <time>2021-08-18T08:22:52Z</time>
      </trkpt>
      <trkpt lat="43.42516" lon="2.28023">
        <ele>770.7</ele>
        <time>2021-08-18T08:22:58Z</time>
      </trkpt>
      <trkpt lat="43.42516" lon="2.28023">
        <ele>770.2</ele>
        <time>2021-08-18T08:23:04Z</time>
      </trkpt>
      <trkpt lat="43.42516" lon="2.28023">
        <ele>769.7</ele>
        <time>2021-08-18T08:23:10Z</time>
      </trkpt>
      <trkpt lat="43.42516" lon="2.28023">
        <ele>770.9</ele>
        <time>2021-08-18T08:23:15Z</time>
      </trkpt>
      <trkpt lat="43.42516" lon="2.28023">
        <ele>771.2</ele>
        <time>2021-08-18T08:23:21Z</time>
      </trkpt>
      <trkpt lat="43.42516" lon="2.28023">
        <ele>770.8</ele>
        <time>2021-08-18T08:23:26Z</time>
      </trkpt>
      <trkpt lat="43.42516" lon="2.28023">
        <ele>769</ele>
        <time>2021-08-18T08:23:31Z</time>
      </trkpt>
      <trkpt lat="43.42516" lon="2.28023">
        <ele>769.9</ele>
        <time>2021-08-18T08:23:37Z</time>
      </trkpt>
      <trkpt lat="43.42516" lon="2.28023">
        <ele>769.8</ele>
        <time>2021-08-18T08:23:42Z</time>
      </trkpt>
      <trkpt lat="43.42513" lon="2.28024">
        <ele>771.7</ele>
        <time>2021-08-18T08:23:48Z</time>
      </trkpt>
      <trkpt lat="43.42502" lon="2.28007">
        <ele>770.5</ele>
        <time>2021-08-18T08:23:54Z</time>
      </trkpt>
      <trkpt lat="43.42495" lon="2.27984">
        <ele>769.5</ele>
        <time>2021-08-18T08:23:59Z</time>
      </trkpt>
      <trkpt lat="43.42489" lon="2.2796">
        <ele>768.2</ele>
        <time>2021-08-18T08:24:04Z</time>
      </trkpt>
      <trkpt lat="43.4249" lon="2.27941">
        <ele>768.7</ele>
        <time>2021-08-18T08:24:10Z</time>
      </trkpt>
      <trkpt lat="43.42495" lon="2.27929">
        <ele>769.8</ele>
        <time>2021-08-18T08:24:15Z</time>
      </trkpt>
      <trkpt lat="43.42498" lon="2.27914">
        <ele>769.5</ele>
        <time>2021-08-18T08:24:21Z</time>
      </trkpt>
      <trkpt lat="43.42501" lon="2.27898">
        <ele>768.6</ele>
        <time>2021-08-18T08:24:27Z</time>
      </trkpt>
      <trkpt lat="43.42506" lon="2.27878">
        <ele>772</ele>
        <time>2021-08-18T08:24:33Z</time>
      </trkpt>
      <trkpt lat="43.42512" lon="2.27862">
        <ele>772.2</ele>
        <time>2021-08-18T08:24:39Z</time>
      </trkpt>
      <trkpt lat="43.42518" lon="2.27844">
        <ele>775.1</ele>
        <time>2021-08-18T08:24:45Z</time>
      </trkpt>
      <trkpt lat="43.42518" lon="2.27831">
        <ele>775.8</ele>
        <time>2021-08-18T08:24:50Z</time>
      </trkpt>
      <trkpt lat="43.42511" lon="2.27821">
        <ele>781.6</ele>
        <time>2021-08-18T08:24:56Z</time>
      </trkpt>
      <trkpt lat="43.42504" lon="2.27833">
        <ele>784.9</ele>
        <time>2021-08-18T08:25:01Z</time>
      </trkpt>
      <trkpt lat="43.42494" lon="2.27837">
        <ele>783.4</ele>
        <time>2021-08-18T08:25:06Z</time>
      </trkpt>
      <trkpt lat="43.4248" lon="2.27842">
        <ele>780.9</ele>
        <time>2021-08-18T08:25:12Z</time>
      </trkpt>
      <trkpt lat="43.42467" lon="2.27847">
        <ele>778.9</ele>
        <time>2021-08-18T08:25:17Z</time>
      </trkpt>
      <trkpt lat="43.42451" lon="2.27858">
        <ele>776.8</ele>
        <time>2021-08-18T08:25:23Z</time>
      </trkpt>
      <trkpt lat="43.42434" lon="2.27866">
        <ele>774.5</ele>
        <time>2021-08-18T08:25:28Z</time>
      </trkpt>
      <trkpt lat="43.42415" lon="2.27873">
        <ele>777.8</ele>
        <time>2021-08-18T08:25:34Z</time>
      </trkpt>
      <trkpt lat="43.42396" lon="2.27872">
        <ele>778.1</ele>
        <time>2021-08-18T08:25:40Z</time>
      </trkpt>
      <trkpt lat="43.42382" lon="2.27869">
        <ele>777</ele>
        <time>2021-08-18T08:25:45Z</time>
      </trkpt>
      <trkpt lat="43.42361" lon="2.27861">
        <ele>779.4</ele>
        <time>2021-08-18T08:25:51Z</time>
      </trkpt>
      <trkpt lat="43.4234" lon="2.27852">
        <ele>779.3</ele>
        <time>2021-08-18T08:25:57Z</time>
      </trkpt>
      <trkpt lat="43.42321" lon="2.27846">
        <ele>780.7</ele>
        <time>2021-08-18T08:26:03Z</time>
      </trkpt>
      <trkpt lat="43.42308" lon="2.27846">
        <ele>779.8</ele>
        <time>2021-08-18T08:26:08Z</time>
      </trkpt>
      <trkpt lat="43.423" lon="2.27843">
        <ele>781.9</ele>
        <time>2021-08-18T08:26:13Z</time>
      </trkpt>
      <trkpt lat="43.42288" lon="2.27839">
        <ele>781.6</ele>
        <time>2021-08-18T08:26:19Z</time>
      </trkpt>
      <trkpt lat="43.42276" lon="2.27833">
        <ele>780.5</ele>
        <time>2021-08-18T08:26:24Z</time>
      </trkpt>
      <trkpt lat="43.42263" lon="2.27827">
        <ele>781.2</ele>
        <time>2021-08-18T08:26:29Z</time>
      </trkpt>
      <trkpt lat="43.42247" lon="2.27822">
        <ele>783</ele>
        <time>2021-08-18T08:26:35Z</time>
      </trkpt>
      <trkpt lat="43.42229" lon="2.27809">
        <ele>779.7</ele>
        <time>2021-08-18T08:26:41Z</time>
      </trkpt>
      <trkpt lat="43.42217" lon="2.27802">
        <ele>781.2</ele>
        <time>2021-08-18T08:26:46Z</time>
      </trkpt>
      <trkpt lat="43.42208" lon="2.278">
        <ele>783</ele>
        <time>2021-08-18T08:26:51Z</time>
      </trkpt>
      <trkpt lat="43.42197" lon="2.27797">
        <ele>782.2</ele>
        <time>2021-08-18T08:26:57Z</time>
      </trkpt>
      <trkpt lat="43.42189" lon="2.27793">
        <ele>783.9</ele>
        <time>2021-08-18T08:27:02Z</time>
      </trkpt>
      <trkpt lat="43.42178" lon="2.27785">
        <ele>780.2</ele>
        <time>2021-08-18T08:27:08Z</time>
      </trkpt>
      <trkpt lat="43.42165" lon="2.27777">
        <ele>780.7</ele>
        <time>2021-08-18T08:27:14Z</time>
      </trkpt>
      <trkpt lat="43.42154" lon="2.2777">
        <ele>780.5</ele>
        <time>2021-08-18T08:27:19Z</time>
      </trkpt>
      <trkpt lat="43.42143" lon="2.27767">
        <ele>780.8</ele>
        <time>2021-08-18T08:27:25Z</time>
      </trkpt>
      <trkpt lat="43.42136" lon="2.27752">
        <ele>778.8</ele>
        <time>2021-08-18T08:27:30Z</time>
      </trkpt>
      <trkpt lat="43.42137" lon="2.27731">
        <ele>775.8</ele>
        <time>2021-08-18T08:27:35Z</time>
      </trkpt>
      <trkpt lat="43.42142" lon="2.27705">
        <ele>776.8</ele>
        <time>2021-08-18T08:27:41Z</time>
      </trkpt>
      <trkpt lat="43.42146" lon="2.27677">
        <ele>775.4</ele>
        <time>2021-08-18T08:27:47Z</time>
      </trkpt>
      <trkpt lat="43.4215" lon="2.27652">
        <ele>775.1</ele>
        <time>2021-08-18T08:27:52Z</time>
      </trkpt>
      <trkpt lat="43.42157" lon="2.27619">
        <ele>770.4</ele>
        <time>2021-08-18T08:27:58Z</time>
      </trkpt>
      <trkpt lat="43.42162" lon="2.27593">
        <ele>769.9</ele>
        <time>2021-08-18T08:28:04Z</time>
      </trkpt>
      <trkpt lat="43.42165" lon="2.27568">
        <ele>770.2</ele>
        <time>2021-08-18T08:28:10Z</time>
      </trkpt>
      <trkpt lat="43.42168" lon="2.27547">
        <ele>771.9</ele>
        <time>2021-08-18T08:28:15Z</time>
      </trkpt>
      <trkpt lat="43.42171" lon="2.27522">
        <ele>775.1</ele>
        <time>2021-08-18T08:28:21Z</time>
      </trkpt>
      <trkpt lat="43.42173" lon="2.27503">
        <ele>774.1</ele>
        <time>2021-08-18T08:28:26Z</time>
      </trkpt>
      <trkpt lat="43.42168" lon="2.27493">
        <ele>773</ele>
        <time>2021-08-18T08:28:31Z</time>
      </trkpt>
      <trkpt lat="43.42162" lon="2.27484">
        <ele>774.3</ele>
        <time>2021-08-18T08:28:36Z</time>
      </trkpt>
      <trkpt lat="43.42154" lon="2.27475">
        <ele>773.1</ele>
        <time>2021-08-18T08:28:42Z</time>
      </trkpt>
      <trkpt lat="43.42153" lon="2.27469">
        <ele>775.9</ele>
        <time>2021-08-18T08:28:47Z</time>
      </trkpt>
      <trkpt lat="43.42153" lon="2.27468">
        <ele>774.1</ele>
        <time>2021-08-18T08:28:53Z</time>
      </trkpt>
      <trkpt lat="43.42153" lon="2.27468">
        <ele>773.6</ele>
        <time>2021-08-18T08:28:59Z</time>
      </trkpt>
      <trkpt lat="43.42153" lon="2.27468">
        <ele>774</ele>
        <time>2021-08-18T08:29:04Z</time>
      </trkpt>
      <trkpt lat="43.42153" lon="2.27468">
        <ele>774</ele>
        <time>2021-08-18T08:29:09Z</time>
      </trkpt>
      <trkpt lat="43.42153" lon="2.27468">
        <ele>776.3</ele>
        <time>2021-08-18T08:29:15Z</time>
      </trkpt>
      <trkpt lat="43.42153" lon="2.27468">
        <ele>774.5</ele>
        <time>2021-08-18T08:29:21Z</time>
      </trkpt>
      <trkpt lat="43.42153" lon="2.27468">
        <ele>774.3</ele>
        <time>2021-08-18T08:29:26Z</time>
      </trkpt>
      <trkpt lat="43.42153" lon="2.27468">
        <ele>775.1</ele>
        <time>2021-08-18T08:29:31Z</time>
      </trkpt>
      <trkpt lat="43.42153" lon="2.27468">
        <ele>774.4</ele>
        <time>2021-08-18T08:29:37Z</time>
      </trkpt>
      <trkpt lat="43.42153" lon="2.27468">
        <ele>775.4</ele>
        <time>2021-08-18T08:29:42Z</time>
      </trkpt>
      <trkpt lat="43.42153" lon="2.27468">
        <ele>773.3</ele>
        <time>2021-08-18T08:29:48Z</time>
      </trkpt>
      <trkpt lat="43.42153" lon="2.27468">
        <ele>772.3</ele>
        <time>2021-08-18T08:29:53Z</time>
      </trkpt>
      <trkpt lat="43.42153" lon="2.27468">
        <ele>775.7</ele>
        <time>2021-08-18T08:29:59Z</time>
      </trkpt>
      <trkpt lat="43.42153" lon="2.27468">
        <ele>774.2</ele>
        <time>2021-08-18T08:30:04Z</time>
      </trkpt>
      <trkpt lat="43.42153" lon="2.2746">
        <ele>773.3</ele>
        <time>2021-08-18T08:30:09Z</time>
      </trkpt>
      <trkpt lat="43.42161" lon="2.27438">
        <ele>773.1</ele>
        <time>2021-08-18T08:30:14Z</time>
      </trkpt>
      <trkpt lat="43.42165" lon="2.27414">
        <ele>772.4</ele>
        <time>2021-08-18T08:30:19Z</time>
      </trkpt>
      <trkpt lat="43.42168" lon="2.27389">
        <ele>773.4</ele>
        <time>2021-08-18T08:30:25Z</time>
      </trkpt>
      <trkpt lat="43.42174" lon="2.27368">
        <ele>773.4</ele>
        <time>2021-08-18T08:30:31Z</time>
      </trkpt>
      <trkpt lat="43.42181" lon="2.2735">
        <ele>775.8</ele>
        <time>2021-08-18T08:30:37Z</time>
      </trkpt>
      <trkpt lat="43.42189" lon="2.27339">
        <ele>776.6</ele>
        <time>2021-08-18T08:30:42Z</time>
      </trkpt>
      <trkpt lat="43.42194" lon="2.27317">
        <ele>776.4</ele>
        <time>2021-08-18T08:30:48Z</time>
      </trkpt>
      <trkpt lat="43.42191" lon="2.27303">
        <ele>777.5</ele>
        <time>2021-08-18T08:30:53Z</time>
      </trkpt>
      <trkpt lat="43.42184" lon="2.27284">
        <ele>778.9</ele>
        <time>2021-08-18T08:30:59Z</time>
      </trkpt>
      <trkpt lat="43.42185" lon="2.27264">
        <ele>779.9</ele>
        <time>2021-08-18T08:31:05Z</time>
      </trkpt>
      <trkpt lat="43.42191" lon="2.2724">
        <ele>779.3</ele>
        <time>2021-08-18T08:31:11Z</time>
      </trkpt>
      <trkpt lat="43.42193" lon="2.27214">
        <ele>778.6</ele>
        <time>2021-08-18T08:31:17Z</time>
      </trkpt>
      <trkpt lat="43.42205" lon="2.27186">
        <ele>779.8</ele>
        <time>2021-08-18T08:31:23Z</time>
      </trkpt>
      <trkpt lat="43.42208" lon="2.27165">
        <ele>779.4</ele>
        <time>2021-08-18T08:31:28Z</time>
      </trkpt>
      <trkpt lat="43.42206" lon="2.27143">
        <ele>777.9</ele>
        <time>2021-08-18T08:31:33Z</time>
      </trkpt>
      <trkpt lat="43.4221" lon="2.27117">
        <ele>775.2</ele>
        <time>2021-08-18T08:31:39Z</time>
      </trkpt>
      <trkpt lat="43.42212" lon="2.27098">
        <ele>773.4</ele>
        <time>2021-08-18T08:31:44Z</time>
      </trkpt>
      <trkpt lat="43.42219" lon="2.27078">
        <ele>772.5</ele>
        <time>2021-08-18T08:31:50Z</time>
      </trkpt>
      <trkpt lat="43.42225" lon="2.27068">
        <ele>770.8</ele>
        <time>2021-08-18T08:31:55Z</time>
      </trkpt>
      <trkpt lat="43.42228" lon="2.27048">
        <ele>769.9</ele>
        <time>2021-08-18T08:32:01Z</time>
      </trkpt>
      <trkpt lat="43.4223" lon="2.27033">
        <ele>769.2</ele>
        <time>2021-08-18T08:32:06Z</time>
      </trkpt>
      <trkpt lat="43.42236" lon="2.27019">
        <ele>769.9</ele>
        <time>2021-08-18T08:32:11Z</time>
      </trkpt>
      <trkpt lat="43.42236" lon="2.27005">
        <ele>770.8</ele>
        <time>2021-08-18T08:32:16Z</time>
      </trkpt>
      <trkpt lat="43.42234" lon="2.26987">
        <ele>771.6</ele>
        <time>2021-08-18T08:32:22Z</time>
      </trkpt>
      <trkpt lat="43.4223" lon="2.26972">
        <ele>773.9</ele>
        <time>2021-08-18T08:32:27Z</time>
      </trkpt>
      <trkpt lat="43.42228" lon="2.26956">
        <ele>775</ele>
        <time>2021-08-18T08:32:33Z</time>
      </trkpt>
      <trkpt lat="43.42217" lon="2.26938">
        <ele>774.7</ele>
        <time>2021-08-18T08:32:39Z</time>
      </trkpt>
      <trkpt lat="43.42207" lon="2.2692">
        <ele>776.1</ele>
        <time>2021-08-18T08:32:44Z</time>
      </trkpt>
      <trkpt lat="43.422" lon="2.26892">
        <ele>776.4</ele>
        <time>2021-08-18T08:32:50Z</time>
      </trkpt>
      <trkpt lat="43.422" lon="2.26872">
        <ele>776.5</ele>
        <time>2021-08-18T08:32:55Z</time>
      </trkpt>
      <trkpt lat="43.42199" lon="2.2687">
        <ele>776.4</ele>
        <time>2021-08-18T08:33:01Z</time>
      </trkpt>
      <trkpt lat="43.42199" lon="2.2687">
        <ele>776.9</ele>
        <time>2021-08-18T08:33:06Z</time>
      </trkpt>
      <trkpt lat="43.42199" lon="2.2687">
        <ele>777.6</ele>
        <time>2021-08-18T08:33:11Z</time>
      </trkpt>
      <trkpt lat="43.42197" lon="2.26855">
        <ele>777.8</ele>
        <time>2021-08-18T08:33:16Z</time>
      </trkpt>
      <trkpt lat="43.42197" lon="2.26854">
        <ele>776.8</ele>
        <time>2021-08-18T08:33:22Z</time>
      </trkpt>
      <trkpt lat="43.42199" lon="2.26848">
        <ele>777.6</ele>
        <time>2021-08-18T08:33:27Z</time>
      </trkpt>
      <trkpt lat="43.42201" lon="2.26839">
        <ele>776.1</ele>
        <time>2021-08-18T08:33:33Z</time>
      </trkpt>
      <trkpt lat="43.42201" lon="2.26838">
        <ele>777.8</ele>
        <time>2021-08-18T08:33:39Z</time>
      </trkpt>
      <trkpt lat="43.42199" lon="2.26836">
        <ele>776.1</ele>
        <time>2021-08-18T08:33:44Z</time>
      </trkpt>
      <trkpt lat="43.42193" lon="2.26824">
        <ele>777</ele>
        <time>2021-08-18T08:33:50Z</time>
      </trkpt>
      <trkpt lat="43.42184" lon="2.26815">
        <ele>776.7</ele>
        <time>2021-08-18T08:33:55Z</time>
      </trkpt>
      <trkpt lat="43.42173" lon="2.26811">
        <ele>776.9</ele>
        <time>2021-08-18T08:34:01Z</time>
      </trkpt>
      <trkpt lat="43.42165" lon="2.26813">
        <ele>776.6</ele>
        <time>2021-08-18T08:34:06Z</time>
      </trkpt>
      <trkpt lat="43.4216" lon="2.26812">
        <ele>775.3</ele>
        <time>2021-08-18T08:34:11Z</time>
      </trkpt>
      <trkpt lat="43.42148" lon="2.2681">
        <ele>776.5</ele>
        <time>2021-08-18T08:34:17Z</time>
      </trkpt>
      <trkpt lat="43.42141" lon="2.2681">
        <ele>778.3</ele>
        <time>2021-08-18T08:34:22Z</time>
      </trkpt>
      <trkpt lat="43.42124" lon="2.26808">
        <ele>776.1</ele>
        <time>2021-08-18T08:34:28Z</time>
      </trkpt>
      <trkpt lat="43.42111" lon="2.26807">
        <ele>776.8</ele>
        <time>2021-08-18T08:34:34Z</time>
      </trkpt>
      <trkpt lat="43.421" lon="2.26816">
        <ele>777</ele>
        <time>2021-08-18T08:34:39Z</time>
      </trkpt>
      <trkpt lat="43.42087" lon="2.26825">
        <ele>775.6</ele>
        <time>2021-08-18T08:34:45Z</time>
      </trkpt>
      <trkpt lat="43.42076" lon="2.26838">
        <ele>775.4</ele>
        <time>2021-08-18T08:34:50Z</time>
      </trkpt>
      <trkpt lat="43.42066" lon="2.26844">
        <ele>775.5</ele>
        <time>2021-08-18T08:34:56Z</time>
      </trkpt>
      <trkpt lat="43.42057" lon="2.26853">
        <ele>774.9</ele>
        <time>2021-08-18T08:35:01Z</time>
      </trkpt>
      <trkpt lat="43.42047" lon="2.2686">
        <ele>772.3</ele>
        <time>2021-08-18T08:35:06Z</time>
      </trkpt>
      <trkpt lat="43.42041" lon="2.26861">
        <ele>770.8</ele>
        <time>2021-08-18T08:35:12Z</time>
      </trkpt>
      <trkpt lat="43.42029" lon="2.26864">
        <ele>769.8</ele>
        <time>2021-08-18T08:35:17Z</time>
      </trkpt>
      <trkpt lat="43.42018" lon="2.2687">
        <ele>766.5</ele>
        <time>2021-08-18T08:35:23Z</time>
      </trkpt>
      <trkpt lat="43.42007" lon="2.26863">
        <ele>766.4</ele>
        <time>2021-08-18T08:35:28Z</time>
      </trkpt>
      <trkpt lat="43.42002" lon="2.2685">
        <ele>764.8</ele>
        <time>2021-08-18T08:35:33Z</time>
      </trkpt>
      <trkpt lat="43.41997" lon="2.26835">
        <ele>765.1</ele>
        <time>2021-08-18T08:35:39Z</time>
      </trkpt>
      <trkpt lat="43.41991" lon="2.26822">
        <ele>763.2</ele>
        <time>2021-08-18T08:35:44Z</time>
      </trkpt>
      <trkpt lat="43.41989" lon="2.26809">
        <ele>766.4</ele>
        <time>2021-08-18T08:35:49Z</time>
      </trkpt>
      <trkpt lat="43.41991" lon="2.26791">
        <ele>768.1</ele>
        <time>2021-08-18T08:35:55Z</time>
      </trkpt>
      <trkpt lat="43.41994" lon="2.26772">
        <ele>765.1</ele>
        <time>2021-08-18T08:36:01Z</time>
      </trkpt>
      <trkpt lat="43.41996" lon="2.2675">
        <ele>767.2</ele>
        <time>2021-08-18T08:36:07Z</time>
      </trkpt>
      <trkpt lat="43.41998" lon="2.2673">
        <ele>769.6</ele>
        <time>2021-08-18T08:36:13Z</time>
      </trkpt>
      <trkpt lat="43.41998" lon="2.26713">
        <ele>771</ele>
        <time>2021-08-18T08:36:18Z</time>
      </trkpt>
      <trkpt lat="43.41994" lon="2.26695">
        <ele>771.9</ele>
        <time>2021-08-18T08:36:23Z</time>
      </trkpt>
      <trkpt lat="43.41999" lon="2.26672">
        <ele>772.8</ele>
        <time>2021-08-18T08:36:29Z</time>
      </trkpt>
      <trkpt lat="43.42" lon="2.26657">
        <ele>773.9</ele>
        <time>2021-08-18T08:36:34Z</time>
      </trkpt>
      <trkpt lat="43.41997" lon="2.26644">
        <ele>776.4</ele>
        <time>2021-08-18T08:36:40Z</time>
      </trkpt>
      <trkpt lat="43.41996" lon="2.26627">
        <ele>778.5</ele>
        <time>2021-08-18T08:36:46Z</time>
      </trkpt>
      <trkpt lat="43.41997" lon="2.26623">
        <ele>779.1</ele>
        <time>2021-08-18T08:36:51Z</time>
      </trkpt>
      <trkpt lat="43.41997" lon="2.26623">
        <ele>779.2</ele>
        <time>2021-08-18T08:36:57Z</time>
      </trkpt>
      <trkpt lat="43.41997" lon="2.26623">
        <ele>780.1</ele>
        <time>2021-08-18T08:37:03Z</time>
      </trkpt>
      <trkpt lat="43.41991" lon="2.2661">
        <ele>782.5</ele>
        <time>2021-08-18T08:37:09Z</time>
      </trkpt>
      <trkpt lat="43.41991" lon="2.26609">
        <ele>782.2</ele>
        <time>2021-08-18T08:37:15Z</time>
      </trkpt>
      <trkpt lat="43.41991" lon="2.26609">
        <ele>782.2</ele>
        <time>2021-08-18T08:37:20Z</time>
      </trkpt>
      <trkpt lat="43.41991" lon="2.26609">
        <ele>782.7</ele>
        <time>2021-08-18T08:37:26Z</time>
      </trkpt>
      <trkpt lat="43.41978" lon="2.26598">
        <ele>782.3</ele>
        <time>2021-08-18T08:37:32Z</time>
      </trkpt>
      <trkpt lat="43.41965" lon="2.26593">
        <ele>780.1</ele>
        <time>2021-08-18T08:37:38Z</time>
      </trkpt>
      <trkpt lat="43.41958" lon="2.26596">
        <ele>779.3</ele>
        <time>2021-08-18T08:37:43Z</time>
      </trkpt>
      <trkpt lat="43.41951" lon="2.26601">
        <ele>781.3</ele>
        <time>2021-08-18T08:37:49Z</time>
      </trkpt>
      <trkpt lat="43.41942" lon="2.26608">
        <ele>782.3</ele>
        <time>2021-08-18T08:37:55Z</time>
      </trkpt>
      <trkpt lat="43.41928" lon="2.26616">
        <ele>779.6</ele>
        <time>2021-08-18T08:38:00Z</time>
      </trkpt>
      <trkpt lat="43.41914" lon="2.26629">
        <ele>777</ele>
        <time>2021-08-18T08:38:06Z</time>
      </trkpt>
      <trkpt lat="43.41892" lon="2.26639">
        <ele>772</ele>
        <time>2021-08-18T08:38:12Z</time>
      </trkpt>
      <trkpt lat="43.41874" lon="2.26647">
        <ele>767.1</ele>
        <time>2021-08-18T08:38:18Z</time>
      </trkpt>
      <trkpt lat="43.41864" lon="2.2666">
        <ele>766.3</ele>
        <time>2021-08-18T08:38:23Z</time>
      </trkpt>
      <trkpt lat="43.41849" lon="2.26667">
        <ele>766.5</ele>
        <time>2021-08-18T08:38:29Z</time>
      </trkpt>
      <trkpt lat="43.41838" lon="2.26674">
        <ele>764.3</ele>
        <time>2021-08-18T08:38:34Z</time>
      </trkpt>
      <trkpt lat="43.41827" lon="2.26681">
        <ele>765.5</ele>
        <time>2021-08-18T08:38:39Z</time>
      </trkpt>
      <trkpt lat="43.41817" lon="2.26676">
        <ele>765</ele>
        <time>2021-08-18T08:38:45Z</time>
      </trkpt>
      <trkpt lat="43.4181" lon="2.26672">
        <ele>760.7</ele>
        <time>2021-08-18T08:38:50Z</time>
      </trkpt>
      <trkpt lat="43.418" lon="2.26676">
        <ele>763.1</ele>
        <time>2021-08-18T08:38:56Z</time>
      </trkpt>
      <trkpt lat="43.41787" lon="2.26685">
        <ele>763.1</ele>
        <time>2021-08-18T08:39:01Z</time>
      </trkpt>
      <trkpt lat="43.41776" lon="2.26697">
        <ele>764.9</ele>
        <time>2021-08-18T08:39:07Z</time>
      </trkpt>
      <trkpt lat="43.41771" lon="2.26707">
        <ele>766.6</ele>
        <time>2021-08-18T08:39:12Z</time>
      </trkpt>
      <trkpt lat="43.41766" lon="2.26716">
        <ele>768</ele>
        <time>2021-08-18T08:39:17Z</time>
      </trkpt>
      <trkpt lat="43.41759" lon="2.26725">
        <ele>768</ele>
        <time>2021-08-18T08:39:23Z</time>
      </trkpt>
      <trkpt lat="43.41751" lon="2.26732">
        <ele>768.2</ele>
        <time>2021-08-18T08:39:29Z</time>
      </trkpt>
      <trkpt lat="43.41745" lon="2.26749">
        <ele>772.5</ele>
        <time>2021-08-18T08:39:35Z</time>
      </trkpt>
      <trkpt lat="43.41738" lon="2.26771">
        <ele>777</ele>
        <time>2021-08-18T08:39:41Z</time>
      </trkpt>
      <trkpt lat="43.41734" lon="2.26785">
        <ele>778.7</ele>
        <time>2021-08-18T08:39:46Z</time>
      </trkpt>
      <trkpt lat="43.41727" lon="2.26797">
        <ele>778.4</ele>
        <time>2021-08-18T08:39:52Z</time>
      </trkpt>
      <trkpt lat="43.41721" lon="2.26819">
        <ele>780.3</ele>
        <time>2021-08-18T08:39:57Z</time>
      </trkpt>
      <trkpt lat="43.41709" lon="2.2683">
        <ele>776.4</ele>
        <time>2021-08-18T08:40:03Z</time>
      </trkpt>
      <trkpt lat="43.41699" lon="2.26832">
        <ele>778.1</ele>
        <time>2021-08-18T08:40:09Z</time>
      </trkpt>
      <trkpt lat="43.41692" lon="2.26839">
        <ele>777.6</ele>
        <time>2021-08-18T08:40:15Z</time>
      </trkpt>
      <trkpt lat="43.41685" lon="2.2685">
        <ele>775</ele>
        <time>2021-08-18T08:40:20Z</time>
      </trkpt>
      <trkpt lat="43.41677" lon="2.2686">
        <ele>773.9</ele>
        <time>2021-08-18T08:40:26Z</time>
      </trkpt>
      <trkpt lat="43.41665" lon="2.26873">
        <ele>772.6</ele>
        <time>2021-08-18T08:40:31Z</time>
      </trkpt>
      <trkpt lat="43.4165" lon="2.2688">
        <ele>770.9</ele>
        <time>2021-08-18T08:40:37Z</time>
      </trkpt>
      <trkpt lat="43.41638" lon="2.26892">
        <ele>769</ele>
        <time>2021-08-18T08:40:42Z</time>
      </trkpt>
      <trkpt lat="43.41629" lon="2.26914">
        <ele>768.7</ele>
        <time>2021-08-18T08:40:48Z</time>
      </trkpt>
      <trkpt lat="43.41621" lon="2.26919">
        <ele>769.3</ele>
        <time>2021-08-18T08:40:54Z</time>
      </trkpt>
      <trkpt lat="43.41611" lon="2.26929">
        <ele>771.7</ele>
        <time>2021-08-18T08:41:00Z</time>
      </trkpt>
      <trkpt lat="43.41603" lon="2.26933">
        <ele>771.9</ele>
        <time>2021-08-18T08:41:05Z</time>
      </trkpt>
      <trkpt lat="43.4159" lon="2.26939">
        <ele>773.5</ele>
        <time>2021-08-18T08:41:11Z</time>
      </trkpt>
      <trkpt lat="43.41583" lon="2.26941">
        <ele>773.3</ele>
        <time>2021-08-18T08:41:16Z</time>
      </trkpt>
      <trkpt lat="43.41569" lon="2.26953">
        <ele>774.8</ele>
        <time>2021-08-18T08:41:22Z</time>
      </trkpt>
      <trkpt lat="43.41559" lon="2.26956">
        <ele>772.7</ele>
        <time>2021-08-18T08:41:27Z</time>
      </trkpt>
      <trkpt lat="43.41548" lon="2.26963">
        <ele>775.6</ele>
        <time>2021-08-18T08:41:33Z</time>
      </trkpt>
      <trkpt lat="43.41538" lon="2.26967">
        <ele>775.4</ele>
        <time>2021-08-18T08:41:39Z</time>
      </trkpt>
      <trkpt lat="43.41527" lon="2.26959">
        <ele>774.7</ele>
        <time>2021-08-18T08:41:44Z</time>
      </trkpt>
      <trkpt lat="43.41519" lon="2.26948">
        <ele>773.7</ele>
        <time>2021-08-18T08:41:50Z</time>
      </trkpt>
      <trkpt lat="43.41512" lon="2.26939">
        <ele>776.4</ele>
        <time>2021-08-18T08:41:55Z</time>
      </trkpt>
      <trkpt lat="43.41504" lon="2.26936">
        <ele>775</ele>
        <time>2021-08-18T08:42:01Z</time>
      </trkpt>
      <trkpt lat="43.41492" lon="2.26935">
        <ele>775.9</ele>
        <time>2021-08-18T08:42:07Z</time>
      </trkpt>
      <trkpt lat="43.4148" lon="2.26943">
        <ele>775.1</ele>
        <time>2021-08-18T08:42:12Z</time>
      </trkpt>
      <trkpt lat="43.41468" lon="2.26952">
        <ele>775.6</ele>
        <time>2021-08-18T08:42:18Z</time>
      </trkpt>
      <trkpt lat="43.41457" lon="2.26966">
        <ele>773.9</ele>
        <time>2021-08-18T08:42:23Z</time>
      </trkpt>
      <trkpt lat="43.41448" lon="2.26976">
        <ele>774.7</ele>
        <time>2021-08-18T08:42:28Z</time>
      </trkpt>
      <trkpt lat="43.41437" lon="2.26991">
        <ele>778.9</ele>
        <time>2021-08-18T08:42:34Z</time>
      </trkpt>
      <trkpt lat="43.41428" lon="2.27006">
        <ele>782.2</ele>
        <time>2021-08-18T08:42:39Z</time>
      </trkpt>
      <trkpt lat="43.41421" lon="2.27028">
        <ele>784.5</ele>
        <time>2021-08-18T08:42:45Z</time>
      </trkpt>
      <trkpt lat="43.4141" lon="2.27043">
        <ele>785.8</ele>
        <time>2021-08-18T08:42:51Z</time>
      </trkpt>
      <trkpt lat="43.41401" lon="2.27066">
        <ele>788.6</ele>
        <time>2021-08-18T08:42:57Z</time>
      </trkpt>
      <trkpt lat="43.41397" lon="2.27087">
        <ele>788.4</ele>
        <time>2021-08-18T08:43:02Z</time>
      </trkpt>
      <trkpt lat="43.41388" lon="2.27107">
        <ele>787.8</ele>
        <time>2021-08-18T08:43:07Z</time>
      </trkpt>
      <trkpt lat="43.4138" lon="2.27125">
        <ele>788.3</ele>
        <time>2021-08-18T08:43:12Z</time>
      </trkpt>
      <trkpt lat="43.41372" lon="2.27144">
        <ele>787.1</ele>
        <time>2021-08-18T08:43:18Z</time>
      </trkpt>
      <trkpt lat="43.41367" lon="2.27167">
        <ele>787.6</ele>
        <time>2021-08-18T08:43:23Z</time>
      </trkpt>
      <trkpt lat="43.41361" lon="2.27192">
        <ele>786.5</ele>
        <time>2021-08-18T08:43:29Z</time>
      </trkpt>
      <trkpt lat="43.41353" lon="2.27219">
        <ele>783.9</ele>
        <time>2021-08-18T08:43:35Z</time>
      </trkpt>
      <trkpt lat="43.41346" lon="2.2724">
        <ele>780.9</ele>
        <time>2021-08-18T08:43:41Z</time>
      </trkpt>
      <trkpt lat="43.41338" lon="2.27269">
        <ele>781.3</ele>
        <time>2021-08-18T08:43:47Z</time>
      </trkpt>
      <trkpt lat="43.41332" lon="2.27296">
        <ele>782.7</ele>
        <time>2021-08-18T08:43:53Z</time>
      </trkpt>
      <trkpt lat="43.41325" lon="2.27323">
        <ele>784.9</ele>
        <time>2021-08-18T08:43:59Z</time>
      </trkpt>
      <trkpt lat="43.4132" lon="2.27351">
        <ele>788.2</ele>
        <time>2021-08-18T08:44:05Z</time>
      </trkpt>
      <trkpt lat="43.41319" lon="2.27368">
        <ele>789</ele>
        <time>2021-08-18T08:44:10Z</time>
      </trkpt>
      <trkpt lat="43.41321" lon="2.27385">
        <ele>788.5</ele>
        <time>2021-08-18T08:44:16Z</time>
      </trkpt>
      <trkpt lat="43.41314" lon="2.27407">
        <ele>786.2</ele>
        <time>2021-08-18T08:44:22Z</time>
      </trkpt>
      <trkpt lat="43.4131" lon="2.27423">
        <ele>785.6</ele>
        <time>2021-08-18T08:44:27Z</time>
      </trkpt>
      <trkpt lat="43.41302" lon="2.27438">
        <ele>783.2</ele>
        <time>2021-08-18T08:44:33Z</time>
      </trkpt>
      <trkpt lat="43.41308" lon="2.27457">
        <ele>781.5</ele>
        <time>2021-08-18T08:44:39Z</time>
      </trkpt>
      <trkpt lat="43.41312" lon="2.27474">
        <ele>779.6</ele>
        <time>2021-08-18T08:44:45Z</time>
      </trkpt>
      <trkpt lat="43.41312" lon="2.27492">
        <ele>779.2</ele>
        <time>2021-08-18T08:44:50Z</time>
      </trkpt>
      <trkpt lat="43.41321" lon="2.27512">
        <ele>776.9</ele>
        <time>2021-08-18T08:44:56Z</time>
      </trkpt>
      <trkpt lat="43.41329" lon="2.27526">
        <ele>773.6</ele>
        <time>2021-08-18T08:45:02Z</time>
      </trkpt>
      <trkpt lat="43.41338" lon="2.2753">
        <ele>774.5</ele>
        <time>2021-08-18T08:45:07Z</time>
      </trkpt>
      <trkpt lat="43.41346" lon="2.27526">
        <ele>775.2</ele>
        <time>2021-08-18T08:45:12Z</time>
      </trkpt>
      <trkpt lat="43.41352" lon="2.2752">
        <ele>775.2</ele>
        <time>2021-08-18T08:45:18Z</time>
      </trkpt>
      <trkpt lat="43.41352" lon="2.27521">
        <ele>775.5</ele>
        <time>2021-08-18T08:45:24Z</time>
      </trkpt>
      <trkpt lat="43.41352" lon="2.27521">
        <ele>775</ele>
        <time>2021-08-18T08:45:30Z</time>
      </trkpt>
      <trkpt lat="43.41352" lon="2.27521">
        <ele>774.3</ele>
        <time>2021-08-18T08:45:36Z</time>
      </trkpt>
      <trkpt lat="43.41352" lon="2.27521">
        <ele>775.2</ele>
        <time>2021-08-18T08:45:42Z</time>
      </trkpt>
      <trkpt lat="43.41352" lon="2.27521">
        <ele>774.6</ele>
        <time>2021-08-18T08:45:47Z</time>
      </trkpt>
      <trkpt lat="43.41351" lon="2.27519">
        <ele>775.4</ele>
        <time>2021-08-18T08:45:53Z</time>
      </trkpt>
      <trkpt lat="43.41343" lon="2.27524">
        <ele>773</ele>
        <time>2021-08-18T08:45:59Z</time>
      </trkpt>
      <trkpt lat="43.41334" lon="2.27531">
        <ele>772.8</ele>
        <time>2021-08-18T08:46:05Z</time>
      </trkpt>
      <trkpt lat="43.41323" lon="2.27525">
        <ele>772.4</ele>
        <time>2021-08-18T08:46:10Z</time>
      </trkpt>
      <trkpt lat="43.41314" lon="2.27511">
        <ele>773.4</ele>
        <time>2021-08-18T08:46:15Z</time>
      </trkpt>
      <trkpt lat="43.41304" lon="2.27498">
        <ele>773.3</ele>
        <time>2021-08-18T08:46:21Z</time>
      </trkpt>
      <trkpt lat="43.413" lon="2.27494">
        <ele>774.5</ele>
        <time>2021-08-18T08:46:26Z</time>
      </trkpt>
      <trkpt lat="43.413" lon="2.27494">
        <ele>774.3</ele>
        <time>2021-08-18T08:46:31Z</time>
      </trkpt>
      <trkpt lat="43.4131" lon="2.27492">
        <ele>772.2</ele>
        <time>2021-08-18T08:46:37Z</time>
      </trkpt>
      <trkpt lat="43.41314" lon="2.27471">
        <ele>772.9</ele>
        <time>2021-08-18T08:46:43Z</time>
      </trkpt>
      <trkpt lat="43.41317" lon="2.27459">
        <ele>771.2</ele>
        <time>2021-08-18T08:46:49Z</time>
      </trkpt>
      <trkpt lat="43.41318" lon="2.27459">
        <ele>772.6</ele>
        <time>2021-08-18T08:46:55Z</time>
      </trkpt>
      <trkpt lat="43.41318" lon="2.27459">
        <ele>774.5</ele>
        <time>2021-08-18T08:47:01Z</time>
      </trkpt>
      <trkpt lat="43.41318" lon="2.27459">
        <ele>773.4</ele>
        <time>2021-08-18T08:47:06Z</time>
      </trkpt>
      <trkpt lat="43.41318" lon="2.27459">
        <ele>772.5</ele>
        <time>2021-08-18T08:47:12Z</time>
      </trkpt>
      <trkpt lat="43.41318" lon="2.27459">
        <ele>774.5</ele>
        <time>2021-08-18T08:47:18Z</time>
      </trkpt>
      <trkpt lat="43.41318" lon="2.27459">
        <ele>774.6</ele>
        <time>2021-08-18T08:47:23Z</time>
      </trkpt>
      <trkpt lat="43.41318" lon="2.27459">
        <ele>773.9</ele>
        <time>2021-08-18T08:47:29Z</time>
      </trkpt>
      <trkpt lat="43.41318" lon="2.27459">
        <ele>772.2</ele>
        <time>2021-08-18T08:47:34Z</time>
      </trkpt>
      <trkpt lat="43.41318" lon="2.27459">
        <ele>773.6</ele>
        <time>2021-08-18T08:47:40Z</time>
      </trkpt>
      <trkpt lat="43.41318" lon="2.27459">
        <ele>772.8</ele>
        <time>2021-08-18T08:47:46Z</time>
      </trkpt>
      <trkpt lat="43.41318" lon="2.27459">
        <ele>772.9</ele>
        <time>2021-08-18T08:47:51Z</time>
      </trkpt>
      <trkpt lat="43.41318" lon="2.27459">
        <ele>772.4</ele>
        <time>2021-08-18T08:47:57Z</time>
      </trkpt>
      <trkpt lat="43.41318" lon="2.27459">
        <ele>771.9</ele>
        <time>2021-08-18T08:48:03Z</time>
      </trkpt>
      <trkpt lat="43.41318" lon="2.27459">
        <ele>772.7</ele>
        <time>2021-08-18T08:48:09Z</time>
      </trkpt>
      <trkpt lat="43.41318" lon="2.27459">
        <ele>772.7</ele>
        <time>2021-08-18T08:48:15Z</time>
      </trkpt>
      <trkpt lat="43.41318" lon="2.27459">
        <ele>773</ele>
        <time>2021-08-18T08:48:20Z</time>
      </trkpt>
      <trkpt lat="43.41318" lon="2.27459">
        <ele>773.6</ele>
        <time>2021-08-18T08:48:26Z</time>
      </trkpt>
      <trkpt lat="43.41318" lon="2.27459">
        <ele>772.7</ele>
        <time>2021-08-18T08:48:31Z</time>
      </trkpt>
      <trkpt lat="43.41318" lon="2.27459">
        <ele>771.2</ele>
        <time>2021-08-18T08:48:36Z</time>
      </trkpt>
      <trkpt lat="43.41318" lon="2.27459">
        <ele>773.2</ele>
        <time>2021-08-18T08:48:41Z</time>
      </trkpt>
      <trkpt lat="43.41318" lon="2.27459">
        <ele>772.5</ele>
        <time>2021-08-18T08:48:47Z</time>
      </trkpt>
      <trkpt lat="43.41318" lon="2.27459">
        <ele>772.9</ele>
        <time>2021-08-18T08:48:53Z</time>
      </trkpt>
      <trkpt lat="43.41318" lon="2.27459">
        <ele>773.2</ele>
        <time>2021-08-18T08:48:58Z</time>
      </trkpt>
      <trkpt lat="43.41318" lon="2.27459">
        <ele>773.5</ele>
        <time>2021-08-18T08:49:04Z</time>
      </trkpt>
      <trkpt lat="43.41318" lon="2.27459">
        <ele>773.4</ele>
        <time>2021-08-18T08:49:09Z</time>
      </trkpt>
      <trkpt lat="43.41318" lon="2.27459">
        <ele>773.8</ele>
        <time>2021-08-18T08:49:15Z</time>
      </trkpt>
      <trkpt lat="43.41318" lon="2.27459">
        <ele>773.3</ele>
        <time>2021-08-18T08:49:21Z</time>
      </trkpt>
      <trkpt lat="43.41318" lon="2.27459">
        <ele>773</ele>
        <time>2021-08-18T08:49:26Z</time>
      </trkpt>
      <trkpt lat="43.41318" lon="2.27459">
        <ele>772.9</ele>
        <time>2021-08-18T08:49:31Z</time>
      </trkpt>
      <trkpt lat="43.41318" lon="2.27459">
        <ele>773.1</ele>
        <time>2021-08-18T08:49:36Z</time>
      </trkpt>
      <trkpt lat="43.41318" lon="2.27459">
        <ele>774</ele>
        <time>2021-08-18T08:49:42Z</time>
      </trkpt>
      <trkpt lat="43.41318" lon="2.27459">
        <ele>773.1</ele>
        <time>2021-08-18T08:49:48Z</time>
      </trkpt>
      <trkpt lat="43.41318" lon="2.27459">
        <ele>773.4</ele>
        <time>2021-08-18T08:49:54Z</time>
      </trkpt>
      <trkpt lat="43.41318" lon="2.27459">
        <ele>773.3</ele>
        <time>2021-08-18T08:49:59Z</time>
      </trkpt>
      <trkpt lat="43.41318" lon="2.27459">
        <ele>771.7</ele>
        <time>2021-08-18T08:50:04Z</time>
      </trkpt>
      <trkpt lat="43.41318" lon="2.27459">
        <ele>773</ele>
        <time>2021-08-18T08:50:10Z</time>
      </trkpt>
      <trkpt lat="43.41318" lon="2.27459">
        <ele>772.6</ele>
        <time>2021-08-18T08:50:15Z</time>
      </trkpt>
      <trkpt lat="43.41318" lon="2.27459">
        <ele>773.9</ele>
        <time>2021-08-18T08:50:21Z</time>
      </trkpt>
      <trkpt lat="43.41318" lon="2.27459">
        <ele>773.1</ele>
        <time>2021-08-18T08:50:26Z</time>
      </trkpt>
      <trkpt lat="43.41318" lon="2.27459">
        <ele>771.9</ele>
        <time>2021-08-18T08:50:31Z</time>
      </trkpt>
      <trkpt lat="43.41318" lon="2.27459">
        <ele>772.8</ele>
        <time>2021-08-18T08:50:37Z</time>
      </trkpt>
      <trkpt lat="43.41318" lon="2.27459">
        <ele>773.1</ele>
        <time>2021-08-18T08:50:42Z</time>
      </trkpt>
      <trkpt lat="43.41318" lon="2.27459">
        <ele>773.7</ele>
        <time>2021-08-18T08:50:48Z</time>
      </trkpt>
      <trkpt lat="43.41318" lon="2.27459">
        <ele>773.6</ele>
        <time>2021-08-18T08:50:54Z</time>
      </trkpt>
      <trkpt lat="43.41318" lon="2.27459">
        <ele>772.3</ele>
        <time>2021-08-18T08:50:59Z</time>
      </trkpt>
      <trkpt lat="43.41318" lon="2.27459">
        <ele>773.1</ele>
        <time>2021-08-18T08:51:04Z</time>
      </trkpt>
      <trkpt lat="43.41318" lon="2.27459">
        <ele>772.5</ele>
        <time>2021-08-18T08:51:10Z</time>
      </trkpt>
      <trkpt lat="43.41318" lon="2.27459">
        <ele>775</ele>
        <time>2021-08-18T08:51:16Z</time>
      </trkpt>
      <trkpt lat="43.41318" lon="2.27459">
        <ele>772.8</ele>
        <time>2021-08-18T08:51:22Z</time>
      </trkpt>
      <trkpt lat="43.41316" lon="2.27476">
        <ele>770.3</ele>
        <time>2021-08-18T08:51:28Z</time>
      </trkpt>
      <trkpt lat="43.4131" lon="2.27487">
        <ele>773.3</ele>
        <time>2021-08-18T08:51:33Z</time>
      </trkpt>
      <trkpt lat="43.413" lon="2.27494">
        <ele>774.3</ele>
        <time>2021-08-18T08:51:39Z</time>
      </trkpt>
      <trkpt lat="43.41285" lon="2.27491">
        <ele>772.7</ele>
        <time>2021-08-18T08:51:44Z</time>
      </trkpt>
      <trkpt lat="43.4127" lon="2.27488">
        <ele>772.5</ele>
        <time>2021-08-18T08:51:50Z</time>
      </trkpt>
      <trkpt lat="43.41255" lon="2.27484">
        <ele>773</ele>
        <time>2021-08-18T08:51:56Z</time>
      </trkpt>
      <trkpt lat="43.41244" lon="2.27485">
        <ele>773.4</ele>
        <time>2021-08-18T08:52:01Z</time>
      </trkpt>
      <trkpt lat="43.41235" lon="2.27483">
        <ele>771.8</ele>
        <time>2021-08-18T08:52:06Z</time>
      </trkpt>
      <trkpt lat="43.41223" lon="2.27473">
        <ele>771.1</ele>
        <time>2021-08-18T08:52:12Z</time>
      </trkpt>
      <trkpt lat="43.41214" lon="2.27461">
        <ele>771.6</ele>
        <time>2021-08-18T08:52:18Z</time>
      </trkpt>
      <trkpt lat="43.41207" lon="2.27456">
        <ele>772.3</ele>
        <time>2021-08-18T08:52:23Z</time>
      </trkpt>
      <trkpt lat="43.41197" lon="2.27451">
        <ele>772</ele>
        <time>2021-08-18T08:52:28Z</time>
      </trkpt>
      <trkpt lat="43.4119" lon="2.27447">
        <ele>772.6</ele>
        <time>2021-08-18T08:52:34Z</time>
      </trkpt>
      <trkpt lat="43.41179" lon="2.27444">
        <ele>774</ele>
        <time>2021-08-18T08:52:39Z</time>
      </trkpt>
      <trkpt lat="43.4117" lon="2.27435">
        <ele>773.6</ele>
        <time>2021-08-18T08:52:44Z</time>
      </trkpt>
      <trkpt lat="43.41166" lon="2.27426">
        <ele>774.6</ele>
        <time>2021-08-18T08:52:50Z</time>
      </trkpt>
      <trkpt lat="43.41165" lon="2.27426">
        <ele>773.6</ele>
        <time>2021-08-18T08:52:56Z</time>
      </trkpt>
      <trkpt lat="43.41165" lon="2.27419">
        <ele>774.8</ele>
        <time>2021-08-18T08:53:02Z</time>
      </trkpt>
      <trkpt lat="43.41164" lon="2.27409">
        <ele>775.2</ele>
        <time>2021-08-18T08:53:08Z</time>
      </trkpt>
      <trkpt lat="43.41164" lon="2.27409">
        <ele>775.5</ele>
        <time>2021-08-18T08:53:13Z</time>
      </trkpt>
      <trkpt lat="43.4116" lon="2.27397">
        <ele>778.7</ele>
        <time>2021-08-18T08:53:19Z</time>
      </trkpt>
      <trkpt lat="43.4116" lon="2.27396">
        <ele>779.2</ele>
        <time>2021-08-18T08:53:24Z</time>
      </trkpt>
      <trkpt lat="43.41162" lon="2.27402">
        <ele>779.1</ele>
        <time>2021-08-18T08:53:30Z</time>
      </trkpt>
      <trkpt lat="43.41164" lon="2.27415">
        <ele>778</ele>
        <time>2021-08-18T08:53:36Z</time>
      </trkpt>
      <trkpt lat="43.41165" lon="2.27424">
        <ele>778.8</ele>
        <time>2021-08-18T08:53:41Z</time>
      </trkpt>
      <trkpt lat="43.41164" lon="2.27424">
        <ele>779</ele>
        <time>2021-08-18T08:53:47Z</time>
      </trkpt>
      <trkpt lat="43.41181" lon="2.27438">
        <ele>778.3</ele>
        <time>2021-08-18T08:53:53Z</time>
      </trkpt>
      <trkpt lat="43.41205" lon="2.27452">
        <ele>777.9</ele>
        <time>2021-08-18T08:53:59Z</time>
      </trkpt>
      <trkpt lat="43.41219" lon="2.27474">
        <ele>776.7</ele>
        <time>2021-08-18T08:54:04Z</time>
      </trkpt>
      <trkpt lat="43.41216" lon="2.27483">
        <ele>777.4</ele>
        <time>2021-08-18T08:54:10Z</time>
      </trkpt>
      <trkpt lat="43.41199" lon="2.27496">
        <ele>775.9</ele>
        <time>2021-08-18T08:54:15Z</time>
      </trkpt>
      <trkpt lat="43.41185" lon="2.27511">
        <ele>768.7</ele>
        <time>2021-08-18T08:54:20Z</time>
      </trkpt>
      <trkpt lat="43.41173" lon="2.27534">
        <ele>769.3</ele>
        <time>2021-08-18T08:54:26Z</time>
      </trkpt>
      <trkpt lat="43.41158" lon="2.27554">
        <ele>766.9</ele>
        <time>2021-08-18T08:54:32Z</time>
      </trkpt>
      <trkpt lat="43.41143" lon="2.27571">
        <ele>761.4</ele>
        <time>2021-08-18T08:54:37Z</time>
      </trkpt>
      <trkpt lat="43.4113" lon="2.27583">
        <ele>759.4</ele>
        <time>2021-08-18T08:54:42Z</time>
      </trkpt>
      <trkpt lat="43.41116" lon="2.27596">
        <ele>759.8</ele>
        <time>2021-08-18T08:54:48Z</time>
      </trkpt>
      <trkpt lat="43.41104" lon="2.27611">
        <ele>759.5</ele>
        <time>2021-08-18T08:54:53Z</time>
      </trkpt>
      <trkpt lat="43.41097" lon="2.27628">
        <ele>757.4</ele>
        <time>2021-08-18T08:54:59Z</time>
      </trkpt>
      <trkpt lat="43.41093" lon="2.27644">
        <ele>760.1</ele>
        <time>2021-08-18T08:55:05Z</time>
      </trkpt>
      <trkpt lat="43.41088" lon="2.27657">
        <ele>759.7</ele>
        <time>2021-08-18T08:55:10Z</time>
      </trkpt>
      <trkpt lat="43.41078" lon="2.27672">
        <ele>759.9</ele>
        <time>2021-08-18T08:55:16Z</time>
      </trkpt>
      <trkpt lat="43.41074" lon="2.27678">
        <ele>757.3</ele>
        <time>2021-08-18T08:55:22Z</time>
      </trkpt>
      <trkpt lat="43.41068" lon="2.27692">
        <ele>755.9</ele>
        <time>2021-08-18T08:55:28Z</time>
      </trkpt>
      <trkpt lat="43.41062" lon="2.27696">
        <ele>754.6</ele>
        <time>2021-08-18T08:55:33Z</time>
      </trkpt>
      <trkpt lat="43.4106" lon="2.27697">
        <ele>752.9</ele>
        <time>2021-08-18T08:55:39Z</time>
      </trkpt>
      <trkpt lat="43.4105" lon="2.27709">
        <ele>751.3</ele>
        <time>2021-08-18T08:55:45Z</time>
      </trkpt>
      <trkpt lat="43.41043" lon="2.27723">
        <ele>751.7</ele>
        <time>2021-08-18T08:55:51Z</time>
      </trkpt>
      <trkpt lat="43.41039" lon="2.27732">
        <ele>749.4</ele>
        <time>2021-08-18T08:55:56Z</time>
      </trkpt>
      <trkpt lat="43.41028" lon="2.27739">
        <ele>751</ele>
        <time>2021-08-18T08:56:01Z</time>
      </trkpt>
      <trkpt lat="43.4102" lon="2.27745">
        <ele>750.8</ele>
        <time>2021-08-18T08:56:07Z</time>
      </trkpt>
      <trkpt lat="43.4101" lon="2.27756">
        <ele>751.1</ele>
        <time>2021-08-18T08:56:13Z</time>
      </trkpt>
      <trkpt lat="43.41003" lon="2.27762">
        <ele>750.6</ele>
        <time>2021-08-18T08:56:18Z</time>
      </trkpt>
      <trkpt lat="43.40997" lon="2.27769">
        <ele>752</ele>
        <time>2021-08-18T08:56:23Z</time>
      </trkpt>
      <trkpt lat="43.40993" lon="2.27776">
        <ele>753.6</ele>
        <time>2021-08-18T08:56:28Z</time>
      </trkpt>
      <trkpt lat="43.40988" lon="2.27781">
        <ele>753.1</ele>
        <time>2021-08-18T08:56:34Z</time>
      </trkpt>
      <trkpt lat="43.40981" lon="2.27789">
        <ele>755.7</ele>
        <time>2021-08-18T08:56:40Z</time>
      </trkpt>
      <trkpt lat="43.40977" lon="2.27794">
        <ele>756.1</ele>
        <time>2021-08-18T08:56:45Z</time>
      </trkpt>
      <trkpt lat="43.40975" lon="2.27796">
        <ele>755.6</ele>
        <time>2021-08-18T08:56:50Z</time>
      </trkpt>
      <trkpt lat="43.40966" lon="2.278">
        <ele>756.7</ele>
        <time>2021-08-18T08:56:55Z</time>
      </trkpt>
      <trkpt lat="43.40954" lon="2.27809">
        <ele>759.2</ele>
        <time>2021-08-18T08:57:01Z</time>
      </trkpt>
      <trkpt lat="43.40949" lon="2.27813">
        <ele>759.9</ele>
        <time>2021-08-18T08:57:06Z</time>
      </trkpt>
      <trkpt lat="43.40946" lon="2.27811">
        <ele>760.9</ele>
        <time>2021-08-18T08:57:12Z</time>
      </trkpt>
      <trkpt lat="43.40938" lon="2.278">
        <ele>763.1</ele>
        <time>2021-08-18T08:57:17Z</time>
      </trkpt>
      <trkpt lat="43.4093" lon="2.27798">
        <ele>765.4</ele>
        <time>2021-08-18T08:57:23Z</time>
      </trkpt>
      <trkpt lat="43.40921" lon="2.27791">
        <ele>768.1</ele>
        <time>2021-08-18T08:57:29Z</time>
      </trkpt>
      <trkpt lat="43.4092" lon="2.2779">
        <ele>768.9</ele>
        <time>2021-08-18T08:57:35Z</time>
      </trkpt>
      <trkpt lat="43.4092" lon="2.2779">
        <ele>768.8</ele>
        <time>2021-08-18T08:57:40Z</time>
      </trkpt>
      <trkpt lat="43.4092" lon="2.2779">
        <ele>769</ele>
        <time>2021-08-18T08:57:46Z</time>
      </trkpt>
      <trkpt lat="43.4092" lon="2.2779">
        <ele>768.5</ele>
        <time>2021-08-18T08:57:52Z</time>
      </trkpt>
      <trkpt lat="43.4092" lon="2.2779">
        <ele>767.9</ele>
        <time>2021-08-18T08:57:57Z</time>
      </trkpt>
      <trkpt lat="43.4092" lon="2.2779">
        <ele>768.4</ele>
        <time>2021-08-18T08:58:02Z</time>
      </trkpt>
      <trkpt lat="43.4092" lon="2.2779">
        <ele>769.1</ele>
        <time>2021-08-18T08:58:08Z</time>
      </trkpt>
      <trkpt lat="43.40914" lon="2.27784">
        <ele>774.3</ele>
        <time>2021-08-18T08:58:14Z</time>
      </trkpt>
      <trkpt lat="43.40912" lon="2.2778">
        <ele>775.9</ele>
        <time>2021-08-18T08:58:20Z</time>
      </trkpt>
      <trkpt lat="43.40912" lon="2.2778">
        <ele>777.2</ele>
        <time>2021-08-18T08:58:26Z</time>
      </trkpt>
      <trkpt lat="43.40912" lon="2.2778">
        <ele>777.5</ele>
        <time>2021-08-18T08:58:32Z</time>
      </trkpt>
      <trkpt lat="43.40912" lon="2.2778">
        <ele>777.3</ele>
        <time>2021-08-18T08:58:37Z</time>
      </trkpt>
      <trkpt lat="43.40912" lon="2.2778">
        <ele>775.7</ele>
        <time>2021-08-18T08:58:43Z</time>
      </trkpt>
      <trkpt lat="43.40912" lon="2.2778">
        <ele>776.4</ele>
        <time>2021-08-18T08:58:48Z</time>
      </trkpt>
      <trkpt lat="43.40912" lon="2.2778">
        <ele>776.6</ele>
        <time>2021-08-18T08:58:54Z</time>
      </trkpt>
      <trkpt lat="43.40912" lon="2.2778">
        <ele>776.8</ele>
        <time>2021-08-18T08:59:00Z</time>
      </trkpt>
      <trkpt lat="43.40912" lon="2.2778">
        <ele>776.8</ele>
        <time>2021-08-18T08:59:05Z</time>
      </trkpt>
      <trkpt lat="43.40912" lon="2.2778">
        <ele>776.8</ele>
        <time>2021-08-18T08:59:11Z</time>
      </trkpt>
      <trkpt lat="43.40912" lon="2.2778">
        <ele>776.8</ele>
        <time>2021-08-18T08:59:17Z</time>
      </trkpt>
      <trkpt lat="43.40912" lon="2.2778">
        <ele>776</ele>
        <time>2021-08-18T08:59:22Z</time>
      </trkpt>
      <trkpt lat="43.40912" lon="2.2778">
        <ele>777.7</ele>
        <time>2021-08-18T08:59:28Z</time>
      </trkpt>
      <trkpt lat="43.40912" lon="2.2778">
        <ele>776.5</ele>
        <time>2021-08-18T08:59:33Z</time>
      </trkpt>
      <trkpt lat="43.40912" lon="2.2778">
        <ele>776.4</ele>
        <time>2021-08-18T08:59:39Z</time>
      </trkpt>
      <trkpt lat="43.40912" lon="2.2778">
        <ele>777.8</ele>
        <time>2021-08-18T08:59:45Z</time>
      </trkpt>
      <trkpt lat="43.40907" lon="2.27778">
        <ele>781</ele>
        <time>2021-08-18T08:59:51Z</time>
      </trkpt>
      <trkpt lat="43.40898" lon="2.27771">
        <ele>779.9</ele>
        <time>2021-08-18T08:59:56Z</time>
      </trkpt>
      <trkpt lat="43.40887" lon="2.27761">
        <ele>780.3</ele>
        <time>2021-08-18T09:00:02Z</time>
      </trkpt>
      <trkpt lat="43.40876" lon="2.27756">
        <ele>780.4</ele>
        <time>2021-08-18T09:00:08Z</time>
      </trkpt>
      <trkpt lat="43.40861" lon="2.27745">
        <ele>778.6</ele>
        <time>2021-08-18T09:00:14Z</time>
      </trkpt>
      <trkpt lat="43.40845" lon="2.27736">
        <ele>780.3</ele>
        <time>2021-08-18T09:00:19Z</time>
      </trkpt>
      <trkpt lat="43.40833" lon="2.27725">
        <ele>777.3</ele>
        <time>2021-08-18T09:00:25Z</time>
      </trkpt>
      <trkpt lat="43.40821" lon="2.27714">
        <ele>778</ele>
        <time>2021-08-18T09:00:31Z</time>
      </trkpt>
      <trkpt lat="43.40807" lon="2.27702">
        <ele>779.4</ele>
        <time>2021-08-18T09:00:36Z</time>
      </trkpt>
      <trkpt lat="43.40778" lon="2.27692">
        <ele>779.1</ele>
        <time>2021-08-18T09:00:42Z</time>
      </trkpt>
      <trkpt lat="43.40761" lon="2.27685">
        <ele>777.1</ele>
        <time>2021-08-18T09:00:47Z</time>
      </trkpt>
      <trkpt lat="43.40744" lon="2.27667">
        <ele>775.4</ele>
        <time>2021-08-18T09:00:53Z</time>
      </trkpt>
      <trkpt lat="43.40732" lon="2.27649">
        <ele>779</ele>
        <time>2021-08-18T09:00:58Z</time>
      </trkpt>
      <trkpt lat="43.40715" lon="2.27628">
        <ele>780.7</ele>
        <time>2021-08-18T09:01:04Z</time>
      </trkpt>
      <trkpt lat="43.40704" lon="2.27602">
        <ele>783.5</ele>
        <time>2021-08-18T09:01:09Z</time>
      </trkpt>
      <trkpt lat="43.40695" lon="2.27579">
        <ele>785.8</ele>
        <time>2021-08-18T09:01:14Z</time>
      </trkpt>
      <trkpt lat="43.40688" lon="2.27536">
        <ele>785.1</ele>
        <time>2021-08-18T09:01:20Z</time>
      </trkpt>
      <trkpt lat="43.40685" lon="2.27501">
        <ele>782.4</ele>
        <time>2021-08-18T09:01:26Z</time>
      </trkpt>
      <trkpt lat="43.40687" lon="2.2745">
        <ele>778.9</ele>
        <time>2021-08-18T09:01:32Z</time>
      </trkpt>
      <trkpt lat="43.40686" lon="2.27409">
        <ele>778.1</ele>
        <time>2021-08-18T09:01:38Z</time>
      </trkpt>
      <trkpt lat="43.40693" lon="2.27367">
        <ele>772.8</ele>
        <time>2021-08-18T09:01:43Z</time>
      </trkpt>
      <trkpt lat="43.407" lon="2.27334">
        <ele>766.7</ele>
        <time>2021-08-18T09:01:48Z</time>
      </trkpt>
      <trkpt lat="43.40706" lon="2.27293">
        <ele>760.7</ele>
        <time>2021-08-18T09:01:54Z</time>
      </trkpt>
      <trkpt lat="43.40712" lon="2.2725">
        <ele>756</ele>
        <time>2021-08-18T09:02:00Z</time>
      </trkpt>
      <trkpt lat="43.40722" lon="2.27213">
        <ele>754.2</ele>
        <time>2021-08-18T09:02:05Z</time>
      </trkpt>
      <trkpt lat="43.40723" lon="2.27181">
        <ele>756.8</ele>
        <time>2021-08-18T09:02:10Z</time>
      </trkpt>
      <trkpt lat="43.40717" lon="2.27151">
        <ele>761</ele>
        <time>2021-08-18T09:02:16Z</time>
      </trkpt>
      <trkpt lat="43.40713" lon="2.27133">
        <ele>764</ele>
        <time>2021-08-18T09:02:22Z</time>
      </trkpt>
      <trkpt lat="43.40702" lon="2.27123">
        <ele>765.5</ele>
        <time>2021-08-18T09:02:28Z</time>
      </trkpt>
      <trkpt lat="43.4069" lon="2.27123">
        <ele>764.2</ele>
        <time>2021-08-18T09:02:33Z</time>
      </trkpt>
      <trkpt lat="43.40675" lon="2.27119">
        <ele>765.5</ele>
        <time>2021-08-18T09:02:38Z</time>
      </trkpt>
      <trkpt lat="43.40662" lon="2.27118">
        <ele>768.8</ele>
        <time>2021-08-18T09:02:44Z</time>
      </trkpt>
      <trkpt lat="43.40645" lon="2.27121">
        <ele>769.7</ele>
        <time>2021-08-18T09:02:50Z</time>
      </trkpt>
      <trkpt lat="43.40627" lon="2.27121">
        <ele>770.8</ele>
        <time>2021-08-18T09:02:56Z</time>
      </trkpt>
      <trkpt lat="43.40613" lon="2.27125">
        <ele>771</ele>
        <time>2021-08-18T09:03:02Z</time>
      </trkpt>
      <trkpt lat="43.40603" lon="2.27131">
        <ele>771.4</ele>
        <time>2021-08-18T09:03:07Z</time>
      </trkpt>
      <trkpt lat="43.40589" lon="2.27139">
        <ele>774</ele>
        <time>2021-08-18T09:03:13Z</time>
      </trkpt>
      <trkpt lat="43.40571" lon="2.27146">
        <ele>776.7</ele>
        <time>2021-08-18T09:03:19Z</time>
      </trkpt>
      <trkpt lat="43.40546" lon="2.27151">
        <ele>773.9</ele>
        <time>2021-08-18T09:03:25Z</time>
      </trkpt>
      <trkpt lat="43.40532" lon="2.27149">
        <ele>771.6</ele>
        <time>2021-08-18T09:03:30Z</time>
      </trkpt>
      <trkpt lat="43.40518" lon="2.27143">
        <ele>771.2</ele>
        <time>2021-08-18T09:03:36Z</time>
      </trkpt>
      <trkpt lat="43.40513" lon="2.2713">
        <ele>768.4</ele>
        <time>2021-08-18T09:03:42Z</time>
      </trkpt>
      <trkpt lat="43.40509" lon="2.27112">
        <ele>769</ele>
        <time>2021-08-18T09:03:48Z</time>
      </trkpt>
      <trkpt lat="43.40497" lon="2.27099">
        <ele>766.6</ele>
        <time>2021-08-18T09:03:54Z</time>
      </trkpt>
      <trkpt lat="43.40487" lon="2.27085">
        <ele>769.1</ele>
        <time>2021-08-18T09:03:59Z</time>
      </trkpt>
      <trkpt lat="43.40478" lon="2.27074">
        <ele>766.5</ele>
        <time>2021-08-18T09:04:05Z</time>
      </trkpt>
      <trkpt lat="43.4047" lon="2.2706">
        <ele>765</ele>
        <time>2021-08-18T09:04:10Z</time>
      </trkpt>
      <trkpt lat="43.40458" lon="2.27043">
        <ele>764.2</ele>
        <time>2021-08-18T09:04:15Z</time>
      </trkpt>
      <trkpt lat="43.40442" lon="2.27028">
        <ele>762.6</ele>
        <time>2021-08-18T09:04:21Z</time>
      </trkpt>
      <trkpt lat="43.40429" lon="2.27019">
        <ele>760.7</ele>
        <time>2021-08-18T09:04:26Z</time>
      </trkpt>
      <trkpt lat="43.40406" lon="2.27002">
        <ele>757.1</ele>
        <time>2021-08-18T09:04:32Z</time>
      </trkpt>
      <trkpt lat="43.40396" lon="2.26989">
        <ele>758.7</ele>
        <time>2021-08-18T09:04:37Z</time>
      </trkpt>
      <trkpt lat="43.40388" lon="2.26974">
        <ele>758.5</ele>
        <time>2021-08-18T09:04:42Z</time>
      </trkpt>
      <trkpt lat="43.40377" lon="2.26956">
        <ele>755.4</ele>
        <time>2021-08-18T09:04:48Z</time>
      </trkpt>
      <trkpt lat="43.40365" lon="2.26941">
        <ele>754.7</ele>
        <time>2021-08-18T09:04:53Z</time>
      </trkpt>
      <trkpt lat="43.40349" lon="2.26925">
        <ele>753.9</ele>
        <time>2021-08-18T09:04:59Z</time>
      </trkpt>
      <trkpt lat="43.40332" lon="2.26912">
        <ele>752.6</ele>
        <time>2021-08-18T09:05:04Z</time>
      </trkpt>
      <trkpt lat="43.40311" lon="2.26892">
        <ele>750.6</ele>
        <time>2021-08-18T09:05:10Z</time>
      </trkpt>
      <trkpt lat="43.40294" lon="2.26874">
        <ele>749.6</ele>
        <time>2021-08-18T09:05:15Z</time>
      </trkpt>
      <trkpt lat="43.40272" lon="2.26848">
        <ele>747.1</ele>
        <time>2021-08-18T09:05:21Z</time>
      </trkpt>
      <trkpt lat="43.40252" lon="2.26823">
        <ele>744.1</ele>
        <time>2021-08-18T09:05:26Z</time>
      </trkpt>
      <trkpt lat="43.40227" lon="2.26799">
        <ele>740.7</ele>
        <time>2021-08-18T09:05:32Z</time>
      </trkpt>
      <trkpt lat="43.40211" lon="2.26774">
        <ele>738.2</ele>
        <time>2021-08-18T09:05:38Z</time>
      </trkpt>
      <trkpt lat="43.40204" lon="2.26735">
        <ele>739.6</ele>
        <time>2021-08-18T09:05:44Z</time>
      </trkpt>
      <trkpt lat="43.40201" lon="2.26708">
        <ele>737.6</ele>
        <time>2021-08-18T09:05:49Z</time>
      </trkpt>
      <trkpt lat="43.40191" lon="2.26683">
        <ele>734.3</ele>
        <time>2021-08-18T09:05:54Z</time>
      </trkpt>
      <trkpt lat="43.40181" lon="2.26659">
        <ele>735.2</ele>
        <time>2021-08-18T09:06:00Z</time>
      </trkpt>
      <trkpt lat="43.40171" lon="2.26651">
        <ele>738.8</ele>
        <time>2021-08-18T09:06:05Z</time>
      </trkpt>
      <trkpt lat="43.40164" lon="2.26638">
        <ele>746.2</ele>
        <time>2021-08-18T09:06:11Z</time>
      </trkpt>
      <trkpt lat="43.40164" lon="2.26637">
        <ele>746.9</ele>
        <time>2021-08-18T09:06:17Z</time>
      </trkpt>
      <trkpt lat="43.40164" lon="2.26637">
        <ele>747.3</ele>
        <time>2021-08-18T09:06:22Z</time>
      </trkpt>
      <trkpt lat="43.40164" lon="2.26637">
        <ele>745.9</ele>
        <time>2021-08-18T09:06:28Z</time>
      </trkpt>
      <trkpt lat="43.40164" lon="2.26637">
        <ele>745</ele>
        <time>2021-08-18T09:06:33Z</time>
      </trkpt>
      <trkpt lat="43.40164" lon="2.26637">
        <ele>745.9</ele>
        <time>2021-08-18T09:06:39Z</time>
      </trkpt>
      <trkpt lat="43.40164" lon="2.26637">
        <ele>745.2</ele>
        <time>2021-08-18T09:06:45Z</time>
      </trkpt>
      <trkpt lat="43.40164" lon="2.26637">
        <ele>746.7</ele>
        <time>2021-08-18T09:06:51Z</time>
      </trkpt>
      <trkpt lat="43.40164" lon="2.26637">
        <ele>748.2</ele>
        <time>2021-08-18T09:06:56Z</time>
      </trkpt>
      <trkpt lat="43.40164" lon="2.26637">
        <ele>747.4</ele>
        <time>2021-08-18T09:07:02Z</time>
      </trkpt>
      <trkpt lat="43.40157" lon="2.26612">
        <ele>748.2</ele>
        <time>2021-08-18T09:07:08Z</time>
      </trkpt>
      <trkpt lat="43.40155" lon="2.2659">
        <ele>747</ele>
        <time>2021-08-18T09:07:14Z</time>
      </trkpt>
      <trkpt lat="43.40154" lon="2.26579">
        <ele>750.2</ele>
        <time>2021-08-18T09:07:19Z</time>
      </trkpt>
      <trkpt lat="43.40153" lon="2.26571">
        <ele>751.3</ele>
        <time>2021-08-18T09:07:25Z</time>
      </trkpt>
      <trkpt lat="43.40151" lon="2.26562">
        <ele>752.9</ele>
        <time>2021-08-18T09:07:31Z</time>
      </trkpt>
      <trkpt lat="43.40149" lon="2.26582">
        <ele>761.5</ele>
        <time>2021-08-18T09:07:37Z</time>
      </trkpt>
      <trkpt lat="43.40151" lon="2.26612">
        <ele>769.7</ele>
        <time>2021-08-18T09:07:43Z</time>
      </trkpt>
      <trkpt lat="43.40159" lon="2.26625">
        <ele>770.5</ele>
        <time>2021-08-18T09:07:48Z</time>
      </trkpt>
      <trkpt lat="43.40167" lon="2.26623">
        <ele>774.3</ele>
        <time>2021-08-18T09:07:54Z</time>
      </trkpt>
      <trkpt lat="43.4017" lon="2.26615">
        <ele>776.3</ele>
        <time>2021-08-18T09:08:00Z</time>
      </trkpt>
      <trkpt lat="43.40173" lon="2.26601">
        <ele>780.1</ele>
        <time>2021-08-18T09:08:06Z</time>
      </trkpt>
      <trkpt lat="43.40175" lon="2.2659">
        <ele>783.8</ele>
        <time>2021-08-18T09:08:11Z</time>
      </trkpt>
      <trkpt lat="43.40172" lon="2.26593">
        <ele>785.5</ele>
        <time>2021-08-18T09:08:17Z</time>
      </trkpt>
      <trkpt lat="43.4018" lon="2.26601">
        <ele>788.1</ele>
        <time>2021-08-18T09:08:23Z</time>
      </trkpt>
      <trkpt lat="43.4019" lon="2.26599">
        <ele>789.8</ele>
        <time>2021-08-18T09:08:28Z</time>
      </trkpt>
      <trkpt lat="43.40202" lon="2.26596">
        <ele>791.8</ele>
        <time>2021-08-18T09:08:34Z</time>
      </trkpt>
      <trkpt lat="43.40211" lon="2.26587">
        <ele>796.6</ele>
        <time>2021-08-18T09:08:39Z</time>
      </trkpt>
      <trkpt lat="43.40224" lon="2.26575">
        <ele>799.8</ele>
        <time>2021-08-18T09:08:45Z</time>
      </trkpt>
      <trkpt lat="43.40239" lon="2.2656">
        <ele>801.6</ele>
        <time>2021-08-18T09:08:51Z</time>
      </trkpt>
      <trkpt lat="43.4025" lon="2.26553">
        <ele>803.8</ele>
        <time>2021-08-18T09:08:56Z</time>
      </trkpt>
      <trkpt lat="43.40268" lon="2.26551">
        <ele>802.4</ele>
        <time>2021-08-18T09:09:02Z</time>
      </trkpt>
      <trkpt lat="43.40277" lon="2.26541">
        <ele>799.1</ele>
        <time>2021-08-18T09:09:07Z</time>
      </trkpt>
      <trkpt lat="43.40282" lon="2.26527">
        <ele>798.8</ele>
        <time>2021-08-18T09:09:12Z</time>
      </trkpt>
      <trkpt lat="43.40295" lon="2.2651">
        <ele>796.4</ele>
        <time>2021-08-18T09:09:17Z</time>
      </trkpt>
      <trkpt lat="43.40315" lon="2.26481">
        <ele>790</ele>
        <time>2021-08-18T09:09:23Z</time>
      </trkpt>
      <trkpt lat="43.40332" lon="2.26457">
        <ele>786.3</ele>
        <time>2021-08-18T09:09:28Z</time>
      </trkpt>
      <trkpt lat="43.40354" lon="2.26436">
        <ele>780.6</ele>
        <time>2021-08-18T09:09:34Z</time>
      </trkpt>
      <trkpt lat="43.40369" lon="2.26418">
        <ele>780.9</ele>
        <time>2021-08-18T09:09:40Z</time>
      </trkpt>
      <trkpt lat="43.40384" lon="2.26403">
        <ele>776.5</ele>
        <time>2021-08-18T09:09:45Z</time>
      </trkpt>
      <trkpt lat="43.40403" lon="2.26372">
        <ele>775.6</ele>
        <time>2021-08-18T09:09:51Z</time>
      </trkpt>
      <trkpt lat="43.4043" lon="2.26344">
        <ele>773.2</ele>
        <time>2021-08-18T09:09:57Z</time>
      </trkpt>
      <trkpt lat="43.40455" lon="2.26313">
        <ele>770.9</ele>
        <time>2021-08-18T09:10:03Z</time>
      </trkpt>
      <trkpt lat="43.40481" lon="2.26278">
        <ele>769.9</ele>
        <time>2021-08-18T09:10:09Z</time>
      </trkpt>
      <trkpt lat="43.405" lon="2.26254">
        <ele>769.4</ele>
        <time>2021-08-18T09:10:15Z</time>
      </trkpt>
      <trkpt lat="43.40512" lon="2.26235">
        <ele>771</ele>
        <time>2021-08-18T09:10:20Z</time>
      </trkpt>
      <trkpt lat="43.40523" lon="2.2621">
        <ele>769.1</ele>
        <time>2021-08-18T09:10:25Z</time>
      </trkpt>
      <trkpt lat="43.40532" lon="2.26181">
        <ele>769.2</ele>
        <time>2021-08-18T09:10:30Z</time>
      </trkpt>
      <trkpt lat="43.4054" lon="2.26143">
        <ele>765.6</ele>
        <time>2021-08-18T09:10:36Z</time>
      </trkpt>
      <trkpt lat="43.40549" lon="2.26113">
        <ele>766.1</ele>
        <time>2021-08-18T09:10:41Z</time>
      </trkpt>
      <trkpt lat="43.40561" lon="2.26074">
        <ele>759.6</ele>
        <time>2021-08-18T09:10:47Z</time>
      </trkpt>
      <trkpt lat="43.40576" lon="2.26049">
        <ele>759.1</ele>
        <time>2021-08-18T09:10:53Z</time>
      </trkpt>
      <trkpt lat="43.40596" lon="2.26027">
        <ele>757.4</ele>
        <time>2021-08-18T09:10:58Z</time>
      </trkpt>
      <trkpt lat="43.40621" lon="2.25999">
        <ele>757.5</ele>
        <time>2021-08-18T09:11:04Z</time>
      </trkpt>
      <trkpt lat="43.40628" lon="2.25993">
        <ele>755.9</ele>
        <time>2021-08-18T09:11:09Z</time>
      </trkpt>
      <trkpt lat="43.40628" lon="2.25992">
        <ele>756.1</ele>
        <time>2021-08-18T09:11:15Z</time>
      </trkpt>
      <trkpt lat="43.40635" lon="2.25989">
        <ele>754</ele>
        <time>2021-08-18T09:11:20Z</time>
      </trkpt>
      <trkpt lat="43.40648" lon="2.25989">
        <ele>757.7</ele>
        <time>2021-08-18T09:11:26Z</time>
      </trkpt>
      <trkpt lat="43.40659" lon="2.25991">
        <ele>757.6</ele>
        <time>2021-08-18T09:11:31Z</time>
      </trkpt>
      <trkpt lat="43.40672" lon="2.25985">
        <ele>760.2</ele>
        <time>2021-08-18T09:11:37Z</time>
      </trkpt>
      <trkpt lat="43.40686" lon="2.25974">
        <ele>761.2</ele>
        <time>2021-08-18T09:11:43Z</time>
      </trkpt>
      <trkpt lat="43.40699" lon="2.25967">
        <ele>763.1</ele>
        <time>2021-08-18T09:11:48Z</time>
      </trkpt>
      <trkpt lat="43.40714" lon="2.25954">
        <ele>758.5</ele>
        <time>2021-08-18T09:11:54Z</time>
      </trkpt>
      <trkpt lat="43.40726" lon="2.25944">
        <ele>754.4</ele>
        <time>2021-08-18T09:11:59Z</time>
      </trkpt>
      <trkpt lat="43.40737" lon="2.25932">
        <ele>749.5</ele>
        <time>2021-08-18T09:12:05Z</time>
      </trkpt>
      <trkpt lat="43.40741" lon="2.2592">
        <ele>745.2</ele>
        <time>2021-08-18T09:12:10Z</time>
      </trkpt>
      <trkpt lat="43.40755" lon="2.25895">
        <ele>740.4</ele>
        <time>2021-08-18T09:12:16Z</time>
      </trkpt>
      <trkpt lat="43.40767" lon="2.25867">
        <ele>733.5</ele>
        <time>2021-08-18T09:12:22Z</time>
      </trkpt>
      <trkpt lat="43.40778" lon="2.25845">
        <ele>733.7</ele>
        <time>2021-08-18T09:12:28Z</time>
      </trkpt>
      <trkpt lat="43.40783" lon="2.25832">
        <ele>727.1</ele>
        <time>2021-08-18T09:12:33Z</time>
      </trkpt>
      <trkpt lat="43.4078" lon="2.25812">
        <ele>726.2</ele>
        <time>2021-08-18T09:12:39Z</time>
      </trkpt>
      <trkpt lat="43.4078" lon="2.25805">
        <ele>724.2</ele>
        <time>2021-08-18T09:12:44Z</time>
      </trkpt>
      <trkpt lat="43.4078" lon="2.25804">
        <ele>723.1</ele>
        <time>2021-08-18T09:12:50Z</time>
      </trkpt>
      <trkpt lat="43.4078" lon="2.25804">
        <ele>724.5</ele>
        <time>2021-08-18T09:12:55Z</time>
      </trkpt>
      <trkpt lat="43.4078" lon="2.25804">
        <ele>724.1</ele>
        <time>2021-08-18T09:13:01Z</time>
      </trkpt>
      <trkpt lat="43.4078" lon="2.25804">
        <ele>723.7</ele>
        <time>2021-08-18T09:13:06Z</time>
      </trkpt>
      <trkpt lat="43.4078" lon="2.25804">
        <ele>724.3</ele>
        <time>2021-08-18T09:13:11Z</time>
      </trkpt>
      <trkpt lat="43.4078" lon="2.25804">
        <ele>723.7</ele>
        <time>2021-08-18T09:13:17Z</time>
      </trkpt>
      <trkpt lat="43.40782" lon="2.25785">
        <ele>720.5</ele>
        <time>2021-08-18T09:13:23Z</time>
      </trkpt>
      <trkpt lat="43.40783" lon="2.25769">
        <ele>720.4</ele>
        <time>2021-08-18T09:13:29Z</time>
      </trkpt>
      <trkpt lat="43.40787" lon="2.25755">
        <ele>719.8</ele>
        <time>2021-08-18T09:13:35Z</time>
      </trkpt>
      <trkpt lat="43.40792" lon="2.25744">
        <ele>720</ele>
        <time>2021-08-18T09:13:41Z</time>
      </trkpt>
      <trkpt lat="43.40788" lon="2.25735">
        <ele>720.7</ele>
        <time>2021-08-18T09:13:46Z</time>
      </trkpt>
      <trkpt lat="43.4078" lon="2.25711">
        <ele>718.3</ele>
        <time>2021-08-18T09:13:52Z</time>
      </trkpt>
      <trkpt lat="43.40775" lon="2.25706">
        <ele>715.6</ele>
        <time>2021-08-18T09:13:57Z</time>
      </trkpt>
      <trkpt lat="43.40775" lon="2.25705">
        <ele>716</ele>
        <time>2021-08-18T09:14:03Z</time>
      </trkpt>
      <trkpt lat="43.40775" lon="2.25705">
        <ele>716.5</ele>
        <time>2021-08-18T09:14:09Z</time>
      </trkpt>
      <trkpt lat="43.40775" lon="2.25705">
        <ele>716.2</ele>
        <time>2021-08-18T09:14:14Z</time>
      </trkpt>
      <trkpt lat="43.40775" lon="2.25705">
        <ele>715</ele>
        <time>2021-08-18T09:14:19Z</time>
      </trkpt>
      <trkpt lat="43.40775" lon="2.25705">
        <ele>716.3</ele>
        <time>2021-08-18T09:14:25Z</time>
      </trkpt>
      <trkpt lat="43.40775" lon="2.25705">
        <ele>717.1</ele>
        <time>2021-08-18T09:14:30Z</time>
      </trkpt>
      <trkpt lat="43.40772" lon="2.25691">
        <ele>717.2</ele>
        <time>2021-08-18T09:14:36Z</time>
      </trkpt>
      <trkpt lat="43.40771" lon="2.25686">
        <ele>714.4</ele>
        <time>2021-08-18T09:14:41Z</time>
      </trkpt>
      <trkpt lat="43.40769" lon="2.25675">
        <ele>716.6</ele>
        <time>2021-08-18T09:14:47Z</time>
      </trkpt>
      <trkpt lat="43.40771" lon="2.25669">
        <ele>717.4</ele>
        <time>2021-08-18T09:14:52Z</time>
      </trkpt>
      <trkpt lat="43.40782" lon="2.25669">
        <ele>718.7</ele>
        <time>2021-08-18T09:14:57Z</time>
      </trkpt>
      <trkpt lat="43.40803" lon="2.25681">
        <ele>718.2</ele>
        <time>2021-08-18T09:15:03Z</time>
      </trkpt>
      <trkpt lat="43.40812" lon="2.25697">
        <ele>717.7</ele>
        <time>2021-08-18T09:15:09Z</time>
      </trkpt>
      <trkpt lat="43.40819" lon="2.25718">
        <ele>716.1</ele>
        <time>2021-08-18T09:15:15Z</time>
      </trkpt>
      <trkpt lat="43.40828" lon="2.2573">
        <ele>717.1</ele>
        <time>2021-08-18T09:15:20Z</time>
      </trkpt>
      <trkpt lat="43.40843" lon="2.25741">
        <ele>716.7</ele>
        <time>2021-08-18T09:15:26Z</time>
      </trkpt>
      <trkpt lat="43.40853" lon="2.25746">
        <ele>711.8</ele>
        <time>2021-08-18T09:15:31Z</time>
      </trkpt>
      <trkpt lat="43.40868" lon="2.25748">
        <ele>714.6</ele>
        <time>2021-08-18T09:15:37Z</time>
      </trkpt>
      <trkpt lat="43.4088" lon="2.25749">
        <ele>714.6</ele>
        <time>2021-08-18T09:15:43Z</time>
      </trkpt>
      <trkpt lat="43.4089" lon="2.25755">
        <ele>714.6</ele>
        <time>2021-08-18T09:15:48Z</time>
      </trkpt>
      <trkpt lat="43.409" lon="2.25768">
        <ele>715.4</ele>
        <time>2021-08-18T09:15:53Z</time>
      </trkpt>
      <trkpt lat="43.40909" lon="2.25776">
        <ele>716.5</ele>
        <time>2021-08-18T09:15:59Z</time>
      </trkpt>
      <trkpt lat="43.40923" lon="2.25782">
        <ele>717.1</ele>
        <time>2021-08-18T09:16:05Z</time>
      </trkpt>
      <trkpt lat="43.40933" lon="2.25783">
        <ele>716.5</ele>
        <time>2021-08-18T09:16:10Z</time>
      </trkpt>
      <trkpt lat="43.40941" lon="2.25772">
        <ele>716.1</ele>
        <time>2021-08-18T09:16:16Z</time>
      </trkpt>
      <trkpt lat="43.40946" lon="2.25761">
        <ele>717.4</ele>
        <time>2021-08-18T09:16:22Z</time>
      </trkpt>
      <trkpt lat="43.40956" lon="2.2575">
        <ele>719.7</ele>
        <time>2021-08-18T09:16:28Z</time>
      </trkpt>
      <trkpt lat="43.40969" lon="2.25748">
        <ele>722.2</ele>
        <time>2021-08-18T09:16:34Z</time>
      </trkpt>
      <trkpt lat="43.40984" lon="2.25746">
        <ele>725.3</ele>
        <time>2021-08-18T09:16:40Z</time>
      </trkpt>
      <trkpt lat="43.41" lon="2.25745">
        <ele>730.4</ele>
        <time>2021-08-18T09:16:46Z</time>
      </trkpt>
      <trkpt lat="43.41011" lon="2.25738">
        <ele>734.4</ele>
        <time>2021-08-18T09:16:51Z</time>
      </trkpt>
      <trkpt lat="43.41022" lon="2.25732">
        <ele>738.4</ele>
        <time>2021-08-18T09:16:57Z</time>
      </trkpt>
      <trkpt lat="43.41033" lon="2.25724">
        <ele>743.5</ele>
        <time>2021-08-18T09:17:03Z</time>
      </trkpt>
      <trkpt lat="43.41044" lon="2.25722">
        <ele>746.3</ele>
        <time>2021-08-18T09:17:09Z</time>
      </trkpt>
      <trkpt lat="43.41055" lon="2.25717">
        <ele>746.9</ele>
        <time>2021-08-18T09:17:15Z</time>
      </trkpt>
      <trkpt lat="43.41067" lon="2.25716">
        <ele>749.5</ele>
        <time>2021-08-18T09:17:21Z</time>
      </trkpt>
      <trkpt lat="43.41078" lon="2.25712">
        <ele>749.5</ele>
        <time>2021-08-18T09:17:27Z</time>
      </trkpt>
      <trkpt lat="43.41091" lon="2.25706">
        <ele>747</ele>
        <time>2021-08-18T09:17:32Z</time>
      </trkpt>
      <trkpt lat="43.411" lon="2.25699">
        <ele>747</ele>
        <time>2021-08-18T09:17:37Z</time>
      </trkpt>
      <trkpt lat="43.41109" lon="2.2569">
        <ele>745.1</ele>
        <time>2021-08-18T09:17:43Z</time>
      </trkpt>
      <trkpt lat="43.41113" lon="2.25681">
        <ele>744.2</ele>
        <time>2021-08-18T09:17:49Z</time>
      </trkpt>
      <trkpt lat="43.41119" lon="2.2567">
        <ele>743.1</ele>
        <time>2021-08-18T09:17:54Z</time>
      </trkpt>
      <trkpt lat="43.41126" lon="2.25656">
        <ele>743.1</ele>
        <time>2021-08-18T09:18:00Z</time>
      </trkpt>
      <trkpt lat="43.41133" lon="2.25641">
        <ele>742.8</ele>
        <time>2021-08-18T09:18:06Z</time>
      </trkpt>
      <trkpt lat="43.41146" lon="2.25623">
        <ele>743.3</ele>
        <time>2021-08-18T09:18:12Z</time>
      </trkpt>
      <trkpt lat="43.41159" lon="2.25605">
        <ele>742.8</ele>
        <time>2021-08-18T09:18:17Z</time>
      </trkpt>
      <trkpt lat="43.41171" lon="2.25596">
        <ele>741.5</ele>
        <time>2021-08-18T09:18:23Z</time>
      </trkpt>
      <trkpt lat="43.41182" lon="2.25587">
        <ele>743.6</ele>
        <time>2021-08-18T09:18:29Z</time>
      </trkpt>
      <trkpt lat="43.41194" lon="2.25585">
        <ele>744.1</ele>
        <time>2021-08-18T09:18:35Z</time>
      </trkpt>
      <trkpt lat="43.41205" lon="2.25583">
        <ele>747.7</ele>
        <time>2021-08-18T09:18:41Z</time>
      </trkpt>
      <trkpt lat="43.41217" lon="2.2558">
        <ele>750.9</ele>
        <time>2021-08-18T09:18:47Z</time>
      </trkpt>
      <trkpt lat="43.41228" lon="2.25573">
        <ele>753.6</ele>
        <time>2021-08-18T09:18:53Z</time>
      </trkpt>
      <trkpt lat="43.41238" lon="2.25567">
        <ele>753.9</ele>
        <time>2021-08-18T09:18:58Z</time>
      </trkpt>
      <trkpt lat="43.41248" lon="2.25563">
        <ele>755.3</ele>
        <time>2021-08-18T09:19:03Z</time>
      </trkpt>
      <trkpt lat="43.41262" lon="2.25564">
        <ele>753.7</ele>
        <time>2021-08-18T09:19:09Z</time>
      </trkpt>
      <trkpt lat="43.41276" lon="2.25564">
        <ele>753.5</ele>
        <time>2021-08-18T09:19:14Z</time>
      </trkpt>
      <trkpt lat="43.41288" lon="2.25558">
        <ele>753.8</ele>
        <time>2021-08-18T09:19:20Z</time>
      </trkpt>
      <trkpt lat="43.413" lon="2.2555">
        <ele>756</ele>
        <time>2021-08-18T09:19:26Z</time>
      </trkpt>
      <trkpt lat="43.41309" lon="2.25545">
        <ele>756.3</ele>
        <time>2021-08-18T09:19:31Z</time>
      </trkpt>
      <trkpt lat="43.41319" lon="2.25542">
        <ele>757.8</ele>
        <time>2021-08-18T09:19:37Z</time>
      </trkpt>
      <trkpt lat="43.41329" lon="2.25539">
        <ele>759.3</ele>
        <time>2021-08-18T09:19:42Z</time>
      </trkpt>
      <trkpt lat="43.41342" lon="2.25534">
        <ele>761</ele>
        <time>2021-08-18T09:19:48Z</time>
      </trkpt>
      <trkpt lat="43.41351" lon="2.25531">
        <ele>762.8</ele>
        <time>2021-08-18T09:19:53Z</time>
      </trkpt>
      <trkpt lat="43.41363" lon="2.25526">
        <ele>766.4</ele>
        <time>2021-08-18T09:19:59Z</time>
      </trkpt>
      <trkpt lat="43.41372" lon="2.25523">
        <ele>769</ele>
        <time>2021-08-18T09:20:04Z</time>
      </trkpt>
      <trkpt lat="43.41385" lon="2.25522">
        <ele>770.9</ele>
        <time>2021-08-18T09:20:10Z</time>
      </trkpt>
      <trkpt lat="43.41398" lon="2.25521">
        <ele>770.1</ele>
        <time>2021-08-18T09:20:16Z</time>
      </trkpt>
      <trkpt lat="43.41407" lon="2.25518">
        <ele>770.1</ele>
        <time>2021-08-18T09:20:22Z</time>
      </trkpt>
      <trkpt lat="43.41422" lon="2.25509">
        <ele>766</ele>
        <time>2021-08-18T09:20:28Z</time>
      </trkpt>
      <trkpt lat="43.41433" lon="2.25498">
        <ele>763.9</ele>
        <time>2021-08-18T09:20:33Z</time>
      </trkpt>
      <trkpt lat="43.41444" lon="2.25484">
        <ele>762.7</ele>
        <time>2021-08-18T09:20:39Z</time>
      </trkpt>
      <trkpt lat="43.41452" lon="2.25474">
        <ele>764.7</ele>
        <time>2021-08-18T09:20:44Z</time>
      </trkpt>
      <trkpt lat="43.41465" lon="2.25463">
        <ele>764.2</ele>
        <time>2021-08-18T09:20:50Z</time>
      </trkpt>
      <trkpt lat="43.41478" lon="2.25458">
        <ele>763.6</ele>
        <time>2021-08-18T09:20:56Z</time>
      </trkpt>
      <trkpt lat="43.4149" lon="2.2545">
        <ele>764.8</ele>
        <time>2021-08-18T09:21:02Z</time>
      </trkpt>
      <trkpt lat="43.41501" lon="2.2544">
        <ele>761.6</ele>
        <time>2021-08-18T09:21:07Z</time>
      </trkpt>
      <trkpt lat="43.41508" lon="2.25432">
        <ele>759</ele>
        <time>2021-08-18T09:21:13Z</time>
      </trkpt>
      <trkpt lat="43.41516" lon="2.25422">
        <ele>755.1</ele>
        <time>2021-08-18T09:21:18Z</time>
      </trkpt>
      <trkpt lat="43.41525" lon="2.25405">
        <ele>755.7</ele>
        <time>2021-08-18T09:21:24Z</time>
      </trkpt>
      <trkpt lat="43.41533" lon="2.25389">
        <ele>756.7</ele>
        <time>2021-08-18T09:21:30Z</time>
      </trkpt>
      <trkpt lat="43.41542" lon="2.25377">
        <ele>757.5</ele>
        <time>2021-08-18T09:21:35Z</time>
      </trkpt>
      <trkpt lat="43.41553" lon="2.25364">
        <ele>757.6</ele>
        <time>2021-08-18T09:21:41Z</time>
      </trkpt>
      <trkpt lat="43.41559" lon="2.25349">
        <ele>757.4</ele>
        <time>2021-08-18T09:21:47Z</time>
      </trkpt>
      <trkpt lat="43.4156" lon="2.25341">
        <ele>758.9</ele>
        <time>2021-08-18T09:21:52Z</time>
      </trkpt>
      <trkpt lat="43.41556" lon="2.25328">
        <ele>757.8</ele>
        <time>2021-08-18T09:21:58Z</time>
      </trkpt>
      <trkpt lat="43.41548" lon="2.25318">
        <ele>757.8</ele>
        <time>2021-08-18T09:22:03Z</time>
      </trkpt>
      <trkpt lat="43.4154" lon="2.25306">
        <ele>756.4</ele>
        <time>2021-08-18T09:22:09Z</time>
      </trkpt>
      <trkpt lat="43.41528" lon="2.25299">
        <ele>754</ele>
        <time>2021-08-18T09:22:15Z</time>
      </trkpt>
      <trkpt lat="43.41515" lon="2.2529">
        <ele>755</ele>
        <time>2021-08-18T09:22:21Z</time>
      </trkpt>
      <trkpt lat="43.41505" lon="2.25282">
        <ele>755.6</ele>
        <time>2021-08-18T09:22:26Z</time>
      </trkpt>
      <trkpt lat="43.41496" lon="2.2527">
        <ele>755.3</ele>
        <time>2021-08-18T09:22:32Z</time>
      </trkpt>
      <trkpt lat="43.4149" lon="2.25259">
        <ele>754.2</ele>
        <time>2021-08-18T09:22:37Z</time>
      </trkpt>
      <trkpt lat="43.4148" lon="2.25253">
        <ele>754.6</ele>
        <time>2021-08-18T09:22:43Z</time>
      </trkpt>
      <trkpt lat="43.41469" lon="2.25247">
        <ele>754.3</ele>
        <time>2021-08-18T09:22:48Z</time>
      </trkpt>
      <trkpt lat="43.41462" lon="2.25242">
        <ele>755.9</ele>
        <time>2021-08-18T09:22:53Z</time>
      </trkpt>
      <trkpt lat="43.41458" lon="2.25239">
        <ele>755.6</ele>
        <time>2021-08-18T09:22:59Z</time>
      </trkpt>
      <trkpt lat="43.41443" lon="2.25232">
        <ele>758</ele>
        <time>2021-08-18T09:23:04Z</time>
      </trkpt>
      <trkpt lat="43.41427" lon="2.25222">
        <ele>757.1</ele>
        <time>2021-08-18T09:23:10Z</time>
      </trkpt>
      <trkpt lat="43.41416" lon="2.25211">
        <ele>759.3</ele>
        <time>2021-08-18T09:23:16Z</time>
      </trkpt>
      <trkpt lat="43.41406" lon="2.25204">
        <ele>761.3</ele>
        <time>2021-08-18T09:23:21Z</time>
      </trkpt>
      <trkpt lat="43.41393" lon="2.25194">
        <ele>762.9</ele>
        <time>2021-08-18T09:23:27Z</time>
      </trkpt>
      <trkpt lat="43.41382" lon="2.2519">
        <ele>763.7</ele>
        <time>2021-08-18T09:23:32Z</time>
      </trkpt>
      <trkpt lat="43.41373" lon="2.25186">
        <ele>764.8</ele>
        <time>2021-08-18T09:23:37Z</time>
      </trkpt>
      <trkpt lat="43.4136" lon="2.25192">
        <ele>763.9</ele>
        <time>2021-08-18T09:23:43Z</time>
      </trkpt>
      <trkpt lat="43.41352" lon="2.25197">
        <ele>767.4</ele>
        <time>2021-08-18T09:23:48Z</time>
      </trkpt>
      <trkpt lat="43.4134" lon="2.25203">
        <ele>768.8</ele>
        <time>2021-08-18T09:23:54Z</time>
      </trkpt>
      <trkpt lat="43.41328" lon="2.25203">
        <ele>768.1</ele>
        <time>2021-08-18T09:23:59Z</time>
      </trkpt>
      <trkpt lat="43.41318" lon="2.25195">
        <ele>768.8</ele>
        <time>2021-08-18T09:24:05Z</time>
      </trkpt>
      <trkpt lat="43.41315" lon="2.25179">
        <ele>774.2</ele>
        <time>2021-08-18T09:24:10Z</time>
      </trkpt>
      <trkpt lat="43.41318" lon="2.25165">
        <ele>774.1</ele>
        <time>2021-08-18T09:24:15Z</time>
      </trkpt>
      <trkpt lat="43.41327" lon="2.25153">
        <ele>773.4</ele>
        <time>2021-08-18T09:24:21Z</time>
      </trkpt>
      <trkpt lat="43.4133" lon="2.2515">
        <ele>773.5</ele>
        <time>2021-08-18T09:24:26Z</time>
      </trkpt>
      <trkpt lat="43.4133" lon="2.2515">
        <ele>771.9</ele>
        <time>2021-08-18T09:24:32Z</time>
      </trkpt>
      <trkpt lat="43.4133" lon="2.2515">
        <ele>771.8</ele>
        <time>2021-08-18T09:24:38Z</time>
      </trkpt>
      <trkpt lat="43.4133" lon="2.2515">
        <ele>772.4</ele>
        <time>2021-08-18T09:24:44Z</time>
      </trkpt>
      <trkpt lat="43.4133" lon="2.2515">
        <ele>771</ele>
        <time>2021-08-18T09:24:50Z</time>
      </trkpt>
      <trkpt lat="43.4133" lon="2.2515">
        <ele>772.7</ele>
        <time>2021-08-18T09:24:56Z</time>
      </trkpt>
      <trkpt lat="43.41335" lon="2.25143">
        <ele>773.6</ele>
        <time>2021-08-18T09:25:01Z</time>
      </trkpt>
      <trkpt lat="43.41345" lon="2.25129">
        <ele>772.1</ele>
        <time>2021-08-18T09:25:07Z</time>
      </trkpt>
      <trkpt lat="43.41355" lon="2.25117">
        <ele>774.7</ele>
        <time>2021-08-18T09:25:13Z</time>
      </trkpt>
      <trkpt lat="43.41364" lon="2.25109">
        <ele>776.8</ele>
        <time>2021-08-18T09:25:18Z</time>
      </trkpt>
      <trkpt lat="43.41374" lon="2.25096">
        <ele>781.1</ele>
        <time>2021-08-18T09:25:24Z</time>
      </trkpt>
      <trkpt lat="43.41384" lon="2.25082">
        <ele>781.8</ele>
        <time>2021-08-18T09:25:30Z</time>
      </trkpt>
      <trkpt lat="43.41394" lon="2.25071">
        <ele>780.3</ele>
        <time>2021-08-18T09:25:36Z</time>
      </trkpt>
      <trkpt lat="43.41401" lon="2.25059">
        <ele>781.8</ele>
        <time>2021-08-18T09:25:42Z</time>
      </trkpt>
      <trkpt lat="43.41407" lon="2.25045">
        <ele>782.2</ele>
        <time>2021-08-18T09:25:47Z</time>
      </trkpt>
      <trkpt lat="43.41414" lon="2.25029">
        <ele>784.5</ele>
        <time>2021-08-18T09:25:53Z</time>
      </trkpt>
      <trkpt lat="43.41421" lon="2.25013">
        <ele>785.5</ele>
        <time>2021-08-18T09:25:59Z</time>
      </trkpt>
      <trkpt lat="43.41429" lon="2.24997">
        <ele>786.3</ele>
        <time>2021-08-18T09:26:05Z</time>
      </trkpt>
      <trkpt lat="43.41435" lon="2.24985">
        <ele>787</ele>
        <time>2021-08-18T09:26:10Z</time>
      </trkpt>
      <trkpt lat="43.41441" lon="2.2497">
        <ele>789.7</ele>
        <time>2021-08-18T09:26:16Z</time>
      </trkpt>
      <trkpt lat="43.41447" lon="2.24954">
        <ele>794.5</ele>
        <time>2021-08-18T09:26:22Z</time>
      </trkpt>
      <trkpt lat="43.41451" lon="2.24942">
        <ele>796.2</ele>
        <time>2021-08-18T09:26:27Z</time>
      </trkpt>
      <trkpt lat="43.41452" lon="2.24924">
        <ele>798.8</ele>
        <time>2021-08-18T09:26:33Z</time>
      </trkpt>
      <trkpt lat="43.41455" lon="2.24904">
        <ele>799.3</ele>
        <time>2021-08-18T09:26:39Z</time>
      </trkpt>
      <trkpt lat="43.41458" lon="2.24889">
        <ele>800.6</ele>
        <time>2021-08-18T09:26:45Z</time>
      </trkpt>
      <trkpt lat="43.41461" lon="2.24872">
        <ele>801.5</ele>
        <time>2021-08-18T09:26:51Z</time>
      </trkpt>
      <trkpt lat="43.41465" lon="2.24859">
        <ele>799.2</ele>
        <time>2021-08-18T09:26:57Z</time>
      </trkpt>
      <trkpt lat="43.41467" lon="2.24846">
        <ele>797.9</ele>
        <time>2021-08-18T09:27:02Z</time>
      </trkpt>
      <trkpt lat="43.41467" lon="2.24832">
        <ele>796.2</ele>
        <time>2021-08-18T09:27:07Z</time>
      </trkpt>
      <trkpt lat="43.41463" lon="2.24817">
        <ele>794.9</ele>
        <time>2021-08-18T09:27:13Z</time>
      </trkpt>
      <trkpt lat="43.41451" lon="2.2481">
        <ele>795.9</ele>
        <time>2021-08-18T09:27:18Z</time>
      </trkpt>
      <trkpt lat="43.41439" lon="2.24814">
        <ele>792.6</ele>
        <time>2021-08-18T09:27:24Z</time>
      </trkpt>
      <trkpt lat="43.4143" lon="2.2482">
        <ele>794.4</ele>
        <time>2021-08-18T09:27:29Z</time>
      </trkpt>
      <trkpt lat="43.41418" lon="2.24823">
        <ele>793.1</ele>
        <time>2021-08-18T09:27:35Z</time>
      </trkpt>
      <trkpt lat="43.41407" lon="2.24827">
        <ele>794.5</ele>
        <time>2021-08-18T09:27:40Z</time>
      </trkpt>
      <trkpt lat="43.41394" lon="2.24828">
        <ele>789.7</ele>
        <time>2021-08-18T09:27:45Z</time>
      </trkpt>
      <trkpt lat="43.41381" lon="2.24829">
        <ele>790.3</ele>
        <time>2021-08-18T09:27:51Z</time>
      </trkpt>
      <trkpt lat="43.41369" lon="2.24828">
        <ele>791.3</ele>
        <time>2021-08-18T09:27:56Z</time>
      </trkpt>
      <trkpt lat="43.41357" lon="2.24823">
        <ele>792.7</ele>
        <time>2021-08-18T09:28:02Z</time>
      </trkpt>
      <trkpt lat="43.41348" lon="2.24816">
        <ele>792.6</ele>
        <time>2021-08-18T09:28:07Z</time>
      </trkpt>
      <trkpt lat="43.41337" lon="2.24809">
        <ele>793.4</ele>
        <time>2021-08-18T09:28:13Z</time>
      </trkpt>
      <trkpt lat="43.41325" lon="2.24802">
        <ele>796.5</ele>
        <time>2021-08-18T09:28:19Z</time>
      </trkpt>
      <trkpt lat="43.41317" lon="2.24795">
        <ele>794.3</ele>
        <time>2021-08-18T09:28:24Z</time>
      </trkpt>
      <trkpt lat="43.4131" lon="2.24782">
        <ele>795.7</ele>
        <time>2021-08-18T09:28:30Z</time>
      </trkpt>
      <trkpt lat="43.41309" lon="2.24761">
        <ele>797.3</ele>
        <time>2021-08-18T09:28:36Z</time>
      </trkpt>
      <trkpt lat="43.41315" lon="2.24753">
        <ele>798</ele>
        <time>2021-08-18T09:28:41Z</time>
      </trkpt>
      <trkpt lat="43.41325" lon="2.2475">
        <ele>798.5</ele>
        <time>2021-08-18T09:28:47Z</time>
      </trkpt>
      <trkpt lat="43.41335" lon="2.24752">
        <ele>799.6</ele>
        <time>2021-08-18T09:28:53Z</time>
      </trkpt>
      <trkpt lat="43.41348" lon="2.24761">
        <ele>804.4</ele>
        <time>2021-08-18T09:28:59Z</time>
      </trkpt>
      <trkpt lat="43.41358" lon="2.24768">
        <ele>804.7</ele>
        <time>2021-08-18T09:29:04Z</time>
      </trkpt>
      <trkpt lat="43.4137" lon="2.24769">
        <ele>807.3</ele>
        <time>2021-08-18T09:29:10Z</time>
      </trkpt>
      <trkpt lat="43.41381" lon="2.24763">
        <ele>811.3</ele>
        <time>2021-08-18T09:29:16Z</time>
      </trkpt>
      <trkpt lat="43.41391" lon="2.24757">
        <ele>813.3</ele>
        <time>2021-08-18T09:29:22Z</time>
      </trkpt>
      <trkpt lat="43.41403" lon="2.2475">
        <ele>815</ele>
        <time>2021-08-18T09:29:27Z</time>
      </trkpt>
      <trkpt lat="43.41415" lon="2.24741">
        <ele>813.1</ele>
        <time>2021-08-18T09:29:33Z</time>
      </trkpt>
      <trkpt lat="43.41423" lon="2.24734">
        <ele>813.2</ele>
        <time>2021-08-18T09:29:38Z</time>
      </trkpt>
      <trkpt lat="43.41435" lon="2.24725">
        <ele>812.7</ele>
        <time>2021-08-18T09:29:44Z</time>
      </trkpt>
      <trkpt lat="43.41448" lon="2.24718">
        <ele>813.9</ele>
        <time>2021-08-18T09:29:50Z</time>
      </trkpt>
      <trkpt lat="43.41459" lon="2.24711">
        <ele>812.1</ele>
        <time>2021-08-18T09:29:56Z</time>
      </trkpt>
      <trkpt lat="43.41468" lon="2.24701">
        <ele>809.5</ele>
        <time>2021-08-18T09:30:01Z</time>
      </trkpt>
      <trkpt lat="43.41477" lon="2.24691">
        <ele>811.7</ele>
        <time>2021-08-18T09:30:06Z</time>
      </trkpt>
      <trkpt lat="43.41489" lon="2.24682">
        <ele>812.8</ele>
        <time>2021-08-18T09:30:12Z</time>
      </trkpt>
      <trkpt lat="43.41501" lon="2.24673">
        <ele>811.7</ele>
        <time>2021-08-18T09:30:18Z</time>
      </trkpt>
      <trkpt lat="43.41512" lon="2.24663">
        <ele>812.8</ele>
        <time>2021-08-18T09:30:24Z</time>
      </trkpt>
      <trkpt lat="43.41516" lon="2.24654">
        <ele>815.4</ele>
        <time>2021-08-18T09:30:29Z</time>
      </trkpt>
      <trkpt lat="43.41516" lon="2.24652">
        <ele>817.9</ele>
        <time>2021-08-18T09:30:35Z</time>
      </trkpt>
      <trkpt lat="43.41504" lon="2.24653">
        <ele>821.4</ele>
        <time>2021-08-18T09:30:41Z</time>
      </trkpt>
      <trkpt lat="43.41489" lon="2.24651">
        <ele>823.2</ele>
        <time>2021-08-18T09:30:47Z</time>
      </trkpt>
      <trkpt lat="43.41476" lon="2.24648">
        <ele>822</ele>
        <time>2021-08-18T09:30:53Z</time>
      </trkpt>
      <trkpt lat="43.41465" lon="2.24645">
        <ele>820.8</ele>
        <time>2021-08-18T09:30:58Z</time>
      </trkpt>
      <trkpt lat="43.41454" lon="2.24643">
        <ele>816.2</ele>
        <time>2021-08-18T09:31:04Z</time>
      </trkpt>
      <trkpt lat="43.41444" lon="2.24643">
        <ele>816.1</ele>
        <time>2021-08-18T09:31:09Z</time>
      </trkpt>
      <trkpt lat="43.41433" lon="2.24643">
        <ele>816</ele>
        <time>2021-08-18T09:31:15Z</time>
      </trkpt>
      <trkpt lat="43.41422" lon="2.24641">
        <ele>814.8</ele>
        <time>2021-08-18T09:31:20Z</time>
      </trkpt>
      <trkpt lat="43.41407" lon="2.24639">
        <ele>817.2</ele>
        <time>2021-08-18T09:31:26Z</time>
      </trkpt>
      <trkpt lat="43.41402" lon="2.24638">
        <ele>816.6</ele>
        <time>2021-08-18T09:31:32Z</time>
      </trkpt>
      <trkpt lat="43.41402" lon="2.24638">
        <ele>818.2</ele>
        <time>2021-08-18T09:31:38Z</time>
      </trkpt>
      <trkpt lat="43.41402" lon="2.24638">
        <ele>818.4</ele>
        <time>2021-08-18T09:31:43Z</time>
      </trkpt>
      <trkpt lat="43.41402" lon="2.24638">
        <ele>818.7</ele>
        <time>2021-08-18T09:31:48Z</time>
      </trkpt>
      <trkpt lat="43.41402" lon="2.24638">
        <ele>818.7</ele>
        <time>2021-08-18T09:31:54Z</time>
      </trkpt>
      <trkpt lat="43.41402" lon="2.24638">
        <ele>818.2</ele>
        <time>2021-08-18T09:32:00Z</time>
      </trkpt>
      <trkpt lat="43.41402" lon="2.24638">
        <ele>817.8</ele>
        <time>2021-08-18T09:32:05Z</time>
      </trkpt>
      <trkpt lat="43.41393" lon="2.24639">
        <ele>817</ele>
        <time>2021-08-18T09:32:11Z</time>
      </trkpt>
      <trkpt lat="43.41377" lon="2.2464">
        <ele>815</ele>
        <time>2021-08-18T09:32:17Z</time>
      </trkpt>
      <trkpt lat="43.41376" lon="2.24639">
        <ele>817.5</ele>
        <time>2021-08-18T09:32:23Z</time>
      </trkpt>
      <trkpt lat="43.41376" lon="2.24639">
        <ele>818.1</ele>
        <time>2021-08-18T09:32:28Z</time>
      </trkpt>
      <trkpt lat="43.41376" lon="2.24639">
        <ele>815.5</ele>
        <time>2021-08-18T09:32:34Z</time>
      </trkpt>
      <trkpt lat="43.41376" lon="2.24639">
        <ele>817.3</ele>
        <time>2021-08-18T09:32:40Z</time>
      </trkpt>
      <trkpt lat="43.41376" lon="2.24639">
        <ele>815.8</ele>
        <time>2021-08-18T09:32:45Z</time>
      </trkpt>
      <trkpt lat="43.41376" lon="2.24639">
        <ele>816.6</ele>
        <time>2021-08-18T09:32:51Z</time>
      </trkpt>
      <trkpt lat="43.41376" lon="2.24639">
        <ele>816.7</ele>
        <time>2021-08-18T09:32:57Z</time>
      </trkpt>
      <trkpt lat="43.41376" lon="2.24639">
        <ele>816.2</ele>
        <time>2021-08-18T09:33:02Z</time>
      </trkpt>
      <trkpt lat="43.41376" lon="2.24639">
        <ele>817</ele>
        <time>2021-08-18T09:33:07Z</time>
      </trkpt>
      <trkpt lat="43.41376" lon="2.24639">
        <ele>816.9</ele>
        <time>2021-08-18T09:33:13Z</time>
      </trkpt>
      <trkpt lat="43.41376" lon="2.24639">
        <ele>816.4</ele>
        <time>2021-08-18T09:33:18Z</time>
      </trkpt>
      <trkpt lat="43.41376" lon="2.24639">
        <ele>816.3</ele>
        <time>2021-08-18T09:33:24Z</time>
      </trkpt>
      <trkpt lat="43.41376" lon="2.24639">
        <ele>817.2</ele>
        <time>2021-08-18T09:33:30Z</time>
      </trkpt>
      <trkpt lat="43.41376" lon="2.24639">
        <ele>817</ele>
        <time>2021-08-18T09:33:36Z</time>
      </trkpt>
      <trkpt lat="43.41376" lon="2.24639">
        <ele>816.5</ele>
        <time>2021-08-18T09:33:43Z</time>
      </trkpt>
      <trkpt lat="43.41376" lon="2.24639">
        <ele>817.5</ele>
        <time>2021-08-18T09:33:48Z</time>
      </trkpt>
      <trkpt lat="43.41376" lon="2.24639">
        <ele>816.8</ele>
        <time>2021-08-18T09:33:53Z</time>
      </trkpt>
      <trkpt lat="43.41376" lon="2.24639">
        <ele>816.6</ele>
        <time>2021-08-18T09:33:59Z</time>
      </trkpt>
      <trkpt lat="43.41376" lon="2.24639">
        <ele>817.1</ele>
        <time>2021-08-18T09:34:05Z</time>
      </trkpt>
      <trkpt lat="43.41361" lon="2.24642">
        <ele>814.7</ele>
        <time>2021-08-18T09:34:11Z</time>
      </trkpt>
      <trkpt lat="43.41337" lon="2.24647">
        <ele>814.7</ele>
        <time>2021-08-18T09:34:17Z</time>
      </trkpt>
      <trkpt lat="43.41311" lon="2.24636">
        <ele>810.1</ele>
        <time>2021-08-18T09:34:23Z</time>
      </trkpt>
      <trkpt lat="43.41285" lon="2.24622">
        <ele>807.9</ele>
        <time>2021-08-18T09:34:29Z</time>
      </trkpt>
      <trkpt lat="43.41258" lon="2.24618">
        <ele>805</ele>
        <time>2021-08-18T09:34:34Z</time>
      </trkpt>
      <trkpt lat="43.41231" lon="2.24607">
        <ele>803.7</ele>
        <time>2021-08-18T09:34:39Z</time>
      </trkpt>
      <trkpt lat="43.41196" lon="2.24607">
        <ele>804.4</ele>
        <time>2021-08-18T09:34:45Z</time>
      </trkpt>
      <trkpt lat="43.41169" lon="2.2461">
        <ele>804.2</ele>
        <time>2021-08-18T09:34:50Z</time>
      </trkpt>
      <trkpt lat="43.41145" lon="2.24607">
        <ele>805.5</ele>
        <time>2021-08-18T09:34:56Z</time>
      </trkpt>
      <trkpt lat="43.41132" lon="2.24605">
        <ele>808.7</ele>
        <time>2021-08-18T09:35:01Z</time>
      </trkpt>
      <trkpt lat="43.41122" lon="2.24599">
        <ele>807.2</ele>
        <time>2021-08-18T09:35:07Z</time>
      </trkpt>
      <trkpt lat="43.41113" lon="2.2459">
        <ele>807</ele>
        <time>2021-08-18T09:35:12Z</time>
      </trkpt>
      <trkpt lat="43.41098" lon="2.24585">
        <ele>806</ele>
        <time>2021-08-18T09:35:18Z</time>
      </trkpt>
      <trkpt lat="43.41087" lon="2.24578">
        <ele>802.4</ele>
        <time>2021-08-18T09:35:24Z</time>
      </trkpt>
      <trkpt lat="43.41075" lon="2.24573">
        <ele>802.3</ele>
        <time>2021-08-18T09:35:30Z</time>
      </trkpt>
      <trkpt lat="43.4106" lon="2.24571">
        <ele>799.9</ele>
        <time>2021-08-18T09:35:35Z</time>
      </trkpt>
      <trkpt lat="43.41048" lon="2.24567">
        <ele>799.7</ele>
        <time>2021-08-18T09:35:41Z</time>
      </trkpt>
      <trkpt lat="43.41036" lon="2.24567">
        <ele>798.3</ele>
        <time>2021-08-18T09:35:46Z</time>
      </trkpt>
      <trkpt lat="43.4102" lon="2.24569">
        <ele>799</ele>
        <time>2021-08-18T09:35:52Z</time>
      </trkpt>
      <trkpt lat="43.41003" lon="2.24568">
        <ele>798.1</ele>
        <time>2021-08-18T09:35:57Z</time>
      </trkpt>
      <trkpt lat="43.40987" lon="2.24567">
        <ele>797.4</ele>
        <time>2021-08-18T09:36:02Z</time>
      </trkpt>
      <trkpt lat="43.40962" lon="2.24571">
        <ele>796.3</ele>
        <time>2021-08-18T09:36:08Z</time>
      </trkpt>
      <trkpt lat="43.4094" lon="2.24578">
        <ele>798.3</ele>
        <time>2021-08-18T09:36:13Z</time>
      </trkpt>
      <trkpt lat="43.40912" lon="2.24582">
        <ele>795</ele>
        <time>2021-08-18T09:36:19Z</time>
      </trkpt>
      <trkpt lat="43.40886" lon="2.2459">
        <ele>793.7</ele>
        <time>2021-08-18T09:36:24Z</time>
      </trkpt>
      <trkpt lat="43.40867" lon="2.24585">
        <ele>793.1</ele>
        <time>2021-08-18T09:36:30Z</time>
      </trkpt>
      <trkpt lat="43.40865" lon="2.24584">
        <ele>793.9</ele>
        <time>2021-08-18T09:36:36Z</time>
      </trkpt>
      <trkpt lat="43.40865" lon="2.24584">
        <ele>794.4</ele>
        <time>2021-08-18T09:36:41Z</time>
      </trkpt>
      <trkpt lat="43.40856" lon="2.24562">
        <ele>796.1</ele>
        <time>2021-08-18T09:36:47Z</time>
      </trkpt>
      <trkpt lat="43.40851" lon="2.24537">
        <ele>796.1</ele>
        <time>2021-08-18T09:36:53Z</time>
      </trkpt>
      <trkpt lat="43.4084" lon="2.24504">
        <ele>793.9</ele>
        <time>2021-08-18T09:36:59Z</time>
      </trkpt>
      <trkpt lat="43.4083" lon="2.24469">
        <ele>793.2</ele>
        <time>2021-08-18T09:37:05Z</time>
      </trkpt>
      <trkpt lat="43.4082" lon="2.24439">
        <ele>790.1</ele>
        <time>2021-08-18T09:37:10Z</time>
      </trkpt>
      <trkpt lat="43.40813" lon="2.24408">
        <ele>786.2</ele>
        <time>2021-08-18T09:37:15Z</time>
      </trkpt>
      <trkpt lat="43.40808" lon="2.24368">
        <ele>784.1</ele>
        <time>2021-08-18T09:37:21Z</time>
      </trkpt>
      <trkpt lat="43.40809" lon="2.24329">
        <ele>782.5</ele>
        <time>2021-08-18T09:37:27Z</time>
      </trkpt>
      <trkpt lat="43.40819" lon="2.24297">
        <ele>780.2</ele>
        <time>2021-08-18T09:37:32Z</time>
      </trkpt>
      <trkpt lat="43.40832" lon="2.2425">
        <ele>774.7</ele>
        <time>2021-08-18T09:37:38Z</time>
      </trkpt>
      <trkpt lat="43.40828" lon="2.2422">
        <ele>774.1</ele>
        <time>2021-08-18T09:37:43Z</time>
      </trkpt>
      <trkpt lat="43.4083" lon="2.24199">
        <ele>774.3</ele>
        <time>2021-08-18T09:37:49Z</time>
      </trkpt>
      <trkpt lat="43.40826" lon="2.24184">
        <ele>774.4</ele>
        <time>2021-08-18T09:37:55Z</time>
      </trkpt>
      <trkpt lat="43.40823" lon="2.24169">
        <ele>773.5</ele>
        <time>2021-08-18T09:38:00Z</time>
      </trkpt>
      <trkpt lat="43.4082" lon="2.24151">
        <ele>771.8</ele>
        <time>2021-08-18T09:38:06Z</time>
      </trkpt>
      <trkpt lat="43.40818" lon="2.24137">
        <ele>769.3</ele>
        <time>2021-08-18T09:38:11Z</time>
      </trkpt>
      <trkpt lat="43.40819" lon="2.24122">
        <ele>770.1</ele>
        <time>2021-08-18T09:38:17Z</time>
      </trkpt>
      <trkpt lat="43.40817" lon="2.2411">
        <ele>770.4</ele>
        <time>2021-08-18T09:38:22Z</time>
      </trkpt>
      <trkpt lat="43.4081" lon="2.24094">
        <ele>768.3</ele>
        <time>2021-08-18T09:38:28Z</time>
      </trkpt>
      <trkpt lat="43.40805" lon="2.24075">
        <ele>768.3</ele>
        <time>2021-08-18T09:38:34Z</time>
      </trkpt>
      <trkpt lat="43.40803" lon="2.24058">
        <ele>775.4</ele>
        <time>2021-08-18T09:38:40Z</time>
      </trkpt>
      <trkpt lat="43.40803" lon="2.24041">
        <ele>776.7</ele>
        <time>2021-08-18T09:38:46Z</time>
      </trkpt>
      <trkpt lat="43.40802" lon="2.24031">
        <ele>778.2</ele>
        <time>2021-08-18T09:38:51Z</time>
      </trkpt>
      <trkpt lat="43.40792" lon="2.24017">
        <ele>779.9</ele>
        <time>2021-08-18T09:38:57Z</time>
      </trkpt>
      <trkpt lat="43.4078" lon="2.24001">
        <ele>781</ele>
        <time>2021-08-18T09:39:03Z</time>
      </trkpt>
      <trkpt lat="43.40767" lon="2.23991">
        <ele>783.7</ele>
        <time>2021-08-18T09:39:09Z</time>
      </trkpt>
      <trkpt lat="43.40758" lon="2.23983">
        <ele>786.6</ele>
        <time>2021-08-18T09:39:15Z</time>
      </trkpt>
      <trkpt lat="43.40748" lon="2.23976">
        <ele>788.2</ele>
        <time>2021-08-18T09:39:21Z</time>
      </trkpt>
      <trkpt lat="43.40735" lon="2.23965">
        <ele>788.1</ele>
        <time>2021-08-18T09:39:27Z</time>
      </trkpt>
      <trkpt lat="43.40726" lon="2.23958">
        <ele>788.5</ele>
        <time>2021-08-18T09:39:32Z</time>
      </trkpt>
      <trkpt lat="43.40715" lon="2.23951">
        <ele>789.6</ele>
        <time>2021-08-18T09:39:38Z</time>
      </trkpt>
      <trkpt lat="43.40706" lon="2.23943">
        <ele>789.9</ele>
        <time>2021-08-18T09:39:43Z</time>
      </trkpt>
      <trkpt lat="43.40695" lon="2.23941">
        <ele>789.4</ele>
        <time>2021-08-18T09:39:49Z</time>
      </trkpt>
      <trkpt lat="43.40684" lon="2.23944">
        <ele>791.5</ele>
        <time>2021-08-18T09:39:55Z</time>
      </trkpt>
      <trkpt lat="43.40676" lon="2.23949">
        <ele>791.6</ele>
        <time>2021-08-18T09:40:01Z</time>
      </trkpt>
      <trkpt lat="43.40669" lon="2.23956">
        <ele>794.8</ele>
        <time>2021-08-18T09:40:07Z</time>
      </trkpt>
      <trkpt lat="43.40661" lon="2.2396">
        <ele>796.4</ele>
        <time>2021-08-18T09:40:12Z</time>
      </trkpt>
      <trkpt lat="43.40652" lon="2.23963">
        <ele>801</ele>
        <time>2021-08-18T09:40:17Z</time>
      </trkpt>
      <trkpt lat="43.40644" lon="2.23967">
        <ele>800.3</ele>
        <time>2021-08-18T09:40:22Z</time>
      </trkpt>
      <trkpt lat="43.40633" lon="2.23972">
        <ele>801.4</ele>
        <time>2021-08-18T09:40:28Z</time>
      </trkpt>
      <trkpt lat="43.40624" lon="2.23972">
        <ele>802</ele>
        <time>2021-08-18T09:40:33Z</time>
      </trkpt>
      <trkpt lat="43.4061" lon="2.23966">
        <ele>803.1</ele>
        <time>2021-08-18T09:40:38Z</time>
      </trkpt>
      <trkpt lat="43.40586" lon="2.23957">
        <ele>799.1</ele>
        <time>2021-08-18T09:40:44Z</time>
      </trkpt>
      <trkpt lat="43.40568" lon="2.23946">
        <ele>795.3</ele>
        <time>2021-08-18T09:40:49Z</time>
      </trkpt>
      <trkpt lat="43.40547" lon="2.23934">
        <ele>794.4</ele>
        <time>2021-08-18T09:40:55Z</time>
      </trkpt>
      <trkpt lat="43.40528" lon="2.23924">
        <ele>788.7</ele>
        <time>2021-08-18T09:41:01Z</time>
      </trkpt>
      <trkpt lat="43.40508" lon="2.23921">
        <ele>787.9</ele>
        <time>2021-08-18T09:41:06Z</time>
      </trkpt>
      <trkpt lat="43.40492" lon="2.23939">
        <ele>785.4</ele>
        <time>2021-08-18T09:41:11Z</time>
      </trkpt>
      <trkpt lat="43.40476" lon="2.23955">
        <ele>781.7</ele>
        <time>2021-08-18T09:41:16Z</time>
      </trkpt>
      <trkpt lat="43.40453" lon="2.23949">
        <ele>780.9</ele>
        <time>2021-08-18T09:41:22Z</time>
      </trkpt>
      <trkpt lat="43.4043" lon="2.23941">
        <ele>778</ele>
        <time>2021-08-18T09:41:28Z</time>
      </trkpt>
      <trkpt lat="43.40409" lon="2.23933">
        <ele>779.7</ele>
        <time>2021-08-18T09:41:34Z</time>
      </trkpt>
      <trkpt lat="43.4039" lon="2.23927">
        <ele>783</ele>
        <time>2021-08-18T09:41:39Z</time>
      </trkpt>
      <trkpt lat="43.40362" lon="2.23922">
        <ele>784.9</ele>
        <time>2021-08-18T09:41:45Z</time>
      </trkpt>
      <trkpt lat="43.40335" lon="2.23917">
        <ele>785.5</ele>
        <time>2021-08-18T09:41:51Z</time>
      </trkpt>
      <trkpt lat="43.40308" lon="2.2391">
        <ele>785.3</ele>
        <time>2021-08-18T09:41:57Z</time>
      </trkpt>
      <trkpt lat="43.40286" lon="2.23905">
        <ele>784.5</ele>
        <time>2021-08-18T09:42:02Z</time>
      </trkpt>
      <trkpt lat="43.40263" lon="2.23904">
        <ele>785.9</ele>
        <time>2021-08-18T09:42:07Z</time>
      </trkpt>
      <trkpt lat="43.40235" lon="2.23915">
        <ele>783.2</ele>
        <time>2021-08-18T09:42:13Z</time>
      </trkpt>
      <trkpt lat="43.40202" lon="2.23918">
        <ele>783.4</ele>
        <time>2021-08-18T09:42:19Z</time>
      </trkpt>
      <trkpt lat="43.40177" lon="2.2391">
        <ele>781.7</ele>
        <time>2021-08-18T09:42:24Z</time>
      </trkpt>
      <trkpt lat="43.40155" lon="2.23893">
        <ele>781.5</ele>
        <time>2021-08-18T09:42:29Z</time>
      </trkpt>
      <trkpt lat="43.40126" lon="2.23875">
        <ele>777.7</ele>
        <time>2021-08-18T09:42:35Z</time>
      </trkpt>
      <trkpt lat="43.40104" lon="2.2386">
        <ele>775.5</ele>
        <time>2021-08-18T09:42:41Z</time>
      </trkpt>
      <trkpt lat="43.40084" lon="2.23848">
        <ele>769.3</ele>
        <time>2021-08-18T09:42:47Z</time>
      </trkpt>
      <trkpt lat="43.4005" lon="2.23844">
        <ele>765.2</ele>
        <time>2021-08-18T09:42:53Z</time>
      </trkpt>
      <trkpt lat="43.40012" lon="2.2384">
        <ele>760</ele>
        <time>2021-08-18T09:42:59Z</time>
      </trkpt>
      <trkpt lat="43.39976" lon="2.23825">
        <ele>758.9</ele>
        <time>2021-08-18T09:43:05Z</time>
      </trkpt>
      <trkpt lat="43.39939" lon="2.23814">
        <ele>756.2</ele>
        <time>2021-08-18T09:43:11Z</time>
      </trkpt>
      <trkpt lat="43.39889" lon="2.23802">
        <ele>750.2</ele>
        <time>2021-08-18T09:43:17Z</time>
      </trkpt>
      <trkpt lat="43.39849" lon="2.23775">
        <ele>746.4</ele>
        <time>2021-08-18T09:43:23Z</time>
      </trkpt>
      <trkpt lat="43.39814" lon="2.23747">
        <ele>744.2</ele>
        <time>2021-08-18T09:43:29Z</time>
      </trkpt>
      <trkpt lat="43.3979" lon="2.23736">
        <ele>744.2</ele>
        <time>2021-08-18T09:43:35Z</time>
      </trkpt>
      <trkpt lat="43.39783" lon="2.23732">
        <ele>744.4</ele>
        <time>2021-08-18T09:43:40Z</time>
      </trkpt>
      <trkpt lat="43.39783" lon="2.23733">
        <ele>743.9</ele>
        <time>2021-08-18T09:43:46Z</time>
      </trkpt>
      <trkpt lat="43.39783" lon="2.23733">
        <ele>744.3</ele>
        <time>2021-08-18T09:43:52Z</time>
      </trkpt>
      <trkpt lat="43.39783" lon="2.23733">
        <ele>744.7</ele>
        <time>2021-08-18T09:43:58Z</time>
      </trkpt>
      <trkpt lat="43.39783" lon="2.23733">
        <ele>745.5</ele>
        <time>2021-08-18T09:44:03Z</time>
      </trkpt>
      <trkpt lat="43.39783" lon="2.23733">
        <ele>745.8</ele>
        <time>2021-08-18T09:44:08Z</time>
      </trkpt>
      <trkpt lat="43.39783" lon="2.23733">
        <ele>744.8</ele>
        <time>2021-08-18T09:44:13Z</time>
      </trkpt>
      <trkpt lat="43.39783" lon="2.23733">
        <ele>744.7</ele>
        <time>2021-08-18T09:44:18Z</time>
      </trkpt>
      <trkpt lat="43.39783" lon="2.23733">
        <ele>744.4</ele>
        <time>2021-08-18T09:44:24Z</time>
      </trkpt>
      <trkpt lat="43.39782" lon="2.23729">
        <ele>744.4</ele>
        <time>2021-08-18T09:44:30Z</time>
      </trkpt>
      <trkpt lat="43.39782" lon="2.23727">
        <ele>744.6</ele>
        <time>2021-08-18T09:44:36Z</time>
      </trkpt>
      <trkpt lat="43.39779" lon="2.23716">
        <ele>744.4</ele>
        <time>2021-08-18T09:44:41Z</time>
      </trkpt>
      <trkpt lat="43.39772" lon="2.23682">
        <ele>744.7</ele>
        <time>2021-08-18T09:44:46Z</time>
      </trkpt>
      <trkpt lat="43.39765" lon="2.23635">
        <ele>741.4</ele>
        <time>2021-08-18T09:44:51Z</time>
      </trkpt>
      <trkpt lat="43.39761" lon="2.23565">
        <ele>738.1</ele>
        <time>2021-08-18T09:44:57Z</time>
      </trkpt>
      <trkpt lat="43.39761" lon="2.23496">
        <ele>735.8</ele>
        <time>2021-08-18T09:45:03Z</time>
      </trkpt>
      <trkpt lat="43.39759" lon="2.23445">
        <ele>732.4</ele>
        <time>2021-08-18T09:45:08Z</time>
      </trkpt>
      <trkpt lat="43.39752" lon="2.23404">
        <ele>729.5</ele>
        <time>2021-08-18T09:45:14Z</time>
      </trkpt>
      <trkpt lat="43.39746" lon="2.2336">
        <ele>773.8</ele>
        <time>2021-08-18T09:45:19Z</time>
      </trkpt>
      <trkpt lat="43.39739" lon="2.23332">
        <ele>773.9</ele>
        <time>2021-08-18T09:45:24Z</time>
      </trkpt>
      <trkpt lat="43.39729" lon="2.23298">
        <ele>773.9</ele>
        <time>2021-08-18T09:45:29Z</time>
      </trkpt>
      <trkpt lat="43.39732" lon="2.23271">
        <ele>773.9</ele>
        <time>2021-08-18T09:45:35Z</time>
      </trkpt>
      <trkpt lat="43.39738" lon="2.23257">
        <ele>773.5</ele>
        <time>2021-08-18T09:45:40Z</time>
      </trkpt>
      <trkpt lat="43.39721" lon="2.23237">
        <ele>773.7</ele>
        <time>2021-08-18T09:45:45Z</time>
      </trkpt>
      <trkpt lat="43.397" lon="2.23218">
        <ele>773.7</ele>
        <time>2021-08-18T09:45:51Z</time>
      </trkpt>
      <trkpt lat="43.39711" lon="2.23218">
        <ele>773.6</ele>
        <time>2021-08-18T09:45:56Z</time>
      </trkpt>
      <trkpt lat="43.39717" lon="2.23189">
        <ele>773.7</ele>
        <time>2021-08-18T09:46:02Z</time>
      </trkpt>
      <trkpt lat="43.39723" lon="2.23166">
        <ele>773.7</ele>
        <time>2021-08-18T09:46:07Z</time>
      </trkpt>
      <trkpt lat="43.39736" lon="2.23145">
        <ele>773.8</ele>
        <time>2021-08-18T09:46:13Z</time>
      </trkpt>
      <trkpt lat="43.39746" lon="2.23099">
        <ele>773.8</ele>
        <time>2021-08-18T09:46:19Z</time>
      </trkpt>
      <trkpt lat="43.39742" lon="2.23064">
        <ele>773.8</ele>
        <time>2021-08-18T09:46:24Z</time>
      </trkpt>
      <trkpt lat="43.39726" lon="2.23019">
        <ele>773.7</ele>
        <time>2021-08-18T09:46:30Z</time>
      </trkpt>
      <trkpt lat="43.39714" lon="2.22975">
        <ele>773.7</ele>
        <time>2021-08-18T09:46:36Z</time>
      </trkpt>
      <trkpt lat="43.39701" lon="2.22927">
        <ele>687</ele>
        <time>2021-08-18T09:46:41Z</time>
      </trkpt>
      <trkpt lat="43.39687" lon="2.22898">
        <ele>684.4</ele>
        <time>2021-08-18T09:46:47Z</time>
      </trkpt>
      <trkpt lat="43.39675" lon="2.22869">
        <ele>680.9</ele>
        <time>2021-08-18T09:46:53Z</time>
      </trkpt>
      <trkpt lat="43.39674" lon="2.22863">
        <ele>678.5</ele>
        <time>2021-08-18T09:46:59Z</time>
      </trkpt>
      <trkpt lat="43.39674" lon="2.22863">
        <ele>678.7</ele>
        <time>2021-08-18T09:47:04Z</time>
      </trkpt>
      <trkpt lat="43.39674" lon="2.22863">
        <ele>677.5</ele>
        <time>2021-08-18T09:47:10Z</time>
      </trkpt>
      <trkpt lat="43.39674" lon="2.22863">
        <ele>677.8</ele>
        <time>2021-08-18T09:47:15Z</time>
      </trkpt>
      <trkpt lat="43.39664" lon="2.22854">
        <ele>678.4</ele>
        <time>2021-08-18T09:47:21Z</time>
      </trkpt>
      <trkpt lat="43.39657" lon="2.22839">
        <ele>677.9</ele>
        <time>2021-08-18T09:47:27Z</time>
      </trkpt>
      <trkpt lat="43.39656" lon="2.22832">
        <ele>679.4</ele>
        <time>2021-08-18T09:47:32Z</time>
      </trkpt>
      <trkpt lat="43.39657" lon="2.22824">
        <ele>676.8</ele>
        <time>2021-08-18T09:47:37Z</time>
      </trkpt>
      <trkpt lat="43.39661" lon="2.22804">
        <ele>679.5</ele>
        <time>2021-08-18T09:47:42Z</time>
      </trkpt>
      <trkpt lat="43.39665" lon="2.22778">
        <ele>679.2</ele>
        <time>2021-08-18T09:47:48Z</time>
      </trkpt>
      <trkpt lat="43.39662" lon="2.22757">
        <ele>675.1</ele>
        <time>2021-08-18T09:47:54Z</time>
      </trkpt>
      <trkpt lat="43.39654" lon="2.22738">
        <ele>672.4</ele>
        <time>2021-08-18T09:47:59Z</time>
      </trkpt>
      <trkpt lat="43.39651" lon="2.22727">
        <ele>670.9</ele>
        <time>2021-08-18T09:48:05Z</time>
      </trkpt>
      <trkpt lat="43.39644" lon="2.22727">
        <ele>669.2</ele>
        <time>2021-08-18T09:48:11Z</time>
      </trkpt>
      <trkpt lat="43.3963" lon="2.22713">
        <ele>668.5</ele>
        <time>2021-08-18T09:48:16Z</time>
      </trkpt>
      <trkpt lat="43.39627" lon="2.22693">
        <ele>662.6</ele>
        <time>2021-08-18T09:48:22Z</time>
      </trkpt>
      <trkpt lat="43.39634" lon="2.22673">
        <ele>659.9</ele>
        <time>2021-08-18T09:48:28Z</time>
      </trkpt>
      <trkpt lat="43.39632" lon="2.22663">
        <ele>658.1</ele>
        <time>2021-08-18T09:48:33Z</time>
      </trkpt>
      <trkpt lat="43.39631" lon="2.22661">
        <ele>657.4</ele>
        <time>2021-08-18T09:48:39Z</time>
      </trkpt>
      <trkpt lat="43.39631" lon="2.22661">
        <ele>656.6</ele>
        <time>2021-08-18T09:48:44Z</time>
      </trkpt>
      <trkpt lat="43.39621" lon="2.22658">
        <ele>655.2</ele>
        <time>2021-08-18T09:48:49Z</time>
      </trkpt>
      <trkpt lat="43.39604" lon="2.2264">
        <ele>658.4</ele>
        <time>2021-08-18T09:48:55Z</time>
      </trkpt>
      <trkpt lat="43.39587" lon="2.2261">
        <ele>659.6</ele>
        <time>2021-08-18T09:49:01Z</time>
      </trkpt>
      <trkpt lat="43.39575" lon="2.22579">
        <ele>660.5</ele>
        <time>2021-08-18T09:49:07Z</time>
      </trkpt>
      <trkpt lat="43.39562" lon="2.22556">
        <ele>663.1</ele>
        <time>2021-08-18T09:49:13Z</time>
      </trkpt>
      <trkpt lat="43.39557" lon="2.2254">
        <ele>668.3</ele>
        <time>2021-08-18T09:49:18Z</time>
      </trkpt>
      <trkpt lat="43.3955" lon="2.22526">
        <ele>670.6</ele>
        <time>2021-08-18T09:49:24Z</time>
      </trkpt>
      <trkpt lat="43.3954" lon="2.22504">
        <ele>670.1</ele>
        <time>2021-08-18T09:49:29Z</time>
      </trkpt>
      <trkpt lat="43.39528" lon="2.22481">
        <ele>669.5</ele>
        <time>2021-08-18T09:49:35Z</time>
      </trkpt>
      <trkpt lat="43.39514" lon="2.22464">
        <ele>671.3</ele>
        <time>2021-08-18T09:49:41Z</time>
      </trkpt>
      <trkpt lat="43.39495" lon="2.22447">
        <ele>669.5</ele>
        <time>2021-08-18T09:49:47Z</time>
      </trkpt>
      <trkpt lat="43.39476" lon="2.22439">
        <ele>664.9</ele>
        <time>2021-08-18T09:49:52Z</time>
      </trkpt>
      <trkpt lat="43.39456" lon="2.22428">
        <ele>664.4</ele>
        <time>2021-08-18T09:49:57Z</time>
      </trkpt>
      <trkpt lat="43.3944" lon="2.22413">
        <ele>662.5</ele>
        <time>2021-08-18T09:50:03Z</time>
      </trkpt>
      <trkpt lat="43.39426" lon="2.2238">
        <ele>659</ele>
        <time>2021-08-18T09:50:09Z</time>
      </trkpt>
      <trkpt lat="43.39429" lon="2.22345">
        <ele>655.8</ele>
        <time>2021-08-18T09:50:15Z</time>
      </trkpt>
      <trkpt lat="43.39429" lon="2.2231">
        <ele>655.4</ele>
        <time>2021-08-18T09:50:21Z</time>
      </trkpt>
      <trkpt lat="43.39424" lon="2.22278">
        <ele>655.6</ele>
        <time>2021-08-18T09:50:26Z</time>
      </trkpt>
      <trkpt lat="43.3944" lon="2.22241">
        <ele>654.5</ele>
        <time>2021-08-18T09:50:32Z</time>
      </trkpt>
      <trkpt lat="43.39457" lon="2.22217">
        <ele>651.5</ele>
        <time>2021-08-18T09:50:38Z</time>
      </trkpt>
      <trkpt lat="43.39472" lon="2.22202">
        <ele>649.6</ele>
        <time>2021-08-18T09:50:44Z</time>
      </trkpt>
      <trkpt lat="43.39488" lon="2.22185">
        <ele>651.2</ele>
        <time>2021-08-18T09:50:50Z</time>
      </trkpt>
      <trkpt lat="43.39494" lon="2.22162">
        <ele>655</ele>
        <time>2021-08-18T09:50:55Z</time>
      </trkpt>
      <trkpt lat="43.39477" lon="2.22147">
        <ele>654.8</ele>
        <time>2021-08-18T09:51:01Z</time>
      </trkpt>
      <trkpt lat="43.39459" lon="2.22135">
        <ele>654</ele>
        <time>2021-08-18T09:51:07Z</time>
      </trkpt>
      <trkpt lat="43.39441" lon="2.22132">
        <ele>652.7</ele>
        <time>2021-08-18T09:51:12Z</time>
      </trkpt>
      <trkpt lat="43.39411" lon="2.22138">
        <ele>652.8</ele>
        <time>2021-08-18T09:51:18Z</time>
      </trkpt>
      <trkpt lat="43.39379" lon="2.22152">
        <ele>649.8</ele>
        <time>2021-08-18T09:51:24Z</time>
      </trkpt>
      <trkpt lat="43.39356" lon="2.22149">
        <ele>648.5</ele>
        <time>2021-08-18T09:51:29Z</time>
      </trkpt>
      <trkpt lat="43.39329" lon="2.22121">
        <ele>646.5</ele>
        <time>2021-08-18T09:51:35Z</time>
      </trkpt>
      <trkpt lat="43.39302" lon="2.22098">
        <ele>643.8</ele>
        <time>2021-08-18T09:51:41Z</time>
      </trkpt>
      <trkpt lat="43.39278" lon="2.2208">
        <ele>642.8</ele>
        <time>2021-08-18T09:51:47Z</time>
      </trkpt>
      <trkpt lat="43.39254" lon="2.22061">
        <ele>641</ele>
        <time>2021-08-18T09:51:52Z</time>
      </trkpt>
      <trkpt lat="43.39229" lon="2.22036">
        <ele>639.2</ele>
        <time>2021-08-18T09:51:58Z</time>
      </trkpt>
      <trkpt lat="43.39201" lon="2.22013">
        <ele>636.3</ele>
        <time>2021-08-18T09:52:04Z</time>
      </trkpt>
      <trkpt lat="43.39178" lon="2.21983">
        <ele>635.4</ele>
        <time>2021-08-18T09:52:10Z</time>
      </trkpt>
      <trkpt lat="43.39156" lon="2.21948">
        <ele>634.9</ele>
        <time>2021-08-18T09:52:16Z</time>
      </trkpt>
      <trkpt lat="43.39122" lon="2.21923">
        <ele>634.7</ele>
        <time>2021-08-18T09:52:22Z</time>
      </trkpt>
      <trkpt lat="43.39096" lon="2.21894">
        <ele>632.8</ele>
        <time>2021-08-18T09:52:28Z</time>
      </trkpt>
      <trkpt lat="43.39073" lon="2.21864">
        <ele>634.6</ele>
        <time>2021-08-18T09:52:33Z</time>
      </trkpt>
      <trkpt lat="43.39044" lon="2.21844">
        <ele>635.4</ele>
        <time>2021-08-18T09:52:39Z</time>
      </trkpt>
      <trkpt lat="43.39015" lon="2.21823">
        <ele>635.9</ele>
        <time>2021-08-18T09:52:45Z</time>
      </trkpt>
      <trkpt lat="43.38988" lon="2.21806">
        <ele>636.9</ele>
        <time>2021-08-18T09:52:50Z</time>
      </trkpt>
      <trkpt lat="43.38951" lon="2.21795">
        <ele>639.9</ele>
        <time>2021-08-18T09:52:57Z</time>
      </trkpt>
      <trkpt lat="43.3892" lon="2.21791">
        <ele>641.5</ele>
        <time>2021-08-18T09:53:02Z</time>
      </trkpt>
      <trkpt lat="43.389" lon="2.21791">
        <ele>644.1</ele>
        <time>2021-08-18T09:53:07Z</time>
      </trkpt>
      <trkpt lat="43.38881" lon="2.21791">
        <ele>646.5</ele>
        <time>2021-08-18T09:53:12Z</time>
      </trkpt>
      <trkpt lat="43.38853" lon="2.21793">
        <ele>647.1</ele>
        <time>2021-08-18T09:53:18Z</time>
      </trkpt>
      <trkpt lat="43.38829" lon="2.21792">
        <ele>649.1</ele>
        <time>2021-08-18T09:53:24Z</time>
      </trkpt>
      <trkpt lat="43.38808" lon="2.21786">
        <ele>648.5</ele>
        <time>2021-08-18T09:53:29Z</time>
      </trkpt>
      <trkpt lat="43.38783" lon="2.2176">
        <ele>648.6</ele>
        <time>2021-08-18T09:53:36Z</time>
      </trkpt>
      <trkpt lat="43.38761" lon="2.21725">
        <ele>650.7</ele>
        <time>2021-08-18T09:53:41Z</time>
      </trkpt>
      <trkpt lat="43.38745" lon="2.21694">
        <ele>653.8</ele>
        <time>2021-08-18T09:53:47Z</time>
      </trkpt>
      <trkpt lat="43.38731" lon="2.21655">
        <ele>655.3</ele>
        <time>2021-08-18T09:53:52Z</time>
      </trkpt>
      <trkpt lat="43.38727" lon="2.21621">
        <ele>653</ele>
        <time>2021-08-18T09:53:57Z</time>
      </trkpt>
      <trkpt lat="43.38729" lon="2.21585">
        <ele>654.4</ele>
        <time>2021-08-18T09:54:02Z</time>
      </trkpt>
      <trkpt lat="43.38735" lon="2.2154">
        <ele>651.3</ele>
        <time>2021-08-18T09:54:08Z</time>
      </trkpt>
      <trkpt lat="43.38749" lon="2.215">
        <ele>648.5</ele>
        <time>2021-08-18T09:54:14Z</time>
      </trkpt>
      <trkpt lat="43.38763" lon="2.21454">
        <ele>646.5</ele>
        <time>2021-08-18T09:54:19Z</time>
      </trkpt>
      <trkpt lat="43.38765" lon="2.21413">
        <ele>644</ele>
        <time>2021-08-18T09:54:24Z</time>
      </trkpt>
      <trkpt lat="43.38753" lon="2.21371">
        <ele>642.6</ele>
        <time>2021-08-18T09:54:29Z</time>
      </trkpt>
      <trkpt lat="43.38726" lon="2.21351">
        <ele>642.8</ele>
        <time>2021-08-18T09:54:35Z</time>
      </trkpt>
      <trkpt lat="43.38703" lon="2.21329">
        <ele>645.2</ele>
        <time>2021-08-18T09:54:41Z</time>
      </trkpt>
      <trkpt lat="43.38677" lon="2.21293">
        <ele>647.2</ele>
        <time>2021-08-18T09:54:47Z</time>
      </trkpt>
      <trkpt lat="43.38656" lon="2.21258">
        <ele>645.6</ele>
        <time>2021-08-18T09:54:53Z</time>
      </trkpt>
      <trkpt lat="43.38645" lon="2.21215">
        <ele>646.5</ele>
        <time>2021-08-18T09:54:59Z</time>
      </trkpt>
      <trkpt lat="43.38637" lon="2.21174">
        <ele>646.1</ele>
        <time>2021-08-18T09:55:05Z</time>
      </trkpt>
      <trkpt lat="43.38634" lon="2.21143">
        <ele>645.9</ele>
        <time>2021-08-18T09:55:10Z</time>
      </trkpt>
      <trkpt lat="43.38629" lon="2.21102">
        <ele>643.2</ele>
        <time>2021-08-18T09:55:16Z</time>
      </trkpt>
      <trkpt lat="43.38642" lon="2.21067">
        <ele>643.9</ele>
        <time>2021-08-18T09:55:21Z</time>
      </trkpt>
      <trkpt lat="43.38666" lon="2.21038">
        <ele>646.5</ele>
        <time>2021-08-18T09:55:27Z</time>
      </trkpt>
      <trkpt lat="43.38686" lon="2.21017">
        <ele>647.2</ele>
        <time>2021-08-18T09:55:33Z</time>
      </trkpt>
      <trkpt lat="43.38696" lon="2.20993">
        <ele>648.3</ele>
        <time>2021-08-18T09:55:39Z</time>
      </trkpt>
      <trkpt lat="43.38679" lon="2.20968">
        <ele>647.5</ele>
        <time>2021-08-18T09:55:45Z</time>
      </trkpt>
      <trkpt lat="43.38655" lon="2.20942">
        <ele>647.1</ele>
        <time>2021-08-18T09:55:50Z</time>
      </trkpt>
      <trkpt lat="43.38644" lon="2.20907">
        <ele>649.7</ele>
        <time>2021-08-18T09:55:56Z</time>
      </trkpt>
      <trkpt lat="43.38622" lon="2.20876">
        <ele>648</ele>
        <time>2021-08-18T09:56:02Z</time>
      </trkpt>
      <trkpt lat="43.38605" lon="2.20853">
        <ele>644.7</ele>
        <time>2021-08-18T09:56:07Z</time>
      </trkpt>
      <trkpt lat="43.38602" lon="2.20811">
        <ele>641.1</ele>
        <time>2021-08-18T09:56:13Z</time>
      </trkpt>
      <trkpt lat="43.38609" lon="2.20772">
        <ele>635.9</ele>
        <time>2021-08-18T09:56:19Z</time>
      </trkpt>
      <trkpt lat="43.38613" lon="2.20733">
        <ele>635.9</ele>
        <time>2021-08-18T09:56:25Z</time>
      </trkpt>
      <trkpt lat="43.38608" lon="2.20695">
        <ele>636.6</ele>
        <time>2021-08-18T09:56:30Z</time>
      </trkpt>
      <trkpt lat="43.38597" lon="2.20659">
        <ele>636.6</ele>
        <time>2021-08-18T09:56:35Z</time>
      </trkpt>
      <trkpt lat="43.38586" lon="2.20619">
        <ele>639.2</ele>
        <time>2021-08-18T09:56:41Z</time>
      </trkpt>
      <trkpt lat="43.38571" lon="2.20582">
        <ele>644.5</ele>
        <time>2021-08-18T09:56:47Z</time>
      </trkpt>
      <trkpt lat="43.38549" lon="2.20561">
        <ele>642</ele>
        <time>2021-08-18T09:56:52Z</time>
      </trkpt>
      <trkpt lat="43.38525" lon="2.20565">
        <ele>641.7</ele>
        <time>2021-08-18T09:56:57Z</time>
      </trkpt>
      <trkpt lat="43.38503" lon="2.20553">
        <ele>645.1</ele>
        <time>2021-08-18T09:57:03Z</time>
      </trkpt>
      <trkpt lat="43.38497" lon="2.20517">
        <ele>650.3</ele>
        <time>2021-08-18T09:57:09Z</time>
      </trkpt>
      <trkpt lat="43.385" lon="2.2048">
        <ele>649.9</ele>
        <time>2021-08-18T09:57:15Z</time>
      </trkpt>
      <trkpt lat="43.38495" lon="2.20445">
        <ele>649.9</ele>
        <time>2021-08-18T09:57:21Z</time>
      </trkpt>
      <trkpt lat="43.38486" lon="2.20405">
        <ele>648</ele>
        <time>2021-08-18T09:57:27Z</time>
      </trkpt>
      <trkpt lat="43.38474" lon="2.20371">
        <ele>645.1</ele>
        <time>2021-08-18T09:57:33Z</time>
      </trkpt>
      <trkpt lat="43.3847" lon="2.20342">
        <ele>645.3</ele>
        <time>2021-08-18T09:57:38Z</time>
      </trkpt>
      <trkpt lat="43.38462" lon="2.20302">
        <ele>644.9</ele>
        <time>2021-08-18T09:57:44Z</time>
      </trkpt>
      <trkpt lat="43.38458" lon="2.20269">
        <ele>643</ele>
        <time>2021-08-18T09:57:49Z</time>
      </trkpt>
      <trkpt lat="43.38458" lon="2.20229">
        <ele>641.9</ele>
        <time>2021-08-18T09:57:55Z</time>
      </trkpt>
      <trkpt lat="43.38457" lon="2.20193">
        <ele>638.2</ele>
        <time>2021-08-18T09:58:00Z</time>
      </trkpt>
      <trkpt lat="43.38452" lon="2.20168">
        <ele>638.4</ele>
        <time>2021-08-18T09:58:05Z</time>
      </trkpt>
      <trkpt lat="43.3844" lon="2.20144">
        <ele>643.6</ele>
        <time>2021-08-18T09:58:11Z</time>
      </trkpt>
      <trkpt lat="43.38429" lon="2.20127">
        <ele>645.2</ele>
        <time>2021-08-18T09:58:16Z</time>
      </trkpt>
      <trkpt lat="43.38409" lon="2.20104">
        <ele>644</ele>
        <time>2021-08-18T09:58:22Z</time>
      </trkpt>
      <trkpt lat="43.38395" lon="2.20077">
        <ele>645</ele>
        <time>2021-08-18T09:58:27Z</time>
      </trkpt>
      <trkpt lat="43.38371" lon="2.20045">
        <ele>639.8</ele>
        <time>2021-08-18T09:58:33Z</time>
      </trkpt>
      <trkpt lat="43.38345" lon="2.20026">
        <ele>635.5</ele>
        <time>2021-08-18T09:58:39Z</time>
      </trkpt>
      <trkpt lat="43.38323" lon="2.20012">
        <ele>631.3</ele>
        <time>2021-08-18T09:58:44Z</time>
      </trkpt>
      <trkpt lat="43.38301" lon="2.19987">
        <ele>625.5</ele>
        <time>2021-08-18T09:58:50Z</time>
      </trkpt>
      <trkpt lat="43.38288" lon="2.19956">
        <ele>627.4</ele>
        <time>2021-08-18T09:58:55Z</time>
      </trkpt>
      <trkpt lat="43.38278" lon="2.19917">
        <ele>627.6</ele>
        <time>2021-08-18T09:59:01Z</time>
      </trkpt>
      <trkpt lat="43.38267" lon="2.19875">
        <ele>629.8</ele>
        <time>2021-08-18T09:59:07Z</time>
      </trkpt>
      <trkpt lat="43.38261" lon="2.19836">
        <ele>630.9</ele>
        <time>2021-08-18T09:59:12Z</time>
      </trkpt>
      <trkpt lat="43.38254" lon="2.19796">
        <ele>635.1</ele>
        <time>2021-08-18T09:59:17Z</time>
      </trkpt>
      <trkpt lat="43.38261" lon="2.19744">
        <ele>638</ele>
        <time>2021-08-18T09:59:23Z</time>
      </trkpt>
      <trkpt lat="43.38267" lon="2.19701">
        <ele>639.7</ele>
        <time>2021-08-18T09:59:28Z</time>
      </trkpt>
      <trkpt lat="43.3827" lon="2.19651">
        <ele>641.5</ele>
        <time>2021-08-18T09:59:34Z</time>
      </trkpt>
      <trkpt lat="43.38282" lon="2.19614">
        <ele>644.8</ele>
        <time>2021-08-18T09:59:39Z</time>
      </trkpt>
      <trkpt lat="43.38308" lon="2.1959">
        <ele>644.6</ele>
        <time>2021-08-18T09:59:45Z</time>
      </trkpt>
      <trkpt lat="43.3834" lon="2.19586">
        <ele>643.7</ele>
        <time>2021-08-18T09:59:51Z</time>
      </trkpt>
      <trkpt lat="43.38371" lon="2.19588">
        <ele>640.7</ele>
        <time>2021-08-18T09:59:57Z</time>
      </trkpt>
      <trkpt lat="43.38397" lon="2.19609">
        <ele>640.2</ele>
        <time>2021-08-18T10:00:02Z</time>
      </trkpt>
      <trkpt lat="43.38414" lon="2.1964">
        <ele>638.6</ele>
        <time>2021-08-18T10:00:07Z</time>
      </trkpt>
      <trkpt lat="43.38432" lon="2.19664">
        <ele>638.2</ele>
        <time>2021-08-18T10:00:13Z</time>
      </trkpt>
      <trkpt lat="43.38452" lon="2.1966">
        <ele>640</ele>
        <time>2021-08-18T10:00:18Z</time>
      </trkpt>
      <trkpt lat="43.38477" lon="2.19638">
        <ele>638.8</ele>
        <time>2021-08-18T10:00:24Z</time>
      </trkpt>
      <trkpt lat="43.38502" lon="2.19629">
        <ele>637.6</ele>
        <time>2021-08-18T10:00:29Z</time>
      </trkpt>
      <trkpt lat="43.38531" lon="2.19607">
        <ele>641.3</ele>
        <time>2021-08-18T10:00:35Z</time>
      </trkpt>
      <trkpt lat="43.38559" lon="2.1958">
        <ele>645.7</ele>
        <time>2021-08-18T10:00:41Z</time>
      </trkpt>
      <trkpt lat="43.38559" lon="2.1956">
        <ele>644.3</ele>
        <time>2021-08-18T10:00:46Z</time>
      </trkpt>
      <trkpt lat="43.38536" lon="2.19534">
        <ele>646.8</ele>
        <time>2021-08-18T10:00:51Z</time>
      </trkpt>
      <trkpt lat="43.38516" lon="2.19508">
        <ele>645.9</ele>
        <time>2021-08-18T10:00:57Z</time>
      </trkpt>
      <trkpt lat="43.38494" lon="2.19474">
        <ele>647.2</ele>
        <time>2021-08-18T10:01:03Z</time>
      </trkpt>
      <trkpt lat="43.38489" lon="2.19433">
        <ele>643.7</ele>
        <time>2021-08-18T10:01:09Z</time>
      </trkpt>
      <trkpt lat="43.38503" lon="2.19392">
        <ele>644</ele>
        <time>2021-08-18T10:01:15Z</time>
      </trkpt>
      <trkpt lat="43.38529" lon="2.1936">
        <ele>643.9</ele>
        <time>2021-08-18T10:01:21Z</time>
      </trkpt>
      <trkpt lat="43.38561" lon="2.19341">
        <ele>641.3</ele>
        <time>2021-08-18T10:01:27Z</time>
      </trkpt>
      <trkpt lat="43.38594" lon="2.19326">
        <ele>641.2</ele>
        <time>2021-08-18T10:01:33Z</time>
      </trkpt>
      <trkpt lat="43.38613" lon="2.19321">
        <ele>639.1</ele>
        <time>2021-08-18T10:01:38Z</time>
      </trkpt>
      <trkpt lat="43.38639" lon="2.19312">
        <ele>639.9</ele>
        <time>2021-08-18T10:01:43Z</time>
      </trkpt>
      <trkpt lat="43.38662" lon="2.19315">
        <ele>640.1</ele>
        <time>2021-08-18T10:01:48Z</time>
      </trkpt>
      <trkpt lat="43.38691" lon="2.19313">
        <ele>638.4</ele>
        <time>2021-08-18T10:01:54Z</time>
      </trkpt>
      <trkpt lat="43.38693" lon="2.19291">
        <ele>641</ele>
        <time>2021-08-18T10:02:00Z</time>
      </trkpt>
      <trkpt lat="43.38679" lon="2.19268">
        <ele>642.5</ele>
        <time>2021-08-18T10:02:05Z</time>
      </trkpt>
      <trkpt lat="43.38658" lon="2.19237">
        <ele>647.6</ele>
        <time>2021-08-18T10:02:11Z</time>
      </trkpt>
      <trkpt lat="43.38637" lon="2.19209">
        <ele>647.2</ele>
        <time>2021-08-18T10:02:16Z</time>
      </trkpt>
      <trkpt lat="43.38622" lon="2.19174">
        <ele>646.1</ele>
        <time>2021-08-18T10:02:21Z</time>
      </trkpt>
      <trkpt lat="43.38592" lon="2.1916">
        <ele>643.6</ele>
        <time>2021-08-18T10:02:27Z</time>
      </trkpt>
      <trkpt lat="43.38568" lon="2.19152">
        <ele>640.6</ele>
        <time>2021-08-18T10:02:32Z</time>
      </trkpt>
      <trkpt lat="43.3853" lon="2.19129">
        <ele>632</ele>
        <time>2021-08-18T10:02:38Z</time>
      </trkpt>
      <trkpt lat="43.38505" lon="2.19123">
        <ele>632.6</ele>
        <time>2021-08-18T10:02:43Z</time>
      </trkpt>
      <trkpt lat="43.38482" lon="2.19115">
        <ele>629</ele>
        <time>2021-08-18T10:02:48Z</time>
      </trkpt>
      <trkpt lat="43.38468" lon="2.19078">
        <ele>626</ele>
        <time>2021-08-18T10:02:54Z</time>
      </trkpt>
      <trkpt lat="43.38472" lon="2.19034">
        <ele>625.9</ele>
        <time>2021-08-18T10:03:00Z</time>
      </trkpt>
      <trkpt lat="43.38481" lon="2.18997">
        <ele>629.3</ele>
        <time>2021-08-18T10:03:05Z</time>
      </trkpt>
      <trkpt lat="43.38505" lon="2.18981">
        <ele>634.3</ele>
        <time>2021-08-18T10:03:11Z</time>
      </trkpt>
      <trkpt lat="43.38533" lon="2.19">
        <ele>637.4</ele>
        <time>2021-08-18T10:03:17Z</time>
      </trkpt>
      <trkpt lat="43.38554" lon="2.19019">
        <ele>637.7</ele>
        <time>2021-08-18T10:03:23Z</time>
      </trkpt>
      <trkpt lat="43.38585" lon="2.19017">
        <ele>642</ele>
        <time>2021-08-18T10:03:30Z</time>
      </trkpt>
      <trkpt lat="43.38617" lon="2.19009">
        <ele>646.6</ele>
        <time>2021-08-18T10:03:36Z</time>
      </trkpt>
      <trkpt lat="43.38647" lon="2.18995">
        <ele>650.8</ele>
        <time>2021-08-18T10:03:42Z</time>
      </trkpt>
      <trkpt lat="43.38681" lon="2.18992">
        <ele>658.8</ele>
        <time>2021-08-18T10:03:48Z</time>
      </trkpt>
      <trkpt lat="43.38717" lon="2.18996">
        <ele>657.9</ele>
        <time>2021-08-18T10:03:55Z</time>
      </trkpt>
      <trkpt lat="43.38754" lon="2.19009">
        <ele>653.5</ele>
        <time>2021-08-18T10:04:00Z</time>
      </trkpt>
      <trkpt lat="43.38781" lon="2.18985">
        <ele>649.1</ele>
        <time>2021-08-18T10:04:06Z</time>
      </trkpt>
      <trkpt lat="43.38793" lon="2.18946">
        <ele>649.7</ele>
        <time>2021-08-18T10:04:12Z</time>
      </trkpt>
      <trkpt lat="43.3881" lon="2.18911">
        <ele>649.8</ele>
        <time>2021-08-18T10:04:18Z</time>
      </trkpt>
      <trkpt lat="43.38831" lon="2.18884">
        <ele>651.7</ele>
        <time>2021-08-18T10:04:24Z</time>
      </trkpt>
      <trkpt lat="43.38856" lon="2.18867">
        <ele>651.8</ele>
        <time>2021-08-18T10:04:30Z</time>
      </trkpt>
      <trkpt lat="43.3888" lon="2.18861">
        <ele>646.3</ele>
        <time>2021-08-18T10:04:35Z</time>
      </trkpt>
      <trkpt lat="43.38911" lon="2.18852">
        <ele>642.5</ele>
        <time>2021-08-18T10:04:41Z</time>
      </trkpt>
      <trkpt lat="43.38936" lon="2.18862">
        <ele>639.8</ele>
        <time>2021-08-18T10:04:46Z</time>
      </trkpt>
      <trkpt lat="43.38955" lon="2.18887">
        <ele>637.5</ele>
        <time>2021-08-18T10:04:51Z</time>
      </trkpt>
      <trkpt lat="43.38972" lon="2.18912">
        <ele>636.6</ele>
        <time>2021-08-18T10:04:56Z</time>
      </trkpt>
      <trkpt lat="43.38986" lon="2.18944">
        <ele>633.1</ele>
        <time>2021-08-18T10:05:02Z</time>
      </trkpt>
      <trkpt lat="43.38998" lon="2.18974">
        <ele>633.1</ele>
        <time>2021-08-18T10:05:08Z</time>
      </trkpt>
      <trkpt lat="43.39005" lon="2.19">
        <ele>629.5</ele>
        <time>2021-08-18T10:05:13Z</time>
      </trkpt>
      <trkpt lat="43.39016" lon="2.19038">
        <ele>626.8</ele>
        <time>2021-08-18T10:05:19Z</time>
      </trkpt>
      <trkpt lat="43.39031" lon="2.19069">
        <ele>627.4</ele>
        <time>2021-08-18T10:05:24Z</time>
      </trkpt>
      <trkpt lat="43.39051" lon="2.19101">
        <ele>628.6</ele>
        <time>2021-08-18T10:05:29Z</time>
      </trkpt>
      <trkpt lat="43.39067" lon="2.19136">
        <ele>630.4</ele>
        <time>2021-08-18T10:05:35Z</time>
      </trkpt>
      <trkpt lat="43.39075" lon="2.19163">
        <ele>633.9</ele>
        <time>2021-08-18T10:05:41Z</time>
      </trkpt>
      <trkpt lat="43.39087" lon="2.19176">
        <ele>639.6</ele>
        <time>2021-08-18T10:05:47Z</time>
      </trkpt>
      <trkpt lat="43.39107" lon="2.19179">
        <ele>642.6</ele>
        <time>2021-08-18T10:05:52Z</time>
      </trkpt>
      <trkpt lat="43.39137" lon="2.19164">
        <ele>647.1</ele>
        <time>2021-08-18T10:05:58Z</time>
      </trkpt>
      <trkpt lat="43.39165" lon="2.19148">
        <ele>646.9</ele>
        <time>2021-08-18T10:06:04Z</time>
      </trkpt>
      <trkpt lat="43.39188" lon="2.19134">
        <ele>649.6</ele>
        <time>2021-08-18T10:06:09Z</time>
      </trkpt>
      <trkpt lat="43.39218" lon="2.1913">
        <ele>647.8</ele>
        <time>2021-08-18T10:06:15Z</time>
      </trkpt>
      <trkpt lat="43.39249" lon="2.19129">
        <ele>649.3</ele>
        <time>2021-08-18T10:06:21Z</time>
      </trkpt>
      <trkpt lat="43.39268" lon="2.19133">
        <ele>646.6</ele>
        <time>2021-08-18T10:06:26Z</time>
      </trkpt>
      <trkpt lat="43.39282" lon="2.19123">
        <ele>646.2</ele>
        <time>2021-08-18T10:06:31Z</time>
      </trkpt>
      <trkpt lat="43.39293" lon="2.19104">
        <ele>645.8</ele>
        <time>2021-08-18T10:06:36Z</time>
      </trkpt>
      <trkpt lat="43.39294" lon="2.19087">
        <ele>644.3</ele>
        <time>2021-08-18T10:06:42Z</time>
      </trkpt>
      <trkpt lat="43.39286" lon="2.19075">
        <ele>642.4</ele>
        <time>2021-08-18T10:06:48Z</time>
      </trkpt>
      <trkpt lat="43.39283" lon="2.19061">
        <ele>641</ele>
        <time>2021-08-18T10:06:53Z</time>
      </trkpt>
      <trkpt lat="43.39282" lon="2.19051">
        <ele>640.1</ele>
        <time>2021-08-18T10:06:59Z</time>
      </trkpt>
      <trkpt lat="43.39281" lon="2.19051">
        <ele>639.6</ele>
        <time>2021-08-18T10:07:05Z</time>
      </trkpt>
      <trkpt lat="43.39281" lon="2.19051">
        <ele>639.2</ele>
        <time>2021-08-18T10:07:10Z</time>
      </trkpt>
      <trkpt lat="43.39281" lon="2.19051">
        <ele>640.2</ele>
        <time>2021-08-18T10:07:16Z</time>
      </trkpt>
      <trkpt lat="43.39281" lon="2.19051">
        <ele>640.8</ele>
        <time>2021-08-18T10:07:21Z</time>
      </trkpt>
      <trkpt lat="43.39281" lon="2.19051">
        <ele>639.4</ele>
        <time>2021-08-18T10:07:26Z</time>
      </trkpt>
      <trkpt lat="43.39281" lon="2.19051">
        <ele>638.2</ele>
        <time>2021-08-18T10:07:32Z</time>
      </trkpt>
      <trkpt lat="43.39281" lon="2.19051">
        <ele>641.2</ele>
        <time>2021-08-18T10:07:37Z</time>
      </trkpt>
      <trkpt lat="43.39281" lon="2.19051">
        <ele>640.3</ele>
        <time>2021-08-18T10:07:43Z</time>
      </trkpt>
      <trkpt lat="43.39281" lon="2.19051">
        <ele>640.5</ele>
        <time>2021-08-18T10:07:48Z</time>
      </trkpt>
      <trkpt lat="43.39281" lon="2.19051">
        <ele>639.6</ele>
        <time>2021-08-18T10:07:54Z</time>
      </trkpt>
      <trkpt lat="43.39281" lon="2.19051">
        <ele>639.8</ele>
        <time>2021-08-18T10:07:59Z</time>
      </trkpt>
      <trkpt lat="43.39281" lon="2.19051">
        <ele>639.1</ele>
        <time>2021-08-18T10:08:05Z</time>
      </trkpt>
      <trkpt lat="43.39281" lon="2.19051">
        <ele>639.9</ele>
        <time>2021-08-18T10:08:11Z</time>
      </trkpt>
      <trkpt lat="43.39281" lon="2.19051">
        <ele>639.5</ele>
        <time>2021-08-18T10:08:16Z</time>
      </trkpt>
      <trkpt lat="43.39281" lon="2.19051">
        <ele>638.9</ele>
        <time>2021-08-18T10:08:22Z</time>
      </trkpt>
      <trkpt lat="43.39281" lon="2.19051">
        <ele>639.4</ele>
        <time>2021-08-18T10:08:28Z</time>
      </trkpt>
      <trkpt lat="43.39282" lon="2.19039">
        <ele>638.6</ele>
        <time>2021-08-18T10:08:33Z</time>
      </trkpt>
      <trkpt lat="43.39283" lon="2.19038">
        <ele>638.6</ele>
        <time>2021-08-18T10:08:39Z</time>
      </trkpt>
      <trkpt lat="43.39283" lon="2.19038">
        <ele>639.1</ele>
        <time>2021-08-18T10:08:45Z</time>
      </trkpt>
      <trkpt lat="43.39283" lon="2.19038">
        <ele>637.8</ele>
        <time>2021-08-18T10:08:50Z</time>
      </trkpt>
      <trkpt lat="43.39283" lon="2.19038">
        <ele>638</ele>
        <time>2021-08-18T10:08:55Z</time>
      </trkpt>
      <trkpt lat="43.39283" lon="2.19038">
        <ele>637.9</ele>
        <time>2021-08-18T10:09:01Z</time>
      </trkpt>
      <trkpt lat="43.39283" lon="2.19038">
        <ele>638.2</ele>
        <time>2021-08-18T10:09:06Z</time>
      </trkpt>
      <trkpt lat="43.39283" lon="2.19038">
        <ele>639.2</ele>
        <time>2021-08-18T10:09:12Z</time>
      </trkpt>
      <trkpt lat="43.39283" lon="2.19038">
        <ele>638.4</ele>
        <time>2021-08-18T10:09:17Z</time>
      </trkpt>
      <trkpt lat="43.39283" lon="2.19038">
        <ele>637.1</ele>
        <time>2021-08-18T10:09:23Z</time>
      </trkpt>
      <trkpt lat="43.39283" lon="2.19038">
        <ele>639.2</ele>
        <time>2021-08-18T10:09:29Z</time>
      </trkpt>
      <trkpt lat="43.39283" lon="2.19038">
        <ele>638.5</ele>
        <time>2021-08-18T10:09:35Z</time>
      </trkpt>
      <trkpt lat="43.39283" lon="2.19038">
        <ele>638.4</ele>
        <time>2021-08-18T10:09:41Z</time>
      </trkpt>
      <trkpt lat="43.39283" lon="2.19038">
        <ele>639.7</ele>
        <time>2021-08-18T10:09:46Z</time>
      </trkpt>
      <trkpt lat="43.39283" lon="2.19038">
        <ele>639.5</ele>
        <time>2021-08-18T10:09:52Z</time>
      </trkpt>
      <trkpt lat="43.39283" lon="2.19038">
        <ele>639.5</ele>
        <time>2021-08-18T10:09:58Z</time>
      </trkpt>
      <trkpt lat="43.39283" lon="2.19038">
        <ele>637.4</ele>
        <time>2021-08-18T10:10:03Z</time>
      </trkpt>
      <trkpt lat="43.39283" lon="2.19038">
        <ele>639</ele>
        <time>2021-08-18T10:10:09Z</time>
      </trkpt>
      <trkpt lat="43.39283" lon="2.19038">
        <ele>637.8</ele>
        <time>2021-08-18T10:10:15Z</time>
      </trkpt>
      <trkpt lat="43.39283" lon="2.19038">
        <ele>638.4</ele>
        <time>2021-08-18T10:10:21Z</time>
      </trkpt>
      <trkpt lat="43.39283" lon="2.19038">
        <ele>638.2</ele>
        <time>2021-08-18T10:10:26Z</time>
      </trkpt>
      <trkpt lat="43.39283" lon="2.19038">
        <ele>637.8</ele>
        <time>2021-08-18T10:10:32Z</time>
      </trkpt>
      <trkpt lat="43.39283" lon="2.19038">
        <ele>638</ele>
        <time>2021-08-18T10:10:38Z</time>
      </trkpt>
      <trkpt lat="43.39283" lon="2.19038">
        <ele>638.3</ele>
        <time>2021-08-18T10:10:44Z</time>
      </trkpt>
      <trkpt lat="43.39283" lon="2.19038">
        <ele>639</ele>
        <time>2021-08-18T10:10:50Z</time>
      </trkpt>
      <trkpt lat="43.39283" lon="2.19038">
        <ele>638.8</ele>
        <time>2021-08-18T10:10:56Z</time>
      </trkpt>
      <trkpt lat="43.39283" lon="2.19038">
        <ele>639.6</ele>
        <time>2021-08-18T10:11:01Z</time>
      </trkpt>
      <trkpt lat="43.39283" lon="2.19038">
        <ele>639.1</ele>
        <time>2021-08-18T10:11:06Z</time>
      </trkpt>
      <trkpt lat="43.39283" lon="2.19038">
        <ele>639.3</ele>
        <time>2021-08-18T10:11:12Z</time>
      </trkpt>
      <trkpt lat="43.39283" lon="2.19038">
        <ele>636.8</ele>
        <time>2021-08-18T10:11:17Z</time>
      </trkpt>
      <trkpt lat="43.39283" lon="2.19038">
        <ele>639.8</ele>
        <time>2021-08-18T10:11:22Z</time>
      </trkpt>
      <trkpt lat="43.39283" lon="2.19038">
        <ele>638.8</ele>
        <time>2021-08-18T10:11:27Z</time>
      </trkpt>
      <trkpt lat="43.39283" lon="2.19038">
        <ele>637.1</ele>
        <time>2021-08-18T10:11:33Z</time>
      </trkpt>
      <trkpt lat="43.39283" lon="2.19038">
        <ele>638</ele>
        <time>2021-08-18T10:11:39Z</time>
      </trkpt>
      <trkpt lat="43.39283" lon="2.19038">
        <ele>639.4</ele>
        <time>2021-08-18T10:11:45Z</time>
      </trkpt>
      <trkpt lat="43.39283" lon="2.19038">
        <ele>638.3</ele>
        <time>2021-08-18T10:11:50Z</time>
      </trkpt>
      <trkpt lat="43.39283" lon="2.19038">
        <ele>639</ele>
        <time>2021-08-18T10:11:55Z</time>
      </trkpt>
      <trkpt lat="43.39283" lon="2.19038">
        <ele>637.4</ele>
        <time>2021-08-18T10:12:01Z</time>
      </trkpt>
      <trkpt lat="43.39283" lon="2.19038">
        <ele>638.4</ele>
        <time>2021-08-18T10:12:07Z</time>
      </trkpt>
      <trkpt lat="43.39283" lon="2.19038">
        <ele>637.7</ele>
        <time>2021-08-18T10:12:12Z</time>
      </trkpt>
      <trkpt lat="43.39283" lon="2.19038">
        <ele>637.5</ele>
        <time>2021-08-18T10:12:17Z</time>
      </trkpt>
      <trkpt lat="43.39283" lon="2.19038">
        <ele>637.9</ele>
        <time>2021-08-18T10:12:23Z</time>
      </trkpt>
      <trkpt lat="43.39283" lon="2.19038">
        <ele>637.8</ele>
        <time>2021-08-18T10:12:29Z</time>
      </trkpt>
      <trkpt lat="43.39283" lon="2.19038">
        <ele>639</ele>
        <time>2021-08-18T10:12:35Z</time>
      </trkpt>
      <trkpt lat="43.39283" lon="2.19038">
        <ele>638.4</ele>
        <time>2021-08-18T10:12:41Z</time>
      </trkpt>
      <trkpt lat="43.39283" lon="2.19038">
        <ele>638.2</ele>
        <time>2021-08-18T10:12:47Z</time>
      </trkpt>
      <trkpt lat="43.39283" lon="2.19038">
        <ele>637.1</ele>
        <time>2021-08-18T10:12:52Z</time>
      </trkpt>
      <trkpt lat="43.39288" lon="2.19013">
        <ele>638.6</ele>
        <time>2021-08-18T10:12:58Z</time>
      </trkpt>
      <trkpt lat="43.39296" lon="2.18993">
        <ele>640.8</ele>
        <time>2021-08-18T10:13:03Z</time>
      </trkpt>
      <trkpt lat="43.39298" lon="2.18966">
        <ele>640.8</ele>
        <time>2021-08-18T10:13:09Z</time>
      </trkpt>
      <trkpt lat="43.39302" lon="2.18937">
        <ele>644.1</ele>
        <time>2021-08-18T10:13:15Z</time>
      </trkpt>
      <trkpt lat="43.39309" lon="2.18913">
        <ele>645.5</ele>
        <time>2021-08-18T10:13:20Z</time>
      </trkpt>
      <trkpt lat="43.39321" lon="2.18883">
        <ele>641.4</ele>
        <time>2021-08-18T10:13:26Z</time>
      </trkpt>
      <trkpt lat="43.3934" lon="2.18866">
        <ele>640.1</ele>
        <time>2021-08-18T10:13:32Z</time>
      </trkpt>
      <trkpt lat="43.39361" lon="2.18848">
        <ele>636.8</ele>
        <time>2021-08-18T10:13:37Z</time>
      </trkpt>
      <trkpt lat="43.39362" lon="2.18822">
        <ele>634.6</ele>
        <time>2021-08-18T10:13:43Z</time>
      </trkpt>
      <trkpt lat="43.39354" lon="2.18788">
        <ele>636.2</ele>
        <time>2021-08-18T10:13:49Z</time>
      </trkpt>
      <trkpt lat="43.39357" lon="2.18756">
        <ele>633.1</ele>
        <time>2021-08-18T10:13:54Z</time>
      </trkpt>
      <trkpt lat="43.39359" lon="2.18724">
        <ele>635.6</ele>
        <time>2021-08-18T10:13:59Z</time>
      </trkpt>
      <trkpt lat="43.3936" lon="2.18686">
        <ele>635.8</ele>
        <time>2021-08-18T10:14:05Z</time>
      </trkpt>
      <trkpt lat="43.39363" lon="2.1865">
        <ele>638</ele>
        <time>2021-08-18T10:14:11Z</time>
      </trkpt>
      <trkpt lat="43.39372" lon="2.18623">
        <ele>639.5</ele>
        <time>2021-08-18T10:14:16Z</time>
      </trkpt>
      <trkpt lat="43.39384" lon="2.18598">
        <ele>638</ele>
        <time>2021-08-18T10:14:21Z</time>
      </trkpt>
      <trkpt lat="43.39379" lon="2.18569">
        <ele>638.8</ele>
        <time>2021-08-18T10:14:27Z</time>
      </trkpt>
      <trkpt lat="43.39359" lon="2.18571">
        <ele>638.1</ele>
        <time>2021-08-18T10:14:32Z</time>
      </trkpt>
      <trkpt lat="43.39341" lon="2.18583">
        <ele>636.5</ele>
        <time>2021-08-18T10:14:37Z</time>
      </trkpt>
      <trkpt lat="43.39323" lon="2.18606">
        <ele>636.5</ele>
        <time>2021-08-18T10:14:43Z</time>
      </trkpt>
      <trkpt lat="43.39307" lon="2.18624">
        <ele>637</ele>
        <time>2021-08-18T10:14:48Z</time>
      </trkpt>
      <trkpt lat="43.39293" lon="2.18645">
        <ele>628.9</ele>
        <time>2021-08-18T10:14:54Z</time>
      </trkpt>
      <trkpt lat="43.39277" lon="2.18665">
        <ele>626.4</ele>
        <time>2021-08-18T10:14:59Z</time>
      </trkpt>
      <trkpt lat="43.39256" lon="2.18689">
        <ele>626.2</ele>
        <time>2021-08-18T10:15:05Z</time>
      </trkpt>
      <trkpt lat="43.39243" lon="2.18711">
        <ele>626.1</ele>
        <time>2021-08-18T10:15:10Z</time>
      </trkpt>
      <trkpt lat="43.39226" lon="2.18735">
        <ele>629</ele>
        <time>2021-08-18T10:15:16Z</time>
      </trkpt>
      <trkpt lat="43.39206" lon="2.18753">
        <ele>625.2</ele>
        <time>2021-08-18T10:15:22Z</time>
      </trkpt>
      <trkpt lat="43.39184" lon="2.18757">
        <ele>624.8</ele>
        <time>2021-08-18T10:15:27Z</time>
      </trkpt>
      <trkpt lat="43.3916" lon="2.18753">
        <ele>624.4</ele>
        <time>2021-08-18T10:15:33Z</time>
      </trkpt>
      <trkpt lat="43.3914" lon="2.18749">
        <ele>623.6</ele>
        <time>2021-08-18T10:15:38Z</time>
      </trkpt>
      <trkpt lat="43.39123" lon="2.18726">
        <ele>623.1</ele>
        <time>2021-08-18T10:15:44Z</time>
      </trkpt>
      <trkpt lat="43.39119" lon="2.18695">
        <ele>624.4</ele>
        <time>2021-08-18T10:15:50Z</time>
      </trkpt>
      <trkpt lat="43.39117" lon="2.18659">
        <ele>622.6</ele>
        <time>2021-08-18T10:15:56Z</time>
      </trkpt>
      <trkpt lat="43.39109" lon="2.18629">
        <ele>624.2</ele>
        <time>2021-08-18T10:16:02Z</time>
      </trkpt>
      <trkpt lat="43.39099" lon="2.18603">
        <ele>626.1</ele>
        <time>2021-08-18T10:16:07Z</time>
      </trkpt>
      <trkpt lat="43.39091" lon="2.18576">
        <ele>629.1</ele>
        <time>2021-08-18T10:16:12Z</time>
      </trkpt>
      <trkpt lat="43.39079" lon="2.1854">
        <ele>630.7</ele>
        <time>2021-08-18T10:16:18Z</time>
      </trkpt>
      <trkpt lat="43.39071" lon="2.18505">
        <ele>635.2</ele>
        <time>2021-08-18T10:16:24Z</time>
      </trkpt>
      <trkpt lat="43.39065" lon="2.1847">
        <ele>634.4</ele>
        <time>2021-08-18T10:16:30Z</time>
      </trkpt>
      <trkpt lat="43.39059" lon="2.18444">
        <ele>630.9</ele>
        <time>2021-08-18T10:16:35Z</time>
      </trkpt>
      <trkpt lat="43.39054" lon="2.18412">
        <ele>629.4</ele>
        <time>2021-08-18T10:16:40Z</time>
      </trkpt>
      <trkpt lat="43.39048" lon="2.18381">
        <ele>627.2</ele>
        <time>2021-08-18T10:16:46Z</time>
      </trkpt>
      <trkpt lat="43.39038" lon="2.18352">
        <ele>623.7</ele>
        <time>2021-08-18T10:16:52Z</time>
      </trkpt>
      <trkpt lat="43.39024" lon="2.18339">
        <ele>624</ele>
        <time>2021-08-18T10:16:58Z</time>
      </trkpt>
      <trkpt lat="43.39005" lon="2.18326">
        <ele>622.8</ele>
        <time>2021-08-18T10:17:04Z</time>
      </trkpt>
      <trkpt lat="43.38984" lon="2.18309">
        <ele>621.2</ele>
        <time>2021-08-18T10:17:10Z</time>
      </trkpt>
      <trkpt lat="43.38961" lon="2.18292">
        <ele>621</ele>
        <time>2021-08-18T10:17:16Z</time>
      </trkpt>
      <trkpt lat="43.38942" lon="2.18268">
        <ele>624.8</ele>
        <time>2021-08-18T10:17:22Z</time>
      </trkpt>
      <trkpt lat="43.38924" lon="2.18244">
        <ele>630.7</ele>
        <time>2021-08-18T10:17:27Z</time>
      </trkpt>
      <trkpt lat="43.38906" lon="2.18225">
        <ele>632.3</ele>
        <time>2021-08-18T10:17:32Z</time>
      </trkpt>
      <trkpt lat="43.3889" lon="2.18191">
        <ele>633.6</ele>
        <time>2021-08-18T10:17:38Z</time>
      </trkpt>
      <trkpt lat="43.38891" lon="2.18159">
        <ele>636.7</ele>
        <time>2021-08-18T10:17:44Z</time>
      </trkpt>
      <trkpt lat="43.38897" lon="2.18136">
        <ele>641</ele>
        <time>2021-08-18T10:17:49Z</time>
      </trkpt>
      <trkpt lat="43.38894" lon="2.1811">
        <ele>641.7</ele>
        <time>2021-08-18T10:17:55Z</time>
      </trkpt>
      <trkpt lat="43.38882" lon="2.18084">
        <ele>644.1</ele>
        <time>2021-08-18T10:18:00Z</time>
      </trkpt>
      <trkpt lat="43.38879" lon="2.18053">
        <ele>643.1</ele>
        <time>2021-08-18T10:18:06Z</time>
      </trkpt>
      <trkpt lat="43.38859" lon="2.18029">
        <ele>640.9</ele>
        <time>2021-08-18T10:18:12Z</time>
      </trkpt>
      <trkpt lat="43.38848" lon="2.18041">
        <ele>640.8</ele>
        <time>2021-08-18T10:18:17Z</time>
      </trkpt>
      <trkpt lat="43.38836" lon="2.18063">
        <ele>638.6</ele>
        <time>2021-08-18T10:18:23Z</time>
      </trkpt>
      <trkpt lat="43.38823" lon="2.18083">
        <ele>636.7</ele>
        <time>2021-08-18T10:18:29Z</time>
      </trkpt>
      <trkpt lat="43.3881" lon="2.18106">
        <ele>635.3</ele>
        <time>2021-08-18T10:18:35Z</time>
      </trkpt>
      <trkpt lat="43.38794" lon="2.18129">
        <ele>631.6</ele>
        <time>2021-08-18T10:18:41Z</time>
      </trkpt>
      <trkpt lat="43.3878" lon="2.18147">
        <ele>630.4</ele>
        <time>2021-08-18T10:18:46Z</time>
      </trkpt>
      <trkpt lat="43.38761" lon="2.18169">
        <ele>628.5</ele>
        <time>2021-08-18T10:18:52Z</time>
      </trkpt>
      <trkpt lat="43.38741" lon="2.18184">
        <ele>627.8</ele>
        <time>2021-08-18T10:18:57Z</time>
      </trkpt>
      <trkpt lat="43.3872" lon="2.18194">
        <ele>625.5</ele>
        <time>2021-08-18T10:19:03Z</time>
      </trkpt>
      <trkpt lat="43.38699" lon="2.18202">
        <ele>621.5</ele>
        <time>2021-08-18T10:19:09Z</time>
      </trkpt>
      <trkpt lat="43.38672" lon="2.18213">
        <ele>617.9</ele>
        <time>2021-08-18T10:19:15Z</time>
      </trkpt>
      <trkpt lat="43.38647" lon="2.18215">
        <ele>617.1</ele>
        <time>2021-08-18T10:19:20Z</time>
      </trkpt>
      <trkpt lat="43.38618" lon="2.18207">
        <ele>617.2</ele>
        <time>2021-08-18T10:19:26Z</time>
      </trkpt>
      <trkpt lat="43.38598" lon="2.18196">
        <ele>615.4</ele>
        <time>2021-08-18T10:19:31Z</time>
      </trkpt>
      <trkpt lat="43.38572" lon="2.18191">
        <ele>615.7</ele>
        <time>2021-08-18T10:19:37Z</time>
      </trkpt>
      <trkpt lat="43.38548" lon="2.18187">
        <ele>614.9</ele>
        <time>2021-08-18T10:19:43Z</time>
      </trkpt>
      <trkpt lat="43.38528" lon="2.18167">
        <ele>612.6</ele>
        <time>2021-08-18T10:19:49Z</time>
      </trkpt>
      <trkpt lat="43.38513" lon="2.18139">
        <ele>617.9</ele>
        <time>2021-08-18T10:19:55Z</time>
      </trkpt>
      <trkpt lat="43.38504" lon="2.18112">
        <ele>618.1</ele>
        <time>2021-08-18T10:20:00Z</time>
      </trkpt>
      <trkpt lat="43.38497" lon="2.1808">
        <ele>619.4</ele>
        <time>2021-08-18T10:20:06Z</time>
      </trkpt>
      <trkpt lat="43.38495" lon="2.18048">
        <ele>617.7</ele>
        <time>2021-08-18T10:20:12Z</time>
      </trkpt>
      <trkpt lat="43.38497" lon="2.18019">
        <ele>620.1</ele>
        <time>2021-08-18T10:20:17Z</time>
      </trkpt>
      <trkpt lat="43.38502" lon="2.17987">
        <ele>620.8</ele>
        <time>2021-08-18T10:20:22Z</time>
      </trkpt>
      <trkpt lat="43.38508" lon="2.17961">
        <ele>621.3</ele>
        <time>2021-08-18T10:20:28Z</time>
      </trkpt>
      <trkpt lat="43.38512" lon="2.17954">
        <ele>621.8</ele>
        <time>2021-08-18T10:20:34Z</time>
      </trkpt>
      <trkpt lat="43.38512" lon="2.17954">
        <ele>621.3</ele>
        <time>2021-08-18T10:20:40Z</time>
      </trkpt>
      <trkpt lat="43.38512" lon="2.17954">
        <ele>621.7</ele>
        <time>2021-08-18T10:20:45Z</time>
      </trkpt>
      <trkpt lat="43.38512" lon="2.17954">
        <ele>620.6</ele>
        <time>2021-08-18T10:20:50Z</time>
      </trkpt>
      <trkpt lat="43.38512" lon="2.17954">
        <ele>621.4</ele>
        <time>2021-08-18T10:20:55Z</time>
      </trkpt>
      <trkpt lat="43.38514" lon="2.17942">
        <ele>624.6</ele>
        <time>2021-08-18T10:21:00Z</time>
      </trkpt>
      <trkpt lat="43.38514" lon="2.17941">
        <ele>624.2</ele>
        <time>2021-08-18T10:21:06Z</time>
      </trkpt>
      <trkpt lat="43.38514" lon="2.17941">
        <ele>623.6</ele>
        <time>2021-08-18T10:21:12Z</time>
      </trkpt>
      <trkpt lat="43.38514" lon="2.17941">
        <ele>622.6</ele>
        <time>2021-08-18T10:21:18Z</time>
      </trkpt>
      <trkpt lat="43.38514" lon="2.17941">
        <ele>623</ele>
        <time>2021-08-18T10:21:24Z</time>
      </trkpt>
      <trkpt lat="43.38514" lon="2.17941">
        <ele>623.4</ele>
        <time>2021-08-18T10:21:30Z</time>
      </trkpt>
      <trkpt lat="43.38514" lon="2.17941">
        <ele>623.6</ele>
        <time>2021-08-18T10:21:36Z</time>
      </trkpt>
      <trkpt lat="43.38515" lon="2.1793">
        <ele>630.9</ele>
        <time>2021-08-18T10:21:41Z</time>
      </trkpt>
      <trkpt lat="43.38514" lon="2.17928">
        <ele>629.5</ele>
        <time>2021-08-18T10:21:47Z</time>
      </trkpt>
      <trkpt lat="43.38514" lon="2.17928">
        <ele>630.5</ele>
        <time>2021-08-18T10:21:52Z</time>
      </trkpt>
      <trkpt lat="43.38514" lon="2.17928">
        <ele>629.8</ele>
        <time>2021-08-18T10:21:58Z</time>
      </trkpt>
      <trkpt lat="43.38514" lon="2.17928">
        <ele>631.1</ele>
        <time>2021-08-18T10:22:03Z</time>
      </trkpt>
      <trkpt lat="43.3851" lon="2.1792">
        <ele>634.2</ele>
        <time>2021-08-18T10:22:08Z</time>
      </trkpt>
      <trkpt lat="43.3851" lon="2.17911">
        <ele>633.5</ele>
        <time>2021-08-18T10:22:13Z</time>
      </trkpt>
      <trkpt lat="43.38523" lon="2.17895">
        <ele>635.5</ele>
        <time>2021-08-18T10:22:19Z</time>
      </trkpt>
      <trkpt lat="43.38515" lon="2.17871">
        <ele>632.8</ele>
        <time>2021-08-18T10:22:24Z</time>
      </trkpt>
      <trkpt lat="43.38507" lon="2.17856">
        <ele>632</ele>
        <time>2021-08-18T10:22:29Z</time>
      </trkpt>
      <trkpt lat="43.38494" lon="2.17835">
        <ele>631.7</ele>
        <time>2021-08-18T10:22:35Z</time>
      </trkpt>
      <trkpt lat="43.38481" lon="2.17818">
        <ele>632.3</ele>
        <time>2021-08-18T10:22:40Z</time>
      </trkpt>
      <trkpt lat="43.38479" lon="2.17789">
        <ele>632.6</ele>
        <time>2021-08-18T10:22:46Z</time>
      </trkpt>
      <trkpt lat="43.38478" lon="2.17764">
        <ele>630.8</ele>
        <time>2021-08-18T10:22:52Z</time>
      </trkpt>
      <trkpt lat="43.38479" lon="2.17739">
        <ele>630</ele>
        <time>2021-08-18T10:22:57Z</time>
      </trkpt>
      <trkpt lat="43.3847" lon="2.17711">
        <ele>624.6</ele>
        <time>2021-08-18T10:23:03Z</time>
      </trkpt>
      <trkpt lat="43.38461" lon="2.17686">
        <ele>625.6</ele>
        <time>2021-08-18T10:23:08Z</time>
      </trkpt>
      <trkpt lat="43.38462" lon="2.1766">
        <ele>628.7</ele>
        <time>2021-08-18T10:23:13Z</time>
      </trkpt>
      <trkpt lat="43.38475" lon="2.17634">
        <ele>634.3</ele>
        <time>2021-08-18T10:23:19Z</time>
      </trkpt>
      <trkpt lat="43.3847" lon="2.1761">
        <ele>640</ele>
        <time>2021-08-18T10:23:24Z</time>
      </trkpt>
      <trkpt lat="43.38459" lon="2.17588">
        <ele>636.5</ele>
        <time>2021-08-18T10:23:30Z</time>
      </trkpt>
      <trkpt lat="43.38449" lon="2.17562">
        <ele>637.7</ele>
        <time>2021-08-18T10:23:36Z</time>
      </trkpt>
      <trkpt lat="43.3844" lon="2.17538">
        <ele>633.2</ele>
        <time>2021-08-18T10:23:41Z</time>
      </trkpt>
      <trkpt lat="43.38425" lon="2.17506">
        <ele>630.4</ele>
        <time>2021-08-18T10:23:47Z</time>
      </trkpt>
      <trkpt lat="43.38423" lon="2.17462">
        <ele>626.1</ele>
        <time>2021-08-18T10:23:53Z</time>
      </trkpt>
      <trkpt lat="43.38447" lon="2.17434">
        <ele>623.6</ele>
        <time>2021-08-18T10:23:59Z</time>
      </trkpt>
      <trkpt lat="43.38474" lon="2.17427">
        <ele>619.8</ele>
        <time>2021-08-18T10:24:05Z</time>
      </trkpt>
      <trkpt lat="43.38503" lon="2.17425">
        <ele>618.1</ele>
        <time>2021-08-18T10:24:11Z</time>
      </trkpt>
      <trkpt lat="43.38534" lon="2.17423">
        <ele>614.9</ele>
        <time>2021-08-18T10:24:17Z</time>
      </trkpt>
      <trkpt lat="43.38555" lon="2.17421">
        <ele>611.4</ele>
        <time>2021-08-18T10:24:22Z</time>
      </trkpt>
      <trkpt lat="43.38568" lon="2.17417">
        <ele>611</ele>
        <time>2021-08-18T10:24:28Z</time>
      </trkpt>
      <trkpt lat="43.38581" lon="2.17414">
        <ele>610.4</ele>
        <time>2021-08-18T10:24:33Z</time>
      </trkpt>
      <trkpt lat="43.386" lon="2.17396">
        <ele>610.6</ele>
        <time>2021-08-18T10:24:39Z</time>
      </trkpt>
      <trkpt lat="43.38596" lon="2.17361">
        <ele>617</ele>
        <time>2021-08-18T10:24:44Z</time>
      </trkpt>
      <trkpt lat="43.38584" lon="2.17329">
        <ele>619.7</ele>
        <time>2021-08-18T10:24:50Z</time>
      </trkpt>
      <trkpt lat="43.38578" lon="2.17293">
        <ele>624</ele>
        <time>2021-08-18T10:24:56Z</time>
      </trkpt>
      <trkpt lat="43.38591" lon="2.17266">
        <ele>629.6</ele>
        <time>2021-08-18T10:25:01Z</time>
      </trkpt>
      <trkpt lat="43.38605" lon="2.17247">
        <ele>629.6</ele>
        <time>2021-08-18T10:25:06Z</time>
      </trkpt>
      <trkpt lat="43.38621" lon="2.17221">
        <ele>630.7</ele>
        <time>2021-08-18T10:25:12Z</time>
      </trkpt>
      <trkpt lat="43.38637" lon="2.17198">
        <ele>633.2</ele>
        <time>2021-08-18T10:25:17Z</time>
      </trkpt>
      <trkpt lat="43.38643" lon="2.17169">
        <ele>632.9</ele>
        <time>2021-08-18T10:25:22Z</time>
      </trkpt>
      <trkpt lat="43.38632" lon="2.1714">
        <ele>634.4</ele>
        <time>2021-08-18T10:25:28Z</time>
      </trkpt>
      <trkpt lat="43.3863" lon="2.17111">
        <ele>635.8</ele>
        <time>2021-08-18T10:25:34Z</time>
      </trkpt>
      <trkpt lat="43.38632" lon="2.17082">
        <ele>635.4</ele>
        <time>2021-08-18T10:25:39Z</time>
      </trkpt>
      <trkpt lat="43.3864" lon="2.17044">
        <ele>634.8</ele>
        <time>2021-08-18T10:25:45Z</time>
      </trkpt>
      <trkpt lat="43.3864" lon="2.1701">
        <ele>637.5</ele>
        <time>2021-08-18T10:25:50Z</time>
      </trkpt>
      <trkpt lat="43.38627" lon="2.1698">
        <ele>637.5</ele>
        <time>2021-08-18T10:25:55Z</time>
      </trkpt>
      <trkpt lat="43.38604" lon="2.16951">
        <ele>637</ele>
        <time>2021-08-18T10:26:01Z</time>
      </trkpt>
      <trkpt lat="43.38575" lon="2.16933">
        <ele>637.2</ele>
        <time>2021-08-18T10:26:07Z</time>
      </trkpt>
      <trkpt lat="43.38552" lon="2.16931">
        <ele>638.6</ele>
        <time>2021-08-18T10:26:12Z</time>
      </trkpt>
      <trkpt lat="43.38529" lon="2.16944">
        <ele>638.6</ele>
        <time>2021-08-18T10:26:18Z</time>
      </trkpt>
      <trkpt lat="43.38501" lon="2.16948">
        <ele>638.1</ele>
        <time>2021-08-18T10:26:24Z</time>
      </trkpt>
      <trkpt lat="43.38481" lon="2.16918">
        <ele>635.6</ele>
        <time>2021-08-18T10:26:30Z</time>
      </trkpt>
      <trkpt lat="43.38464" lon="2.16885">
        <ele>636.5</ele>
        <time>2021-08-18T10:26:35Z</time>
      </trkpt>
      <trkpt lat="43.38452" lon="2.16856">
        <ele>636</ele>
        <time>2021-08-18T10:26:40Z</time>
      </trkpt>
      <trkpt lat="43.38438" lon="2.16824">
        <ele>637</ele>
        <time>2021-08-18T10:26:46Z</time>
      </trkpt>
      <trkpt lat="43.38422" lon="2.16793">
        <ele>635.3</ele>
        <time>2021-08-18T10:26:51Z</time>
      </trkpt>
      <trkpt lat="43.38398" lon="2.16764">
        <ele>631.4</ele>
        <time>2021-08-18T10:26:57Z</time>
      </trkpt>
      <trkpt lat="43.38376" lon="2.1673">
        <ele>626.5</ele>
        <time>2021-08-18T10:27:03Z</time>
      </trkpt>
      <trkpt lat="43.38372" lon="2.16693">
        <ele>626.4</ele>
        <time>2021-08-18T10:27:08Z</time>
      </trkpt>
      <trkpt lat="43.38386" lon="2.1666">
        <ele>624.8</ele>
        <time>2021-08-18T10:27:13Z</time>
      </trkpt>
      <trkpt lat="43.38415" lon="2.16636">
        <ele>621</ele>
        <time>2021-08-18T10:27:19Z</time>
      </trkpt>
      <trkpt lat="43.3844" lon="2.16635">
        <ele>620.5</ele>
        <time>2021-08-18T10:27:24Z</time>
      </trkpt>
      <trkpt lat="43.38462" lon="2.16641">
        <ele>621.6</ele>
        <time>2021-08-18T10:27:29Z</time>
      </trkpt>
      <trkpt lat="43.38478" lon="2.16636">
        <ele>623.2</ele>
        <time>2021-08-18T10:27:34Z</time>
      </trkpt>
      <trkpt lat="43.38497" lon="2.16626">
        <ele>621.9</ele>
        <time>2021-08-18T10:27:40Z</time>
      </trkpt>
      <trkpt lat="43.38522" lon="2.16608">
        <ele>625</ele>
        <time>2021-08-18T10:27:46Z</time>
      </trkpt>
      <trkpt lat="43.38545" lon="2.1659">
        <ele>626.5</ele>
        <time>2021-08-18T10:27:51Z</time>
      </trkpt>
      <trkpt lat="43.38568" lon="2.16572">
        <ele>626.6</ele>
        <time>2021-08-18T10:27:56Z</time>
      </trkpt>
      <trkpt lat="43.38595" lon="2.16553">
        <ele>627</ele>
        <time>2021-08-18T10:28:02Z</time>
      </trkpt>
      <trkpt lat="43.38626" lon="2.16524">
        <ele>624.9</ele>
        <time>2021-08-18T10:28:07Z</time>
      </trkpt>
      <trkpt lat="43.38648" lon="2.16502">
        <ele>624.5</ele>
        <time>2021-08-18T10:28:12Z</time>
      </trkpt>
      <trkpt lat="43.38664" lon="2.16475">
        <ele>623.8</ele>
        <time>2021-08-18T10:28:17Z</time>
      </trkpt>
      <trkpt lat="43.38662" lon="2.16442">
        <ele>622</ele>
        <time>2021-08-18T10:28:24Z</time>
      </trkpt>
      <trkpt lat="43.38641" lon="2.16419">
        <ele>623</ele>
        <time>2021-08-18T10:28:29Z</time>
      </trkpt>
      <trkpt lat="43.3862" lon="2.16401">
        <ele>621.1</ele>
        <time>2021-08-18T10:28:35Z</time>
      </trkpt>
      <trkpt lat="43.38605" lon="2.16381">
        <ele>618.7</ele>
        <time>2021-08-18T10:28:40Z</time>
      </trkpt>
      <trkpt lat="43.38602" lon="2.16371">
        <ele>617.7</ele>
        <time>2021-08-18T10:28:46Z</time>
      </trkpt>
      <trkpt lat="43.38594" lon="2.16351">
        <ele>618.2</ele>
        <time>2021-08-18T10:28:52Z</time>
      </trkpt>
      <trkpt lat="43.38572" lon="2.1634">
        <ele>621.1</ele>
        <time>2021-08-18T10:28:58Z</time>
      </trkpt>
      <trkpt lat="43.38555" lon="2.16324">
        <ele>623.6</ele>
        <time>2021-08-18T10:29:03Z</time>
      </trkpt>
      <trkpt lat="43.38541" lon="2.16299">
        <ele>626.6</ele>
        <time>2021-08-18T10:29:09Z</time>
      </trkpt>
      <trkpt lat="43.38537" lon="2.16266">
        <ele>625</ele>
        <time>2021-08-18T10:29:15Z</time>
      </trkpt>
      <trkpt lat="43.38539" lon="2.16227">
        <ele>626.5</ele>
        <time>2021-08-18T10:29:21Z</time>
      </trkpt>
      <trkpt lat="43.38546" lon="2.16198">
        <ele>623.7</ele>
        <time>2021-08-18T10:29:27Z</time>
      </trkpt>
      <trkpt lat="43.3855" lon="2.16177">
        <ele>623.2</ele>
        <time>2021-08-18T10:29:33Z</time>
      </trkpt>
      <trkpt lat="43.38538" lon="2.16168">
        <ele>621.8</ele>
        <time>2021-08-18T10:29:39Z</time>
      </trkpt>
      <trkpt lat="43.38512" lon="2.16156">
        <ele>622.2</ele>
        <time>2021-08-18T10:29:44Z</time>
      </trkpt>
      <trkpt lat="43.38492" lon="2.16145">
        <ele>623.1</ele>
        <time>2021-08-18T10:29:49Z</time>
      </trkpt>
      <trkpt lat="43.38473" lon="2.16132">
        <ele>619.9</ele>
        <time>2021-08-18T10:29:55Z</time>
      </trkpt>
      <trkpt lat="43.38459" lon="2.16124">
        <ele>618.7</ele>
        <time>2021-08-18T10:30:00Z</time>
      </trkpt>
      <trkpt lat="43.38435" lon="2.16107">
        <ele>615.3</ele>
        <time>2021-08-18T10:30:06Z</time>
      </trkpt>
      <trkpt lat="43.38413" lon="2.1609">
        <ele>611.3</ele>
        <time>2021-08-18T10:30:12Z</time>
      </trkpt>
      <trkpt lat="43.38399" lon="2.16063">
        <ele>608.2</ele>
        <time>2021-08-18T10:30:18Z</time>
      </trkpt>
      <trkpt lat="43.38392" lon="2.16037">
        <ele>607.2</ele>
        <time>2021-08-18T10:30:23Z</time>
      </trkpt>
      <trkpt lat="43.3839" lon="2.16002">
        <ele>605.7</ele>
        <time>2021-08-18T10:30:29Z</time>
      </trkpt>
      <trkpt lat="43.38393" lon="2.15966">
        <ele>606.7</ele>
        <time>2021-08-18T10:30:35Z</time>
      </trkpt>
      <trkpt lat="43.38402" lon="2.15937">
        <ele>605.9</ele>
        <time>2021-08-18T10:30:40Z</time>
      </trkpt>
      <trkpt lat="43.38413" lon="2.15908">
        <ele>603.3</ele>
        <time>2021-08-18T10:30:46Z</time>
      </trkpt>
      <trkpt lat="43.38427" lon="2.15881">
        <ele>604.2</ele>
        <time>2021-08-18T10:30:52Z</time>
      </trkpt>
      <trkpt lat="43.38442" lon="2.15858">
        <ele>602.6</ele>
        <time>2021-08-18T10:30:57Z</time>
      </trkpt>
      <trkpt lat="43.38463" lon="2.15841">
        <ele>600.8</ele>
        <time>2021-08-18T10:31:03Z</time>
      </trkpt>
      <trkpt lat="43.3848" lon="2.15831">
        <ele>598.9</ele>
        <time>2021-08-18T10:31:08Z</time>
      </trkpt>
      <trkpt lat="43.38497" lon="2.15829">
        <ele>597.9</ele>
        <time>2021-08-18T10:31:14Z</time>
      </trkpt>
      <trkpt lat="43.38519" lon="2.15825">
        <ele>598.5</ele>
        <time>2021-08-18T10:31:19Z</time>
      </trkpt>
      <trkpt lat="43.3854" lon="2.15815">
        <ele>596.9</ele>
        <time>2021-08-18T10:31:24Z</time>
      </trkpt>
      <trkpt lat="43.38566" lon="2.15808">
        <ele>598.1</ele>
        <time>2021-08-18T10:31:30Z</time>
      </trkpt>
      <trkpt lat="43.38592" lon="2.15804">
        <ele>599.7</ele>
        <time>2021-08-18T10:31:36Z</time>
      </trkpt>
      <trkpt lat="43.38616" lon="2.15809">
        <ele>599.8</ele>
        <time>2021-08-18T10:31:42Z</time>
      </trkpt>
      <trkpt lat="43.38638" lon="2.15815">
        <ele>602.9</ele>
        <time>2021-08-18T10:31:48Z</time>
      </trkpt>
      <trkpt lat="43.38659" lon="2.15818">
        <ele>604.8</ele>
        <time>2021-08-18T10:31:53Z</time>
      </trkpt>
      <trkpt lat="43.38684" lon="2.15812">
        <ele>608.7</ele>
        <time>2021-08-18T10:31:59Z</time>
      </trkpt>
      <trkpt lat="43.38707" lon="2.15803">
        <ele>609.3</ele>
        <time>2021-08-18T10:32:04Z</time>
      </trkpt>
      <trkpt lat="43.38729" lon="2.158">
        <ele>612.6</ele>
        <time>2021-08-18T10:32:09Z</time>
      </trkpt>
      <trkpt lat="43.38758" lon="2.15795">
        <ele>615.6</ele>
        <time>2021-08-18T10:32:15Z</time>
      </trkpt>
      <trkpt lat="43.38786" lon="2.15787">
        <ele>625.3</ele>
        <time>2021-08-18T10:32:21Z</time>
      </trkpt>
      <trkpt lat="43.38808" lon="2.15788">
        <ele>630.1</ele>
        <time>2021-08-18T10:32:26Z</time>
      </trkpt>
      <trkpt lat="43.38832" lon="2.15804">
        <ele>626.8</ele>
        <time>2021-08-18T10:32:31Z</time>
      </trkpt>
      <trkpt lat="43.38846" lon="2.15834">
        <ele>627.4</ele>
        <time>2021-08-18T10:32:37Z</time>
      </trkpt>
      <trkpt lat="43.38852" lon="2.1586">
        <ele>627.9</ele>
        <time>2021-08-18T10:32:42Z</time>
      </trkpt>
      <trkpt lat="43.38861" lon="2.15891">
        <ele>624.1</ele>
        <time>2021-08-18T10:32:48Z</time>
      </trkpt>
      <trkpt lat="43.38867" lon="2.15914">
        <ele>621</ele>
        <time>2021-08-18T10:32:53Z</time>
      </trkpt>
      <trkpt lat="43.3887" lon="2.15952">
        <ele>619.3</ele>
        <time>2021-08-18T10:32:59Z</time>
      </trkpt>
      <trkpt lat="43.38866" lon="2.15988">
        <ele>621.2</ele>
        <time>2021-08-18T10:33:05Z</time>
      </trkpt>
      <trkpt lat="43.3886" lon="2.16015">
        <ele>620</ele>
        <time>2021-08-18T10:33:10Z</time>
      </trkpt>
      <trkpt lat="43.38855" lon="2.16042">
        <ele>623.2</ele>
        <time>2021-08-18T10:33:16Z</time>
      </trkpt>
      <trkpt lat="43.38854" lon="2.16066">
        <ele>622.6</ele>
        <time>2021-08-18T10:33:22Z</time>
      </trkpt>
      <trkpt lat="43.38874" lon="2.16087">
        <ele>627.8</ele>
        <time>2021-08-18T10:33:28Z</time>
      </trkpt>
      <trkpt lat="43.38894" lon="2.1611">
        <ele>623.3</ele>
        <time>2021-08-18T10:33:33Z</time>
      </trkpt>
      <trkpt lat="43.3891" lon="2.16136">
        <ele>619</ele>
        <time>2021-08-18T10:33:38Z</time>
      </trkpt>
      <trkpt lat="43.38924" lon="2.16166">
        <ele>615</ele>
        <time>2021-08-18T10:33:44Z</time>
      </trkpt>
      <trkpt lat="43.38939" lon="2.16177">
        <ele>614.2</ele>
        <time>2021-08-18T10:33:49Z</time>
      </trkpt>
      <trkpt lat="43.38952" lon="2.16158">
        <ele>613.8</ele>
        <time>2021-08-18T10:33:55Z</time>
      </trkpt>
      <trkpt lat="43.38977" lon="2.16147">
        <ele>614.4</ele>
        <time>2021-08-18T10:34:01Z</time>
      </trkpt>
      <trkpt lat="43.39001" lon="2.1613">
        <ele>615.6</ele>
        <time>2021-08-18T10:34:07Z</time>
      </trkpt>
      <trkpt lat="43.39018" lon="2.161">
        <ele>616.7</ele>
        <time>2021-08-18T10:34:13Z</time>
      </trkpt>
      <trkpt lat="43.39038" lon="2.1607">
        <ele>615.1</ele>
        <time>2021-08-18T10:34:19Z</time>
      </trkpt>
      <trkpt lat="43.39059" lon="2.16052">
        <ele>616.5</ele>
        <time>2021-08-18T10:34:24Z</time>
      </trkpt>
      <trkpt lat="43.39081" lon="2.16043">
        <ele>617</ele>
        <time>2021-08-18T10:34:29Z</time>
      </trkpt>
      <trkpt lat="43.39107" lon="2.16041">
        <ele>620.7</ele>
        <time>2021-08-18T10:34:35Z</time>
      </trkpt>
      <trkpt lat="43.39132" lon="2.16046">
        <ele>625.3</ele>
        <time>2021-08-18T10:34:41Z</time>
      </trkpt>
      <trkpt lat="43.3915" lon="2.16052">
        <ele>627.8</ele>
        <time>2021-08-18T10:34:46Z</time>
      </trkpt>
      <trkpt lat="43.39168" lon="2.16063">
        <ele>632.4</ele>
        <time>2021-08-18T10:34:52Z</time>
      </trkpt>
      <trkpt lat="43.39188" lon="2.16077">
        <ele>634.4</ele>
        <time>2021-08-18T10:34:57Z</time>
      </trkpt>
      <trkpt lat="43.39212" lon="2.16083">
        <ele>632.6</ele>
        <time>2021-08-18T10:35:03Z</time>
      </trkpt>
      <trkpt lat="43.39233" lon="2.16096">
        <ele>629.9</ele>
        <time>2021-08-18T10:35:09Z</time>
      </trkpt>
      <trkpt lat="43.39236" lon="2.16136">
        <ele>627.3</ele>
        <time>2021-08-18T10:35:15Z</time>
      </trkpt>
      <trkpt lat="43.39225" lon="2.16168">
        <ele>625</ele>
        <time>2021-08-18T10:35:21Z</time>
      </trkpt>
      <trkpt lat="43.3921" lon="2.16189">
        <ele>621.7</ele>
        <time>2021-08-18T10:35:26Z</time>
      </trkpt>
      <trkpt lat="43.39195" lon="2.16221">
        <ele>624.5</ele>
        <time>2021-08-18T10:35:32Z</time>
      </trkpt>
      <trkpt lat="43.39181" lon="2.1625">
        <ele>625.6</ele>
        <time>2021-08-18T10:35:38Z</time>
      </trkpt>
      <trkpt lat="43.39171" lon="2.16282">
        <ele>626.1</ele>
        <time>2021-08-18T10:35:44Z</time>
      </trkpt>
      <trkpt lat="43.39174" lon="2.16317">
        <ele>627</ele>
        <time>2021-08-18T10:35:49Z</time>
      </trkpt>
      <trkpt lat="43.39181" lon="2.16345">
        <ele>627.3</ele>
        <time>2021-08-18T10:35:54Z</time>
      </trkpt>
      <trkpt lat="43.39199" lon="2.16377">
        <ele>637</ele>
        <time>2021-08-18T10:36:00Z</time>
      </trkpt>
      <trkpt lat="43.3922" lon="2.16392">
        <ele>635.7</ele>
        <time>2021-08-18T10:36:05Z</time>
      </trkpt>
      <trkpt lat="43.39235" lon="2.16398">
        <ele>630.5</ele>
        <time>2021-08-18T10:36:10Z</time>
      </trkpt>
      <trkpt lat="43.39252" lon="2.16406">
        <ele>626.3</ele>
        <time>2021-08-18T10:36:16Z</time>
      </trkpt>
      <trkpt lat="43.39265" lon="2.16413">
        <ele>627.3</ele>
        <time>2021-08-18T10:36:21Z</time>
      </trkpt>
      <trkpt lat="43.39288" lon="2.1642">
        <ele>626.2</ele>
        <time>2021-08-18T10:36:26Z</time>
      </trkpt>
      <trkpt lat="43.39307" lon="2.1644">
        <ele>625.1</ele>
        <time>2021-08-18T10:36:32Z</time>
      </trkpt>
      <trkpt lat="43.39307" lon="2.16466">
        <ele>622.6</ele>
        <time>2021-08-18T10:36:38Z</time>
      </trkpt>
      <trkpt lat="43.39315" lon="2.16473">
        <ele>618.5</ele>
        <time>2021-08-18T10:36:44Z</time>
      </trkpt>
      <trkpt lat="43.39334" lon="2.16465">
        <ele>621.1</ele>
        <time>2021-08-18T10:36:50Z</time>
      </trkpt>
      <trkpt lat="43.39352" lon="2.16461">
        <ele>622.9</ele>
        <time>2021-08-18T10:36:55Z</time>
      </trkpt>
      <trkpt lat="43.39364" lon="2.16476">
        <ele>624.8</ele>
        <time>2021-08-18T10:37:01Z</time>
      </trkpt>
      <trkpt lat="43.39371" lon="2.16487">
        <ele>621.9</ele>
        <time>2021-08-18T10:37:06Z</time>
      </trkpt>
      <trkpt lat="43.39378" lon="2.16491">
        <ele>622.3</ele>
        <time>2021-08-18T10:37:12Z</time>
      </trkpt>
      <trkpt lat="43.39386" lon="2.16488">
        <ele>621.7</ele>
        <time>2021-08-18T10:37:17Z</time>
      </trkpt>
      <trkpt lat="43.39398" lon="2.16483">
        <ele>620.4</ele>
        <time>2021-08-18T10:37:23Z</time>
      </trkpt>
      <trkpt lat="43.3941" lon="2.16478">
        <ele>623.1</ele>
        <time>2021-08-18T10:37:29Z</time>
      </trkpt>
      <trkpt lat="43.39418" lon="2.16472">
        <ele>625</ele>
        <time>2021-08-18T10:37:34Z</time>
      </trkpt>
      <trkpt lat="43.39427" lon="2.16464">
        <ele>629.6</ele>
        <time>2021-08-18T10:37:40Z</time>
      </trkpt>
      <trkpt lat="43.39441" lon="2.16451">
        <ele>630.8</ele>
        <time>2021-08-18T10:37:46Z</time>
      </trkpt>
      <trkpt lat="43.39446" lon="2.1643">
        <ele>633.9</ele>
        <time>2021-08-18T10:37:52Z</time>
      </trkpt>
      <trkpt lat="43.39454" lon="2.16411">
        <ele>634.9</ele>
        <time>2021-08-18T10:37:58Z</time>
      </trkpt>
      <trkpt lat="43.39464" lon="2.16392">
        <ele>636</ele>
        <time>2021-08-18T10:38:04Z</time>
      </trkpt>
      <trkpt lat="43.39479" lon="2.16371">
        <ele>635.8</ele>
        <time>2021-08-18T10:38:09Z</time>
      </trkpt>
      <trkpt lat="43.39487" lon="2.16363">
        <ele>635.7</ele>
        <time>2021-08-18T10:38:14Z</time>
      </trkpt>
      <trkpt lat="43.39487" lon="2.16363">
        <ele>633.7</ele>
        <time>2021-08-18T10:38:20Z</time>
      </trkpt>
      <trkpt lat="43.39488" lon="2.16363">
        <ele>636.1</ele>
        <time>2021-08-18T10:38:25Z</time>
      </trkpt>
      <trkpt lat="43.39488" lon="2.16363">
        <ele>633.7</ele>
        <time>2021-08-18T10:38:31Z</time>
      </trkpt>
      <trkpt lat="43.39488" lon="2.16363">
        <ele>636.3</ele>
        <time>2021-08-18T10:38:37Z</time>
      </trkpt>
      <trkpt lat="43.39488" lon="2.16363">
        <ele>636.1</ele>
        <time>2021-08-18T10:38:42Z</time>
      </trkpt>
      <trkpt lat="43.39501" lon="2.16351">
        <ele>631.4</ele>
        <time>2021-08-18T10:38:48Z</time>
      </trkpt>
      <trkpt lat="43.39519" lon="2.16341">
        <ele>631.3</ele>
        <time>2021-08-18T10:38:53Z</time>
      </trkpt>
      <trkpt lat="43.39524" lon="2.16314">
        <ele>632.9</ele>
        <time>2021-08-18T10:38:59Z</time>
      </trkpt>
      <trkpt lat="43.39527" lon="2.16286">
        <ele>634.8</ele>
        <time>2021-08-18T10:39:04Z</time>
      </trkpt>
      <trkpt lat="43.39544" lon="2.16267">
        <ele>632.9</ele>
        <time>2021-08-18T10:39:10Z</time>
      </trkpt>
      <trkpt lat="43.39556" lon="2.16246">
        <ele>630.5</ele>
        <time>2021-08-18T10:39:16Z</time>
      </trkpt>
      <trkpt lat="43.39555" lon="2.16226">
        <ele>629.9</ele>
        <time>2021-08-18T10:39:21Z</time>
      </trkpt>
      <trkpt lat="43.39539" lon="2.16217">
        <ele>626.1</ele>
        <time>2021-08-18T10:39:26Z</time>
      </trkpt>
      <trkpt lat="43.39517" lon="2.16203">
        <ele>624.5</ele>
        <time>2021-08-18T10:39:32Z</time>
      </trkpt>
      <trkpt lat="43.39504" lon="2.16177">
        <ele>622.7</ele>
        <time>2021-08-18T10:39:38Z</time>
      </trkpt>
      <trkpt lat="43.39505" lon="2.16146">
        <ele>619.5</ele>
        <time>2021-08-18T10:39:44Z</time>
      </trkpt>
      <trkpt lat="43.39512" lon="2.16106">
        <ele>617.6</ele>
        <time>2021-08-18T10:39:50Z</time>
      </trkpt>
      <trkpt lat="43.39516" lon="2.1607">
        <ele>617.1</ele>
        <time>2021-08-18T10:39:56Z</time>
      </trkpt>
      <trkpt lat="43.39517" lon="2.16049">
        <ele>618</ele>
        <time>2021-08-18T10:40:01Z</time>
      </trkpt>
      <trkpt lat="43.39504" lon="2.16029">
        <ele>615.8</ele>
        <time>2021-08-18T10:40:06Z</time>
      </trkpt>
      <trkpt lat="43.39481" lon="2.16015">
        <ele>617.8</ele>
        <time>2021-08-18T10:40:12Z</time>
      </trkpt>
      <trkpt lat="43.39458" lon="2.16005">
        <ele>617.5</ele>
        <time>2021-08-18T10:40:17Z</time>
      </trkpt>
      <trkpt lat="43.39438" lon="2.15985">
        <ele>617.5</ele>
        <time>2021-08-18T10:40:23Z</time>
      </trkpt>
      <trkpt lat="43.39434" lon="2.1596">
        <ele>615</ele>
        <time>2021-08-18T10:40:28Z</time>
      </trkpt>
      <trkpt lat="43.39429" lon="2.15924">
        <ele>617.2</ele>
        <time>2021-08-18T10:40:34Z</time>
      </trkpt>
      <trkpt lat="43.39427" lon="2.15892">
        <ele>616.8</ele>
        <time>2021-08-18T10:40:39Z</time>
      </trkpt>
      <trkpt lat="43.39417" lon="2.15856">
        <ele>618.6</ele>
        <time>2021-08-18T10:40:45Z</time>
      </trkpt>
      <trkpt lat="43.39395" lon="2.15848">
        <ele>617.1</ele>
        <time>2021-08-18T10:40:51Z</time>
      </trkpt>
      <trkpt lat="43.39379" lon="2.15853">
        <ele>617</ele>
        <time>2021-08-18T10:40:56Z</time>
      </trkpt>
      <trkpt lat="43.39353" lon="2.15855">
        <ele>619.4</ele>
        <time>2021-08-18T10:41:02Z</time>
      </trkpt>
      <trkpt lat="43.39333" lon="2.15836">
        <ele>619.7</ele>
        <time>2021-08-18T10:41:08Z</time>
      </trkpt>
      <trkpt lat="43.39327" lon="2.15811">
        <ele>616.2</ele>
        <time>2021-08-18T10:41:13Z</time>
      </trkpt>
      <trkpt lat="43.39322" lon="2.158">
        <ele>613.5</ele>
        <time>2021-08-18T10:41:18Z</time>
      </trkpt>
      <trkpt lat="43.39323" lon="2.158">
        <ele>615.2</ele>
        <time>2021-08-18T10:41:24Z</time>
      </trkpt>
      <trkpt lat="43.39323" lon="2.158">
        <ele>613.7</ele>
        <time>2021-08-18T10:41:30Z</time>
      </trkpt>
      <trkpt lat="43.39323" lon="2.158">
        <ele>615.1</ele>
        <time>2021-08-18T10:41:36Z</time>
      </trkpt>
      <trkpt lat="43.39323" lon="2.158">
        <ele>614.6</ele>
        <time>2021-08-18T10:41:42Z</time>
      </trkpt>
      <trkpt lat="43.39323" lon="2.158">
        <ele>613</ele>
        <time>2021-08-18T10:41:48Z</time>
      </trkpt>
      <trkpt lat="43.39323" lon="2.158">
        <ele>613.9</ele>
        <time>2021-08-18T10:41:54Z</time>
      </trkpt>
      <trkpt lat="43.39314" lon="2.1579">
        <ele>616.3</ele>
        <time>2021-08-18T10:42:00Z</time>
      </trkpt>
      <trkpt lat="43.39299" lon="2.15773">
        <ele>613.5</ele>
        <time>2021-08-18T10:42:05Z</time>
      </trkpt>
      <trkpt lat="43.39275" lon="2.15761">
        <ele>610.6</ele>
        <time>2021-08-18T10:42:11Z</time>
      </trkpt>
      <trkpt lat="43.39257" lon="2.15751">
        <ele>606.3</ele>
        <time>2021-08-18T10:42:16Z</time>
      </trkpt>
      <trkpt lat="43.39247" lon="2.15716">
        <ele>604.8</ele>
        <time>2021-08-18T10:42:22Z</time>
      </trkpt>
      <trkpt lat="43.39252" lon="2.15686">
        <ele>606.7</ele>
        <time>2021-08-18T10:42:28Z</time>
      </trkpt>
      <trkpt lat="43.39262" lon="2.15656">
        <ele>604.1</ele>
        <time>2021-08-18T10:42:34Z</time>
      </trkpt>
      <trkpt lat="43.39256" lon="2.15627">
        <ele>605.4</ele>
        <time>2021-08-18T10:42:39Z</time>
      </trkpt>
      <trkpt lat="43.39253" lon="2.15594">
        <ele>603.4</ele>
        <time>2021-08-18T10:42:45Z</time>
      </trkpt>
      <trkpt lat="43.39254" lon="2.15557">
        <ele>607.8</ele>
        <time>2021-08-18T10:42:51Z</time>
      </trkpt>
      <trkpt lat="43.39268" lon="2.15525">
        <ele>614.8</ele>
        <time>2021-08-18T10:42:57Z</time>
      </trkpt>
      <trkpt lat="43.39291" lon="2.15501">
        <ele>612</ele>
        <time>2021-08-18T10:43:03Z</time>
      </trkpt>
      <trkpt lat="43.39305" lon="2.15478">
        <ele>613.3</ele>
        <time>2021-08-18T10:43:08Z</time>
      </trkpt>
      <trkpt lat="43.39299" lon="2.15444">
        <ele>603.9</ele>
        <time>2021-08-18T10:43:14Z</time>
      </trkpt>
      <trkpt lat="43.39271" lon="2.15436">
        <ele>601.9</ele>
        <time>2021-08-18T10:43:20Z</time>
      </trkpt>
      <trkpt lat="43.39247" lon="2.15423">
        <ele>601.9</ele>
        <time>2021-08-18T10:43:25Z</time>
      </trkpt>
      <trkpt lat="43.39227" lon="2.15415">
        <ele>600.8</ele>
        <time>2021-08-18T10:43:30Z</time>
      </trkpt>
      <trkpt lat="43.39211" lon="2.15391">
        <ele>606.8</ele>
        <time>2021-08-18T10:43:36Z</time>
      </trkpt>
      <trkpt lat="43.39204" lon="2.15362">
        <ele>613.9</ele>
        <time>2021-08-18T10:43:41Z</time>
      </trkpt>
      <trkpt lat="43.39197" lon="2.15328">
        <ele>621.4</ele>
        <time>2021-08-18T10:43:47Z</time>
      </trkpt>
      <trkpt lat="43.39198" lon="2.15298">
        <ele>621</ele>
        <time>2021-08-18T10:43:52Z</time>
      </trkpt>
      <trkpt lat="43.39208" lon="2.15261">
        <ele>621.5</ele>
        <time>2021-08-18T10:43:58Z</time>
      </trkpt>
      <trkpt lat="43.39213" lon="2.15234">
        <ele>621.4</ele>
        <time>2021-08-18T10:44:03Z</time>
      </trkpt>
      <trkpt lat="43.39221" lon="2.15214">
        <ele>621.2</ele>
        <time>2021-08-18T10:44:08Z</time>
      </trkpt>
      <trkpt lat="43.3924" lon="2.15189">
        <ele>616.3</ele>
        <time>2021-08-18T10:44:14Z</time>
      </trkpt>
      <trkpt lat="43.39257" lon="2.15171">
        <ele>611.5</ele>
        <time>2021-08-18T10:44:19Z</time>
      </trkpt>
      <trkpt lat="43.39275" lon="2.15148">
        <ele>612.9</ele>
        <time>2021-08-18T10:44:24Z</time>
      </trkpt>
      <trkpt lat="43.39294" lon="2.15126">
        <ele>618.2</ele>
        <time>2021-08-18T10:44:29Z</time>
      </trkpt>
      <trkpt lat="43.39306" lon="2.15089">
        <ele>617.4</ele>
        <time>2021-08-18T10:44:35Z</time>
      </trkpt>
      <trkpt lat="43.39294" lon="2.15064">
        <ele>619.9</ele>
        <time>2021-08-18T10:44:40Z</time>
      </trkpt>
      <trkpt lat="43.39278" lon="2.15047">
        <ele>620.4</ele>
        <time>2021-08-18T10:44:45Z</time>
      </trkpt>
      <trkpt lat="43.3926" lon="2.15021">
        <ele>623.4</ele>
        <time>2021-08-18T10:44:51Z</time>
      </trkpt>
      <trkpt lat="43.39245" lon="2.14996">
        <ele>621.5</ele>
        <time>2021-08-18T10:44:56Z</time>
      </trkpt>
      <trkpt lat="43.39237" lon="2.1497">
        <ele>623.7</ele>
        <time>2021-08-18T10:45:01Z</time>
      </trkpt>
      <trkpt lat="43.39246" lon="2.14933">
        <ele>622.9</ele>
        <time>2021-08-18T10:45:07Z</time>
      </trkpt>
      <trkpt lat="43.39269" lon="2.14919">
        <ele>623</ele>
        <time>2021-08-18T10:45:12Z</time>
      </trkpt>
      <trkpt lat="43.39294" lon="2.14918">
        <ele>619.6</ele>
        <time>2021-08-18T10:45:18Z</time>
      </trkpt>
      <trkpt lat="43.39315" lon="2.14927">
        <ele>618.9</ele>
        <time>2021-08-18T10:45:23Z</time>
      </trkpt>
      <trkpt lat="43.39341" lon="2.14929">
        <ele>622.7</ele>
        <time>2021-08-18T10:45:29Z</time>
      </trkpt>
      <trkpt lat="43.39367" lon="2.14925">
        <ele>627.4</ele>
        <time>2021-08-18T10:45:35Z</time>
      </trkpt>
      <trkpt lat="43.39388" lon="2.14909">
        <ele>629.3</ele>
        <time>2021-08-18T10:45:41Z</time>
      </trkpt>
      <trkpt lat="43.39394" lon="2.14891">
        <ele>631.9</ele>
        <time>2021-08-18T10:45:46Z</time>
      </trkpt>
      <trkpt lat="43.39385" lon="2.14868">
        <ele>630.6</ele>
        <time>2021-08-18T10:45:51Z</time>
      </trkpt>
      <trkpt lat="43.3937" lon="2.14848">
        <ele>629.2</ele>
        <time>2021-08-18T10:45:56Z</time>
      </trkpt>
      <trkpt lat="43.39357" lon="2.1482">
        <ele>628.5</ele>
        <time>2021-08-18T10:46:02Z</time>
      </trkpt>
      <trkpt lat="43.39345" lon="2.14791">
        <ele>627.3</ele>
        <time>2021-08-18T10:46:08Z</time>
      </trkpt>
      <trkpt lat="43.39326" lon="2.1477">
        <ele>622.8</ele>
        <time>2021-08-18T10:46:14Z</time>
      </trkpt>
      <trkpt lat="43.3931" lon="2.14747">
        <ele>619.9</ele>
        <time>2021-08-18T10:46:20Z</time>
      </trkpt>
      <trkpt lat="43.39288" lon="2.14726">
        <ele>620</ele>
        <time>2021-08-18T10:46:25Z</time>
      </trkpt>
      <trkpt lat="43.39259" lon="2.14708">
        <ele>616.9</ele>
        <time>2021-08-18T10:46:30Z</time>
      </trkpt>
      <trkpt lat="43.39225" lon="2.14696">
        <ele>616.3</ele>
        <time>2021-08-18T10:46:36Z</time>
      </trkpt>
      <trkpt lat="43.39201" lon="2.14678">
        <ele>615.4</ele>
        <time>2021-08-18T10:46:41Z</time>
      </trkpt>
      <trkpt lat="43.39175" lon="2.14666">
        <ele>615.8</ele>
        <time>2021-08-18T10:46:46Z</time>
      </trkpt>
      <trkpt lat="43.39142" lon="2.1465">
        <ele>615.7</ele>
        <time>2021-08-18T10:46:52Z</time>
      </trkpt>
      <trkpt lat="43.39133" lon="2.14613">
        <ele>617.6</ele>
        <time>2021-08-18T10:46:58Z</time>
      </trkpt>
      <trkpt lat="43.39149" lon="2.14582">
        <ele>619.5</ele>
        <time>2021-08-18T10:47:03Z</time>
      </trkpt>
      <trkpt lat="43.39164" lon="2.14562">
        <ele>617.7</ele>
        <time>2021-08-18T10:47:09Z</time>
      </trkpt>
      <trkpt lat="43.39178" lon="2.1454">
        <ele>615.6</ele>
        <time>2021-08-18T10:47:14Z</time>
      </trkpt>
      <trkpt lat="43.39201" lon="2.14518">
        <ele>616.3</ele>
        <time>2021-08-18T10:47:20Z</time>
      </trkpt>
      <trkpt lat="43.39226" lon="2.14502">
        <ele>617.4</ele>
        <time>2021-08-18T10:47:26Z</time>
      </trkpt>
      <trkpt lat="43.39248" lon="2.14499">
        <ele>622</ele>
        <time>2021-08-18T10:47:31Z</time>
      </trkpt>
      <trkpt lat="43.39265" lon="2.14489">
        <ele>623.1</ele>
        <time>2021-08-18T10:47:36Z</time>
      </trkpt>
      <trkpt lat="43.39267" lon="2.14458">
        <ele>626.7</ele>
        <time>2021-08-18T10:47:43Z</time>
      </trkpt>
      <trkpt lat="43.39264" lon="2.1443">
        <ele>626.6</ele>
        <time>2021-08-18T10:47:48Z</time>
      </trkpt>
      <trkpt lat="43.3927" lon="2.14396">
        <ele>624.8</ele>
        <time>2021-08-18T10:47:54Z</time>
      </trkpt>
      <trkpt lat="43.39293" lon="2.1438">
        <ele>626.2</ele>
        <time>2021-08-18T10:48:00Z</time>
      </trkpt>
      <trkpt lat="43.39318" lon="2.14373">
        <ele>626.5</ele>
        <time>2021-08-18T10:48:06Z</time>
      </trkpt>
      <trkpt lat="43.39342" lon="2.14367">
        <ele>628</ele>
        <time>2021-08-18T10:48:11Z</time>
      </trkpt>
      <trkpt lat="43.39365" lon="2.14358">
        <ele>629.7</ele>
        <time>2021-08-18T10:48:17Z</time>
      </trkpt>
      <trkpt lat="43.39388" lon="2.14352">
        <ele>627.8</ele>
        <time>2021-08-18T10:48:22Z</time>
      </trkpt>
      <trkpt lat="43.39416" lon="2.14347">
        <ele>628.2</ele>
        <time>2021-08-18T10:48:28Z</time>
      </trkpt>
      <trkpt lat="43.39435" lon="2.1433">
        <ele>628.5</ele>
        <time>2021-08-18T10:48:33Z</time>
      </trkpt>
      <trkpt lat="43.39433" lon="2.14289">
        <ele>629</ele>
        <time>2021-08-18T10:48:39Z</time>
      </trkpt>
      <trkpt lat="43.39431" lon="2.1425">
        <ele>628.8</ele>
        <time>2021-08-18T10:48:45Z</time>
      </trkpt>
      <trkpt lat="43.39431" lon="2.14215">
        <ele>627.6</ele>
        <time>2021-08-18T10:48:50Z</time>
      </trkpt>
      <trkpt lat="43.39432" lon="2.14186">
        <ele>623.9</ele>
        <time>2021-08-18T10:48:55Z</time>
      </trkpt>
      <trkpt lat="43.39432" lon="2.14157">
        <ele>621.1</ele>
        <time>2021-08-18T10:49:01Z</time>
      </trkpt>
      <trkpt lat="43.39434" lon="2.1412">
        <ele>618.7</ele>
        <time>2021-08-18T10:49:07Z</time>
      </trkpt>
      <trkpt lat="43.39435" lon="2.14077">
        <ele>615.2</ele>
        <time>2021-08-18T10:49:13Z</time>
      </trkpt>
      <trkpt lat="43.39436" lon="2.14045">
        <ele>616.5</ele>
        <time>2021-08-18T10:49:18Z</time>
      </trkpt>
      <trkpt lat="43.39436" lon="2.14009">
        <ele>615.1</ele>
        <time>2021-08-18T10:49:24Z</time>
      </trkpt>
      <trkpt lat="43.3944" lon="2.13978">
        <ele>620</ele>
        <time>2021-08-18T10:49:29Z</time>
      </trkpt>
      <trkpt lat="43.39453" lon="2.13947">
        <ele>621.5</ele>
        <time>2021-08-18T10:49:34Z</time>
      </trkpt>
      <trkpt lat="43.39471" lon="2.1392">
        <ele>625.1</ele>
        <time>2021-08-18T10:49:40Z</time>
      </trkpt>
      <trkpt lat="43.39487" lon="2.13901">
        <ele>627.8</ele>
        <time>2021-08-18T10:49:45Z</time>
      </trkpt>
      <trkpt lat="43.39502" lon="2.13882">
        <ele>630</ele>
        <time>2021-08-18T10:49:51Z</time>
      </trkpt>
      <trkpt lat="43.3952" lon="2.13863">
        <ele>629.3</ele>
        <time>2021-08-18T10:49:56Z</time>
      </trkpt>
      <trkpt lat="43.39535" lon="2.13847">
        <ele>630</ele>
        <time>2021-08-18T10:50:01Z</time>
      </trkpt>
      <trkpt lat="43.39552" lon="2.13826">
        <ele>631.3</ele>
        <time>2021-08-18T10:50:06Z</time>
      </trkpt>
      <trkpt lat="43.39571" lon="2.13797">
        <ele>634.6</ele>
        <time>2021-08-18T10:50:12Z</time>
      </trkpt>
      <trkpt lat="43.39584" lon="2.13773">
        <ele>629.6</ele>
        <time>2021-08-18T10:50:18Z</time>
      </trkpt>
      <trkpt lat="43.39602" lon="2.13757">
        <ele>627.2</ele>
        <time>2021-08-18T10:50:23Z</time>
      </trkpt>
      <trkpt lat="43.3963" lon="2.13752">
        <ele>624.5</ele>
        <time>2021-08-18T10:50:29Z</time>
      </trkpt>
      <trkpt lat="43.39652" lon="2.1374">
        <ele>630.2</ele>
        <time>2021-08-18T10:50:34Z</time>
      </trkpt>
      <trkpt lat="43.39673" lon="2.13732">
        <ele>630.7</ele>
        <time>2021-08-18T10:50:39Z</time>
      </trkpt>
      <trkpt lat="43.39691" lon="2.1371">
        <ele>632.4</ele>
        <time>2021-08-18T10:50:45Z</time>
      </trkpt>
      <trkpt lat="43.39681" lon="2.13684">
        <ele>630.9</ele>
        <time>2021-08-18T10:50:51Z</time>
      </trkpt>
      <trkpt lat="43.39662" lon="2.13665">
        <ele>628.3</ele>
        <time>2021-08-18T10:50:56Z</time>
      </trkpt>
      <trkpt lat="43.39645" lon="2.13638">
        <ele>624.9</ele>
        <time>2021-08-18T10:51:01Z</time>
      </trkpt>
      <trkpt lat="43.39647" lon="2.136">
        <ele>620.6</ele>
        <time>2021-08-18T10:51:07Z</time>
      </trkpt>
      <trkpt lat="43.39637" lon="2.13581">
        <ele>619.3</ele>
        <time>2021-08-18T10:51:12Z</time>
      </trkpt>
      <trkpt lat="43.39611" lon="2.13563">
        <ele>616.3</ele>
        <time>2021-08-18T10:51:18Z</time>
      </trkpt>
      <trkpt lat="43.39596" lon="2.13535">
        <ele>615.3</ele>
        <time>2021-08-18T10:51:24Z</time>
      </trkpt>
      <trkpt lat="43.39592" lon="2.13511">
        <ele>615.4</ele>
        <time>2021-08-18T10:51:29Z</time>
      </trkpt>
      <trkpt lat="43.39592" lon="2.13481">
        <ele>614.1</ele>
        <time>2021-08-18T10:51:34Z</time>
      </trkpt>
      <trkpt lat="43.39592" lon="2.13451">
        <ele>613.4</ele>
        <time>2021-08-18T10:51:39Z</time>
      </trkpt>
      <trkpt lat="43.39602" lon="2.13413">
        <ele>616.4</ele>
        <time>2021-08-18T10:51:44Z</time>
      </trkpt>
      <trkpt lat="43.39619" lon="2.13381">
        <ele>618.8</ele>
        <time>2021-08-18T10:51:50Z</time>
      </trkpt>
      <trkpt lat="43.39633" lon="2.13355">
        <ele>619.7</ele>
        <time>2021-08-18T10:51:55Z</time>
      </trkpt>
      <trkpt lat="43.39639" lon="2.13324">
        <ele>621.1</ele>
        <time>2021-08-18T10:52:01Z</time>
      </trkpt>
      <trkpt lat="43.39642" lon="2.13291">
        <ele>622</ele>
        <time>2021-08-18T10:52:07Z</time>
      </trkpt>
      <trkpt lat="43.39643" lon="2.13253">
        <ele>621</ele>
        <time>2021-08-18T10:52:13Z</time>
      </trkpt>
      <trkpt lat="43.39658" lon="2.13235">
        <ele>619.3</ele>
        <time>2021-08-18T10:52:19Z</time>
      </trkpt>
      <trkpt lat="43.39662" lon="2.13215">
        <ele>616.6</ele>
        <time>2021-08-18T10:52:24Z</time>
      </trkpt>
      <trkpt lat="43.3965" lon="2.13187">
        <ele>617.8</ele>
        <time>2021-08-18T10:52:30Z</time>
      </trkpt>
      <trkpt lat="43.39635" lon="2.13166">
        <ele>617.2</ele>
        <time>2021-08-18T10:52:36Z</time>
      </trkpt>
      <trkpt lat="43.39623" lon="2.13146">
        <ele>617.8</ele>
        <time>2021-08-18T10:52:42Z</time>
      </trkpt>
      <trkpt lat="43.3962" lon="2.13118">
        <ele>617</ele>
        <time>2021-08-18T10:52:48Z</time>
      </trkpt>
      <trkpt lat="43.39628" lon="2.131">
        <ele>617.9</ele>
        <time>2021-08-18T10:52:53Z</time>
      </trkpt>
      <trkpt lat="43.39645" lon="2.13083">
        <ele>616.1</ele>
        <time>2021-08-18T10:52:58Z</time>
      </trkpt>
      <trkpt lat="43.39668" lon="2.13063">
        <ele>619.2</ele>
        <time>2021-08-18T10:53:04Z</time>
      </trkpt>
      <trkpt lat="43.39693" lon="2.13039">
        <ele>619.4</ele>
        <time>2021-08-18T10:53:10Z</time>
      </trkpt>
      <trkpt lat="43.39708" lon="2.13016">
        <ele>617.1</ele>
        <time>2021-08-18T10:53:15Z</time>
      </trkpt>
      <trkpt lat="43.39729" lon="2.12985">
        <ele>616.8</ele>
        <time>2021-08-18T10:53:21Z</time>
      </trkpt>
      <trkpt lat="43.39734" lon="2.12954">
        <ele>614.5</ele>
        <time>2021-08-18T10:53:26Z</time>
      </trkpt>
      <trkpt lat="43.39724" lon="2.12919">
        <ele>614.4</ele>
        <time>2021-08-18T10:53:32Z</time>
      </trkpt>
      <trkpt lat="43.39714" lon="2.12886">
        <ele>613.9</ele>
        <time>2021-08-18T10:53:38Z</time>
      </trkpt>
      <trkpt lat="43.39715" lon="2.12864">
        <ele>613.8</ele>
        <time>2021-08-18T10:53:43Z</time>
      </trkpt>
      <trkpt lat="43.3971" lon="2.12828">
        <ele>615.9</ele>
        <time>2021-08-18T10:53:49Z</time>
      </trkpt>
      <trkpt lat="43.39705" lon="2.12794">
        <ele>616.6</ele>
        <time>2021-08-18T10:53:55Z</time>
      </trkpt>
      <trkpt lat="43.39716" lon="2.12759">
        <ele>615.7</ele>
        <time>2021-08-18T10:54:01Z</time>
      </trkpt>
      <trkpt lat="43.39724" lon="2.1272">
        <ele>616.7</ele>
        <time>2021-08-18T10:54:07Z</time>
      </trkpt>
      <trkpt lat="43.39727" lon="2.12688">
        <ele>614.9</ele>
        <time>2021-08-18T10:54:12Z</time>
      </trkpt>
      <trkpt lat="43.39725" lon="2.12645">
        <ele>617</ele>
        <time>2021-08-18T10:54:18Z</time>
      </trkpt>
      <trkpt lat="43.39714" lon="2.12616">
        <ele>619.8</ele>
        <time>2021-08-18T10:54:23Z</time>
      </trkpt>
      <trkpt lat="43.39697" lon="2.12587">
        <ele>621</ele>
        <time>2021-08-18T10:54:29Z</time>
      </trkpt>
      <trkpt lat="43.3968" lon="2.12563">
        <ele>624.5</ele>
        <time>2021-08-18T10:54:34Z</time>
      </trkpt>
      <trkpt lat="43.39664" lon="2.1253">
        <ele>624.4</ele>
        <time>2021-08-18T10:54:39Z</time>
      </trkpt>
      <trkpt lat="43.39649" lon="2.12494">
        <ele>624</ele>
        <time>2021-08-18T10:54:45Z</time>
      </trkpt>
      <trkpt lat="43.39632" lon="2.1246">
        <ele>622.7</ele>
        <time>2021-08-18T10:54:51Z</time>
      </trkpt>
      <trkpt lat="43.39615" lon="2.1244">
        <ele>619.9</ele>
        <time>2021-08-18T10:54:56Z</time>
      </trkpt>
      <trkpt lat="43.39606" lon="2.12408">
        <ele>621.3</ele>
        <time>2021-08-18T10:55:02Z</time>
      </trkpt>
      <trkpt lat="43.3962" lon="2.12384">
        <ele>620.3</ele>
        <time>2021-08-18T10:55:07Z</time>
      </trkpt>
      <trkpt lat="43.39641" lon="2.12348">
        <ele>618.7</ele>
        <time>2021-08-18T10:55:13Z</time>
      </trkpt>
      <trkpt lat="43.39657" lon="2.12322">
        <ele>617.7</ele>
        <time>2021-08-18T10:55:18Z</time>
      </trkpt>
      <trkpt lat="43.39674" lon="2.12291">
        <ele>614.4</ele>
        <time>2021-08-18T10:55:24Z</time>
      </trkpt>
      <trkpt lat="43.39689" lon="2.12265">
        <ele>606.8</ele>
        <time>2021-08-18T10:55:30Z</time>
      </trkpt>
      <trkpt lat="43.39707" lon="2.12237">
        <ele>604.1</ele>
        <time>2021-08-18T10:55:36Z</time>
      </trkpt>
      <trkpt lat="43.39728" lon="2.1222">
        <ele>606.1</ele>
        <time>2021-08-18T10:55:41Z</time>
      </trkpt>
      <trkpt lat="43.39753" lon="2.12202">
        <ele>606.1</ele>
        <time>2021-08-18T10:55:47Z</time>
      </trkpt>
      <trkpt lat="43.3977" lon="2.12177">
        <ele>606.5</ele>
        <time>2021-08-18T10:55:52Z</time>
      </trkpt>
      <trkpt lat="43.39785" lon="2.12136">
        <ele>609.6</ele>
        <time>2021-08-18T10:55:58Z</time>
      </trkpt>
      <trkpt lat="43.39791" lon="2.12102">
        <ele>611.5</ele>
        <time>2021-08-18T10:56:03Z</time>
      </trkpt>
      <trkpt lat="43.39793" lon="2.12061">
        <ele>613.5</ele>
        <time>2021-08-18T10:56:09Z</time>
      </trkpt>
      <trkpt lat="43.39795" lon="2.12028">
        <ele>613.6</ele>
        <time>2021-08-18T10:56:14Z</time>
      </trkpt>
      <trkpt lat="43.39798" lon="2.11987">
        <ele>619.5</ele>
        <time>2021-08-18T10:56:20Z</time>
      </trkpt>
      <trkpt lat="43.39801" lon="2.11951">
        <ele>619.3</ele>
        <time>2021-08-18T10:56:25Z</time>
      </trkpt>
      <trkpt lat="43.398" lon="2.11913">
        <ele>624.7</ele>
        <time>2021-08-18T10:56:31Z</time>
      </trkpt>
      <trkpt lat="43.39795" lon="2.11875">
        <ele>622.4</ele>
        <time>2021-08-18T10:56:37Z</time>
      </trkpt>
      <trkpt lat="43.39786" lon="2.11843">
        <ele>621.1</ele>
        <time>2021-08-18T10:56:42Z</time>
      </trkpt>
      <trkpt lat="43.39766" lon="2.11804">
        <ele>621</ele>
        <time>2021-08-18T10:56:48Z</time>
      </trkpt>
      <trkpt lat="43.39759" lon="2.11757">
        <ele>618.9</ele>
        <time>2021-08-18T10:56:54Z</time>
      </trkpt>
      <trkpt lat="43.39762" lon="2.11718">
        <ele>617.1</ele>
        <time>2021-08-18T10:56:59Z</time>
      </trkpt>
      <trkpt lat="43.39762" lon="2.11673">
        <ele>617.3</ele>
        <time>2021-08-18T10:57:05Z</time>
      </trkpt>
      <trkpt lat="43.39761" lon="2.11631">
        <ele>617.1</ele>
        <time>2021-08-18T10:57:11Z</time>
      </trkpt>
      <trkpt lat="43.39749" lon="2.11592">
        <ele>619.1</ele>
        <time>2021-08-18T10:57:17Z</time>
      </trkpt>
      <trkpt lat="43.3974" lon="2.11552">
        <ele>618.7</ele>
        <time>2021-08-18T10:57:23Z</time>
      </trkpt>
      <trkpt lat="43.39734" lon="2.11514">
        <ele>617.8</ele>
        <time>2021-08-18T10:57:28Z</time>
      </trkpt>
      <trkpt lat="43.39718" lon="2.11474">
        <ele>615.4</ele>
        <time>2021-08-18T10:57:34Z</time>
      </trkpt>
      <trkpt lat="43.39697" lon="2.1146">
        <ele>614.8</ele>
        <time>2021-08-18T10:57:39Z</time>
      </trkpt>
      <trkpt lat="43.39668" lon="2.11454">
        <ele>612.9</ele>
        <time>2021-08-18T10:57:45Z</time>
      </trkpt>
      <trkpt lat="43.39645" lon="2.11442">
        <ele>611.9</ele>
        <time>2021-08-18T10:57:50Z</time>
      </trkpt>
      <trkpt lat="43.39619" lon="2.11432">
        <ele>611.9</ele>
        <time>2021-08-18T10:57:55Z</time>
      </trkpt>
      <trkpt lat="43.39589" lon="2.11427">
        <ele>608.9</ele>
        <time>2021-08-18T10:58:01Z</time>
      </trkpt>
      <trkpt lat="43.3956" lon="2.11403">
        <ele>607.1</ele>
        <time>2021-08-18T10:58:07Z</time>
      </trkpt>
      <trkpt lat="43.39539" lon="2.11376">
        <ele>606.2</ele>
        <time>2021-08-18T10:58:12Z</time>
      </trkpt>
      <trkpt lat="43.39519" lon="2.11355">
        <ele>601.6</ele>
        <time>2021-08-18T10:58:18Z</time>
      </trkpt>
      <trkpt lat="43.39488" lon="2.11323">
        <ele>596.1</ele>
        <time>2021-08-18T10:58:24Z</time>
      </trkpt>
      <trkpt lat="43.39475" lon="2.11285">
        <ele>595.8</ele>
        <time>2021-08-18T10:58:30Z</time>
      </trkpt>
      <trkpt lat="43.39469" lon="2.11244">
        <ele>594.5</ele>
        <time>2021-08-18T10:58:36Z</time>
      </trkpt>
      <trkpt lat="43.39463" lon="2.11204">
        <ele>591.4</ele>
        <time>2021-08-18T10:58:42Z</time>
      </trkpt>
      <trkpt lat="43.39461" lon="2.11155">
        <ele>591.3</ele>
        <time>2021-08-18T10:58:48Z</time>
      </trkpt>
      <trkpt lat="43.39457" lon="2.11107">
        <ele>592.1</ele>
        <time>2021-08-18T10:58:54Z</time>
      </trkpt>
      <trkpt lat="43.39451" lon="2.11063">
        <ele>592.3</ele>
        <time>2021-08-18T10:59:00Z</time>
      </trkpt>
      <trkpt lat="43.39448" lon="2.11027">
        <ele>592.7</ele>
        <time>2021-08-18T10:59:05Z</time>
      </trkpt>
      <trkpt lat="43.39441" lon="2.10998">
        <ele>594.3</ele>
        <time>2021-08-18T10:59:10Z</time>
      </trkpt>
      <trkpt lat="43.39441" lon="2.10962">
        <ele>593.2</ele>
        <time>2021-08-18T10:59:15Z</time>
      </trkpt>
      <trkpt lat="43.39439" lon="2.1092">
        <ele>592.8</ele>
        <time>2021-08-18T10:59:21Z</time>
      </trkpt>
      <trkpt lat="43.39446" lon="2.10878">
        <ele>594.5</ele>
        <time>2021-08-18T10:59:26Z</time>
      </trkpt>
      <trkpt lat="43.39461" lon="2.1085">
        <ele>590.4</ele>
        <time>2021-08-18T10:59:32Z</time>
      </trkpt>
      <trkpt lat="43.39485" lon="2.10819">
        <ele>590.7</ele>
        <time>2021-08-18T10:59:38Z</time>
      </trkpt>
      <trkpt lat="43.39501" lon="2.10803">
        <ele>590.7</ele>
        <time>2021-08-18T10:59:43Z</time>
      </trkpt>
      <trkpt lat="43.39504" lon="2.10757">
        <ele>593.1</ele>
        <time>2021-08-18T10:59:49Z</time>
      </trkpt>
      <trkpt lat="43.39486" lon="2.10713">
        <ele>592.2</ele>
        <time>2021-08-18T10:59:54Z</time>
      </trkpt>
      <trkpt lat="43.39491" lon="2.10666">
        <ele>586.8</ele>
        <time>2021-08-18T10:59:59Z</time>
      </trkpt>
      <trkpt lat="43.39502" lon="2.10627">
        <ele>586.2</ele>
        <time>2021-08-18T11:00:04Z</time>
      </trkpt>
      <trkpt lat="43.3951" lon="2.10592">
        <ele>587</ele>
        <time>2021-08-18T11:00:10Z</time>
      </trkpt>
      <trkpt lat="43.39514" lon="2.10561">
        <ele>587.8</ele>
        <time>2021-08-18T11:00:15Z</time>
      </trkpt>
      <trkpt lat="43.39519" lon="2.10526">
        <ele>586.7</ele>
        <time>2021-08-18T11:00:21Z</time>
      </trkpt>
      <trkpt lat="43.39524" lon="2.10496">
        <ele>589.5</ele>
        <time>2021-08-18T11:00:26Z</time>
      </trkpt>
      <trkpt lat="43.39536" lon="2.10473">
        <ele>587.6</ele>
        <time>2021-08-18T11:00:31Z</time>
      </trkpt>
      <trkpt lat="43.39553" lon="2.10436">
        <ele>586.1</ele>
        <time>2021-08-18T11:00:37Z</time>
      </trkpt>
      <trkpt lat="43.39568" lon="2.10393">
        <ele>583.8</ele>
        <time>2021-08-18T11:00:43Z</time>
      </trkpt>
      <trkpt lat="43.39576" lon="2.1035">
        <ele>584.1</ele>
        <time>2021-08-18T11:00:49Z</time>
      </trkpt>
      <trkpt lat="43.3958" lon="2.10308">
        <ele>585.1</ele>
        <time>2021-08-18T11:00:55Z</time>
      </trkpt>
      <trkpt lat="43.39579" lon="2.1027">
        <ele>584.2</ele>
        <time>2021-08-18T11:01:00Z</time>
      </trkpt>
      <trkpt lat="43.3958" lon="2.10231">
        <ele>584.3</ele>
        <time>2021-08-18T11:01:06Z</time>
      </trkpt>
      <trkpt lat="43.39593" lon="2.10196">
        <ele>585.6</ele>
        <time>2021-08-18T11:01:11Z</time>
      </trkpt>
      <trkpt lat="43.396" lon="2.10162">
        <ele>584</ele>
        <time>2021-08-18T11:01:17Z</time>
      </trkpt>
      <trkpt lat="43.39605" lon="2.1013">
        <ele>584.6</ele>
        <time>2021-08-18T11:01:22Z</time>
      </trkpt>
      <trkpt lat="43.39607" lon="2.10096">
        <ele>585.3</ele>
        <time>2021-08-18T11:01:27Z</time>
      </trkpt>
      <trkpt lat="43.39612" lon="2.10052">
        <ele>585.8</ele>
        <time>2021-08-18T11:01:33Z</time>
      </trkpt>
      <trkpt lat="43.3961" lon="2.10008">
        <ele>584.5</ele>
        <time>2021-08-18T11:01:39Z</time>
      </trkpt>
      <trkpt lat="43.39603" lon="2.09969">
        <ele>584.7</ele>
        <time>2021-08-18T11:01:45Z</time>
      </trkpt>
      <trkpt lat="43.39602" lon="2.09937">
        <ele>586.5</ele>
        <time>2021-08-18T11:01:50Z</time>
      </trkpt>
      <trkpt lat="43.39607" lon="2.0989">
        <ele>584.6</ele>
        <time>2021-08-18T11:01:56Z</time>
      </trkpt>
      <trkpt lat="43.39609" lon="2.09845">
        <ele>583.1</ele>
        <time>2021-08-18T11:02:02Z</time>
      </trkpt>
      <trkpt lat="43.39613" lon="2.09806">
        <ele>579.5</ele>
        <time>2021-08-18T11:02:07Z</time>
      </trkpt>
      <trkpt lat="43.39611" lon="2.09756">
        <ele>583.3</ele>
        <time>2021-08-18T11:02:13Z</time>
      </trkpt>
      <trkpt lat="43.39616" lon="2.09709">
        <ele>582.4</ele>
        <time>2021-08-18T11:02:19Z</time>
      </trkpt>
      <trkpt lat="43.39624" lon="2.0967">
        <ele>585.5</ele>
        <time>2021-08-18T11:02:25Z</time>
      </trkpt>
      <trkpt lat="43.39633" lon="2.09626">
        <ele>588</ele>
        <time>2021-08-18T11:02:31Z</time>
      </trkpt>
      <trkpt lat="43.39646" lon="2.09597">
        <ele>588.5</ele>
        <time>2021-08-18T11:02:36Z</time>
      </trkpt>
      <trkpt lat="43.39667" lon="2.09564">
        <ele>590.1</ele>
        <time>2021-08-18T11:02:42Z</time>
      </trkpt>
      <trkpt lat="43.39692" lon="2.09545">
        <ele>591.5</ele>
        <time>2021-08-18T11:02:48Z</time>
      </trkpt>
      <trkpt lat="43.39715" lon="2.09535">
        <ele>593.7</ele>
        <time>2021-08-18T11:02:53Z</time>
      </trkpt>
      <trkpt lat="43.39737" lon="2.09532">
        <ele>593.5</ele>
        <time>2021-08-18T11:02:58Z</time>
      </trkpt>
      <trkpt lat="43.39756" lon="2.09538">
        <ele>593</ele>
        <time>2021-08-18T11:03:04Z</time>
      </trkpt>
      <trkpt lat="43.39772" lon="2.09548">
        <ele>596.1</ele>
        <time>2021-08-18T11:03:09Z</time>
      </trkpt>
      <trkpt lat="43.39784" lon="2.09581">
        <ele>598.7</ele>
        <time>2021-08-18T11:03:15Z</time>
      </trkpt>
      <trkpt lat="43.39791" lon="2.09613">
        <ele>599.1</ele>
        <time>2021-08-18T11:03:20Z</time>
      </trkpt>
      <trkpt lat="43.39798" lon="2.09645">
        <ele>599.6</ele>
        <time>2021-08-18T11:03:25Z</time>
      </trkpt>
      <trkpt lat="43.39806" lon="2.09677">
        <ele>597.7</ele>
        <time>2021-08-18T11:03:31Z</time>
      </trkpt>
      <trkpt lat="43.39817" lon="2.09708">
        <ele>597.3</ele>
        <time>2021-08-18T11:03:36Z</time>
      </trkpt>
      <trkpt lat="43.39835" lon="2.09744">
        <ele>595.3</ele>
        <time>2021-08-18T11:03:42Z</time>
      </trkpt>
      <trkpt lat="43.39852" lon="2.09775">
        <ele>596.3</ele>
        <time>2021-08-18T11:03:47Z</time>
      </trkpt>
      <trkpt lat="43.39877" lon="2.09766">
        <ele>598.6</ele>
        <time>2021-08-18T11:03:53Z</time>
      </trkpt>
      <trkpt lat="43.399" lon="2.09742">
        <ele>597.7</ele>
        <time>2021-08-18T11:03:59Z</time>
      </trkpt>
      <trkpt lat="43.39926" lon="2.09718">
        <ele>597.1</ele>
        <time>2021-08-18T11:04:05Z</time>
      </trkpt>
      <trkpt lat="43.39944" lon="2.097">
        <ele>597.6</ele>
        <time>2021-08-18T11:04:10Z</time>
      </trkpt>
      <trkpt lat="43.39971" lon="2.0967">
        <ele>602.7</ele>
        <time>2021-08-18T11:04:16Z</time>
      </trkpt>
      <trkpt lat="43.39984" lon="2.09642">
        <ele>601.9</ele>
        <time>2021-08-18T11:04:21Z</time>
      </trkpt>
      <trkpt lat="43.39992" lon="2.09608">
        <ele>602.3</ele>
        <time>2021-08-18T11:04:26Z</time>
      </trkpt>
      <trkpt lat="43.39995" lon="2.09563">
        <ele>595.6</ele>
        <time>2021-08-18T11:04:32Z</time>
      </trkpt>
      <trkpt lat="43.40002" lon="2.09529">
        <ele>595.2</ele>
        <time>2021-08-18T11:04:37Z</time>
      </trkpt>
      <trkpt lat="43.40015" lon="2.09503">
        <ele>594.9</ele>
        <time>2021-08-18T11:04:43Z</time>
      </trkpt>
      <trkpt lat="43.40026" lon="2.09477">
        <ele>592.1</ele>
        <time>2021-08-18T11:04:49Z</time>
      </trkpt>
      <trkpt lat="43.40036" lon="2.09451">
        <ele>586.8</ele>
        <time>2021-08-18T11:04:54Z</time>
      </trkpt>
      <trkpt lat="43.40049" lon="2.09423">
        <ele>583.4</ele>
        <time>2021-08-18T11:04:59Z</time>
      </trkpt>
      <trkpt lat="43.4007" lon="2.09398">
        <ele>581.8</ele>
        <time>2021-08-18T11:05:04Z</time>
      </trkpt>
      <trkpt lat="43.40097" lon="2.09383">
        <ele>583.1</ele>
        <time>2021-08-18T11:05:10Z</time>
      </trkpt>
      <trkpt lat="43.40124" lon="2.0939">
        <ele>582</ele>
        <time>2021-08-18T11:05:16Z</time>
      </trkpt>
      <trkpt lat="43.40146" lon="2.09413">
        <ele>583.1</ele>
        <time>2021-08-18T11:05:22Z</time>
      </trkpt>
      <trkpt lat="43.40172" lon="2.09421">
        <ele>586.5</ele>
        <time>2021-08-18T11:05:28Z</time>
      </trkpt>
      <trkpt lat="43.40205" lon="2.0941">
        <ele>588.2</ele>
        <time>2021-08-18T11:05:34Z</time>
      </trkpt>
      <trkpt lat="43.40233" lon="2.09395">
        <ele>587.3</ele>
        <time>2021-08-18T11:05:39Z</time>
      </trkpt>
      <trkpt lat="43.40262" lon="2.09383">
        <ele>590.3</ele>
        <time>2021-08-18T11:05:45Z</time>
      </trkpt>
      <trkpt lat="43.4029" lon="2.09369">
        <ele>589.8</ele>
        <time>2021-08-18T11:05:51Z</time>
      </trkpt>
      <trkpt lat="43.40315" lon="2.09346">
        <ele>591.4</ele>
        <time>2021-08-18T11:05:57Z</time>
      </trkpt>
      <trkpt lat="43.40332" lon="2.0932">
        <ele>593.5</ele>
        <time>2021-08-18T11:06:02Z</time>
      </trkpt>
      <trkpt lat="43.40355" lon="2.09292">
        <ele>597</ele>
        <time>2021-08-18T11:06:08Z</time>
      </trkpt>
      <trkpt lat="43.40373" lon="2.09263">
        <ele>596.8</ele>
        <time>2021-08-18T11:06:14Z</time>
      </trkpt>
      <trkpt lat="43.40384" lon="2.09233">
        <ele>595.2</ele>
        <time>2021-08-18T11:06:19Z</time>
      </trkpt>
      <trkpt lat="43.40403" lon="2.09221">
        <ele>594.7</ele>
        <time>2021-08-18T11:06:25Z</time>
      </trkpt>
      <trkpt lat="43.40421" lon="2.09231">
        <ele>594.4</ele>
        <time>2021-08-18T11:06:30Z</time>
      </trkpt>
      <trkpt lat="43.40438" lon="2.09251">
        <ele>596.2</ele>
        <time>2021-08-18T11:06:36Z</time>
      </trkpt>
      <trkpt lat="43.4045" lon="2.09278">
        <ele>596.5</ele>
        <time>2021-08-18T11:06:41Z</time>
      </trkpt>
      <trkpt lat="43.40462" lon="2.09318">
        <ele>599.6</ele>
        <time>2021-08-18T11:06:47Z</time>
      </trkpt>
      <trkpt lat="43.40477" lon="2.09335">
        <ele>597</ele>
        <time>2021-08-18T11:06:52Z</time>
      </trkpt>
      <trkpt lat="43.40499" lon="2.09327">
        <ele>598.6</ele>
        <time>2021-08-18T11:06:58Z</time>
      </trkpt>
      <trkpt lat="43.40525" lon="2.09305">
        <ele>597.8</ele>
        <time>2021-08-18T11:07:04Z</time>
      </trkpt>
      <trkpt lat="43.40542" lon="2.09275">
        <ele>586.6</ele>
        <time>2021-08-18T11:07:10Z</time>
      </trkpt>
      <trkpt lat="43.40563" lon="2.09249">
        <ele>586.3</ele>
        <time>2021-08-18T11:07:16Z</time>
      </trkpt>
      <trkpt lat="43.40575" lon="2.09225">
        <ele>584.2</ele>
        <time>2021-08-18T11:07:21Z</time>
      </trkpt>
      <trkpt lat="43.40587" lon="2.09198">
        <ele>584.8</ele>
        <time>2021-08-18T11:07:27Z</time>
      </trkpt>
      <trkpt lat="43.40594" lon="2.09171">
        <ele>580.9</ele>
        <time>2021-08-18T11:07:32Z</time>
      </trkpt>
      <trkpt lat="43.40607" lon="2.0913">
        <ele>579.2</ele>
        <time>2021-08-18T11:07:38Z</time>
      </trkpt>
      <trkpt lat="43.40618" lon="2.09096">
        <ele>577.6</ele>
        <time>2021-08-18T11:07:43Z</time>
      </trkpt>
      <trkpt lat="43.40627" lon="2.09064">
        <ele>575.7</ele>
        <time>2021-08-18T11:07:48Z</time>
      </trkpt>
      <trkpt lat="43.40642" lon="2.09023">
        <ele>571.8</ele>
        <time>2021-08-18T11:07:54Z</time>
      </trkpt>
      <trkpt lat="43.40662" lon="2.08981">
        <ele>574.2</ele>
        <time>2021-08-18T11:08:00Z</time>
      </trkpt>
      <trkpt lat="43.40681" lon="2.08941">
        <ele>570.3</ele>
        <time>2021-08-18T11:08:06Z</time>
      </trkpt>
      <trkpt lat="43.40702" lon="2.08906">
        <ele>569.7</ele>
        <time>2021-08-18T11:08:12Z</time>
      </trkpt>
      <trkpt lat="43.40719" lon="2.08865">
        <ele>570.7</ele>
        <time>2021-08-18T11:08:18Z</time>
      </trkpt>
      <trkpt lat="43.40747" lon="2.08863">
        <ele>574.9</ele>
        <time>2021-08-18T11:08:24Z</time>
      </trkpt>
      <trkpt lat="43.40758" lon="2.08892">
        <ele>574.2</ele>
        <time>2021-08-18T11:08:30Z</time>
      </trkpt>
      <trkpt lat="43.40764" lon="2.08916">
        <ele>571.9</ele>
        <time>2021-08-18T11:08:35Z</time>
      </trkpt>
      <trkpt lat="43.40765" lon="2.08949">
        <ele>571.4</ele>
        <time>2021-08-18T11:08:41Z</time>
      </trkpt>
      <trkpt lat="43.40763" lon="2.08984">
        <ele>571.9</ele>
        <time>2021-08-18T11:08:46Z</time>
      </trkpt>
      <trkpt lat="43.40757" lon="2.09029">
        <ele>573.7</ele>
        <time>2021-08-18T11:08:52Z</time>
      </trkpt>
      <trkpt lat="43.40745" lon="2.0907">
        <ele>574.5</ele>
        <time>2021-08-18T11:08:58Z</time>
      </trkpt>
      <trkpt lat="43.40739" lon="2.09111">
        <ele>576.4</ele>
        <time>2021-08-18T11:09:04Z</time>
      </trkpt>
      <trkpt lat="43.40739" lon="2.09151">
        <ele>576.9</ele>
        <time>2021-08-18T11:09:09Z</time>
      </trkpt>
      <trkpt lat="43.40752" lon="2.09175">
        <ele>576.5</ele>
        <time>2021-08-18T11:09:14Z</time>
      </trkpt>
      <trkpt lat="43.40771" lon="2.09157">
        <ele>580.2</ele>
        <time>2021-08-18T11:09:20Z</time>
      </trkpt>
      <trkpt lat="43.40782" lon="2.09128">
        <ele>581.1</ele>
        <time>2021-08-18T11:09:26Z</time>
      </trkpt>
      <trkpt lat="43.40787" lon="2.09098">
        <ele>581.7</ele>
        <time>2021-08-18T11:09:32Z</time>
      </trkpt>
      <trkpt lat="43.40794" lon="2.09075">
        <ele>583.6</ele>
        <time>2021-08-18T11:09:37Z</time>
      </trkpt>
      <trkpt lat="43.40806" lon="2.0904">
        <ele>586.1</ele>
        <time>2021-08-18T11:09:43Z</time>
      </trkpt>
      <trkpt lat="43.40812" lon="2.09009">
        <ele>586.3</ele>
        <time>2021-08-18T11:09:48Z</time>
      </trkpt>
      <trkpt lat="43.40832" lon="2.08959">
        <ele>583.5</ele>
        <time>2021-08-18T11:09:54Z</time>
      </trkpt>
      <trkpt lat="43.40849" lon="2.08929">
        <ele>578.9</ele>
        <time>2021-08-18T11:10:00Z</time>
      </trkpt>
      <trkpt lat="43.4086" lon="2.08901">
        <ele>580.3</ele>
        <time>2021-08-18T11:10:06Z</time>
      </trkpt>
      <trkpt lat="43.40867" lon="2.08873">
        <ele>578.5</ele>
        <time>2021-08-18T11:10:11Z</time>
      </trkpt>
      <trkpt lat="43.40872" lon="2.0886">
        <ele>580.9</ele>
        <time>2021-08-18T11:10:17Z</time>
      </trkpt>
      <trkpt lat="43.40873" lon="2.08859">
        <ele>579.6</ele>
        <time>2021-08-18T11:10:23Z</time>
      </trkpt>
      <trkpt lat="43.40873" lon="2.08859">
        <ele>578.9</ele>
        <time>2021-08-18T11:10:28Z</time>
      </trkpt>
      <trkpt lat="43.40873" lon="2.08859">
        <ele>579.4</ele>
        <time>2021-08-18T11:10:34Z</time>
      </trkpt>
      <trkpt lat="43.40873" lon="2.08859">
        <ele>578.8</ele>
        <time>2021-08-18T11:10:39Z</time>
      </trkpt>
      <trkpt lat="43.40882" lon="2.08846">
        <ele>579.9</ele>
        <time>2021-08-18T11:10:45Z</time>
      </trkpt>
      <trkpt lat="43.40891" lon="2.08835">
        <ele>582.2</ele>
        <time>2021-08-18T11:10:50Z</time>
      </trkpt>
      <trkpt lat="43.40903" lon="2.08819">
        <ele>584.8</ele>
        <time>2021-08-18T11:10:56Z</time>
      </trkpt>
      <trkpt lat="43.4091" lon="2.08808">
        <ele>588.6</ele>
        <time>2021-08-18T11:11:01Z</time>
      </trkpt>
      <trkpt lat="43.40917" lon="2.08789">
        <ele>590.7</ele>
        <time>2021-08-18T11:11:06Z</time>
      </trkpt>
      <trkpt lat="43.40917" lon="2.08766">
        <ele>591.4</ele>
        <time>2021-08-18T11:11:11Z</time>
      </trkpt>
      <trkpt lat="43.40909" lon="2.08741">
        <ele>591.4</ele>
        <time>2021-08-18T11:11:17Z</time>
      </trkpt>
      <trkpt lat="43.40905" lon="2.08713">
        <ele>592.5</ele>
        <time>2021-08-18T11:11:23Z</time>
      </trkpt>
      <trkpt lat="43.40913" lon="2.08694">
        <ele>594.9</ele>
        <time>2021-08-18T11:11:28Z</time>
      </trkpt>
      <trkpt lat="43.4093" lon="2.08664">
        <ele>597.7</ele>
        <time>2021-08-18T11:11:34Z</time>
      </trkpt>
      <trkpt lat="43.40951" lon="2.08627">
        <ele>598.5</ele>
        <time>2021-08-18T11:11:40Z</time>
      </trkpt>
      <trkpt lat="43.4096" lon="2.086">
        <ele>598.6</ele>
        <time>2021-08-18T11:11:45Z</time>
      </trkpt>
      <trkpt lat="43.40966" lon="2.08558">
        <ele>595.2</ele>
        <time>2021-08-18T11:11:51Z</time>
      </trkpt>
      <trkpt lat="43.40966" lon="2.08525">
        <ele>596.6</ele>
        <time>2021-08-18T11:11:56Z</time>
      </trkpt>
      <trkpt lat="43.40955" lon="2.08502">
        <ele>593.6</ele>
        <time>2021-08-18T11:12:01Z</time>
      </trkpt>
      <trkpt lat="43.40938" lon="2.0849">
        <ele>593.8</ele>
        <time>2021-08-18T11:12:06Z</time>
      </trkpt>
      <trkpt lat="43.40913" lon="2.08486">
        <ele>592.7</ele>
        <time>2021-08-18T11:12:12Z</time>
      </trkpt>
      <trkpt lat="43.40892" lon="2.08475">
        <ele>588</ele>
        <time>2021-08-18T11:12:17Z</time>
      </trkpt>
      <trkpt lat="43.40875" lon="2.08449">
        <ele>589.5</ele>
        <time>2021-08-18T11:12:22Z</time>
      </trkpt>
      <trkpt lat="43.40879" lon="2.08418">
        <ele>587.3</ele>
        <time>2021-08-18T11:12:28Z</time>
      </trkpt>
      <trkpt lat="43.40902" lon="2.08418">
        <ele>588.6</ele>
        <time>2021-08-18T11:12:33Z</time>
      </trkpt>
      <trkpt lat="43.40923" lon="2.08413">
        <ele>586.8</ele>
        <time>2021-08-18T11:12:38Z</time>
      </trkpt>
      <trkpt lat="43.40943" lon="2.08408">
        <ele>587.3</ele>
        <time>2021-08-18T11:12:43Z</time>
      </trkpt>
      <trkpt lat="43.40966" lon="2.08386">
        <ele>583.9</ele>
        <time>2021-08-18T11:12:49Z</time>
      </trkpt>
      <trkpt lat="43.40968" lon="2.08351">
        <ele>585.1</ele>
        <time>2021-08-18T11:12:55Z</time>
      </trkpt>
      <trkpt lat="43.40968" lon="2.08323">
        <ele>585.7</ele>
        <time>2021-08-18T11:13:01Z</time>
      </trkpt>
      <trkpt lat="43.40976" lon="2.08289">
        <ele>585.8</ele>
        <time>2021-08-18T11:13:07Z</time>
      </trkpt>
      <trkpt lat="43.40976" lon="2.08263">
        <ele>593.7</ele>
        <time>2021-08-18T11:13:12Z</time>
      </trkpt>
      <trkpt lat="43.40977" lon="2.08253">
        <ele>598</ele>
        <time>2021-08-18T11:13:18Z</time>
      </trkpt>
      <trkpt lat="43.40977" lon="2.08253">
        <ele>598.4</ele>
        <time>2021-08-18T11:13:23Z</time>
      </trkpt>
      <trkpt lat="43.40977" lon="2.08253">
        <ele>598.4</ele>
        <time>2021-08-18T11:13:29Z</time>
      </trkpt>
      <trkpt lat="43.40977" lon="2.08253">
        <ele>597.2</ele>
        <time>2021-08-18T11:13:35Z</time>
      </trkpt>
      <trkpt lat="43.40977" lon="2.08253">
        <ele>597.4</ele>
        <time>2021-08-18T11:13:41Z</time>
      </trkpt>
      <trkpt lat="43.40977" lon="2.08253">
        <ele>599</ele>
        <time>2021-08-18T11:13:46Z</time>
      </trkpt>
      <trkpt lat="43.4098" lon="2.0825">
        <ele>596.6</ele>
        <time>2021-08-18T11:13:52Z</time>
      </trkpt>
      <trkpt lat="43.40985" lon="2.08246">
        <ele>594.8</ele>
        <time>2021-08-18T11:13:57Z</time>
      </trkpt>
      <trkpt lat="43.40985" lon="2.08246">
        <ele>596.1</ele>
        <time>2021-08-18T11:14:03Z</time>
      </trkpt>
      <trkpt lat="43.40985" lon="2.08246">
        <ele>596</ele>
        <time>2021-08-18T11:14:09Z</time>
      </trkpt>
      <trkpt lat="43.40985" lon="2.08246">
        <ele>596.7</ele>
        <time>2021-08-18T11:14:14Z</time>
      </trkpt>
      <trkpt lat="43.40985" lon="2.08246">
        <ele>594.8</ele>
        <time>2021-08-18T11:14:20Z</time>
      </trkpt>
      <trkpt lat="43.40985" lon="2.08246">
        <ele>595</ele>
        <time>2021-08-18T11:14:25Z</time>
      </trkpt>
      <trkpt lat="43.40985" lon="2.08246">
        <ele>597.2</ele>
        <time>2021-08-18T11:14:30Z</time>
      </trkpt>
      <trkpt lat="43.40985" lon="2.08246">
        <ele>595.7</ele>
        <time>2021-08-18T11:14:36Z</time>
      </trkpt>
      <trkpt lat="43.40977" lon="2.08239">
        <ele>594.8</ele>
        <time>2021-08-18T11:14:41Z</time>
      </trkpt>
      <trkpt lat="43.40979" lon="2.08236">
        <ele>592.4</ele>
        <time>2021-08-18T11:14:47Z</time>
      </trkpt>
      <trkpt lat="43.4098" lon="2.08216">
        <ele>591.8</ele>
        <time>2021-08-18T11:14:53Z</time>
      </trkpt>
      <trkpt lat="43.40982" lon="2.082">
        <ele>591.7</ele>
        <time>2021-08-18T11:14:59Z</time>
      </trkpt>
      <trkpt lat="43.40985" lon="2.08184">
        <ele>590.8</ele>
        <time>2021-08-18T11:15:04Z</time>
      </trkpt>
      <trkpt lat="43.40986" lon="2.08167">
        <ele>587.4</ele>
        <time>2021-08-18T11:15:10Z</time>
      </trkpt>
      <trkpt lat="43.40988" lon="2.08155">
        <ele>587.1</ele>
        <time>2021-08-18T11:15:15Z</time>
      </trkpt>
      <trkpt lat="43.40989" lon="2.08145">
        <ele>586.1</ele>
        <time>2021-08-18T11:15:20Z</time>
      </trkpt>
      <trkpt lat="43.40992" lon="2.0813">
        <ele>588.5</ele>
        <time>2021-08-18T11:15:26Z</time>
      </trkpt>
      <trkpt lat="43.4099" lon="2.08116">
        <ele>587.2</ele>
        <time>2021-08-18T11:15:31Z</time>
      </trkpt>
      <trkpt lat="43.40986" lon="2.08099">
        <ele>588</ele>
        <time>2021-08-18T11:15:37Z</time>
      </trkpt>
      <trkpt lat="43.40982" lon="2.08082">
        <ele>589</ele>
        <time>2021-08-18T11:15:43Z</time>
      </trkpt>
      <trkpt lat="43.40983" lon="2.08071">
        <ele>590.6</ele>
        <time>2021-08-18T11:15:48Z</time>
      </trkpt>
      <trkpt lat="43.40982" lon="2.08058">
        <ele>592.6</ele>
        <time>2021-08-18T11:15:54Z</time>
      </trkpt>
      <trkpt lat="43.4098" lon="2.08047">
        <ele>590.7</ele>
        <time>2021-08-18T11:16:00Z</time>
      </trkpt>
      <trkpt lat="43.40974" lon="2.08045">
        <ele>598.4</ele>
        <time>2021-08-18T11:16:06Z</time>
      </trkpt>
      <trkpt lat="43.4097" lon="2.08038">
        <ele>600.2</ele>
        <time>2021-08-18T11:16:12Z</time>
      </trkpt>
      <trkpt lat="43.40969" lon="2.08016">
        <ele>598.7</ele>
        <time>2021-08-18T11:16:18Z</time>
      </trkpt>
      <trkpt lat="43.40966" lon="2.07993">
        <ele>595.3</ele>
        <time>2021-08-18T11:16:24Z</time>
      </trkpt>
      <trkpt lat="43.40963" lon="2.07987">
        <ele>595.7</ele>
        <time>2021-08-18T11:16:29Z</time>
      </trkpt>
      <trkpt lat="43.40952" lon="2.07983">
        <ele>596.7</ele>
        <time>2021-08-18T11:16:35Z</time>
      </trkpt>
      <trkpt lat="43.40948" lon="2.07979">
        <ele>595.4</ele>
        <time>2021-08-18T11:16:41Z</time>
      </trkpt>
      <trkpt lat="43.40945" lon="2.07957">
        <ele>594.5</ele>
        <time>2021-08-18T11:16:46Z</time>
      </trkpt>
      <trkpt lat="43.40945" lon="2.07924">
        <ele>590.9</ele>
        <time>2021-08-18T11:16:52Z</time>
      </trkpt>
      <trkpt lat="43.40941" lon="2.07885">
        <ele>588.5</ele>
        <time>2021-08-18T11:16:58Z</time>
      </trkpt>
      <trkpt lat="43.40939" lon="2.07851">
        <ele>584.6</ele>
        <time>2021-08-18T11:17:03Z</time>
      </trkpt>
      <trkpt lat="43.40939" lon="2.07806">
        <ele>580.9</ele>
        <time>2021-08-18T11:17:09Z</time>
      </trkpt>
      <trkpt lat="43.4094" lon="2.07766">
        <ele>579.9</ele>
        <time>2021-08-18T11:17:15Z</time>
      </trkpt>
      <trkpt lat="43.40942" lon="2.0773">
        <ele>578.3</ele>
        <time>2021-08-18T11:17:21Z</time>
      </trkpt>
      <trkpt lat="43.40944" lon="2.07715">
        <ele>578</ele>
        <time>2021-08-18T11:17:27Z</time>
      </trkpt>
      <trkpt lat="43.40947" lon="2.07716">
        <ele>578.5</ele>
        <time>2021-08-18T11:17:32Z</time>
      </trkpt>
      <trkpt lat="43.40947" lon="2.07716">
        <ele>576.8</ele>
        <time>2021-08-18T11:17:38Z</time>
      </trkpt>
      <trkpt lat="43.40947" lon="2.07716">
        <ele>576.8</ele>
        <time>2021-08-18T11:17:43Z</time>
      </trkpt>
      <trkpt lat="43.40947" lon="2.07716">
        <ele>577.2</ele>
        <time>2021-08-18T11:17:48Z</time>
      </trkpt>
      <trkpt lat="43.40947" lon="2.07716">
        <ele>576.7</ele>
        <time>2021-08-18T11:17:54Z</time>
      </trkpt>
      <trkpt lat="43.40947" lon="2.07716">
        <ele>576.2</ele>
        <time>2021-08-18T11:18:00Z</time>
      </trkpt>
      <trkpt lat="43.40947" lon="2.07716">
        <ele>576.5</ele>
        <time>2021-08-18T11:18:05Z</time>
      </trkpt>
      <trkpt lat="43.40947" lon="2.07716">
        <ele>576.3</ele>
        <time>2021-08-18T11:18:11Z</time>
      </trkpt>
      <trkpt lat="43.40947" lon="2.07716">
        <ele>576.3</ele>
        <time>2021-08-18T11:18:16Z</time>
      </trkpt>
      <trkpt lat="43.40947" lon="2.07716">
        <ele>576.4</ele>
        <time>2021-08-18T11:18:21Z</time>
      </trkpt>
      <trkpt lat="43.40947" lon="2.07716">
        <ele>646.9</ele>
        <time>2021-08-18T11:18:26Z</time>
      </trkpt>
      <trkpt lat="43.40947" lon="2.07716">
        <ele>646.9</ele>
        <time>2021-08-18T11:18:32Z</time>
      </trkpt>
      <trkpt lat="43.40947" lon="2.07716">
        <ele>646.9</ele>
        <time>2021-08-18T11:18:38Z</time>
      </trkpt>
      <trkpt lat="43.40947" lon="2.07716">
        <ele>645.6</ele>
        <time>2021-08-18T11:18:44Z</time>
      </trkpt>
      <trkpt lat="43.40947" lon="2.07716">
        <ele>645.6</ele>
        <time>2021-08-18T11:18:49Z</time>
      </trkpt>
      <trkpt lat="43.40947" lon="2.07716">
        <ele>645.5</ele>
        <time>2021-08-18T11:18:55Z</time>
      </trkpt>
      <trkpt lat="43.40947" lon="2.07716">
        <ele>645.5</ele>
        <time>2021-08-18T11:19:01Z</time>
      </trkpt>
      <trkpt lat="43.40947" lon="2.07716">
        <ele>645.7</ele>
        <time>2021-08-18T11:19:07Z</time>
      </trkpt>
      <trkpt lat="43.40947" lon="2.07716">
        <ele>645.7</ele>
        <time>2021-08-18T11:19:13Z</time>
      </trkpt>
      <trkpt lat="43.40947" lon="2.07716">
        <ele>645.7</ele>
        <time>2021-08-18T11:19:19Z</time>
      </trkpt>
      <trkpt lat="43.40947" lon="2.07716">
        <ele>645.5</ele>
        <time>2021-08-18T11:19:24Z</time>
      </trkpt>
      <trkpt lat="43.40947" lon="2.07716">
        <ele>645.5</ele>
        <time>2021-08-18T11:19:29Z</time>
      </trkpt>
      <trkpt lat="43.40947" lon="2.07716">
        <ele>645.6</ele>
        <time>2021-08-18T11:19:35Z</time>
      </trkpt>
      <trkpt lat="43.40947" lon="2.07716">
        <ele>645.5</ele>
        <time>2021-08-18T11:19:41Z</time>
      </trkpt>
      <trkpt lat="43.40947" lon="2.07716">
        <ele>645.5</ele>
        <time>2021-08-18T11:19:47Z</time>
      </trkpt>
      <trkpt lat="43.40947" lon="2.07716">
        <ele>645.5</ele>
        <time>2021-08-18T11:19:53Z</time>
      </trkpt>
      <trkpt lat="43.40947" lon="2.07716">
        <ele>645.5</ele>
        <time>2021-08-18T11:19:59Z</time>
      </trkpt>
      <trkpt lat="43.40947" lon="2.07716">
        <ele>645.6</ele>
        <time>2021-08-18T11:20:05Z</time>
      </trkpt>
      <trkpt lat="43.40947" lon="2.07716">
        <ele>645.6</ele>
        <time>2021-08-18T11:20:10Z</time>
      </trkpt>
      <trkpt lat="43.40947" lon="2.07716">
        <ele>645.7</ele>
        <time>2021-08-18T11:20:16Z</time>
      </trkpt>
      <trkpt lat="43.40947" lon="2.07716">
        <ele>645.7</ele>
        <time>2021-08-18T11:20:22Z</time>
      </trkpt>
      <trkpt lat="43.40947" lon="2.07716">
        <ele>645.7</ele>
        <time>2021-08-18T11:20:27Z</time>
      </trkpt>
      <trkpt lat="43.40947" lon="2.07716">
        <ele>645.7</ele>
        <time>2021-08-18T11:20:33Z</time>
      </trkpt>
      <trkpt lat="43.40947" lon="2.07716">
        <ele>645.7</ele>
        <time>2021-08-18T11:20:38Z</time>
      </trkpt>
      <trkpt lat="43.40947" lon="2.07716">
        <ele>645.7</ele>
        <time>2021-08-18T11:20:44Z</time>
      </trkpt>
      <trkpt lat="43.40947" lon="2.07716">
        <ele>645.7</ele>
        <time>2021-08-18T11:20:50Z</time>
      </trkpt>
      <trkpt lat="43.40947" lon="2.07716">
        <ele>645.7</ele>
        <time>2021-08-18T11:20:55Z</time>
      </trkpt>
      <trkpt lat="43.40947" lon="2.07716">
        <ele>645.7</ele>
        <time>2021-08-18T11:21:01Z</time>
      </trkpt>
      <trkpt lat="43.40947" lon="2.07716">
        <ele>645.7</ele>
        <time>2021-08-18T11:21:07Z</time>
      </trkpt>
      <trkpt lat="43.40947" lon="2.07716">
        <ele>645.7</ele>
        <time>2021-08-18T11:21:13Z</time>
      </trkpt>
      <trkpt lat="43.40947" lon="2.07716">
        <ele>645.6</ele>
        <time>2021-08-18T11:21:19Z</time>
      </trkpt>
      <trkpt lat="43.40947" lon="2.07716">
        <ele>645.6</ele>
        <time>2021-08-18T11:21:24Z</time>
      </trkpt>
      <trkpt lat="43.40947" lon="2.07716">
        <ele>645.7</ele>
        <time>2021-08-18T11:21:30Z</time>
      </trkpt>
      <trkpt lat="43.40947" lon="2.07716">
        <ele>645.7</ele>
        <time>2021-08-18T11:21:36Z</time>
      </trkpt>
      <trkpt lat="43.40947" lon="2.07716">
        <ele>645.6</ele>
        <time>2021-08-18T11:21:42Z</time>
      </trkpt>
      <trkpt lat="43.40947" lon="2.07716">
        <ele>645.6</ele>
        <time>2021-08-18T11:21:48Z</time>
      </trkpt>
      <trkpt lat="43.40947" lon="2.07716">
        <ele>645.5</ele>
        <time>2021-08-18T11:21:53Z</time>
      </trkpt>
      <trkpt lat="43.40947" lon="2.07716">
        <ele>645.6</ele>
        <time>2021-08-18T11:21:59Z</time>
      </trkpt>
      <trkpt lat="43.40946" lon="2.07713">
        <ele>645.6</ele>
        <time>2021-08-18T11:22:04Z</time>
      </trkpt>
      <trkpt lat="43.40946" lon="2.07713">
        <ele>645.7</ele>
        <time>2021-08-18T11:22:09Z</time>
      </trkpt>
      <trkpt lat="43.40946" lon="2.07713">
        <ele>645.6</ele>
        <time>2021-08-18T11:22:14Z</time>
      </trkpt>
      <trkpt lat="43.40938" lon="2.0771">
        <ele>645.5</ele>
        <time>2021-08-18T11:22:19Z</time>
      </trkpt>
      <trkpt lat="43.40937" lon="2.07724">
        <ele>645.5</ele>
        <time>2021-08-18T11:22:25Z</time>
      </trkpt>
      <trkpt lat="43.40939" lon="2.07742">
        <ele>645.6</ele>
        <time>2021-08-18T11:22:31Z</time>
      </trkpt>
      <trkpt lat="43.40941" lon="2.07752">
        <ele>645.6</ele>
        <time>2021-08-18T11:22:36Z</time>
      </trkpt>
      <trkpt lat="43.40942" lon="2.07764">
        <ele>648.2</ele>
        <time>2021-08-18T11:22:41Z</time>
      </trkpt>
      <trkpt lat="43.40946" lon="2.0778">
        <ele>648.2</ele>
        <time>2021-08-18T11:22:47Z</time>
      </trkpt>
      <trkpt lat="43.40948" lon="2.0779">
        <ele>648.3</ele>
        <time>2021-08-18T11:22:52Z</time>
      </trkpt>
      <trkpt lat="43.40949" lon="2.07807">
        <ele>648.3</ele>
        <time>2021-08-18T11:22:58Z</time>
      </trkpt>
      <trkpt lat="43.40951" lon="2.07824">
        <ele>648.3</ele>
        <time>2021-08-18T11:23:04Z</time>
      </trkpt>
      <trkpt lat="43.40951" lon="2.07838">
        <ele>648.3</ele>
        <time>2021-08-18T11:23:10Z</time>
      </trkpt>
      <trkpt lat="43.40949" lon="2.07854">
        <ele>648.2</ele>
        <time>2021-08-18T11:23:16Z</time>
      </trkpt>
      <trkpt lat="43.40952" lon="2.0787">
        <ele>648.3</ele>
        <time>2021-08-18T11:23:22Z</time>
      </trkpt>
      <trkpt lat="43.40952" lon="2.07882">
        <ele>648.3</ele>
        <time>2021-08-18T11:23:27Z</time>
      </trkpt>
      <trkpt lat="43.40951" lon="2.07896">
        <ele>648.2</ele>
        <time>2021-08-18T11:23:33Z</time>
      </trkpt>
      <trkpt lat="43.40954" lon="2.07904">
        <ele>648.1</ele>
        <time>2021-08-18T11:23:38Z</time>
      </trkpt>
      <trkpt lat="43.40955" lon="2.07911">
        <ele>591.5</ele>
        <time>2021-08-18T11:23:43Z</time>
      </trkpt>
      <trkpt lat="43.40957" lon="2.07921">
        <ele>592.6</ele>
        <time>2021-08-18T11:23:49Z</time>
      </trkpt>
      <trkpt lat="43.40959" lon="2.07935">
        <ele>594.3</ele>
        <time>2021-08-18T11:23:54Z</time>
      </trkpt>
      <trkpt lat="43.4096" lon="2.0795">
        <ele>594</ele>
        <time>2021-08-18T11:23:59Z</time>
      </trkpt>
      <trkpt lat="43.40957" lon="2.07965">
        <ele>594</ele>
        <time>2021-08-18T11:24:05Z</time>
      </trkpt>
      <trkpt lat="43.40957" lon="2.07977">
        <ele>594</ele>
        <time>2021-08-18T11:24:10Z</time>
      </trkpt>
      <trkpt lat="43.40959" lon="2.07992">
        <ele>594</ele>
        <time>2021-08-18T11:24:16Z</time>
      </trkpt>
      <trkpt lat="43.40961" lon="2.08005">
        <ele>593.9</ele>
        <time>2021-08-18T11:24:22Z</time>
      </trkpt>
      <trkpt lat="43.40962" lon="2.08019">
        <ele>593.9</ele>
        <time>2021-08-18T11:24:28Z</time>
      </trkpt>
      <trkpt lat="43.40962" lon="2.0803">
        <ele>594</ele>
        <time>2021-08-18T11:24:33Z</time>
      </trkpt>
      <trkpt lat="43.40965" lon="2.08043">
        <ele>593.9</ele>
        <time>2021-08-18T11:24:39Z</time>
      </trkpt>
      <trkpt lat="43.4097" lon="2.08045">
        <ele>594</ele>
        <time>2021-08-18T11:24:44Z</time>
      </trkpt>
      <trkpt lat="43.40976" lon="2.08048">
        <ele>593.9</ele>
        <time>2021-08-18T11:24:50Z</time>
      </trkpt>
      <trkpt lat="43.40987" lon="2.08048">
        <ele>593.9</ele>
        <time>2021-08-18T11:24:56Z</time>
      </trkpt>
      <trkpt lat="43.40994" lon="2.08081">
        <ele>593.9</ele>
        <time>2021-08-18T11:25:02Z</time>
      </trkpt>
      <trkpt lat="43.40997" lon="2.08119">
        <ele>593.7</ele>
        <time>2021-08-18T11:25:07Z</time>
      </trkpt>
      <trkpt lat="43.40995" lon="2.08164">
        <ele>593.7</ele>
        <time>2021-08-18T11:25:13Z</time>
      </trkpt>
      <trkpt lat="43.40993" lon="2.08221">
        <ele>593.7</ele>
        <time>2021-08-18T11:25:19Z</time>
      </trkpt>
      <trkpt lat="43.40989" lon="2.08249">
        <ele>593.8</ele>
        <time>2021-08-18T11:25:24Z</time>
      </trkpt>
      <trkpt lat="43.40989" lon="2.08278">
        <ele>593.8</ele>
        <time>2021-08-18T11:25:30Z</time>
      </trkpt>
      <trkpt lat="43.40983" lon="2.08304">
        <ele>593.8</ele>
        <time>2021-08-18T11:25:35Z</time>
      </trkpt>
      <trkpt lat="43.40983" lon="2.08334">
        <ele>592.7</ele>
        <time>2021-08-18T11:25:40Z</time>
      </trkpt>
      <trkpt lat="43.40978" lon="2.08377">
        <ele>592.6</ele>
        <time>2021-08-18T11:25:46Z</time>
      </trkpt>
      <trkpt lat="43.40956" lon="2.08399">
        <ele>591.5</ele>
        <time>2021-08-18T11:25:52Z</time>
      </trkpt>
      <trkpt lat="43.40934" lon="2.08406">
        <ele>593.5</ele>
        <time>2021-08-18T11:25:57Z</time>
      </trkpt>
      <trkpt lat="43.40906" lon="2.0841">
        <ele>594.7</ele>
        <time>2021-08-18T11:26:03Z</time>
      </trkpt>
      <trkpt lat="43.40883" lon="2.08415">
        <ele>595.1</ele>
        <time>2021-08-18T11:26:09Z</time>
      </trkpt>
      <trkpt lat="43.40886" lon="2.08439">
        <ele>598.4</ele>
        <time>2021-08-18T11:26:14Z</time>
      </trkpt>
      <trkpt lat="43.40903" lon="2.08465">
        <ele>598.8</ele>
        <time>2021-08-18T11:26:20Z</time>
      </trkpt>
      <trkpt lat="43.40925" lon="2.08473">
        <ele>596.3</ele>
        <time>2021-08-18T11:26:26Z</time>
      </trkpt>
      <trkpt lat="43.40944" lon="2.08476">
        <ele>595.1</ele>
        <time>2021-08-18T11:26:32Z</time>
      </trkpt>
      <trkpt lat="43.40961" lon="2.08497">
        <ele>595.6</ele>
        <time>2021-08-18T11:26:37Z</time>
      </trkpt>
      <trkpt lat="43.40969" lon="2.08524">
        <ele>594.7</ele>
        <time>2021-08-18T11:26:42Z</time>
      </trkpt>
      <trkpt lat="43.40968" lon="2.08558">
        <ele>594.1</ele>
        <time>2021-08-18T11:26:48Z</time>
      </trkpt>
      <trkpt lat="43.40963" lon="2.0859">
        <ele>593.9</ele>
        <time>2021-08-18T11:26:54Z</time>
      </trkpt>
      <trkpt lat="43.40949" lon="2.0862">
        <ele>595.3</ele>
        <time>2021-08-18T11:26:59Z</time>
      </trkpt>
      <trkpt lat="43.40934" lon="2.0865">
        <ele>594.1</ele>
        <time>2021-08-18T11:27:05Z</time>
      </trkpt>
      <trkpt lat="43.40926" lon="2.08663">
        <ele>591.3</ele>
        <time>2021-08-18T11:27:10Z</time>
      </trkpt>
      <trkpt lat="43.40922" lon="2.08684">
        <ele>589.2</ele>
        <time>2021-08-18T11:27:16Z</time>
      </trkpt>
      <trkpt lat="43.40924" lon="2.08718">
        <ele>591.5</ele>
        <time>2021-08-18T11:27:22Z</time>
      </trkpt>
      <trkpt lat="43.40924" lon="2.08757">
        <ele>593.9</ele>
        <time>2021-08-18T11:27:28Z</time>
      </trkpt>
      <trkpt lat="43.40916" lon="2.08792">
        <ele>592.4</ele>
        <time>2021-08-18T11:27:34Z</time>
      </trkpt>
      <trkpt lat="43.409" lon="2.08817">
        <ele>585.9</ele>
        <time>2021-08-18T11:27:40Z</time>
      </trkpt>
      <trkpt lat="43.40891" lon="2.0884">
        <ele>579.3</ele>
        <time>2021-08-18T11:27:46Z</time>
      </trkpt>
      <trkpt lat="43.40887" lon="2.08878">
        <ele>578.5</ele>
        <time>2021-08-18T11:27:52Z</time>
      </trkpt>
      <trkpt lat="43.40878" lon="2.08919">
        <ele>577.2</ele>
        <time>2021-08-18T11:27:57Z</time>
      </trkpt>
      <trkpt lat="43.40868" lon="2.08973">
        <ele>576.1</ele>
        <time>2021-08-18T11:28:02Z</time>
      </trkpt>
      <trkpt lat="43.40846" lon="2.09046">
        <ele>576.2</ele>
        <time>2021-08-18T11:28:08Z</time>
      </trkpt>
      <trkpt lat="43.40835" lon="2.09111">
        <ele>576.1</ele>
        <time>2021-08-18T11:28:13Z</time>
      </trkpt>
      <trkpt lat="43.40822" lon="2.09189">
        <ele>576.1</ele>
        <time>2021-08-18T11:28:19Z</time>
      </trkpt>
      <trkpt lat="43.40812" lon="2.0924">
        <ele>576.1</ele>
        <time>2021-08-18T11:28:24Z</time>
      </trkpt>
      <trkpt lat="43.40802" lon="2.093">
        <ele>576.2</ele>
        <time>2021-08-18T11:28:30Z</time>
      </trkpt>
      <trkpt lat="43.4079" lon="2.09345">
        <ele>576.2</ele>
        <time>2021-08-18T11:28:36Z</time>
      </trkpt>
      <trkpt lat="43.40777" lon="2.09374">
        <ele>576.2</ele>
        <time>2021-08-18T11:28:41Z</time>
      </trkpt>
      <trkpt lat="43.40767" lon="2.09395">
        <ele>576.1</ele>
        <time>2021-08-18T11:28:47Z</time>
      </trkpt>
      <trkpt lat="43.40763" lon="2.09408">
        <ele>576.3</ele>
        <time>2021-08-18T11:28:53Z</time>
      </trkpt>
      <trkpt lat="43.40753" lon="2.09411">
        <ele>576.3</ele>
        <time>2021-08-18T11:28:58Z</time>
      </trkpt>
      <trkpt lat="43.4074" lon="2.09428">
        <ele>565.2</ele>
        <time>2021-08-18T11:29:04Z</time>
      </trkpt>
      <trkpt lat="43.4073" lon="2.09442">
        <ele>565.7</ele>
        <time>2021-08-18T11:29:10Z</time>
      </trkpt>
      <trkpt lat="43.40731" lon="2.09444">
        <ele>566</ele>
        <time>2021-08-18T11:29:15Z</time>
      </trkpt>
      <trkpt lat="43.40731" lon="2.09444">
        <ele>566.4</ele>
        <time>2021-08-18T11:29:21Z</time>
      </trkpt>
      <trkpt lat="43.40729" lon="2.09444">
        <ele>565.6</ele>
        <time>2021-08-18T11:29:26Z</time>
      </trkpt>
      <trkpt lat="43.40721" lon="2.09453">
        <ele>567.2</ele>
        <time>2021-08-18T11:29:31Z</time>
      </trkpt>
      <trkpt lat="43.40711" lon="2.0947">
        <ele>567.4</ele>
        <time>2021-08-18T11:29:37Z</time>
      </trkpt>
      <trkpt lat="43.40703" lon="2.09489">
        <ele>568.6</ele>
        <time>2021-08-18T11:29:43Z</time>
      </trkpt>
      <trkpt lat="43.40697" lon="2.09507">
        <ele>569.3</ele>
        <time>2021-08-18T11:29:48Z</time>
      </trkpt>
      <trkpt lat="43.40693" lon="2.09527">
        <ele>570.6</ele>
        <time>2021-08-18T11:29:54Z</time>
      </trkpt>
      <trkpt lat="43.40691" lon="2.09545">
        <ele>572.8</ele>
        <time>2021-08-18T11:30:00Z</time>
      </trkpt>
      <trkpt lat="43.40691" lon="2.09546">
        <ele>571.7</ele>
        <time>2021-08-18T11:30:05Z</time>
      </trkpt>
      <trkpt lat="43.40691" lon="2.09547">
        <ele>572.5</ele>
        <time>2021-08-18T11:30:11Z</time>
      </trkpt>
      <trkpt lat="43.40691" lon="2.09547">
        <ele>573.9</ele>
        <time>2021-08-18T11:30:17Z</time>
      </trkpt>
      <trkpt lat="43.40691" lon="2.09547">
        <ele>574</ele>
        <time>2021-08-18T11:30:22Z</time>
      </trkpt>
      <trkpt lat="43.40691" lon="2.09547">
        <ele>571.1</ele>
        <time>2021-08-18T11:30:27Z</time>
      </trkpt>
      <trkpt lat="43.40691" lon="2.09547">
        <ele>572.1</ele>
        <time>2021-08-18T11:30:32Z</time>
      </trkpt>
      <trkpt lat="43.40691" lon="2.09547">
        <ele>571.7</ele>
        <time>2021-08-18T11:30:38Z</time>
      </trkpt>
      <trkpt lat="43.40691" lon="2.09547">
        <ele>573.2</ele>
        <time>2021-08-18T11:30:44Z</time>
      </trkpt>
      <trkpt lat="43.40691" lon="2.09547">
        <ele>572.9</ele>
        <time>2021-08-18T11:30:49Z</time>
      </trkpt>
      <trkpt lat="43.40691" lon="2.09547">
        <ele>572.5</ele>
        <time>2021-08-18T11:30:55Z</time>
      </trkpt>
      <trkpt lat="43.40691" lon="2.09547">
        <ele>573.6</ele>
        <time>2021-08-18T11:31:00Z</time>
      </trkpt>
      <trkpt lat="43.40689" lon="2.0955">
        <ele>574.6</ele>
        <time>2021-08-18T11:31:06Z</time>
      </trkpt>
      <trkpt lat="43.40687" lon="2.09566">
        <ele>572.5</ele>
        <time>2021-08-18T11:31:11Z</time>
      </trkpt>
      <trkpt lat="43.40686" lon="2.09589">
        <ele>572.5</ele>
        <time>2021-08-18T11:31:16Z</time>
      </trkpt>
      <trkpt lat="43.40688" lon="2.09616">
        <ele>571.5</ele>
        <time>2021-08-18T11:31:22Z</time>
      </trkpt>
      <trkpt lat="43.4069" lon="2.09634">
        <ele>569.9</ele>
        <time>2021-08-18T11:31:27Z</time>
      </trkpt>
      <trkpt lat="43.40696" lon="2.09656">
        <ele>570.3</ele>
        <time>2021-08-18T11:31:33Z</time>
      </trkpt>
      <trkpt lat="43.407" lon="2.0968">
        <ele>571.2</ele>
        <time>2021-08-18T11:31:38Z</time>
      </trkpt>
      <trkpt lat="43.40705" lon="2.0971">
        <ele>570.6</ele>
        <time>2021-08-18T11:31:44Z</time>
      </trkpt>
      <trkpt lat="43.40711" lon="2.09739">
        <ele>571.8</ele>
        <time>2021-08-18T11:31:50Z</time>
      </trkpt>
      <trkpt lat="43.40709" lon="2.09758">
        <ele>572.4</ele>
        <time>2021-08-18T11:31:56Z</time>
      </trkpt>
      <trkpt lat="43.4071" lon="2.09758">
        <ele>571.7</ele>
        <time>2021-08-18T11:32:02Z</time>
      </trkpt>
      <trkpt lat="43.4071" lon="2.09758">
        <ele>572.5</ele>
        <time>2021-08-18T11:32:08Z</time>
      </trkpt>
      <trkpt lat="43.4071" lon="2.09758">
        <ele>573.2</ele>
        <time>2021-08-18T11:32:13Z</time>
      </trkpt>
      <trkpt lat="43.4071" lon="2.09758">
        <ele>572.2</ele>
        <time>2021-08-18T11:32:18Z</time>
      </trkpt>
      <trkpt lat="43.4071" lon="2.09758">
        <ele>572.8</ele>
        <time>2021-08-18T11:32:24Z</time>
      </trkpt>
      <trkpt lat="43.4071" lon="2.09758">
        <ele>572.4</ele>
        <time>2021-08-18T11:32:29Z</time>
      </trkpt>
      <trkpt lat="43.4071" lon="2.09758">
        <ele>574.1</ele>
        <time>2021-08-18T11:32:34Z</time>
      </trkpt>
      <trkpt lat="43.4071" lon="2.09758">
        <ele>572.9</ele>
        <time>2021-08-18T11:32:40Z</time>
      </trkpt>
      <trkpt lat="43.4071" lon="2.09758">
        <ele>572.6</ele>
        <time>2021-08-18T11:32:45Z</time>
      </trkpt>
      <trkpt lat="43.4071" lon="2.09758">
        <ele>573.1</ele>
        <time>2021-08-18T11:32:50Z</time>
      </trkpt>
      <trkpt lat="43.4071" lon="2.09758">
        <ele>574.3</ele>
        <time>2021-08-18T11:32:55Z</time>
      </trkpt>
      <trkpt lat="43.4071" lon="2.09758">
        <ele>572.9</ele>
        <time>2021-08-18T11:33:01Z</time>
      </trkpt>
      <trkpt lat="43.4071" lon="2.09758">
        <ele>573.1</ele>
        <time>2021-08-18T11:33:06Z</time>
      </trkpt>
      <trkpt lat="43.4071" lon="2.09758">
        <ele>572.9</ele>
        <time>2021-08-18T11:33:12Z</time>
      </trkpt>
      <trkpt lat="43.4071" lon="2.09758">
        <ele>573.9</ele>
        <time>2021-08-18T11:33:18Z</time>
      </trkpt>
      <trkpt lat="43.4071" lon="2.09758">
        <ele>572.2</ele>
        <time>2021-08-18T11:33:24Z</time>
      </trkpt>
      <trkpt lat="43.40715" lon="2.09764">
        <ele>571.6</ele>
        <time>2021-08-18T11:33:30Z</time>
      </trkpt>
      <trkpt lat="43.40727" lon="2.09761">
        <ele>570.9</ele>
        <time>2021-08-18T11:33:35Z</time>
      </trkpt>
      <trkpt lat="43.40744" lon="2.09758">
        <ele>573.5</ele>
        <time>2021-08-18T11:33:41Z</time>
      </trkpt>
      <trkpt lat="43.4075" lon="2.09762">
        <ele>572.4</ele>
        <time>2021-08-18T11:33:46Z</time>
      </trkpt>
      <trkpt lat="43.4075" lon="2.09761">
        <ele>573.7</ele>
        <time>2021-08-18T11:33:51Z</time>
      </trkpt>
      <trkpt lat="43.4075" lon="2.09761">
        <ele>574.9</ele>
        <time>2021-08-18T11:33:56Z</time>
      </trkpt>
      <trkpt lat="43.4075" lon="2.09761">
        <ele>574.8</ele>
        <time>2021-08-18T11:34:02Z</time>
      </trkpt>
      <trkpt lat="43.4075" lon="2.09761">
        <ele>574.8</ele>
        <time>2021-08-18T11:34:07Z</time>
      </trkpt>
      <trkpt lat="43.4075" lon="2.09761">
        <ele>574</ele>
        <time>2021-08-18T11:34:12Z</time>
      </trkpt>
      <trkpt lat="43.4075" lon="2.09761">
        <ele>573.6</ele>
        <time>2021-08-18T11:34:18Z</time>
      </trkpt>
      <trkpt lat="43.4075" lon="2.09761">
        <ele>573.3</ele>
        <time>2021-08-18T11:34:24Z</time>
      </trkpt>
      <trkpt lat="43.4075" lon="2.09761">
        <ele>573.9</ele>
        <time>2021-08-18T11:34:29Z</time>
      </trkpt>
      <trkpt lat="43.4075" lon="2.09761">
        <ele>574.1</ele>
        <time>2021-08-18T11:34:35Z</time>
      </trkpt>
      <trkpt lat="43.4075" lon="2.09761">
        <ele>574.1</ele>
        <time>2021-08-18T11:34:41Z</time>
      </trkpt>
      <trkpt lat="43.4075" lon="2.09761">
        <ele>573.5</ele>
        <time>2021-08-18T11:34:47Z</time>
      </trkpt>
      <trkpt lat="43.40745" lon="2.09765">
        <ele>571.4</ele>
        <time>2021-08-18T11:34:53Z</time>
      </trkpt>
      <trkpt lat="43.40733" lon="2.09769">
        <ele>570</ele>
        <time>2021-08-18T11:34:58Z</time>
      </trkpt>
      <trkpt lat="43.40731" lon="2.09772">
        <ele>568.8</ele>
        <time>2021-08-18T11:35:03Z</time>
      </trkpt>
      <trkpt lat="43.40731" lon="2.09772">
        <ele>570.3</ele>
        <time>2021-08-18T11:35:09Z</time>
      </trkpt>
      <trkpt lat="43.40729" lon="2.09784">
        <ele>569.5</ele>
        <time>2021-08-18T11:35:14Z</time>
      </trkpt>
      <trkpt lat="43.40732" lon="2.09797">
        <ele>570.2</ele>
        <time>2021-08-18T11:35:20Z</time>
      </trkpt>
      <trkpt lat="43.40735" lon="2.09802">
        <ele>570.3</ele>
        <time>2021-08-18T11:35:25Z</time>
      </trkpt>
      <trkpt lat="43.40736" lon="2.09813">
        <ele>569.9</ele>
        <time>2021-08-18T11:35:30Z</time>
      </trkpt>
      <trkpt lat="43.40738" lon="2.0982">
        <ele>569.9</ele>
        <time>2021-08-18T11:35:35Z</time>
      </trkpt>
      <trkpt lat="43.40746" lon="2.0983">
        <ele>571.5</ele>
        <time>2021-08-18T11:35:40Z</time>
      </trkpt>
      <trkpt lat="43.40748" lon="2.09834">
        <ele>572.5</ele>
        <time>2021-08-18T11:35:46Z</time>
      </trkpt>
      <trkpt lat="43.40748" lon="2.09834">
        <ele>573.4</ele>
        <time>2021-08-18T11:35:51Z</time>
      </trkpt>
      <trkpt lat="43.40748" lon="2.09834">
        <ele>572.9</ele>
        <time>2021-08-18T11:35:56Z</time>
      </trkpt>
      <trkpt lat="43.40751" lon="2.0984">
        <ele>574</ele>
        <time>2021-08-18T11:36:02Z</time>
      </trkpt>
      <trkpt lat="43.40758" lon="2.09846">
        <ele>574.3</ele>
        <time>2021-08-18T11:36:07Z</time>
      </trkpt>
      <trkpt lat="43.40765" lon="2.09852">
        <ele>574.9</ele>
        <time>2021-08-18T11:36:12Z</time>
      </trkpt>
      <trkpt lat="43.40774" lon="2.09859">
        <ele>574.8</ele>
        <time>2021-08-18T11:36:18Z</time>
      </trkpt>
      <trkpt lat="43.40783" lon="2.09856">
        <ele>578.4</ele>
        <time>2021-08-18T11:36:24Z</time>
      </trkpt>
      <trkpt lat="43.40792" lon="2.09852">
        <ele>581.3</ele>
        <time>2021-08-18T11:36:30Z</time>
      </trkpt>
      <trkpt lat="43.40801" lon="2.09848">
        <ele>583.1</ele>
        <time>2021-08-18T11:36:36Z</time>
      </trkpt>
      <trkpt lat="43.40813" lon="2.09845">
        <ele>586.9</ele>
        <time>2021-08-18T11:36:42Z</time>
      </trkpt>
      <trkpt lat="43.40825" lon="2.0984">
        <ele>589.9</ele>
        <time>2021-08-18T11:36:48Z</time>
      </trkpt>
      <trkpt lat="43.40834" lon="2.09836">
        <ele>591.4</ele>
        <time>2021-08-18T11:36:53Z</time>
      </trkpt>
      <trkpt lat="43.40844" lon="2.09831">
        <ele>593.9</ele>
        <time>2021-08-18T11:36:59Z</time>
      </trkpt>
      <trkpt lat="43.40855" lon="2.09828">
        <ele>597.4</ele>
        <time>2021-08-18T11:37:05Z</time>
      </trkpt>
      <trkpt lat="43.40863" lon="2.09826">
        <ele>597.9</ele>
        <time>2021-08-18T11:37:10Z</time>
      </trkpt>
      <trkpt lat="43.40875" lon="2.0982">
        <ele>599.9</ele>
        <time>2021-08-18T11:37:16Z</time>
      </trkpt>
      <trkpt lat="43.40887" lon="2.09816">
        <ele>601.1</ele>
        <time>2021-08-18T11:37:23Z</time>
      </trkpt>
      <trkpt lat="43.40898" lon="2.09817">
        <ele>602.2</ele>
        <time>2021-08-18T11:37:28Z</time>
      </trkpt>
      <trkpt lat="43.40908" lon="2.09816">
        <ele>603.5</ele>
        <time>2021-08-18T11:37:34Z</time>
      </trkpt>
      <trkpt lat="43.40917" lon="2.09814">
        <ele>603</ele>
        <time>2021-08-18T11:37:40Z</time>
      </trkpt>
      <trkpt lat="43.40926" lon="2.09812">
        <ele>604.7</ele>
        <time>2021-08-18T11:37:46Z</time>
      </trkpt>
      <trkpt lat="43.40934" lon="2.09813">
        <ele>604.3</ele>
        <time>2021-08-18T11:37:51Z</time>
      </trkpt>
      <trkpt lat="43.40943" lon="2.09818">
        <ele>605.9</ele>
        <time>2021-08-18T11:37:57Z</time>
      </trkpt>
      <trkpt lat="43.40952" lon="2.09828">
        <ele>608.5</ele>
        <time>2021-08-18T11:38:03Z</time>
      </trkpt>
      <trkpt lat="43.40959" lon="2.09839">
        <ele>605.8</ele>
        <time>2021-08-18T11:38:09Z</time>
      </trkpt>
      <trkpt lat="43.40963" lon="2.09848">
        <ele>606.9</ele>
        <time>2021-08-18T11:38:14Z</time>
      </trkpt>
      <trkpt lat="43.40969" lon="2.09857">
        <ele>607.5</ele>
        <time>2021-08-18T11:38:20Z</time>
      </trkpt>
      <trkpt lat="43.40976" lon="2.0987">
        <ele>609</ele>
        <time>2021-08-18T11:38:26Z</time>
      </trkpt>
      <trkpt lat="43.40984" lon="2.09885">
        <ele>613.5</ele>
        <time>2021-08-18T11:38:32Z</time>
      </trkpt>
      <trkpt lat="43.40991" lon="2.09896">
        <ele>616.2</ele>
        <time>2021-08-18T11:38:37Z</time>
      </trkpt>
      <trkpt lat="43.40999" lon="2.09911">
        <ele>616.1</ele>
        <time>2021-08-18T11:38:43Z</time>
      </trkpt>
      <trkpt lat="43.41009" lon="2.09922">
        <ele>615.7</ele>
        <time>2021-08-18T11:38:49Z</time>
      </trkpt>
      <trkpt lat="43.41017" lon="2.09936">
        <ele>617.5</ele>
        <time>2021-08-18T11:38:55Z</time>
      </trkpt>
      <trkpt lat="43.41027" lon="2.0995">
        <ele>614.4</ele>
        <time>2021-08-18T11:39:01Z</time>
      </trkpt>
      <trkpt lat="43.41036" lon="2.09967">
        <ele>615.2</ele>
        <time>2021-08-18T11:39:07Z</time>
      </trkpt>
      <trkpt lat="43.41044" lon="2.09985">
        <ele>614.8</ele>
        <time>2021-08-18T11:39:13Z</time>
      </trkpt>
      <trkpt lat="43.41051" lon="2.10001">
        <ele>614</ele>
        <time>2021-08-18T11:39:18Z</time>
      </trkpt>
      <trkpt lat="43.41058" lon="2.1002">
        <ele>615.4</ele>
        <time>2021-08-18T11:39:23Z</time>
      </trkpt>
      <trkpt lat="43.41066" lon="2.10047">
        <ele>612.9</ele>
        <time>2021-08-18T11:39:29Z</time>
      </trkpt>
      <trkpt lat="43.41071" lon="2.10076">
        <ele>613.8</ele>
        <time>2021-08-18T11:39:35Z</time>
      </trkpt>
      <trkpt lat="43.41078" lon="2.10104">
        <ele>614.4</ele>
        <time>2021-08-18T11:39:41Z</time>
      </trkpt>
      <trkpt lat="43.41085" lon="2.10139">
        <ele>612.8</ele>
        <time>2021-08-18T11:39:46Z</time>
      </trkpt>
      <trkpt lat="43.4109" lon="2.10173">
        <ele>612.6</ele>
        <time>2021-08-18T11:39:52Z</time>
      </trkpt>
      <trkpt lat="43.41097" lon="2.10214">
        <ele>612.4</ele>
        <time>2021-08-18T11:39:57Z</time>
      </trkpt>
      <trkpt lat="43.41101" lon="2.10252">
        <ele>610.2</ele>
        <time>2021-08-18T11:40:03Z</time>
      </trkpt>
      <trkpt lat="43.41103" lon="2.10275">
        <ele>606</ele>
        <time>2021-08-18T11:40:09Z</time>
      </trkpt>
      <trkpt lat="43.41106" lon="2.10311">
        <ele>607</ele>
        <time>2021-08-18T11:40:15Z</time>
      </trkpt>
      <trkpt lat="43.41109" lon="2.10345">
        <ele>609.4</ele>
        <time>2021-08-18T11:40:21Z</time>
      </trkpt>
      <trkpt lat="43.41114" lon="2.10374">
        <ele>603.9</ele>
        <time>2021-08-18T11:40:27Z</time>
      </trkpt>
      <trkpt lat="43.41119" lon="2.10405">
        <ele>604.6</ele>
        <time>2021-08-18T11:40:33Z</time>
      </trkpt>
      <trkpt lat="43.41128" lon="2.10429">
        <ele>602.2</ele>
        <time>2021-08-18T11:40:38Z</time>
      </trkpt>
      <trkpt lat="43.41136" lon="2.10448">
        <ele>601.5</ele>
        <time>2021-08-18T11:40:44Z</time>
      </trkpt>
      <trkpt lat="43.41136" lon="2.10447">
        <ele>599.1</ele>
        <time>2021-08-18T11:40:49Z</time>
      </trkpt>
      <trkpt lat="43.41137" lon="2.10447">
        <ele>599</ele>
        <time>2021-08-18T11:40:54Z</time>
      </trkpt>
      <trkpt lat="43.41137" lon="2.10447">
        <ele>600.1</ele>
        <time>2021-08-18T11:40:59Z</time>
      </trkpt>
      <trkpt lat="43.41137" lon="2.10447">
        <ele>598.7</ele>
        <time>2021-08-18T11:41:05Z</time>
      </trkpt>
      <trkpt lat="43.41137" lon="2.10447">
        <ele>600.4</ele>
        <time>2021-08-18T11:41:11Z</time>
      </trkpt>
      <trkpt lat="43.41137" lon="2.10447">
        <ele>599.1</ele>
        <time>2021-08-18T11:41:16Z</time>
      </trkpt>
      <trkpt lat="43.41137" lon="2.10447">
        <ele>600.6</ele>
        <time>2021-08-18T11:41:21Z</time>
      </trkpt>
      <trkpt lat="43.41137" lon="2.10447">
        <ele>599.3</ele>
        <time>2021-08-18T11:41:27Z</time>
      </trkpt>
      <trkpt lat="43.41137" lon="2.10447">
        <ele>599.2</ele>
        <time>2021-08-18T11:41:33Z</time>
      </trkpt>
      <trkpt lat="43.41137" lon="2.10447">
        <ele>599.2</ele>
        <time>2021-08-18T11:41:38Z</time>
      </trkpt>
      <trkpt lat="43.41137" lon="2.10447">
        <ele>599.9</ele>
        <time>2021-08-18T11:41:44Z</time>
      </trkpt>
      <trkpt lat="43.41137" lon="2.10447">
        <ele>599.6</ele>
        <time>2021-08-18T11:41:49Z</time>
      </trkpt>
      <trkpt lat="43.41146" lon="2.10448">
        <ele>597.1</ele>
        <time>2021-08-18T11:41:55Z</time>
      </trkpt>
      <trkpt lat="43.41161" lon="2.10467">
        <ele>595.9</ele>
        <time>2021-08-18T11:42:00Z</time>
      </trkpt>
      <trkpt lat="43.41183" lon="2.10495">
        <ele>598.3</ele>
        <time>2021-08-18T11:42:05Z</time>
      </trkpt>
      <trkpt lat="43.41209" lon="2.10515">
        <ele>600.9</ele>
        <time>2021-08-18T11:42:11Z</time>
      </trkpt>
      <trkpt lat="43.41225" lon="2.10523">
        <ele>606</ele>
        <time>2021-08-18T11:42:16Z</time>
      </trkpt>
      <trkpt lat="43.41237" lon="2.10529">
        <ele>605.3</ele>
        <time>2021-08-18T11:42:22Z</time>
      </trkpt>
      <trkpt lat="43.41248" lon="2.10536">
        <ele>604.3</ele>
        <time>2021-08-18T11:42:28Z</time>
      </trkpt>
      <trkpt lat="43.41256" lon="2.10544">
        <ele>604.4</ele>
        <time>2021-08-18T11:42:34Z</time>
      </trkpt>
      <trkpt lat="43.4126" lon="2.1055">
        <ele>606.6</ele>
        <time>2021-08-18T11:42:39Z</time>
      </trkpt>
      <trkpt lat="43.41263" lon="2.10562">
        <ele>605.4</ele>
        <time>2021-08-18T11:42:45Z</time>
      </trkpt>
      <trkpt lat="43.41268" lon="2.10572">
        <ele>605.8</ele>
        <time>2021-08-18T11:42:51Z</time>
      </trkpt>
      <trkpt lat="43.4127" lon="2.10587">
        <ele>607.2</ele>
        <time>2021-08-18T11:42:57Z</time>
      </trkpt>
      <trkpt lat="43.41271" lon="2.10601">
        <ele>608.4</ele>
        <time>2021-08-18T11:43:03Z</time>
      </trkpt>
      <trkpt lat="43.41271" lon="2.10613">
        <ele>607.7</ele>
        <time>2021-08-18T11:43:08Z</time>
      </trkpt>
      <trkpt lat="43.41276" lon="2.10625">
        <ele>606.9</ele>
        <time>2021-08-18T11:43:14Z</time>
      </trkpt>
      <trkpt lat="43.41281" lon="2.10638">
        <ele>605.1</ele>
        <time>2021-08-18T11:43:19Z</time>
      </trkpt>
      <trkpt lat="43.41287" lon="2.10664">
        <ele>598.8</ele>
        <time>2021-08-18T11:43:25Z</time>
      </trkpt>
      <trkpt lat="43.4129" lon="2.10687">
        <ele>595.8</ele>
        <time>2021-08-18T11:43:30Z</time>
      </trkpt>
      <trkpt lat="43.41292" lon="2.10709">
        <ele>595.3</ele>
        <time>2021-08-18T11:43:35Z</time>
      </trkpt>
      <trkpt lat="43.41302" lon="2.10738">
        <ele>592.5</ele>
        <time>2021-08-18T11:43:41Z</time>
      </trkpt>
      <trkpt lat="43.4131" lon="2.10746">
        <ele>593.9</ele>
        <time>2021-08-18T11:43:47Z</time>
      </trkpt>
      <trkpt lat="43.41315" lon="2.10757">
        <ele>595.8</ele>
        <time>2021-08-18T11:43:52Z</time>
      </trkpt>
      <trkpt lat="43.41323" lon="2.10765">
        <ele>598.8</ele>
        <time>2021-08-18T11:43:57Z</time>
      </trkpt>
      <trkpt lat="43.41334" lon="2.10779">
        <ele>598.4</ele>
        <time>2021-08-18T11:44:03Z</time>
      </trkpt>
      <trkpt lat="43.41339" lon="2.10789">
        <ele>601.1</ele>
        <time>2021-08-18T11:44:08Z</time>
      </trkpt>
      <trkpt lat="43.41343" lon="2.10799">
        <ele>603.1</ele>
        <time>2021-08-18T11:44:14Z</time>
      </trkpt>
      <trkpt lat="43.41345" lon="2.10814">
        <ele>602.9</ele>
        <time>2021-08-18T11:44:19Z</time>
      </trkpt>
      <trkpt lat="43.41346" lon="2.10829">
        <ele>607.8</ele>
        <time>2021-08-18T11:44:24Z</time>
      </trkpt>
      <trkpt lat="43.41352" lon="2.10839">
        <ele>610.8</ele>
        <time>2021-08-18T11:44:30Z</time>
      </trkpt>
      <trkpt lat="43.41357" lon="2.10849">
        <ele>608.7</ele>
        <time>2021-08-18T11:44:36Z</time>
      </trkpt>
      <trkpt lat="43.41361" lon="2.10858">
        <ele>610.3</ele>
        <time>2021-08-18T11:44:41Z</time>
      </trkpt>
      <trkpt lat="43.41367" lon="2.10868">
        <ele>610.3</ele>
        <time>2021-08-18T11:44:46Z</time>
      </trkpt>
      <trkpt lat="43.41372" lon="2.10882">
        <ele>611.7</ele>
        <time>2021-08-18T11:44:52Z</time>
      </trkpt>
      <trkpt lat="43.4138" lon="2.10902">
        <ele>612.6</ele>
        <time>2021-08-18T11:44:58Z</time>
      </trkpt>
      <trkpt lat="43.41387" lon="2.10925">
        <ele>612.7</ele>
        <time>2021-08-18T11:45:03Z</time>
      </trkpt>
      <trkpt lat="43.41394" lon="2.10957">
        <ele>611</ele>
        <time>2021-08-18T11:45:09Z</time>
      </trkpt>
      <trkpt lat="43.41394" lon="2.10984">
        <ele>609.5</ele>
        <time>2021-08-18T11:45:14Z</time>
      </trkpt>
      <trkpt lat="43.41388" lon="2.11026">
        <ele>606.7</ele>
        <time>2021-08-18T11:45:20Z</time>
      </trkpt>
      <trkpt lat="43.41384" lon="2.11071">
        <ele>607.5</ele>
        <time>2021-08-18T11:45:25Z</time>
      </trkpt>
      <trkpt lat="43.41384" lon="2.11097">
        <ele>608</ele>
        <time>2021-08-18T11:45:30Z</time>
      </trkpt>
      <trkpt lat="43.41388" lon="2.11124">
        <ele>608.4</ele>
        <time>2021-08-18T11:45:36Z</time>
      </trkpt>
      <trkpt lat="43.4139" lon="2.11139">
        <ele>610.5</ele>
        <time>2021-08-18T11:45:41Z</time>
      </trkpt>
      <trkpt lat="43.41395" lon="2.11155">
        <ele>614</ele>
        <time>2021-08-18T11:45:47Z</time>
      </trkpt>
      <trkpt lat="43.414" lon="2.11163">
        <ele>613.9</ele>
        <time>2021-08-18T11:45:52Z</time>
      </trkpt>
      <trkpt lat="43.41405" lon="2.11175">
        <ele>614.5</ele>
        <time>2021-08-18T11:45:57Z</time>
      </trkpt>
      <trkpt lat="43.41403" lon="2.11195">
        <ele>613.1</ele>
        <time>2021-08-18T11:46:03Z</time>
      </trkpt>
      <trkpt lat="43.414" lon="2.11209">
        <ele>612.9</ele>
        <time>2021-08-18T11:46:08Z</time>
      </trkpt>
      <trkpt lat="43.41399" lon="2.11222">
        <ele>613.8</ele>
        <time>2021-08-18T11:46:14Z</time>
      </trkpt>
      <trkpt lat="43.41395" lon="2.11234">
        <ele>615.3</ele>
        <time>2021-08-18T11:46:20Z</time>
      </trkpt>
      <trkpt lat="43.41393" lon="2.11246">
        <ele>615.3</ele>
        <time>2021-08-18T11:46:26Z</time>
      </trkpt>
      <trkpt lat="43.41388" lon="2.1126">
        <ele>616</ele>
        <time>2021-08-18T11:46:31Z</time>
      </trkpt>
      <trkpt lat="43.41382" lon="2.11271">
        <ele>615.2</ele>
        <time>2021-08-18T11:46:36Z</time>
      </trkpt>
      <trkpt lat="43.41371" lon="2.1128">
        <ele>618.3</ele>
        <time>2021-08-18T11:46:42Z</time>
      </trkpt>
      <trkpt lat="43.41364" lon="2.11287">
        <ele>618.7</ele>
        <time>2021-08-18T11:46:47Z</time>
      </trkpt>
      <trkpt lat="43.41353" lon="2.11295">
        <ele>620.6</ele>
        <time>2021-08-18T11:46:53Z</time>
      </trkpt>
      <trkpt lat="43.41346" lon="2.11304">
        <ele>623.1</ele>
        <time>2021-08-18T11:46:58Z</time>
      </trkpt>
      <trkpt lat="43.41337" lon="2.1132">
        <ele>624.8</ele>
        <time>2021-08-18T11:47:04Z</time>
      </trkpt>
      <trkpt lat="43.4133" lon="2.11333">
        <ele>627.8</ele>
        <time>2021-08-18T11:47:10Z</time>
      </trkpt>
      <trkpt lat="43.41324" lon="2.11342">
        <ele>631.3</ele>
        <time>2021-08-18T11:47:15Z</time>
      </trkpt>
      <trkpt lat="43.41319" lon="2.1135">
        <ele>632.9</ele>
        <time>2021-08-18T11:47:21Z</time>
      </trkpt>
      <trkpt lat="43.41311" lon="2.1136">
        <ele>632.9</ele>
        <time>2021-08-18T11:47:27Z</time>
      </trkpt>
      <trkpt lat="43.41303" lon="2.11368">
        <ele>638.3</ele>
        <time>2021-08-18T11:47:32Z</time>
      </trkpt>
      <trkpt lat="43.41293" lon="2.11377">
        <ele>642.1</ele>
        <time>2021-08-18T11:47:38Z</time>
      </trkpt>
      <trkpt lat="43.41281" lon="2.11382">
        <ele>647</ele>
        <time>2021-08-18T11:47:44Z</time>
      </trkpt>
      <trkpt lat="43.41271" lon="2.11388">
        <ele>647.8</ele>
        <time>2021-08-18T11:47:50Z</time>
      </trkpt>
      <trkpt lat="43.41262" lon="2.11391">
        <ele>650.6</ele>
        <time>2021-08-18T11:47:55Z</time>
      </trkpt>
      <trkpt lat="43.41254" lon="2.11395">
        <ele>651.8</ele>
        <time>2021-08-18T11:48:00Z</time>
      </trkpt>
      <trkpt lat="43.41244" lon="2.11402">
        <ele>653.3</ele>
        <time>2021-08-18T11:48:06Z</time>
      </trkpt>
      <trkpt lat="43.41233" lon="2.11407">
        <ele>651.9</ele>
        <time>2021-08-18T11:48:12Z</time>
      </trkpt>
      <trkpt lat="43.41224" lon="2.11414">
        <ele>653.6</ele>
        <time>2021-08-18T11:48:18Z</time>
      </trkpt>
      <trkpt lat="43.41217" lon="2.11426">
        <ele>653.4</ele>
        <time>2021-08-18T11:48:23Z</time>
      </trkpt>
      <trkpt lat="43.41215" lon="2.11441">
        <ele>653.1</ele>
        <time>2021-08-18T11:48:29Z</time>
      </trkpt>
      <trkpt lat="43.41214" lon="2.11456">
        <ele>651.7</ele>
        <time>2021-08-18T11:48:34Z</time>
      </trkpt>
      <trkpt lat="43.41217" lon="2.11475">
        <ele>651.1</ele>
        <time>2021-08-18T11:48:40Z</time>
      </trkpt>
      <trkpt lat="43.41217" lon="2.11487">
        <ele>651.9</ele>
        <time>2021-08-18T11:48:45Z</time>
      </trkpt>
      <trkpt lat="43.41218" lon="2.11501">
        <ele>655.1</ele>
        <time>2021-08-18T11:48:50Z</time>
      </trkpt>
      <trkpt lat="43.41221" lon="2.11513">
        <ele>653.7</ele>
        <time>2021-08-18T11:48:55Z</time>
      </trkpt>
      <trkpt lat="43.41226" lon="2.1153">
        <ele>651.1</ele>
        <time>2021-08-18T11:49:01Z</time>
      </trkpt>
      <trkpt lat="43.41232" lon="2.11549">
        <ele>650.7</ele>
        <time>2021-08-18T11:49:06Z</time>
      </trkpt>
      <trkpt lat="43.41236" lon="2.11565">
        <ele>648.8</ele>
        <time>2021-08-18T11:49:12Z</time>
      </trkpt>
      <trkpt lat="43.41239" lon="2.11578">
        <ele>650</ele>
        <time>2021-08-18T11:49:17Z</time>
      </trkpt>
      <trkpt lat="43.41245" lon="2.11598">
        <ele>652.8</ele>
        <time>2021-08-18T11:49:23Z</time>
      </trkpt>
      <trkpt lat="43.41249" lon="2.11613">
        <ele>655.4</ele>
        <time>2021-08-18T11:49:28Z</time>
      </trkpt>
      <trkpt lat="43.41256" lon="2.11629">
        <ele>658.7</ele>
        <time>2021-08-18T11:49:34Z</time>
      </trkpt>
      <trkpt lat="43.4126" lon="2.11646">
        <ele>661.9</ele>
        <time>2021-08-18T11:49:40Z</time>
      </trkpt>
      <trkpt lat="43.41264" lon="2.11662">
        <ele>663.9</ele>
        <time>2021-08-18T11:49:46Z</time>
      </trkpt>
      <trkpt lat="43.41267" lon="2.11677">
        <ele>663.6</ele>
        <time>2021-08-18T11:49:52Z</time>
      </trkpt>
      <trkpt lat="43.41272" lon="2.11692">
        <ele>663.1</ele>
        <time>2021-08-18T11:49:58Z</time>
      </trkpt>
      <trkpt lat="43.41274" lon="2.11707">
        <ele>661.5</ele>
        <time>2021-08-18T11:50:04Z</time>
      </trkpt>
      <trkpt lat="43.41274" lon="2.11706">
        <ele>662.9</ele>
        <time>2021-08-18T11:50:10Z</time>
      </trkpt>
      <trkpt lat="43.41275" lon="2.11706">
        <ele>660.9</ele>
        <time>2021-08-18T11:50:15Z</time>
      </trkpt>
      <trkpt lat="43.41275" lon="2.11706">
        <ele>660.8</ele>
        <time>2021-08-18T11:50:21Z</time>
      </trkpt>
      <trkpt lat="43.41275" lon="2.11706">
        <ele>661.3</ele>
        <time>2021-08-18T11:50:26Z</time>
      </trkpt>
      <trkpt lat="43.41275" lon="2.11706">
        <ele>661.4</ele>
        <time>2021-08-18T11:50:32Z</time>
      </trkpt>
      <trkpt lat="43.41275" lon="2.11706">
        <ele>662.4</ele>
        <time>2021-08-18T11:50:38Z</time>
      </trkpt>
      <trkpt lat="43.41275" lon="2.11706">
        <ele>660.4</ele>
        <time>2021-08-18T11:50:43Z</time>
      </trkpt>
      <trkpt lat="43.41277" lon="2.11716">
        <ele>659.5</ele>
        <time>2021-08-18T11:50:49Z</time>
      </trkpt>
      <trkpt lat="43.41281" lon="2.11738">
        <ele>658.3</ele>
        <time>2021-08-18T11:50:55Z</time>
      </trkpt>
      <trkpt lat="43.41288" lon="2.11777">
        <ele>657.2</ele>
        <time>2021-08-18T11:51:01Z</time>
      </trkpt>
      <trkpt lat="43.41295" lon="2.11814">
        <ele>656.4</ele>
        <time>2021-08-18T11:51:06Z</time>
      </trkpt>
      <trkpt lat="43.41303" lon="2.11852">
        <ele>655.4</ele>
        <time>2021-08-18T11:51:11Z</time>
      </trkpt>
      <trkpt lat="43.41313" lon="2.11892">
        <ele>652.9</ele>
        <time>2021-08-18T11:51:17Z</time>
      </trkpt>
      <trkpt lat="43.41323" lon="2.11932">
        <ele>651.9</ele>
        <time>2021-08-18T11:51:23Z</time>
      </trkpt>
      <trkpt lat="43.41334" lon="2.1197">
        <ele>651.7</ele>
        <time>2021-08-18T11:51:29Z</time>
      </trkpt>
      <trkpt lat="43.41338" lon="2.11998">
        <ele>652.3</ele>
        <time>2021-08-18T11:51:34Z</time>
      </trkpt>
      <trkpt lat="43.4135" lon="2.12029">
        <ele>651.1</ele>
        <time>2021-08-18T11:51:40Z</time>
      </trkpt>
      <trkpt lat="43.41369" lon="2.12051">
        <ele>651.6</ele>
        <time>2021-08-18T11:51:45Z</time>
      </trkpt>
      <trkpt lat="43.4139" lon="2.1207">
        <ele>651.3</ele>
        <time>2021-08-18T11:51:50Z</time>
      </trkpt>
      <trkpt lat="43.41415" lon="2.12096">
        <ele>653</ele>
        <time>2021-08-18T11:51:56Z</time>
      </trkpt>
      <trkpt lat="43.41437" lon="2.12123">
        <ele>653.6</ele>
        <time>2021-08-18T11:52:01Z</time>
      </trkpt>
      <trkpt lat="43.41464" lon="2.12148">
        <ele>653.1</ele>
        <time>2021-08-18T11:52:06Z</time>
      </trkpt>
      <trkpt lat="43.41498" lon="2.12176">
        <ele>651.8</ele>
        <time>2021-08-18T11:52:12Z</time>
      </trkpt>
      <trkpt lat="43.41536" lon="2.12211">
        <ele>651.4</ele>
        <time>2021-08-18T11:52:18Z</time>
      </trkpt>
      <trkpt lat="43.41571" lon="2.12247">
        <ele>650.7</ele>
        <time>2021-08-18T11:52:24Z</time>
      </trkpt>
      <trkpt lat="43.41603" lon="2.12278">
        <ele>647.6</ele>
        <time>2021-08-18T11:52:30Z</time>
      </trkpt>
      <trkpt lat="43.41634" lon="2.12308">
        <ele>645.2</ele>
        <time>2021-08-18T11:52:36Z</time>
      </trkpt>
      <trkpt lat="43.41665" lon="2.12335">
        <ele>642.5</ele>
        <time>2021-08-18T11:52:42Z</time>
      </trkpt>
      <trkpt lat="43.4169" lon="2.12355">
        <ele>643.9</ele>
        <time>2021-08-18T11:52:47Z</time>
      </trkpt>
      <trkpt lat="43.41713" lon="2.12372">
        <ele>648.2</ele>
        <time>2021-08-18T11:52:53Z</time>
      </trkpt>
      <trkpt lat="43.41728" lon="2.12385">
        <ele>646.6</ele>
        <time>2021-08-18T11:52:58Z</time>
      </trkpt>
      <trkpt lat="43.41747" lon="2.12403">
        <ele>647.8</ele>
        <time>2021-08-18T11:53:04Z</time>
      </trkpt>
      <trkpt lat="43.41769" lon="2.12426">
        <ele>646.9</ele>
        <time>2021-08-18T11:53:10Z</time>
      </trkpt>
      <trkpt lat="43.41798" lon="2.12455">
        <ele>644.9</ele>
        <time>2021-08-18T11:53:16Z</time>
      </trkpt>
      <trkpt lat="43.41837" lon="2.12481">
        <ele>643.8</ele>
        <time>2021-08-18T11:53:22Z</time>
      </trkpt>
      <trkpt lat="43.41875" lon="2.12495">
        <ele>643.8</ele>
        <time>2021-08-18T11:53:28Z</time>
      </trkpt>
      <trkpt lat="43.41905" lon="2.12512">
        <ele>641</ele>
        <time>2021-08-18T11:53:34Z</time>
      </trkpt>
      <trkpt lat="43.41922" lon="2.12527">
        <ele>640.4</ele>
        <time>2021-08-18T11:53:39Z</time>
      </trkpt>
      <trkpt lat="43.41941" lon="2.12548">
        <ele>639.3</ele>
        <time>2021-08-18T11:53:45Z</time>
      </trkpt>
      <trkpt lat="43.41954" lon="2.12565">
        <ele>641.5</ele>
        <time>2021-08-18T11:53:50Z</time>
      </trkpt>
      <trkpt lat="43.41972" lon="2.12582">
        <ele>643.2</ele>
        <time>2021-08-18T11:53:56Z</time>
      </trkpt>
      <trkpt lat="43.41992" lon="2.1259">
        <ele>647.6</ele>
        <time>2021-08-18T11:54:01Z</time>
      </trkpt>
      <trkpt lat="43.42011" lon="2.12592">
        <ele>646.7</ele>
        <time>2021-08-18T11:54:06Z</time>
      </trkpt>
      <trkpt lat="43.42032" lon="2.12598">
        <ele>648.4</ele>
        <time>2021-08-18T11:54:12Z</time>
      </trkpt>
      <trkpt lat="43.42049" lon="2.12603">
        <ele>647.8</ele>
        <time>2021-08-18T11:54:17Z</time>
      </trkpt>
      <trkpt lat="43.42065" lon="2.12612">
        <ele>647.3</ele>
        <time>2021-08-18T11:54:22Z</time>
      </trkpt>
      <trkpt lat="43.42087" lon="2.12612">
        <ele>650.1</ele>
        <time>2021-08-18T11:54:28Z</time>
      </trkpt>
      <trkpt lat="43.42104" lon="2.12608">
        <ele>651.7</ele>
        <time>2021-08-18T11:54:33Z</time>
      </trkpt>
      <trkpt lat="43.42122" lon="2.12608">
        <ele>651.6</ele>
        <time>2021-08-18T11:54:38Z</time>
      </trkpt>
      <trkpt lat="43.42141" lon="2.12607">
        <ele>653.9</ele>
        <time>2021-08-18T11:54:43Z</time>
      </trkpt>
      <trkpt lat="43.42161" lon="2.12605">
        <ele>654.5</ele>
        <time>2021-08-18T11:54:49Z</time>
      </trkpt>
      <trkpt lat="43.4218" lon="2.12595">
        <ele>655.3</ele>
        <time>2021-08-18T11:54:55Z</time>
      </trkpt>
      <trkpt lat="43.42194" lon="2.12585">
        <ele>653</ele>
        <time>2021-08-18T11:55:00Z</time>
      </trkpt>
      <trkpt lat="43.42209" lon="2.12557">
        <ele>648.9</ele>
        <time>2021-08-18T11:55:06Z</time>
      </trkpt>
      <trkpt lat="43.42216" lon="2.12539">
        <ele>646.8</ele>
        <time>2021-08-18T11:55:11Z</time>
      </trkpt>
      <trkpt lat="43.42222" lon="2.12541">
        <ele>645.5</ele>
        <time>2021-08-18T11:55:17Z</time>
      </trkpt>
      <trkpt lat="43.42222" lon="2.12542">
        <ele>648.1</ele>
        <time>2021-08-18T11:55:22Z</time>
      </trkpt>
      <trkpt lat="43.42222" lon="2.12542">
        <ele>647.3</ele>
        <time>2021-08-18T11:55:28Z</time>
      </trkpt>
      <trkpt lat="43.42222" lon="2.12542">
        <ele>646.6</ele>
        <time>2021-08-18T11:55:34Z</time>
      </trkpt>
      <trkpt lat="43.42222" lon="2.12542">
        <ele>644.8</ele>
        <time>2021-08-18T11:55:40Z</time>
      </trkpt>
      <trkpt lat="43.42222" lon="2.12542">
        <ele>647.3</ele>
        <time>2021-08-18T11:55:45Z</time>
      </trkpt>
      <trkpt lat="43.42222" lon="2.12542">
        <ele>646.7</ele>
        <time>2021-08-18T11:55:51Z</time>
      </trkpt>
      <trkpt lat="43.42222" lon="2.12542">
        <ele>647.3</ele>
        <time>2021-08-18T11:55:57Z</time>
      </trkpt>
      <trkpt lat="43.42222" lon="2.12542">
        <ele>646.7</ele>
        <time>2021-08-18T11:56:03Z</time>
      </trkpt>
      <trkpt lat="43.42222" lon="2.12542">
        <ele>647.1</ele>
        <time>2021-08-18T11:56:08Z</time>
      </trkpt>
      <trkpt lat="43.42222" lon="2.12542">
        <ele>648.2</ele>
        <time>2021-08-18T11:56:13Z</time>
      </trkpt>
      <trkpt lat="43.42222" lon="2.12542">
        <ele>646.7</ele>
        <time>2021-08-18T11:56:19Z</time>
      </trkpt>
      <trkpt lat="43.42223" lon="2.12521">
        <ele>646.5</ele>
        <time>2021-08-18T11:56:25Z</time>
      </trkpt>
      <trkpt lat="43.42229" lon="2.12502">
        <ele>652</ele>
        <time>2021-08-18T11:56:31Z</time>
      </trkpt>
      <trkpt lat="43.42234" lon="2.12494">
        <ele>654.2</ele>
        <time>2021-08-18T11:56:36Z</time>
      </trkpt>
      <trkpt lat="43.42242" lon="2.12476">
        <ele>655</ele>
        <time>2021-08-18T11:56:42Z</time>
      </trkpt>
      <trkpt lat="43.42251" lon="2.12447">
        <ele>654.5</ele>
        <time>2021-08-18T11:56:48Z</time>
      </trkpt>
      <trkpt lat="43.42256" lon="2.1242">
        <ele>652.2</ele>
        <time>2021-08-18T11:56:53Z</time>
      </trkpt>
      <trkpt lat="43.42256" lon="2.12393">
        <ele>652</ele>
        <time>2021-08-18T11:56:58Z</time>
      </trkpt>
      <trkpt lat="43.42255" lon="2.12368">
        <ele>654.1</ele>
        <time>2021-08-18T11:57:03Z</time>
      </trkpt>
      <trkpt lat="43.42252" lon="2.12346">
        <ele>654.4</ele>
        <time>2021-08-18T11:57:08Z</time>
      </trkpt>
      <trkpt lat="43.42246" lon="2.12322">
        <ele>654.5</ele>
        <time>2021-08-18T11:57:14Z</time>
      </trkpt>
      <trkpt lat="43.42239" lon="2.12304">
        <ele>656.3</ele>
        <time>2021-08-18T11:57:19Z</time>
      </trkpt>
      <trkpt lat="43.42229" lon="2.12288">
        <ele>663</ele>
        <time>2021-08-18T11:57:25Z</time>
      </trkpt>
      <trkpt lat="43.42216" lon="2.12272">
        <ele>664.4</ele>
        <time>2021-08-18T11:57:31Z</time>
      </trkpt>
      <trkpt lat="43.42205" lon="2.12258">
        <ele>671.7</ele>
        <time>2021-08-18T11:57:36Z</time>
      </trkpt>
      <trkpt lat="43.42192" lon="2.12239">
        <ele>672.1</ele>
        <time>2021-08-18T11:57:42Z</time>
      </trkpt>
      <trkpt lat="43.42179" lon="2.12221">
        <ele>673.2</ele>
        <time>2021-08-18T11:57:48Z</time>
      </trkpt>
      <trkpt lat="43.42168" lon="2.12201">
        <ele>676.2</ele>
        <time>2021-08-18T11:57:54Z</time>
      </trkpt>
      <trkpt lat="43.42161" lon="2.12183">
        <ele>678.4</ele>
        <time>2021-08-18T11:57:59Z</time>
      </trkpt>
      <trkpt lat="43.42156" lon="2.12159">
        <ele>679.4</ele>
        <time>2021-08-18T11:58:05Z</time>
      </trkpt>
      <trkpt lat="43.42154" lon="2.1214">
        <ele>679.7</ele>
        <time>2021-08-18T11:58:10Z</time>
      </trkpt>
      <trkpt lat="43.42156" lon="2.12112">
        <ele>673.6</ele>
        <time>2021-08-18T11:58:16Z</time>
      </trkpt>
      <trkpt lat="43.42158" lon="2.1209">
        <ele>670.7</ele>
        <time>2021-08-18T11:58:21Z</time>
      </trkpt>
      <trkpt lat="43.42161" lon="2.12061">
        <ele>664.1</ele>
        <time>2021-08-18T11:58:27Z</time>
      </trkpt>
      <trkpt lat="43.42162" lon="2.12037">
        <ele>661.8</ele>
        <time>2021-08-18T11:58:32Z</time>
      </trkpt>
      <trkpt lat="43.42161" lon="2.12015">
        <ele>668.1</ele>
        <time>2021-08-18T11:58:38Z</time>
      </trkpt>
      <trkpt lat="43.42173" lon="2.12012">
        <ele>673.3</ele>
        <time>2021-08-18T11:58:44Z</time>
      </trkpt>
      <trkpt lat="43.42179" lon="2.1203">
        <ele>675.4</ele>
        <time>2021-08-18T11:58:49Z</time>
      </trkpt>
      <trkpt lat="43.42172" lon="2.1205">
        <ele>678.5</ele>
        <time>2021-08-18T11:58:55Z</time>
      </trkpt>
      <trkpt lat="43.42173" lon="2.12075">
        <ele>681.6</ele>
        <time>2021-08-18T11:59:01Z</time>
      </trkpt>
      <trkpt lat="43.42177" lon="2.12091">
        <ele>682.7</ele>
        <time>2021-08-18T11:59:06Z</time>
      </trkpt>
      <trkpt lat="43.42181" lon="2.12115">
        <ele>682</ele>
        <time>2021-08-18T11:59:12Z</time>
      </trkpt>
      <trkpt lat="43.42186" lon="2.12132">
        <ele>685.5</ele>
        <time>2021-08-18T11:59:17Z</time>
      </trkpt>
      <trkpt lat="43.42196" lon="2.12152">
        <ele>685.1</ele>
        <time>2021-08-18T11:59:23Z</time>
      </trkpt>
      <trkpt lat="43.42206" lon="2.12171">
        <ele>684.8</ele>
        <time>2021-08-18T11:59:28Z</time>
      </trkpt>
      <trkpt lat="43.4222" lon="2.12189">
        <ele>686.4</ele>
        <time>2021-08-18T11:59:34Z</time>
      </trkpt>
      <trkpt lat="43.42236" lon="2.12201">
        <ele>683.8</ele>
        <time>2021-08-18T11:59:40Z</time>
      </trkpt>
      <trkpt lat="43.4225" lon="2.1221">
        <ele>687.2</ele>
        <time>2021-08-18T11:59:45Z</time>
      </trkpt>
      <trkpt lat="43.42273" lon="2.12216">
        <ele>692.1</ele>
        <time>2021-08-18T11:59:51Z</time>
      </trkpt>
      <trkpt lat="43.42284" lon="2.1222">
        <ele>695.3</ele>
        <time>2021-08-18T11:59:56Z</time>
      </trkpt>
      <trkpt lat="43.42298" lon="2.12226">
        <ele>696.9</ele>
        <time>2021-08-18T12:00:02Z</time>
      </trkpt>
      <trkpt lat="43.42314" lon="2.12236">
        <ele>695.7</ele>
        <time>2021-08-18T12:00:07Z</time>
      </trkpt>
      <trkpt lat="43.42335" lon="2.12234">
        <ele>697.1</ele>
        <time>2021-08-18T12:00:13Z</time>
      </trkpt>
      <trkpt lat="43.42351" lon="2.12229">
        <ele>691.4</ele>
        <time>2021-08-18T12:00:18Z</time>
      </trkpt>
      <trkpt lat="43.42361" lon="2.12223">
        <ele>692.8</ele>
        <time>2021-08-18T12:00:23Z</time>
      </trkpt>
      <trkpt lat="43.42375" lon="2.12214">
        <ele>694.7</ele>
        <time>2021-08-18T12:00:28Z</time>
      </trkpt>
      <trkpt lat="43.42389" lon="2.12197">
        <ele>696.8</ele>
        <time>2021-08-18T12:00:34Z</time>
      </trkpt>
      <trkpt lat="43.42403" lon="2.12178">
        <ele>700.5</ele>
        <time>2021-08-18T12:00:40Z</time>
      </trkpt>
      <trkpt lat="43.42414" lon="2.12155">
        <ele>701.7</ele>
        <time>2021-08-18T12:00:46Z</time>
      </trkpt>
      <trkpt lat="43.4242" lon="2.12143">
        <ele>700.4</ele>
        <time>2021-08-18T12:00:52Z</time>
      </trkpt>
      <trkpt lat="43.42429" lon="2.12127">
        <ele>697.1</ele>
        <time>2021-08-18T12:00:57Z</time>
      </trkpt>
      <trkpt lat="43.42445" lon="2.12113">
        <ele>693.8</ele>
        <time>2021-08-18T12:01:02Z</time>
      </trkpt>
      <trkpt lat="43.42466" lon="2.12102">
        <ele>695.5</ele>
        <time>2021-08-18T12:01:08Z</time>
      </trkpt>
      <trkpt lat="43.4249" lon="2.12089">
        <ele>696.9</ele>
        <time>2021-08-18T12:01:14Z</time>
      </trkpt>
      <trkpt lat="43.42516" lon="2.12077">
        <ele>695.1</ele>
        <time>2021-08-18T12:01:20Z</time>
      </trkpt>
      <trkpt lat="43.42547" lon="2.1206">
        <ele>694.5</ele>
        <time>2021-08-18T12:01:26Z</time>
      </trkpt>
      <trkpt lat="43.42573" lon="2.12043">
        <ele>695.1</ele>
        <time>2021-08-18T12:01:31Z</time>
      </trkpt>
      <trkpt lat="43.42602" lon="2.12024">
        <ele>695.7</ele>
        <time>2021-08-18T12:01:37Z</time>
      </trkpt>
      <trkpt lat="43.42626" lon="2.12012">
        <ele>695.3</ele>
        <time>2021-08-18T12:01:42Z</time>
      </trkpt>
      <trkpt lat="43.42656" lon="2.12003">
        <ele>698.1</ele>
        <time>2021-08-18T12:01:48Z</time>
      </trkpt>
      <trkpt lat="43.42683" lon="2.11997">
        <ele>699.6</ele>
        <time>2021-08-18T12:01:53Z</time>
      </trkpt>
      <trkpt lat="43.42713" lon="2.11998">
        <ele>701.4</ele>
        <time>2021-08-18T12:01:59Z</time>
      </trkpt>
      <trkpt lat="43.42738" lon="2.12001">
        <ele>704.5</ele>
        <time>2021-08-18T12:02:04Z</time>
      </trkpt>
      <trkpt lat="43.42765" lon="2.12014">
        <ele>707.6</ele>
        <time>2021-08-18T12:02:10Z</time>
      </trkpt>
      <trkpt lat="43.42787" lon="2.12046">
        <ele>705.4</ele>
        <time>2021-08-18T12:02:16Z</time>
      </trkpt>
      <trkpt lat="43.4281" lon="2.12077">
        <ele>707.1</ele>
        <time>2021-08-18T12:02:22Z</time>
      </trkpt>
      <trkpt lat="43.42839" lon="2.12096">
        <ele>705.1</ele>
        <time>2021-08-18T12:02:28Z</time>
      </trkpt>
      <trkpt lat="43.42865" lon="2.12102">
        <ele>706.2</ele>
        <time>2021-08-18T12:02:33Z</time>
      </trkpt>
      <trkpt lat="43.4289" lon="2.12107">
        <ele>709.1</ele>
        <time>2021-08-18T12:02:38Z</time>
      </trkpt>
      <trkpt lat="43.42909" lon="2.12107">
        <ele>709</ele>
        <time>2021-08-18T12:02:43Z</time>
      </trkpt>
      <trkpt lat="43.42932" lon="2.12095">
        <ele>710.3</ele>
        <time>2021-08-18T12:02:49Z</time>
      </trkpt>
      <trkpt lat="43.42952" lon="2.1208">
        <ele>710.7</ele>
        <time>2021-08-18T12:02:55Z</time>
      </trkpt>
      <trkpt lat="43.42967" lon="2.12064">
        <ele>711</ele>
        <time>2021-08-18T12:03:00Z</time>
      </trkpt>
      <trkpt lat="43.42987" lon="2.12049">
        <ele>713.3</ele>
        <time>2021-08-18T12:03:05Z</time>
      </trkpt>
      <trkpt lat="43.4302" lon="2.12023">
        <ele>705.5</ele>
        <time>2021-08-18T12:03:11Z</time>
      </trkpt>
      <trkpt lat="43.43046" lon="2.11991">
        <ele>705.2</ele>
        <time>2021-08-18T12:03:16Z</time>
      </trkpt>
      <trkpt lat="43.4307" lon="2.11948">
        <ele>705.1</ele>
        <time>2021-08-18T12:03:22Z</time>
      </trkpt>
      <trkpt lat="43.43091" lon="2.11902">
        <ele>703.6</ele>
        <time>2021-08-18T12:03:28Z</time>
      </trkpt>
      <trkpt lat="43.43116" lon="2.11857">
        <ele>701.5</ele>
        <time>2021-08-18T12:03:34Z</time>
      </trkpt>
      <trkpt lat="43.43141" lon="2.11816">
        <ele>699.3</ele>
        <time>2021-08-18T12:03:40Z</time>
      </trkpt>
      <trkpt lat="43.43168" lon="2.11785">
        <ele>695.3</ele>
        <time>2021-08-18T12:03:46Z</time>
      </trkpt>
      <trkpt lat="43.43179" lon="2.11769">
        <ele>691.3</ele>
        <time>2021-08-18T12:03:51Z</time>
      </trkpt>
      <trkpt lat="43.43185" lon="2.11768">
        <ele>691.8</ele>
        <time>2021-08-18T12:03:57Z</time>
      </trkpt>
      <trkpt lat="43.43186" lon="2.11768">
        <ele>691.9</ele>
        <time>2021-08-18T12:04:03Z</time>
      </trkpt>
      <trkpt lat="43.43186" lon="2.11768">
        <ele>693.5</ele>
        <time>2021-08-18T12:04:08Z</time>
      </trkpt>
      <trkpt lat="43.43186" lon="2.11768">
        <ele>691.7</ele>
        <time>2021-08-18T12:04:14Z</time>
      </trkpt>
      <trkpt lat="43.43186" lon="2.11768">
        <ele>693.5</ele>
        <time>2021-08-18T12:04:19Z</time>
      </trkpt>
      <trkpt lat="43.43186" lon="2.11768">
        <ele>692.3</ele>
        <time>2021-08-18T12:04:25Z</time>
      </trkpt>
      <trkpt lat="43.43186" lon="2.11768">
        <ele>693.1</ele>
        <time>2021-08-18T12:04:30Z</time>
      </trkpt>
      <trkpt lat="43.4319" lon="2.11772">
        <ele>694.2</ele>
        <time>2021-08-18T12:04:35Z</time>
      </trkpt>
      <trkpt lat="43.43196" lon="2.11776">
        <ele>695.5</ele>
        <time>2021-08-18T12:04:41Z</time>
      </trkpt>
      <trkpt lat="43.43196" lon="2.11776">
        <ele>695.7</ele>
        <time>2021-08-18T12:04:46Z</time>
      </trkpt>
      <trkpt lat="43.43196" lon="2.11776">
        <ele>694.9</ele>
        <time>2021-08-18T12:04:52Z</time>
      </trkpt>
      <trkpt lat="43.43201" lon="2.118">
        <ele>694.8</ele>
        <time>2021-08-18T12:04:57Z</time>
      </trkpt>
      <trkpt lat="43.43201" lon="2.11835">
        <ele>697.8</ele>
        <time>2021-08-18T12:05:03Z</time>
      </trkpt>
      <trkpt lat="43.432" lon="2.11882">
        <ele>698.4</ele>
        <time>2021-08-18T12:05:09Z</time>
      </trkpt>
      <trkpt lat="43.43198" lon="2.1193">
        <ele>700.5</ele>
        <time>2021-08-18T12:05:14Z</time>
      </trkpt>
      <trkpt lat="43.4319" lon="2.11988">
        <ele>705.4</ele>
        <time>2021-08-18T12:05:20Z</time>
      </trkpt>
      <trkpt lat="43.43182" lon="2.12034">
        <ele>705.9</ele>
        <time>2021-08-18T12:05:25Z</time>
      </trkpt>
      <trkpt lat="43.43173" lon="2.12095">
        <ele>706.6</ele>
        <time>2021-08-18T12:05:31Z</time>
      </trkpt>
      <trkpt lat="43.43176" lon="2.12146">
        <ele>710.2</ele>
        <time>2021-08-18T12:05:36Z</time>
      </trkpt>
      <trkpt lat="43.43184" lon="2.12201">
        <ele>710.9</ele>
        <time>2021-08-18T12:05:42Z</time>
      </trkpt>
      <trkpt lat="43.43199" lon="2.12257">
        <ele>711.9</ele>
        <time>2021-08-18T12:05:48Z</time>
      </trkpt>
      <trkpt lat="43.43198" lon="2.12308">
        <ele>715.9</ele>
        <time>2021-08-18T12:05:53Z</time>
      </trkpt>
      <trkpt lat="43.43194" lon="2.12375">
        <ele>718.7</ele>
        <time>2021-08-18T12:05:59Z</time>
      </trkpt>
      <trkpt lat="43.43195" lon="2.12443">
        <ele>714.3</ele>
        <time>2021-08-18T12:06:05Z</time>
      </trkpt>
      <trkpt lat="43.432" lon="2.12496">
        <ele>711.5</ele>
        <time>2021-08-18T12:06:10Z</time>
      </trkpt>
      <trkpt lat="43.43207" lon="2.12559">
        <ele>713.2</ele>
        <time>2021-08-18T12:06:16Z</time>
      </trkpt>
      <trkpt lat="43.43232" lon="2.1261">
        <ele>711.8</ele>
        <time>2021-08-18T12:06:22Z</time>
      </trkpt>
      <trkpt lat="43.43254" lon="2.12644">
        <ele>709.4</ele>
        <time>2021-08-18T12:06:27Z</time>
      </trkpt>
      <trkpt lat="43.4328" lon="2.12678">
        <ele>706</ele>
        <time>2021-08-18T12:06:33Z</time>
      </trkpt>
      <trkpt lat="43.43312" lon="2.12716">
        <ele>701.9</ele>
        <time>2021-08-18T12:06:39Z</time>
      </trkpt>
      <trkpt lat="43.43343" lon="2.12751">
        <ele>701.1</ele>
        <time>2021-08-18T12:06:44Z</time>
      </trkpt>
      <trkpt lat="43.43371" lon="2.12778">
        <ele>698.1</ele>
        <time>2021-08-18T12:06:49Z</time>
      </trkpt>
      <trkpt lat="43.43403" lon="2.12819">
        <ele>698.2</ele>
        <time>2021-08-18T12:06:55Z</time>
      </trkpt>
      <trkpt lat="43.4343" lon="2.12875">
        <ele>701.1</ele>
        <time>2021-08-18T12:07:01Z</time>
      </trkpt>
      <trkpt lat="43.43449" lon="2.12918">
        <ele>699.4</ele>
        <time>2021-08-18T12:07:06Z</time>
      </trkpt>
      <trkpt lat="43.43468" lon="2.12958">
        <ele>697.9</ele>
        <time>2021-08-18T12:07:11Z</time>
      </trkpt>
      <trkpt lat="43.43489" lon="2.1301">
        <ele>700.6</ele>
        <time>2021-08-18T12:07:17Z</time>
      </trkpt>
      <trkpt lat="43.43498" lon="2.13072">
        <ele>700.9</ele>
        <time>2021-08-18T12:07:23Z</time>
      </trkpt>
      <trkpt lat="43.43502" lon="2.13125">
        <ele>699</ele>
        <time>2021-08-18T12:07:28Z</time>
      </trkpt>
      <trkpt lat="43.43508" lon="2.13182">
        <ele>698.6</ele>
        <time>2021-08-18T12:07:34Z</time>
      </trkpt>
      <trkpt lat="43.4352" lon="2.13228">
        <ele>699.6</ele>
        <time>2021-08-18T12:07:40Z</time>
      </trkpt>
      <trkpt lat="43.43539" lon="2.13265">
        <ele>701.3</ele>
        <time>2021-08-18T12:07:46Z</time>
      </trkpt>
      <trkpt lat="43.43552" lon="2.13294">
        <ele>703.2</ele>
        <time>2021-08-18T12:07:51Z</time>
      </trkpt>
      <trkpt lat="43.43562" lon="2.1332">
        <ele>704</ele>
        <time>2021-08-18T12:07:57Z</time>
      </trkpt>
      <trkpt lat="43.4357" lon="2.13352">
        <ele>705.5</ele>
        <time>2021-08-18T12:08:02Z</time>
      </trkpt>
      <trkpt lat="43.43574" lon="2.13385">
        <ele>705.2</ele>
        <time>2021-08-18T12:08:08Z</time>
      </trkpt>
      <trkpt lat="43.43581" lon="2.13413">
        <ele>707.4</ele>
        <time>2021-08-18T12:08:13Z</time>
      </trkpt>
      <trkpt lat="43.43591" lon="2.13447">
        <ele>709.7</ele>
        <time>2021-08-18T12:08:19Z</time>
      </trkpt>
      <trkpt lat="43.43601" lon="2.13479">
        <ele>710.3</ele>
        <time>2021-08-18T12:08:25Z</time>
      </trkpt>
      <trkpt lat="43.43619" lon="2.13507">
        <ele>711.2</ele>
        <time>2021-08-18T12:08:31Z</time>
      </trkpt>
      <trkpt lat="43.43635" lon="2.13526">
        <ele>711.3</ele>
        <time>2021-08-18T12:08:36Z</time>
      </trkpt>
      <trkpt lat="43.43651" lon="2.13545">
        <ele>713.3</ele>
        <time>2021-08-18T12:08:41Z</time>
      </trkpt>
      <trkpt lat="43.43671" lon="2.13566">
        <ele>715.8</ele>
        <time>2021-08-18T12:08:47Z</time>
      </trkpt>
      <trkpt lat="43.43684" lon="2.13584">
        <ele>716.3</ele>
        <time>2021-08-18T12:08:52Z</time>
      </trkpt>
      <trkpt lat="43.43707" lon="2.13603">
        <ele>718.6</ele>
        <time>2021-08-18T12:08:58Z</time>
      </trkpt>
      <trkpt lat="43.43728" lon="2.13624">
        <ele>723.4</ele>
        <time>2021-08-18T12:09:04Z</time>
      </trkpt>
      <trkpt lat="43.43748" lon="2.13642">
        <ele>721.5</ele>
        <time>2021-08-18T12:09:09Z</time>
      </trkpt>
      <trkpt lat="43.43769" lon="2.1366">
        <ele>724.3</ele>
        <time>2021-08-18T12:09:14Z</time>
      </trkpt>
      <trkpt lat="43.43798" lon="2.13679">
        <ele>725</ele>
        <time>2021-08-18T12:09:20Z</time>
      </trkpt>
      <trkpt lat="43.43824" lon="2.13692">
        <ele>723.4</ele>
        <time>2021-08-18T12:09:26Z</time>
      </trkpt>
      <trkpt lat="43.43851" lon="2.13711">
        <ele>727.3</ele>
        <time>2021-08-18T12:09:32Z</time>
      </trkpt>
      <trkpt lat="43.43871" lon="2.13736">
        <ele>728.2</ele>
        <time>2021-08-18T12:09:37Z</time>
      </trkpt>
      <trkpt lat="43.43884" lon="2.13777">
        <ele>729.9</ele>
        <time>2021-08-18T12:09:43Z</time>
      </trkpt>
      <trkpt lat="43.43886" lon="2.13821">
        <ele>731.5</ele>
        <time>2021-08-18T12:09:49Z</time>
      </trkpt>
      <trkpt lat="43.43885" lon="2.13859">
        <ele>732.3</ele>
        <time>2021-08-18T12:09:54Z</time>
      </trkpt>
      <trkpt lat="43.43891" lon="2.13904">
        <ele>732.9</ele>
        <time>2021-08-18T12:10:00Z</time>
      </trkpt>
      <trkpt lat="43.43912" lon="2.13927">
        <ele>732</ele>
        <time>2021-08-18T12:10:05Z</time>
      </trkpt>
      <trkpt lat="43.43933" lon="2.1396">
        <ele>734.8</ele>
        <time>2021-08-18T12:10:11Z</time>
      </trkpt>
      <trkpt lat="43.43935" lon="2.14001">
        <ele>736.4</ele>
        <time>2021-08-18T12:10:17Z</time>
      </trkpt>
      <trkpt lat="43.43939" lon="2.14044">
        <ele>737.5</ele>
        <time>2021-08-18T12:10:23Z</time>
      </trkpt>
      <trkpt lat="43.43947" lon="2.14079">
        <ele>740.6</ele>
        <time>2021-08-18T12:10:28Z</time>
      </trkpt>
      <trkpt lat="43.43962" lon="2.1412">
        <ele>743.8</ele>
        <time>2021-08-18T12:10:34Z</time>
      </trkpt>
      <trkpt lat="43.43998" lon="2.1412">
        <ele>740.9</ele>
        <time>2021-08-18T12:10:40Z</time>
      </trkpt>
      <trkpt lat="43.44022" lon="2.14128">
        <ele>743.9</ele>
        <time>2021-08-18T12:10:45Z</time>
      </trkpt>
      <trkpt lat="43.44026" lon="2.14169">
        <ele>742.9</ele>
        <time>2021-08-18T12:10:51Z</time>
      </trkpt>
      <trkpt lat="43.44025" lon="2.14214">
        <ele>743.9</ele>
        <time>2021-08-18T12:10:57Z</time>
      </trkpt>
      <trkpt lat="43.4404" lon="2.14245">
        <ele>744.3</ele>
        <time>2021-08-18T12:11:02Z</time>
      </trkpt>
      <trkpt lat="43.44061" lon="2.14276">
        <ele>743.6</ele>
        <time>2021-08-18T12:11:08Z</time>
      </trkpt>
      <trkpt lat="43.44092" lon="2.14286">
        <ele>746</ele>
        <time>2021-08-18T12:11:14Z</time>
      </trkpt>
      <trkpt lat="43.44122" lon="2.14276">
        <ele>746.1</ele>
        <time>2021-08-18T12:11:20Z</time>
      </trkpt>
      <trkpt lat="43.44147" lon="2.14272">
        <ele>742.6</ele>
        <time>2021-08-18T12:11:25Z</time>
      </trkpt>
      <trkpt lat="43.44179" lon="2.14279">
        <ele>742.9</ele>
        <time>2021-08-18T12:11:31Z</time>
      </trkpt>
      <trkpt lat="43.44205" lon="2.14291">
        <ele>742.2</ele>
        <time>2021-08-18T12:11:36Z</time>
      </trkpt>
      <trkpt lat="43.44231" lon="2.14309">
        <ele>745</ele>
        <time>2021-08-18T12:11:42Z</time>
      </trkpt>
      <trkpt lat="43.4424" lon="2.14346">
        <ele>745.9</ele>
        <time>2021-08-18T12:11:48Z</time>
      </trkpt>
      <trkpt lat="43.4424" lon="2.14389">
        <ele>744.7</ele>
        <time>2021-08-18T12:11:54Z</time>
      </trkpt>
      <trkpt lat="43.44247" lon="2.14428">
        <ele>740.4</ele>
        <time>2021-08-18T12:11:59Z</time>
      </trkpt>
      <trkpt lat="43.44281" lon="2.14464">
        <ele>744.1</ele>
        <time>2021-08-18T12:12:05Z</time>
      </trkpt>
      <trkpt lat="43.44311" lon="2.1449">
        <ele>746.8</ele>
        <time>2021-08-18T12:12:10Z</time>
      </trkpt>
      <trkpt lat="43.44343" lon="2.1452">
        <ele>749</ele>
        <time>2021-08-18T12:12:16Z</time>
      </trkpt>
      <trkpt lat="43.44368" lon="2.14546">
        <ele>751.8</ele>
        <time>2021-08-18T12:12:21Z</time>
      </trkpt>
      <trkpt lat="43.44393" lon="2.14571">
        <ele>751.6</ele>
        <time>2021-08-18T12:12:26Z</time>
      </trkpt>
      <trkpt lat="43.44422" lon="2.14604">
        <ele>754.1</ele>
        <time>2021-08-18T12:12:32Z</time>
      </trkpt>
      <trkpt lat="43.44441" lon="2.14638">
        <ele>755.2</ele>
        <time>2021-08-18T12:12:37Z</time>
      </trkpt>
      <trkpt lat="43.44449" lon="2.14693">
        <ele>756.9</ele>
        <time>2021-08-18T12:12:43Z</time>
      </trkpt>
      <trkpt lat="43.44448" lon="2.14746">
        <ele>757.4</ele>
        <time>2021-08-18T12:12:49Z</time>
      </trkpt>
      <trkpt lat="43.44446" lon="2.14796">
        <ele>757.5</ele>
        <time>2021-08-18T12:12:54Z</time>
      </trkpt>
      <trkpt lat="43.44443" lon="2.14858">
        <ele>755.5</ele>
        <time>2021-08-18T12:13:00Z</time>
      </trkpt>
      <trkpt lat="43.44438" lon="2.14914">
        <ele>751.8</ele>
        <time>2021-08-18T12:13:06Z</time>
      </trkpt>
      <trkpt lat="43.44429" lon="2.14947">
        <ele>753</ele>
        <time>2021-08-18T12:13:12Z</time>
      </trkpt>
      <trkpt lat="43.44421" lon="2.1497">
        <ele>757.7</ele>
        <time>2021-08-18T12:13:18Z</time>
      </trkpt>
      <trkpt lat="43.44401" lon="2.15">
        <ele>755.8</ele>
        <time>2021-08-18T12:13:24Z</time>
      </trkpt>
      <trkpt lat="43.44378" lon="2.15043">
        <ele>755.4</ele>
        <time>2021-08-18T12:13:29Z</time>
      </trkpt>
      <trkpt lat="43.44361" lon="2.15108">
        <ele>750.5</ele>
        <time>2021-08-18T12:13:35Z</time>
      </trkpt>
      <trkpt lat="43.4435" lon="2.15167">
        <ele>747</ele>
        <time>2021-08-18T12:13:40Z</time>
      </trkpt>
      <trkpt lat="43.44335" lon="2.15236">
        <ele>743.3</ele>
        <time>2021-08-18T12:13:46Z</time>
      </trkpt>
      <trkpt lat="43.44303" lon="2.1528">
        <ele>742.6</ele>
        <time>2021-08-18T12:13:51Z</time>
      </trkpt>
      <trkpt lat="43.44264" lon="2.15325">
        <ele>744.5</ele>
        <time>2021-08-18T12:13:57Z</time>
      </trkpt>
      <trkpt lat="43.44228" lon="2.15367">
        <ele>742.4</ele>
        <time>2021-08-18T12:14:03Z</time>
      </trkpt>
      <trkpt lat="43.44184" lon="2.15388">
        <ele>739.6</ele>
        <time>2021-08-18T12:14:09Z</time>
      </trkpt>
      <trkpt lat="43.44136" lon="2.15386">
        <ele>739.1</ele>
        <time>2021-08-18T12:14:14Z</time>
      </trkpt>
      <trkpt lat="43.44108" lon="2.1545">
        <ele>739.9</ele>
        <time>2021-08-18T12:14:20Z</time>
      </trkpt>
      <trkpt lat="43.44103" lon="2.15526">
        <ele>736.2</ele>
        <time>2021-08-18T12:14:26Z</time>
      </trkpt>
      <trkpt lat="43.44094" lon="2.15592">
        <ele>733.4</ele>
        <time>2021-08-18T12:14:31Z</time>
      </trkpt>
      <trkpt lat="43.44057" lon="2.15631">
        <ele>728.1</ele>
        <time>2021-08-18T12:14:37Z</time>
      </trkpt>
      <trkpt lat="43.44018" lon="2.15581">
        <ele>725.2</ele>
        <time>2021-08-18T12:14:42Z</time>
      </trkpt>
      <trkpt lat="43.43969" lon="2.15588">
        <ele>725.3</ele>
        <time>2021-08-18T12:14:47Z</time>
      </trkpt>
      <trkpt lat="43.43926" lon="2.15634">
        <ele>716.3</ele>
        <time>2021-08-18T12:14:52Z</time>
      </trkpt>
      <trkpt lat="43.43898" lon="2.15695">
        <ele>717.2</ele>
        <time>2021-08-18T12:14:57Z</time>
      </trkpt>
      <trkpt lat="43.43852" lon="2.15734">
        <ele>715.5</ele>
        <time>2021-08-18T12:15:02Z</time>
      </trkpt>
      <trkpt lat="43.43829" lon="2.15806">
        <ele>711.9</ele>
        <time>2021-08-18T12:15:08Z</time>
      </trkpt>
      <trkpt lat="43.43805" lon="2.15889">
        <ele>707.4</ele>
        <time>2021-08-18T12:15:14Z</time>
      </trkpt>
      <trkpt lat="43.43772" lon="2.15968">
        <ele>701.5</ele>
        <time>2021-08-18T12:15:20Z</time>
      </trkpt>
      <trkpt lat="43.43745" lon="2.16034">
        <ele>697.2</ele>
        <time>2021-08-18T12:15:25Z</time>
      </trkpt>
      <trkpt lat="43.43712" lon="2.16116">
        <ele>694</ele>
        <time>2021-08-18T12:15:31Z</time>
      </trkpt>
      <trkpt lat="43.437" lon="2.1619">
        <ele>692.2</ele>
        <time>2021-08-18T12:15:36Z</time>
      </trkpt>
      <trkpt lat="43.43713" lon="2.16279">
        <ele>688.3</ele>
        <time>2021-08-18T12:15:42Z</time>
      </trkpt>
      <trkpt lat="43.43674" lon="2.16353">
        <ele>688.6</ele>
        <time>2021-08-18T12:15:48Z</time>
      </trkpt>
      <trkpt lat="43.43606" lon="2.1636">
        <ele>681.5</ele>
        <time>2021-08-18T12:15:54Z</time>
      </trkpt>
      <trkpt lat="43.43548" lon="2.16327">
        <ele>679.7</ele>
        <time>2021-08-18T12:16:00Z</time>
      </trkpt>
      <trkpt lat="43.43517" lon="2.16244">
        <ele>678.8</ele>
        <time>2021-08-18T12:16:06Z</time>
      </trkpt>
      <trkpt lat="43.43486" lon="2.16206">
        <ele>678.9</ele>
        <time>2021-08-18T12:16:11Z</time>
      </trkpt>
      <trkpt lat="43.43438" lon="2.16252">
        <ele>676.7</ele>
        <time>2021-08-18T12:16:17Z</time>
      </trkpt>
      <trkpt lat="43.43397" lon="2.16318">
        <ele>675.2</ele>
        <time>2021-08-18T12:16:23Z</time>
      </trkpt>
      <trkpt lat="43.4337" lon="2.16367">
        <ele>670.9</ele>
        <time>2021-08-18T12:16:28Z</time>
      </trkpt>
      <trkpt lat="43.43316" lon="2.16399">
        <ele>662.2</ele>
        <time>2021-08-18T12:16:34Z</time>
      </trkpt>
      <trkpt lat="43.43269" lon="2.16394">
        <ele>658.4</ele>
        <time>2021-08-18T12:16:39Z</time>
      </trkpt>
      <trkpt lat="43.4324" lon="2.16343">
        <ele>652.5</ele>
        <time>2021-08-18T12:16:44Z</time>
      </trkpt>
      <trkpt lat="43.43196" lon="2.16352">
        <ele>649.3</ele>
        <time>2021-08-18T12:16:50Z</time>
      </trkpt>
      <trkpt lat="43.43173" lon="2.16386">
        <ele>649.9</ele>
        <time>2021-08-18T12:16:56Z</time>
      </trkpt>
      <trkpt lat="43.43148" lon="2.16402">
        <ele>651.7</ele>
        <time>2021-08-18T12:17:02Z</time>
      </trkpt>
      <trkpt lat="43.4312" lon="2.16418">
        <ele>651.6</ele>
        <time>2021-08-18T12:17:08Z</time>
      </trkpt>
      <trkpt lat="43.4309" lon="2.1644">
        <ele>652.4</ele>
        <time>2021-08-18T12:17:14Z</time>
      </trkpt>
      <trkpt lat="43.43067" lon="2.16469">
        <ele>656.4</ele>
        <time>2021-08-18T12:17:20Z</time>
      </trkpt>
      <trkpt lat="43.43055" lon="2.16509">
        <ele>659.2</ele>
        <time>2021-08-18T12:17:26Z</time>
      </trkpt>
      <trkpt lat="43.43045" lon="2.16548">
        <ele>662.2</ele>
        <time>2021-08-18T12:17:32Z</time>
      </trkpt>
      <trkpt lat="43.43035" lon="2.16586">
        <ele>660.2</ele>
        <time>2021-08-18T12:17:38Z</time>
      </trkpt>
      <trkpt lat="43.4302" lon="2.16616">
        <ele>662.9</ele>
        <time>2021-08-18T12:17:43Z</time>
      </trkpt>
      <trkpt lat="43.43011" lon="2.1665">
        <ele>662.5</ele>
        <time>2021-08-18T12:17:48Z</time>
      </trkpt>
      <trkpt lat="43.43007" lon="2.16688">
        <ele>659.8</ele>
        <time>2021-08-18T12:17:54Z</time>
      </trkpt>
      <trkpt lat="43.43007" lon="2.16728">
        <ele>659.4</ele>
        <time>2021-08-18T12:18:00Z</time>
      </trkpt>
      <trkpt lat="43.43005" lon="2.16767">
        <ele>663.7</ele>
        <time>2021-08-18T12:18:06Z</time>
      </trkpt>
      <trkpt lat="43.43003" lon="2.16808">
        <ele>664.8</ele>
        <time>2021-08-18T12:18:12Z</time>
      </trkpt>
      <trkpt lat="43.43007" lon="2.16847">
        <ele>664.5</ele>
        <time>2021-08-18T12:18:18Z</time>
      </trkpt>
      <trkpt lat="43.43022" lon="2.16876">
        <ele>663.3</ele>
        <time>2021-08-18T12:18:23Z</time>
      </trkpt>
      <trkpt lat="43.4304" lon="2.16908">
        <ele>658.9</ele>
        <time>2021-08-18T12:18:29Z</time>
      </trkpt>
      <trkpt lat="43.43067" lon="2.16946">
        <ele>661.5</ele>
        <time>2021-08-18T12:18:35Z</time>
      </trkpt>
      <trkpt lat="43.43088" lon="2.16984">
        <ele>662</ele>
        <time>2021-08-18T12:18:41Z</time>
      </trkpt>
      <trkpt lat="43.43105" lon="2.17012">
        <ele>658.7</ele>
        <time>2021-08-18T12:18:46Z</time>
      </trkpt>
      <trkpt lat="43.43122" lon="2.17034">
        <ele>658.2</ele>
        <time>2021-08-18T12:18:51Z</time>
      </trkpt>
      <trkpt lat="43.4314" lon="2.17056">
        <ele>660.3</ele>
        <time>2021-08-18T12:18:56Z</time>
      </trkpt>
      <trkpt lat="43.43152" lon="2.17071">
        <ele>661.1</ele>
        <time>2021-08-18T12:19:02Z</time>
      </trkpt>
      <trkpt lat="43.43166" lon="2.17087">
        <ele>662.7</ele>
        <time>2021-08-18T12:19:07Z</time>
      </trkpt>
      <trkpt lat="43.43182" lon="2.17112">
        <ele>660</ele>
        <time>2021-08-18T12:19:13Z</time>
      </trkpt>
      <trkpt lat="43.43197" lon="2.17135">
        <ele>660.3</ele>
        <time>2021-08-18T12:19:18Z</time>
      </trkpt>
      <trkpt lat="43.43219" lon="2.1716">
        <ele>663.4</ele>
        <time>2021-08-18T12:19:24Z</time>
      </trkpt>
      <trkpt lat="43.4324" lon="2.17182">
        <ele>665.9</ele>
        <time>2021-08-18T12:19:30Z</time>
      </trkpt>
      <trkpt lat="43.43261" lon="2.17199">
        <ele>667.3</ele>
        <time>2021-08-18T12:19:36Z</time>
      </trkpt>
      <trkpt lat="43.43287" lon="2.17212">
        <ele>662.6</ele>
        <time>2021-08-18T12:19:42Z</time>
      </trkpt>
      <trkpt lat="43.43311" lon="2.17223">
        <ele>665.7</ele>
        <time>2021-08-18T12:19:48Z</time>
      </trkpt>
      <trkpt lat="43.43334" lon="2.17234">
        <ele>669.1</ele>
        <time>2021-08-18T12:19:54Z</time>
      </trkpt>
      <trkpt lat="43.43346" lon="2.17238">
        <ele>670.8</ele>
        <time>2021-08-18T12:19:59Z</time>
      </trkpt>
      <trkpt lat="43.43359" lon="2.17244">
        <ele>670</ele>
        <time>2021-08-18T12:20:05Z</time>
      </trkpt>
      <trkpt lat="43.43374" lon="2.17251">
        <ele>670.3</ele>
        <time>2021-08-18T12:20:11Z</time>
      </trkpt>
      <trkpt lat="43.4339" lon="2.17257">
        <ele>670.7</ele>
        <time>2021-08-18T12:20:16Z</time>
      </trkpt>
      <trkpt lat="43.43406" lon="2.17265">
        <ele>672.6</ele>
        <time>2021-08-18T12:20:21Z</time>
      </trkpt>
      <trkpt lat="43.43423" lon="2.17272">
        <ele>672.9</ele>
        <time>2021-08-18T12:20:26Z</time>
      </trkpt>
      <trkpt lat="43.43445" lon="2.17282">
        <ele>675.7</ele>
        <time>2021-08-18T12:20:32Z</time>
      </trkpt>
      <trkpt lat="43.43467" lon="2.17291">
        <ele>675.9</ele>
        <time>2021-08-18T12:20:38Z</time>
      </trkpt>
      <trkpt lat="43.43489" lon="2.173">
        <ele>678.8</ele>
        <time>2021-08-18T12:20:44Z</time>
      </trkpt>
      <trkpt lat="43.43511" lon="2.17308">
        <ele>679.6</ele>
        <time>2021-08-18T12:20:50Z</time>
      </trkpt>
      <trkpt lat="43.43528" lon="2.17316">
        <ele>680.7</ele>
        <time>2021-08-18T12:20:55Z</time>
      </trkpt>
      <trkpt lat="43.43549" lon="2.17325">
        <ele>681.4</ele>
        <time>2021-08-18T12:21:01Z</time>
      </trkpt>
      <trkpt lat="43.43566" lon="2.17332">
        <ele>682.3</ele>
        <time>2021-08-18T12:21:06Z</time>
      </trkpt>
      <trkpt lat="43.43586" lon="2.17343">
        <ele>684.1</ele>
        <time>2021-08-18T12:21:12Z</time>
      </trkpt>
      <trkpt lat="43.436" lon="2.17359">
        <ele>684.7</ele>
        <time>2021-08-18T12:21:17Z</time>
      </trkpt>
      <trkpt lat="43.43615" lon="2.17382">
        <ele>688.3</ele>
        <time>2021-08-18T12:21:23Z</time>
      </trkpt>
      <trkpt lat="43.43625" lon="2.17402">
        <ele>688.8</ele>
        <time>2021-08-18T12:21:28Z</time>
      </trkpt>
      <trkpt lat="43.43633" lon="2.17419">
        <ele>689</ele>
        <time>2021-08-18T12:21:33Z</time>
      </trkpt>
      <trkpt lat="43.43644" lon="2.17441">
        <ele>688.9</ele>
        <time>2021-08-18T12:21:38Z</time>
      </trkpt>
      <trkpt lat="43.43658" lon="2.17466">
        <ele>689.6</ele>
        <time>2021-08-18T12:21:44Z</time>
      </trkpt>
      <trkpt lat="43.43673" lon="2.1749">
        <ele>690.9</ele>
        <time>2021-08-18T12:21:50Z</time>
      </trkpt>
      <trkpt lat="43.43683" lon="2.17504">
        <ele>689.5</ele>
        <time>2021-08-18T12:21:55Z</time>
      </trkpt>
      <trkpt lat="43.43703" lon="2.17525">
        <ele>689.3</ele>
        <time>2021-08-18T12:22:01Z</time>
      </trkpt>
      <trkpt lat="43.43726" lon="2.17547">
        <ele>691</ele>
        <time>2021-08-18T12:22:07Z</time>
      </trkpt>
      <trkpt lat="43.43745" lon="2.17564">
        <ele>691.3</ele>
        <time>2021-08-18T12:22:12Z</time>
      </trkpt>
      <trkpt lat="43.43763" lon="2.17582">
        <ele>691.5</ele>
        <time>2021-08-18T12:22:17Z</time>
      </trkpt>
      <trkpt lat="43.43785" lon="2.17602">
        <ele>692.4</ele>
        <time>2021-08-18T12:22:23Z</time>
      </trkpt>
      <trkpt lat="43.43807" lon="2.17622">
        <ele>692.9</ele>
        <time>2021-08-18T12:22:29Z</time>
      </trkpt>
      <trkpt lat="43.43832" lon="2.17642">
        <ele>693</ele>
        <time>2021-08-18T12:22:35Z</time>
      </trkpt>
      <trkpt lat="43.43852" lon="2.17656">
        <ele>692.3</ele>
        <time>2021-08-18T12:22:40Z</time>
      </trkpt>
      <trkpt lat="43.43877" lon="2.17675">
        <ele>692.4</ele>
        <time>2021-08-18T12:22:46Z</time>
      </trkpt>
      <trkpt lat="43.43899" lon="2.17691">
        <ele>692</ele>
        <time>2021-08-18T12:22:51Z</time>
      </trkpt>
      <trkpt lat="43.43925" lon="2.17711">
        <ele>690.3</ele>
        <time>2021-08-18T12:22:57Z</time>
      </trkpt>
      <trkpt lat="43.43948" lon="2.17727">
        <ele>690</ele>
        <time>2021-08-18T12:23:02Z</time>
      </trkpt>
      <trkpt lat="43.43976" lon="2.17741">
        <ele>691.2</ele>
        <time>2021-08-18T12:23:08Z</time>
      </trkpt>
      <trkpt lat="43.44007" lon="2.17751">
        <ele>689.4</ele>
        <time>2021-08-18T12:23:14Z</time>
      </trkpt>
      <trkpt lat="43.44041" lon="2.17758">
        <ele>685.9</ele>
        <time>2021-08-18T12:23:20Z</time>
      </trkpt>
      <trkpt lat="43.4408" lon="2.1777">
        <ele>684.6</ele>
        <time>2021-08-18T12:23:26Z</time>
      </trkpt>
      <trkpt lat="43.44116" lon="2.17789">
        <ele>683.6</ele>
        <time>2021-08-18T12:23:32Z</time>
      </trkpt>
      <trkpt lat="43.44149" lon="2.17819">
        <ele>680.9</ele>
        <time>2021-08-18T12:23:38Z</time>
      </trkpt>
      <trkpt lat="43.44176" lon="2.17854">
        <ele>681.7</ele>
        <time>2021-08-18T12:23:44Z</time>
      </trkpt>
      <trkpt lat="43.44191" lon="2.17887">
        <ele>682.2</ele>
        <time>2021-08-18T12:23:50Z</time>
      </trkpt>
      <trkpt lat="43.44201" lon="2.17923">
        <ele>682.3</ele>
        <time>2021-08-18T12:23:56Z</time>
      </trkpt>
      <trkpt lat="43.44209" lon="2.17949">
        <ele>680</ele>
        <time>2021-08-18T12:24:01Z</time>
      </trkpt>
      <trkpt lat="43.44219" lon="2.17984">
        <ele>679.3</ele>
        <time>2021-08-18T12:24:07Z</time>
      </trkpt>
      <trkpt lat="43.44227" lon="2.18009">
        <ele>676.5</ele>
        <time>2021-08-18T12:24:12Z</time>
      </trkpt>
      <trkpt lat="43.4424" lon="2.18046">
        <ele>680.5</ele>
        <time>2021-08-18T12:24:18Z</time>
      </trkpt>
      <trkpt lat="43.44265" lon="2.18074">
        <ele>677.7</ele>
        <time>2021-08-18T12:24:24Z</time>
      </trkpt>
      <trkpt lat="43.44291" lon="2.18097">
        <ele>674.3</ele>
        <time>2021-08-18T12:24:29Z</time>
      </trkpt>
      <trkpt lat="43.44316" lon="2.18132">
        <ele>674</ele>
        <time>2021-08-18T12:24:35Z</time>
      </trkpt>
      <trkpt lat="43.44329" lon="2.1816">
        <ele>675.3</ele>
        <time>2021-08-18T12:24:40Z</time>
      </trkpt>
      <trkpt lat="43.44351" lon="2.18201">
        <ele>677.6</ele>
        <time>2021-08-18T12:24:46Z</time>
      </trkpt>
      <trkpt lat="43.44371" lon="2.18236">
        <ele>682.3</ele>
        <time>2021-08-18T12:24:51Z</time>
      </trkpt>
      <trkpt lat="43.44388" lon="2.18275">
        <ele>686</ele>
        <time>2021-08-18T12:24:56Z</time>
      </trkpt>
      <trkpt lat="43.44403" lon="2.18324">
        <ele>684.5</ele>
        <time>2021-08-18T12:25:02Z</time>
      </trkpt>
      <trkpt lat="43.44414" lon="2.18372">
        <ele>684.4</ele>
        <time>2021-08-18T12:25:08Z</time>
      </trkpt>
      <trkpt lat="43.44424" lon="2.18415">
        <ele>684.8</ele>
        <time>2021-08-18T12:25:13Z</time>
      </trkpt>
      <trkpt lat="43.44436" lon="2.18467">
        <ele>687.3</ele>
        <time>2021-08-18T12:25:19Z</time>
      </trkpt>
      <trkpt lat="43.44447" lon="2.18509">
        <ele>685.4</ele>
        <time>2021-08-18T12:25:24Z</time>
      </trkpt>
      <trkpt lat="43.44456" lon="2.18557">
        <ele>685.1</ele>
        <time>2021-08-18T12:25:30Z</time>
      </trkpt>
      <trkpt lat="43.44467" lon="2.18597">
        <ele>689.3</ele>
        <time>2021-08-18T12:25:35Z</time>
      </trkpt>
      <trkpt lat="43.44476" lon="2.18646">
        <ele>691.9</ele>
        <time>2021-08-18T12:25:41Z</time>
      </trkpt>
      <trkpt lat="43.44485" lon="2.1869">
        <ele>690.7</ele>
        <time>2021-08-18T12:25:47Z</time>
      </trkpt>
      <trkpt lat="43.44493" lon="2.18725">
        <ele>695</ele>
        <time>2021-08-18T12:25:52Z</time>
      </trkpt>
      <trkpt lat="43.44503" lon="2.18755">
        <ele>691.3</ele>
        <time>2021-08-18T12:25:58Z</time>
      </trkpt>
      <trkpt lat="43.44504" lon="2.18785">
        <ele>691.5</ele>
        <time>2021-08-18T12:26:04Z</time>
      </trkpt>
      <trkpt lat="43.44499" lon="2.18799">
        <ele>695.3</ele>
        <time>2021-08-18T12:26:09Z</time>
      </trkpt>
      <trkpt lat="43.44498" lon="2.1881">
        <ele>696.6</ele>
        <time>2021-08-18T12:26:14Z</time>
      </trkpt>
      <trkpt lat="43.44495" lon="2.18824">
        <ele>698.9</ele>
        <time>2021-08-18T12:26:20Z</time>
      </trkpt>
      <trkpt lat="43.44486" lon="2.18837">
        <ele>703.1</ele>
        <time>2021-08-18T12:26:26Z</time>
      </trkpt>
      <trkpt lat="43.44474" lon="2.18859">
        <ele>702.6</ele>
        <time>2021-08-18T12:26:32Z</time>
      </trkpt>
      <trkpt lat="43.44462" lon="2.18883">
        <ele>703.2</ele>
        <time>2021-08-18T12:26:38Z</time>
      </trkpt>
      <trkpt lat="43.4445" lon="2.18902">
        <ele>705.4</ele>
        <time>2021-08-18T12:26:44Z</time>
      </trkpt>
      <trkpt lat="43.44439" lon="2.18924">
        <ele>706.1</ele>
        <time>2021-08-18T12:26:50Z</time>
      </trkpt>
      <trkpt lat="43.44427" lon="2.18953">
        <ele>706.4</ele>
        <time>2021-08-18T12:26:56Z</time>
      </trkpt>
      <trkpt lat="43.44412" lon="2.1896">
        <ele>705.4</ele>
        <time>2021-08-18T12:27:01Z</time>
      </trkpt>
      <trkpt lat="43.44401" lon="2.18949">
        <ele>703.1</ele>
        <time>2021-08-18T12:27:07Z</time>
      </trkpt>
      <trkpt lat="43.44382" lon="2.18945">
        <ele>703.8</ele>
        <time>2021-08-18T12:27:12Z</time>
      </trkpt>
      <trkpt lat="43.4435" lon="2.18938">
        <ele>700.1</ele>
        <time>2021-08-18T12:27:18Z</time>
      </trkpt>
      <trkpt lat="43.44323" lon="2.18932">
        <ele>698.8</ele>
        <time>2021-08-18T12:27:23Z</time>
      </trkpt>
      <trkpt lat="43.44309" lon="2.18919">
        <ele>697.3</ele>
        <time>2021-08-18T12:27:29Z</time>
      </trkpt>
      <trkpt lat="43.44313" lon="2.1892">
        <ele>695.4</ele>
        <time>2021-08-18T12:27:35Z</time>
      </trkpt>
      <trkpt lat="43.44312" lon="2.1892">
        <ele>695</ele>
        <time>2021-08-18T12:27:40Z</time>
      </trkpt>
      <trkpt lat="43.44312" lon="2.1892">
        <ele>696.4</ele>
        <time>2021-08-18T12:27:46Z</time>
      </trkpt>
      <trkpt lat="43.44312" lon="2.1892">
        <ele>695.9</ele>
        <time>2021-08-18T12:27:51Z</time>
      </trkpt>
      <trkpt lat="43.44312" lon="2.1892">
        <ele>696.9</ele>
        <time>2021-08-18T12:27:57Z</time>
      </trkpt>
      <trkpt lat="43.44312" lon="2.1892">
        <ele>695.5</ele>
        <time>2021-08-18T12:28:02Z</time>
      </trkpt>
      <trkpt lat="43.44312" lon="2.1892">
        <ele>694.6</ele>
        <time>2021-08-18T12:28:08Z</time>
      </trkpt>
      <trkpt lat="43.44312" lon="2.1892">
        <ele>696</ele>
        <time>2021-08-18T12:28:14Z</time>
      </trkpt>
      <trkpt lat="43.44312" lon="2.1892">
        <ele>697.6</ele>
        <time>2021-08-18T12:28:20Z</time>
      </trkpt>
      <trkpt lat="43.44312" lon="2.1892">
        <ele>696.1</ele>
        <time>2021-08-18T12:28:26Z</time>
      </trkpt>
      <trkpt lat="43.44312" lon="2.1892">
        <ele>695.3</ele>
        <time>2021-08-18T12:28:31Z</time>
      </trkpt>
      <trkpt lat="43.44312" lon="2.1892">
        <ele>695.8</ele>
        <time>2021-08-18T12:28:37Z</time>
      </trkpt>
      <trkpt lat="43.44312" lon="2.1892">
        <ele>694.7</ele>
        <time>2021-08-18T12:28:43Z</time>
      </trkpt>
      <trkpt lat="43.44313" lon="2.18928">
        <ele>692.1</ele>
        <time>2021-08-18T12:28:49Z</time>
      </trkpt>
      <trkpt lat="43.44314" lon="2.18927">
        <ele>693.1</ele>
        <time>2021-08-18T12:28:54Z</time>
      </trkpt>
    </trkseg>
  </trk>
</gpx>